<?xml version="1.0" encoding="utf-8"?>
<gpx xmlns:xsi="http://www.w3.org/2001/XMLSchema-instance" xmlns:xsd="http://www.w3.org/2001/XMLSchema" version="1.1" creator="Shapelink.com" xmlns="http://www.topografix.com/GPX/1/1" xmlns:gpxtpx="http://www.garmin.com/xmlschemas/TrackPointExtension/v1">
  <metadata>
    <name>Sykling 27.17 km, 2013-04-28</name>
    <desc></desc>
    <author><name>Mikael Blom</name></author> 
    <time>2013-04-28T10:35:57Z</time>
  </metadata>
  <trk>
    <name>Sykling 27.17 km, 2013-04-28</name>
    <trkseg>
      <trkpt lat="59.9788107" lon="17.7393003">
        <ele>37.1481</ele>
        <time>2013-04-28T10:35:57Z</time>
      </trkpt>
      <trkpt lat="59.9787983" lon="17.7393068">
        <ele>38.1094</ele>
        <time>2013-04-28T10:35:58Z</time>
      </trkpt>
      <trkpt lat="59.978777" lon="17.7393118">
        <ele>38.5901</ele>
        <time>2013-04-28T10:35:59Z</time>
      </trkpt>
      <trkpt lat="59.9787568" lon="17.7393116">
        <ele>39.5513</ele>
        <time>2013-04-28T10:36:00Z</time>
      </trkpt>
      <trkpt lat="59.9787273" lon="17.7393094">
        <ele>40.0321</ele>
        <time>2013-04-28T10:36:01Z</time>
      </trkpt>
      <trkpt lat="59.9786879" lon="17.7392968">
        <ele>40.0321</ele>
        <time>2013-04-28T10:36:02Z</time>
      </trkpt>
      <trkpt lat="59.9786501" lon="17.7392824">
        <ele>40.0321</ele>
        <time>2013-04-28T10:36:03Z</time>
      </trkpt>
      <trkpt lat="59.9786121" lon="17.739273">
        <ele>40.0321</ele>
        <time>2013-04-28T10:36:04Z</time>
      </trkpt>
      <trkpt lat="59.9785749" lon="17.7392651">
        <ele>40.5128</ele>
        <time>2013-04-28T10:36:05Z</time>
      </trkpt>
      <trkpt lat="59.9785424" lon="17.7392598">
        <ele>40.9934</ele>
        <time>2013-04-28T10:36:06Z</time>
      </trkpt>
      <trkpt lat="59.978516" lon="17.7392771">
        <ele>40.9934</ele>
        <time>2013-04-28T10:36:07Z</time>
      </trkpt>
      <trkpt lat="59.9784978" lon="17.7393124">
        <ele>40.5128</ele>
        <time>2013-04-28T10:36:08Z</time>
      </trkpt>
      <trkpt lat="59.9784947" lon="17.739337">
        <ele>40.5128</ele>
        <time>2013-04-28T10:36:09Z</time>
      </trkpt>
      <trkpt lat="59.9785038" lon="17.7393469">
        <ele>40.0321</ele>
        <time>2013-04-28T10:36:10Z</time>
      </trkpt>
      <trkpt lat="59.9785196" lon="17.7393443">
        <ele>40.5128</ele>
        <time>2013-04-28T10:36:11Z</time>
      </trkpt>
      <trkpt lat="59.9785605" lon="17.7393434">
        <ele>40.5128</ele>
        <time>2013-04-28T10:36:12Z</time>
      </trkpt>
      <trkpt lat="59.9786114" lon="17.7393521">
        <ele>40.5128</ele>
        <time>2013-04-28T10:36:13Z</time>
      </trkpt>
      <trkpt lat="59.978665" lon="17.7393642">
        <ele>40.5128</ele>
        <time>2013-04-28T10:36:14Z</time>
      </trkpt>
      <trkpt lat="59.9787201" lon="17.7393755">
        <ele>40.0321</ele>
        <time>2013-04-28T10:36:15Z</time>
      </trkpt>
      <trkpt lat="59.9787802" lon="17.7393805">
        <ele>39.5513</ele>
        <time>2013-04-28T10:36:16Z</time>
      </trkpt>
      <trkpt lat="59.9788422" lon="17.7393647">
        <ele>40.0321</ele>
        <time>2013-04-28T10:36:17Z</time>
      </trkpt>
      <trkpt lat="59.978906" lon="17.7393331">
        <ele>40.5128</ele>
        <time>2013-04-28T10:36:18Z</time>
      </trkpt>
      <trkpt lat="59.978964" lon="17.7392963">
        <ele>40.5128</ele>
        <time>2013-04-28T10:36:19Z</time>
      </trkpt>
      <trkpt lat="59.9790209" lon="17.7392528">
        <ele>41.474</ele>
        <time>2013-04-28T10:36:20Z</time>
      </trkpt>
      <trkpt lat="59.9790827" lon="17.739191">
        <ele>41.474</ele>
        <time>2013-04-28T10:36:21Z</time>
      </trkpt>
      <trkpt lat="59.9791407" lon="17.7391507">
        <ele>41.9547</ele>
        <time>2013-04-28T10:36:22Z</time>
      </trkpt>
      <trkpt lat="59.9791983" lon="17.7391124">
        <ele>41.9547</ele>
        <time>2013-04-28T10:36:23Z</time>
      </trkpt>
      <trkpt lat="59.9792506" lon="17.7390778">
        <ele>41.9547</ele>
        <time>2013-04-28T10:36:24Z</time>
      </trkpt>
      <trkpt lat="59.9793005" lon="17.7390445">
        <ele>41.9547</ele>
        <time>2013-04-28T10:36:25Z</time>
      </trkpt>
      <trkpt lat="59.9793485" lon="17.7390122">
        <ele>41.9547</ele>
        <time>2013-04-28T10:36:26Z</time>
      </trkpt>
      <trkpt lat="59.9793965" lon="17.7389756">
        <ele>41.9547</ele>
        <time>2013-04-28T10:36:27Z</time>
      </trkpt>
      <trkpt lat="59.9794425" lon="17.7389325">
        <ele>41.9547</ele>
        <time>2013-04-28T10:36:28Z</time>
      </trkpt>
      <trkpt lat="59.9794873" lon="17.7389035">
        <ele>41.9547</ele>
        <time>2013-04-28T10:36:29Z</time>
      </trkpt>
      <trkpt lat="59.9795338" lon="17.7388815">
        <ele>42.4354</ele>
        <time>2013-04-28T10:36:30Z</time>
      </trkpt>
      <trkpt lat="59.9795799" lon="17.738855">
        <ele>42.916</ele>
        <time>2013-04-28T10:36:31Z</time>
      </trkpt>
      <trkpt lat="59.9796275" lon="17.7388316">
        <ele>42.916</ele>
        <time>2013-04-28T10:36:32Z</time>
      </trkpt>
      <trkpt lat="59.9796748" lon="17.7388114">
        <ele>43.3966</ele>
        <time>2013-04-28T10:36:33Z</time>
      </trkpt>
      <trkpt lat="59.9797214" lon="17.738788">
        <ele>43.3966</ele>
        <time>2013-04-28T10:36:34Z</time>
      </trkpt>
      <trkpt lat="59.9797691" lon="17.7387641">
        <ele>43.8773</ele>
        <time>2013-04-28T10:36:35Z</time>
      </trkpt>
      <trkpt lat="59.9798158" lon="17.7387423">
        <ele>44.358</ele>
        <time>2013-04-28T10:36:36Z</time>
      </trkpt>
      <trkpt lat="59.9798667" lon="17.7387385">
        <ele>44.358</ele>
        <time>2013-04-28T10:36:37Z</time>
      </trkpt>
      <trkpt lat="59.9799211" lon="17.7387395">
        <ele>44.8386</ele>
        <time>2013-04-28T10:36:38Z</time>
      </trkpt>
      <trkpt lat="59.9799793" lon="17.7387467">
        <ele>44.8386</ele>
        <time>2013-04-28T10:36:39Z</time>
      </trkpt>
      <trkpt lat="59.9800336" lon="17.7387511">
        <ele>44.8386</ele>
        <time>2013-04-28T10:36:40Z</time>
      </trkpt>
      <trkpt lat="59.9800875" lon="17.7387669">
        <ele>44.358</ele>
        <time>2013-04-28T10:36:41Z</time>
      </trkpt>
      <trkpt lat="59.9801399" lon="17.7387714">
        <ele>44.358</ele>
        <time>2013-04-28T10:36:42Z</time>
      </trkpt>
      <trkpt lat="59.9801851" lon="17.7387833">
        <ele>44.358</ele>
        <time>2013-04-28T10:36:43Z</time>
      </trkpt>
      <trkpt lat="59.9802316" lon="17.7387954">
        <ele>44.358</ele>
        <time>2013-04-28T10:36:44Z</time>
      </trkpt>
      <trkpt lat="59.9802731" lon="17.7388011">
        <ele>44.8386</ele>
        <time>2013-04-28T10:36:45Z</time>
      </trkpt>
      <trkpt lat="59.9803162" lon="17.7387938">
        <ele>45.3192</ele>
        <time>2013-04-28T10:36:46Z</time>
      </trkpt>
      <trkpt lat="59.9803623" lon="17.7387765">
        <ele>45.7999</ele>
        <time>2013-04-28T10:36:47Z</time>
      </trkpt>
      <trkpt lat="59.9804145" lon="17.7387716">
        <ele>45.7999</ele>
        <time>2013-04-28T10:36:48Z</time>
      </trkpt>
      <trkpt lat="59.9804624" lon="17.7387648">
        <ele>46.2806</ele>
        <time>2013-04-28T10:36:49Z</time>
      </trkpt>
      <trkpt lat="59.9805119" lon="17.7387496">
        <ele>46.7612</ele>
        <time>2013-04-28T10:36:50Z</time>
      </trkpt>
      <trkpt lat="59.9805636" lon="17.7387322">
        <ele>46.2806</ele>
        <time>2013-04-28T10:36:51Z</time>
      </trkpt>
      <trkpt lat="59.9806117" lon="17.7387183">
        <ele>46.7612</ele>
        <time>2013-04-28T10:36:52Z</time>
      </trkpt>
      <trkpt lat="59.9806598" lon="17.7387053">
        <ele>46.7612</ele>
        <time>2013-04-28T10:36:53Z</time>
      </trkpt>
      <trkpt lat="59.9807097" lon="17.7386928">
        <ele>46.7612</ele>
        <time>2013-04-28T10:36:54Z</time>
      </trkpt>
      <trkpt lat="59.9807579" lon="17.7386825">
        <ele>46.7612</ele>
        <time>2013-04-28T10:36:55Z</time>
      </trkpt>
      <trkpt lat="59.9808029" lon="17.7386664">
        <ele>47.2418</ele>
        <time>2013-04-28T10:36:56Z</time>
      </trkpt>
      <trkpt lat="59.9808466" lon="17.7386486">
        <ele>47.2418</ele>
        <time>2013-04-28T10:36:57Z</time>
      </trkpt>
      <trkpt lat="59.9808921" lon="17.7386317">
        <ele>48.2034</ele>
        <time>2013-04-28T10:36:58Z</time>
      </trkpt>
      <trkpt lat="59.9809393" lon="17.7386234">
        <ele>48.684</ele>
        <time>2013-04-28T10:36:59Z</time>
      </trkpt>
      <trkpt lat="59.9809847" lon="17.7386145">
        <ele>49.1646</ele>
        <time>2013-04-28T10:37:00Z</time>
      </trkpt>
      <trkpt lat="59.9810283" lon="17.7385976">
        <ele>49.6453</ele>
        <time>2013-04-28T10:37:01Z</time>
      </trkpt>
      <trkpt lat="59.9810753" lon="17.7385826">
        <ele>50.126</ele>
        <time>2013-04-28T10:37:02Z</time>
      </trkpt>
      <trkpt lat="59.9811203" lon="17.7385615">
        <ele>51.0872</ele>
        <time>2013-04-28T10:37:03Z</time>
      </trkpt>
      <trkpt lat="59.9811599" lon="17.7385353">
        <ele>52.0486</ele>
        <time>2013-04-28T10:37:04Z</time>
      </trkpt>
      <trkpt lat="59.9812016" lon="17.7385243">
        <ele>52.5292</ele>
        <time>2013-04-28T10:37:05Z</time>
      </trkpt>
      <trkpt lat="59.981245" lon="17.7385134">
        <ele>53.4905</ele>
        <time>2013-04-28T10:37:06Z</time>
      </trkpt>
      <trkpt lat="59.981294" lon="17.7385026">
        <ele>53.0098</ele>
        <time>2013-04-28T10:37:07Z</time>
      </trkpt>
      <trkpt lat="59.9813427" lon="17.7384873">
        <ele>53.4905</ele>
        <time>2013-04-28T10:37:08Z</time>
      </trkpt>
      <trkpt lat="59.9813867" lon="17.7384742">
        <ele>53.9712</ele>
        <time>2013-04-28T10:37:09Z</time>
      </trkpt>
      <trkpt lat="59.9814246" lon="17.7384575">
        <ele>54.4518</ele>
        <time>2013-04-28T10:37:10Z</time>
      </trkpt>
      <trkpt lat="59.9814634" lon="17.7384566">
        <ele>53.9712</ele>
        <time>2013-04-28T10:37:11Z</time>
      </trkpt>
      <trkpt lat="59.9815013" lon="17.7384499">
        <ele>53.9712</ele>
        <time>2013-04-28T10:37:12Z</time>
      </trkpt>
      <trkpt lat="59.9815416" lon="17.7384442">
        <ele>53.4905</ele>
        <time>2013-04-28T10:37:13Z</time>
      </trkpt>
      <trkpt lat="59.9815796" lon="17.7384297">
        <ele>53.0098</ele>
        <time>2013-04-28T10:37:14Z</time>
      </trkpt>
      <trkpt lat="59.9816091" lon="17.7384064">
        <ele>53.4905</ele>
        <time>2013-04-28T10:37:15Z</time>
      </trkpt>
      <trkpt lat="59.9816385" lon="17.7383889">
        <ele>53.4905</ele>
        <time>2013-04-28T10:37:16Z</time>
      </trkpt>
      <trkpt lat="59.9816665" lon="17.738368">
        <ele>53.9712</ele>
        <time>2013-04-28T10:37:17Z</time>
      </trkpt>
      <trkpt lat="59.9816933" lon="17.7383473">
        <ele>53.9712</ele>
        <time>2013-04-28T10:37:18Z</time>
      </trkpt>
      <trkpt lat="59.9817213" lon="17.7383332">
        <ele>53.9712</ele>
        <time>2013-04-28T10:37:19Z</time>
      </trkpt>
      <trkpt lat="59.98175" lon="17.7383267">
        <ele>53.9712</ele>
        <time>2013-04-28T10:37:20Z</time>
      </trkpt>
      <trkpt lat="59.9817785" lon="17.7383225">
        <ele>53.4905</ele>
        <time>2013-04-28T10:37:21Z</time>
      </trkpt>
      <trkpt lat="59.9818067" lon="17.7383039">
        <ele>53.9712</ele>
        <time>2013-04-28T10:37:22Z</time>
      </trkpt>
      <trkpt lat="59.9818389" lon="17.7382888">
        <ele>53.9712</ele>
        <time>2013-04-28T10:37:23Z</time>
      </trkpt>
      <trkpt lat="59.9818732" lon="17.7382725">
        <ele>53.9712</ele>
        <time>2013-04-28T10:37:24Z</time>
      </trkpt>
      <trkpt lat="59.9819115" lon="17.7382565">
        <ele>53.4905</ele>
        <time>2013-04-28T10:37:25Z</time>
      </trkpt>
      <trkpt lat="59.9819513" lon="17.7382359">
        <ele>53.4905</ele>
        <time>2013-04-28T10:37:26Z</time>
      </trkpt>
      <trkpt lat="59.9819926" lon="17.7382189">
        <ele>53.4905</ele>
        <time>2013-04-28T10:37:27Z</time>
      </trkpt>
      <trkpt lat="59.9820374" lon="17.7382002">
        <ele>53.0098</ele>
        <time>2013-04-28T10:37:28Z</time>
      </trkpt>
      <trkpt lat="59.9820865" lon="17.7381861">
        <ele>53.0098</ele>
        <time>2013-04-28T10:37:29Z</time>
      </trkpt>
      <trkpt lat="59.9821369" lon="17.7381762">
        <ele>53.4905</ele>
        <time>2013-04-28T10:37:30Z</time>
      </trkpt>
      <trkpt lat="59.9821874" lon="17.7381539">
        <ele>53.4905</ele>
        <time>2013-04-28T10:37:31Z</time>
      </trkpt>
      <trkpt lat="59.9822372" lon="17.7381389">
        <ele>53.9712</ele>
        <time>2013-04-28T10:37:32Z</time>
      </trkpt>
      <trkpt lat="59.9822896" lon="17.7381313">
        <ele>54.4518</ele>
        <time>2013-04-28T10:37:33Z</time>
      </trkpt>
      <trkpt lat="59.9823418" lon="17.7381225">
        <ele>54.4518</ele>
        <time>2013-04-28T10:37:34Z</time>
      </trkpt>
      <trkpt lat="59.9823986" lon="17.7381228">
        <ele>54.4518</ele>
        <time>2013-04-28T10:37:35Z</time>
      </trkpt>
      <trkpt lat="59.9824565" lon="17.7381326">
        <ele>54.4518</ele>
        <time>2013-04-28T10:37:36Z</time>
      </trkpt>
      <trkpt lat="59.9825184" lon="17.7381352">
        <ele>53.9712</ele>
        <time>2013-04-28T10:37:37Z</time>
      </trkpt>
      <trkpt lat="59.9825834" lon="17.7381339">
        <ele>53.9712</ele>
        <time>2013-04-28T10:37:38Z</time>
      </trkpt>
      <trkpt lat="59.9826387" lon="17.7381366">
        <ele>53.9712</ele>
        <time>2013-04-28T10:37:39Z</time>
      </trkpt>
      <trkpt lat="59.9826922" lon="17.7381473">
        <ele>54.4518</ele>
        <time>2013-04-28T10:37:40Z</time>
      </trkpt>
      <trkpt lat="59.982744" lon="17.7381384">
        <ele>54.4518</ele>
        <time>2013-04-28T10:37:41Z</time>
      </trkpt>
      <trkpt lat="59.9827942" lon="17.7381363">
        <ele>54.4518</ele>
        <time>2013-04-28T10:37:42Z</time>
      </trkpt>
      <trkpt lat="59.9828476" lon="17.7381578">
        <ele>53.0098</ele>
        <time>2013-04-28T10:37:43Z</time>
      </trkpt>
      <trkpt lat="59.9829021" lon="17.7381866">
        <ele>52.0486</ele>
        <time>2013-04-28T10:37:44Z</time>
      </trkpt>
      <trkpt lat="59.9829589" lon="17.7381985">
        <ele>52.0486</ele>
        <time>2013-04-28T10:37:45Z</time>
      </trkpt>
      <trkpt lat="59.9830133" lon="17.7382015">
        <ele>52.5292</ele>
        <time>2013-04-28T10:37:46Z</time>
      </trkpt>
      <trkpt lat="59.9830678" lon="17.7382132">
        <ele>52.0486</ele>
        <time>2013-04-28T10:37:47Z</time>
      </trkpt>
      <trkpt lat="59.9831241" lon="17.7382099">
        <ele>51.5679</ele>
        <time>2013-04-28T10:37:48Z</time>
      </trkpt>
      <trkpt lat="59.9831779" lon="17.7382074">
        <ele>51.0872</ele>
        <time>2013-04-28T10:37:49Z</time>
      </trkpt>
      <trkpt lat="59.983234" lon="17.7381917">
        <ele>51.0872</ele>
        <time>2013-04-28T10:37:50Z</time>
      </trkpt>
      <trkpt lat="59.983295" lon="17.7381768">
        <ele>50.6066</ele>
        <time>2013-04-28T10:37:51Z</time>
      </trkpt>
      <trkpt lat="59.9833532" lon="17.7381624">
        <ele>50.6066</ele>
        <time>2013-04-28T10:37:52Z</time>
      </trkpt>
      <trkpt lat="59.9834105" lon="17.7381433">
        <ele>51.0872</ele>
        <time>2013-04-28T10:37:53Z</time>
      </trkpt>
      <trkpt lat="59.9834696" lon="17.7381389">
        <ele>51.0872</ele>
        <time>2013-04-28T10:37:54Z</time>
      </trkpt>
      <trkpt lat="59.9835291" lon="17.7381271">
        <ele>51.0872</ele>
        <time>2013-04-28T10:37:55Z</time>
      </trkpt>
      <trkpt lat="59.983593" lon="17.7381111">
        <ele>51.0872</ele>
        <time>2013-04-28T10:37:56Z</time>
      </trkpt>
      <trkpt lat="59.9836599" lon="17.7380981">
        <ele>50.6066</ele>
        <time>2013-04-28T10:37:57Z</time>
      </trkpt>
      <trkpt lat="59.9837272" lon="17.7380867">
        <ele>50.126</ele>
        <time>2013-04-28T10:37:58Z</time>
      </trkpt>
      <trkpt lat="59.983791" lon="17.7380691">
        <ele>50.6066</ele>
        <time>2013-04-28T10:37:59Z</time>
      </trkpt>
      <trkpt lat="59.983853" lon="17.738052">
        <ele>49.6453</ele>
        <time>2013-04-28T10:38:00Z</time>
      </trkpt>
      <trkpt lat="59.9839126" lon="17.7380425">
        <ele>49.6453</ele>
        <time>2013-04-28T10:38:01Z</time>
      </trkpt>
      <trkpt lat="59.9839691" lon="17.7380354">
        <ele>50.126</ele>
        <time>2013-04-28T10:38:02Z</time>
      </trkpt>
      <trkpt lat="59.9840157" lon="17.7380264">
        <ele>50.6066</ele>
        <time>2013-04-28T10:38:03Z</time>
      </trkpt>
      <trkpt lat="59.984059" lon="17.7380214">
        <ele>51.0872</ele>
        <time>2013-04-28T10:38:04Z</time>
      </trkpt>
      <trkpt lat="59.9840996" lon="17.7380127">
        <ele>51.5679</ele>
        <time>2013-04-28T10:38:05Z</time>
      </trkpt>
      <trkpt lat="59.9841472" lon="17.7380101">
        <ele>52.0486</ele>
        <time>2013-04-28T10:38:06Z</time>
      </trkpt>
      <trkpt lat="59.9841983" lon="17.7380133">
        <ele>51.5679</ele>
        <time>2013-04-28T10:38:07Z</time>
      </trkpt>
      <trkpt lat="59.9842514" lon="17.7380226">
        <ele>52.0486</ele>
        <time>2013-04-28T10:38:08Z</time>
      </trkpt>
      <trkpt lat="59.9843052" lon="17.738036">
        <ele>52.0486</ele>
        <time>2013-04-28T10:38:09Z</time>
      </trkpt>
      <trkpt lat="59.9843594" lon="17.738043">
        <ele>52.5292</ele>
        <time>2013-04-28T10:38:10Z</time>
      </trkpt>
      <trkpt lat="59.9844145" lon="17.7380555">
        <ele>52.0486</ele>
        <time>2013-04-28T10:38:11Z</time>
      </trkpt>
      <trkpt lat="59.9844718" lon="17.7380671">
        <ele>53.0098</ele>
        <time>2013-04-28T10:38:12Z</time>
      </trkpt>
      <trkpt lat="59.984531" lon="17.738078">
        <ele>52.5292</ele>
        <time>2013-04-28T10:38:13Z</time>
      </trkpt>
      <trkpt lat="59.9845876" lon="17.7381007">
        <ele>53.0098</ele>
        <time>2013-04-28T10:38:14Z</time>
      </trkpt>
      <trkpt lat="59.9846457" lon="17.7381161">
        <ele>53.4905</ele>
        <time>2013-04-28T10:38:15Z</time>
      </trkpt>
      <trkpt lat="59.984702" lon="17.7381181">
        <ele>54.4518</ele>
        <time>2013-04-28T10:38:16Z</time>
      </trkpt>
      <trkpt lat="59.9847545" lon="17.7381209">
        <ele>56.8551</ele>
        <time>2013-04-28T10:38:17Z</time>
      </trkpt>
      <trkpt lat="59.9848056" lon="17.7381078">
        <ele>58.2971</ele>
        <time>2013-04-28T10:38:18Z</time>
      </trkpt>
      <trkpt lat="59.9848546" lon="17.7381121">
        <ele>59.7391</ele>
        <time>2013-04-28T10:38:19Z</time>
      </trkpt>
      <trkpt lat="59.9848999" lon="17.738125">
        <ele>59.7391</ele>
        <time>2013-04-28T10:38:20Z</time>
      </trkpt>
      <trkpt lat="59.9849448" lon="17.7381423">
        <ele>60.7003</ele>
        <time>2013-04-28T10:38:21Z</time>
      </trkpt>
      <trkpt lat="59.9849894" lon="17.7381616">
        <ele>60.7003</ele>
        <time>2013-04-28T10:38:22Z</time>
      </trkpt>
      <trkpt lat="59.9850351" lon="17.7381757">
        <ele>60.7003</ele>
        <time>2013-04-28T10:38:23Z</time>
      </trkpt>
      <trkpt lat="59.9850826" lon="17.7381872">
        <ele>60.7003</ele>
        <time>2013-04-28T10:38:24Z</time>
      </trkpt>
      <trkpt lat="59.9851287" lon="17.738196">
        <ele>60.7003</ele>
        <time>2013-04-28T10:38:25Z</time>
      </trkpt>
      <trkpt lat="59.9851827" lon="17.7382213">
        <ele>60.7003</ele>
        <time>2013-04-28T10:38:26Z</time>
      </trkpt>
      <trkpt lat="59.9852391" lon="17.7382421">
        <ele>59.7391</ele>
        <time>2013-04-28T10:38:27Z</time>
      </trkpt>
      <trkpt lat="59.9852983" lon="17.7382587">
        <ele>59.2584</ele>
        <time>2013-04-28T10:38:28Z</time>
      </trkpt>
      <trkpt lat="59.9853574" lon="17.7382592">
        <ele>59.2584</ele>
        <time>2013-04-28T10:38:29Z</time>
      </trkpt>
      <trkpt lat="59.9854144" lon="17.7382873">
        <ele>59.7391</ele>
        <time>2013-04-28T10:38:30Z</time>
      </trkpt>
      <trkpt lat="59.9854692" lon="17.7383108">
        <ele>59.7391</ele>
        <time>2013-04-28T10:38:31Z</time>
      </trkpt>
      <trkpt lat="59.9855222" lon="17.7383376">
        <ele>60.2197</ele>
        <time>2013-04-28T10:38:32Z</time>
      </trkpt>
      <trkpt lat="59.985579" lon="17.7383645">
        <ele>59.7391</ele>
        <time>2013-04-28T10:38:33Z</time>
      </trkpt>
      <trkpt lat="59.9856402" lon="17.7383964">
        <ele>59.2584</ele>
        <time>2013-04-28T10:38:34Z</time>
      </trkpt>
      <trkpt lat="59.9856975" lon="17.7384282">
        <ele>59.2584</ele>
        <time>2013-04-28T10:38:35Z</time>
      </trkpt>
      <trkpt lat="59.9857562" lon="17.738442">
        <ele>60.7003</ele>
        <time>2013-04-28T10:38:36Z</time>
      </trkpt>
      <trkpt lat="59.9858137" lon="17.7384548">
        <ele>61.6617</ele>
        <time>2013-04-28T10:38:37Z</time>
      </trkpt>
      <trkpt lat="59.9858656" lon="17.7384758">
        <ele>62.1423</ele>
        <time>2013-04-28T10:38:38Z</time>
      </trkpt>
      <trkpt lat="59.9859204" lon="17.7385026">
        <ele>61.6617</ele>
        <time>2013-04-28T10:38:39Z</time>
      </trkpt>
      <trkpt lat="59.9859767" lon="17.7385305">
        <ele>61.6617</ele>
        <time>2013-04-28T10:38:40Z</time>
      </trkpt>
      <trkpt lat="59.9860334" lon="17.7385565">
        <ele>62.6229</ele>
        <time>2013-04-28T10:38:41Z</time>
      </trkpt>
      <trkpt lat="59.9860847" lon="17.7385699">
        <ele>64.5457</ele>
        <time>2013-04-28T10:38:42Z</time>
      </trkpt>
      <trkpt lat="59.9861364" lon="17.7386031">
        <ele>65.5071</ele>
        <time>2013-04-28T10:38:43Z</time>
      </trkpt>
      <trkpt lat="59.9861881" lon="17.7386424">
        <ele>65.5071</ele>
        <time>2013-04-28T10:38:44Z</time>
      </trkpt>
      <trkpt lat="59.9862385" lon="17.7386765">
        <ele>65.9877</ele>
        <time>2013-04-28T10:38:45Z</time>
      </trkpt>
      <trkpt lat="59.9862846" lon="17.7387094">
        <ele>65.9877</ele>
        <time>2013-04-28T10:38:46Z</time>
      </trkpt>
      <trkpt lat="59.9863348" lon="17.7387467">
        <ele>65.9877</ele>
        <time>2013-04-28T10:38:47Z</time>
      </trkpt>
      <trkpt lat="59.986387" lon="17.7387866">
        <ele>66.4683</ele>
        <time>2013-04-28T10:38:48Z</time>
      </trkpt>
      <trkpt lat="59.9864363" lon="17.7388227">
        <ele>66.4683</ele>
        <time>2013-04-28T10:38:49Z</time>
      </trkpt>
      <trkpt lat="59.9864747" lon="17.7388623">
        <ele>67.4297</ele>
        <time>2013-04-28T10:38:50Z</time>
      </trkpt>
      <trkpt lat="59.9865185" lon="17.7389">
        <ele>68.8716</ele>
        <time>2013-04-28T10:38:51Z</time>
      </trkpt>
      <trkpt lat="59.9865555" lon="17.7389441">
        <ele>69.3523</ele>
        <time>2013-04-28T10:38:52Z</time>
      </trkpt>
      <trkpt lat="59.9865871" lon="17.738991">
        <ele>69.8329</ele>
        <time>2013-04-28T10:38:53Z</time>
      </trkpt>
      <trkpt lat="59.986625" lon="17.7390337">
        <ele>68.8716</ele>
        <time>2013-04-28T10:38:54Z</time>
      </trkpt>
      <trkpt lat="59.9866699" lon="17.7390685">
        <ele>69.3523</ele>
        <time>2013-04-28T10:38:55Z</time>
      </trkpt>
      <trkpt lat="59.9867069" lon="17.739111">
        <ele>69.3523</ele>
        <time>2013-04-28T10:38:56Z</time>
      </trkpt>
      <trkpt lat="59.9867449" lon="17.739162">
        <ele>70.3135</ele>
        <time>2013-04-28T10:38:57Z</time>
      </trkpt>
      <trkpt lat="59.9867825" lon="17.7392058">
        <ele>70.7942</ele>
        <time>2013-04-28T10:38:58Z</time>
      </trkpt>
      <trkpt lat="59.9868162" lon="17.7392454">
        <ele>71.2749</ele>
        <time>2013-04-28T10:38:59Z</time>
      </trkpt>
      <trkpt lat="59.9868497" lon="17.7392733">
        <ele>71.7555</ele>
        <time>2013-04-28T10:39:00Z</time>
      </trkpt>
      <trkpt lat="59.9868848" lon="17.7393077">
        <ele>72.2362</ele>
        <time>2013-04-28T10:39:01Z</time>
      </trkpt>
      <trkpt lat="59.9869283" lon="17.7393365">
        <ele>73.1976</ele>
        <time>2013-04-28T10:39:02Z</time>
      </trkpt>
      <trkpt lat="59.9869736" lon="17.7393518">
        <ele>73.6782</ele>
        <time>2013-04-28T10:39:03Z</time>
      </trkpt>
      <trkpt lat="59.9870234" lon="17.7393696">
        <ele>73.1976</ele>
        <time>2013-04-28T10:39:04Z</time>
      </trkpt>
      <trkpt lat="59.9870756" lon="17.7393693">
        <ele>73.1976</ele>
        <time>2013-04-28T10:39:05Z</time>
      </trkpt>
      <trkpt lat="59.9871323" lon="17.7393697">
        <ele>72.7169</ele>
        <time>2013-04-28T10:39:06Z</time>
      </trkpt>
      <trkpt lat="59.987185" lon="17.7393739">
        <ele>72.7169</ele>
        <time>2013-04-28T10:39:07Z</time>
      </trkpt>
      <trkpt lat="59.9872397" lon="17.7393651">
        <ele>72.7169</ele>
        <time>2013-04-28T10:39:08Z</time>
      </trkpt>
      <trkpt lat="59.9873036" lon="17.7393553">
        <ele>72.2362</ele>
        <time>2013-04-28T10:39:09Z</time>
      </trkpt>
      <trkpt lat="59.987367" lon="17.7393486">
        <ele>71.7555</ele>
        <time>2013-04-28T10:39:10Z</time>
      </trkpt>
      <trkpt lat="59.9874257" lon="17.7393407">
        <ele>71.2749</ele>
        <time>2013-04-28T10:39:11Z</time>
      </trkpt>
      <trkpt lat="59.9874884" lon="17.7393304">
        <ele>70.7942</ele>
        <time>2013-04-28T10:39:12Z</time>
      </trkpt>
      <trkpt lat="59.9875517" lon="17.7393132">
        <ele>70.3135</ele>
        <time>2013-04-28T10:39:13Z</time>
      </trkpt>
      <trkpt lat="59.9876112" lon="17.7392862">
        <ele>70.3135</ele>
        <time>2013-04-28T10:39:14Z</time>
      </trkpt>
      <trkpt lat="59.9876682" lon="17.7392766">
        <ele>69.8329</ele>
        <time>2013-04-28T10:39:15Z</time>
      </trkpt>
      <trkpt lat="59.9877258" lon="17.7392745">
        <ele>69.3523</ele>
        <time>2013-04-28T10:39:16Z</time>
      </trkpt>
      <trkpt lat="59.987784" lon="17.7392713">
        <ele>68.8716</ele>
        <time>2013-04-28T10:39:17Z</time>
      </trkpt>
      <trkpt lat="59.9878391" lon="17.7392678">
        <ele>69.3523</ele>
        <time>2013-04-28T10:39:18Z</time>
      </trkpt>
      <trkpt lat="59.9878919" lon="17.7392673">
        <ele>69.3523</ele>
        <time>2013-04-28T10:39:19Z</time>
      </trkpt>
      <trkpt lat="59.9879484" lon="17.7392692">
        <ele>68.8716</ele>
        <time>2013-04-28T10:39:20Z</time>
      </trkpt>
      <trkpt lat="59.9879966" lon="17.7392657">
        <ele>67.9103</ele>
        <time>2013-04-28T10:39:21Z</time>
      </trkpt>
      <trkpt lat="59.9880442" lon="17.7392512">
        <ele>67.9103</ele>
        <time>2013-04-28T10:39:22Z</time>
      </trkpt>
      <trkpt lat="59.988095" lon="17.7392377">
        <ele>67.4297</ele>
        <time>2013-04-28T10:39:23Z</time>
      </trkpt>
      <trkpt lat="59.9881459" lon="17.739223">
        <ele>66.949</ele>
        <time>2013-04-28T10:39:24Z</time>
      </trkpt>
      <trkpt lat="59.9881974" lon="17.7392067">
        <ele>66.949</ele>
        <time>2013-04-28T10:39:25Z</time>
      </trkpt>
      <trkpt lat="59.988254" lon="17.7391968">
        <ele>65.5071</ele>
        <time>2013-04-28T10:39:26Z</time>
      </trkpt>
      <trkpt lat="59.9883093" lon="17.7391759">
        <ele>65.0264</ele>
        <time>2013-04-28T10:39:27Z</time>
      </trkpt>
      <trkpt lat="59.9883639" lon="17.7391518">
        <ele>64.0651</ele>
        <time>2013-04-28T10:39:28Z</time>
      </trkpt>
      <trkpt lat="59.9884123" lon="17.7391314">
        <ele>63.1036</ele>
        <time>2013-04-28T10:39:29Z</time>
      </trkpt>
      <trkpt lat="59.9884602" lon="17.7391093">
        <ele>61.6617</ele>
        <time>2013-04-28T10:39:30Z</time>
      </trkpt>
      <trkpt lat="59.9885073" lon="17.7390794">
        <ele>61.181</ele>
        <time>2013-04-28T10:39:31Z</time>
      </trkpt>
      <trkpt lat="59.988552" lon="17.7390493">
        <ele>61.181</ele>
        <time>2013-04-28T10:39:32Z</time>
      </trkpt>
      <trkpt lat="59.9885978" lon="17.7390208">
        <ele>60.7003</ele>
        <time>2013-04-28T10:39:33Z</time>
      </trkpt>
      <trkpt lat="59.9886441" lon="17.7389917">
        <ele>60.7003</ele>
        <time>2013-04-28T10:39:34Z</time>
      </trkpt>
      <trkpt lat="59.9886903" lon="17.7389656">
        <ele>60.7003</ele>
        <time>2013-04-28T10:39:35Z</time>
      </trkpt>
      <trkpt lat="59.9887373" lon="17.7389296">
        <ele>60.7003</ele>
        <time>2013-04-28T10:39:36Z</time>
      </trkpt>
      <trkpt lat="59.9887835" lon="17.7388955">
        <ele>60.7003</ele>
        <time>2013-04-28T10:39:37Z</time>
      </trkpt>
      <trkpt lat="59.9888302" lon="17.7388647">
        <ele>59.7391</ele>
        <time>2013-04-28T10:39:38Z</time>
      </trkpt>
      <trkpt lat="59.9888782" lon="17.7388368">
        <ele>60.2197</ele>
        <time>2013-04-28T10:39:39Z</time>
      </trkpt>
      <trkpt lat="59.9889269" lon="17.7388146">
        <ele>60.2197</ele>
        <time>2013-04-28T10:39:40Z</time>
      </trkpt>
      <trkpt lat="59.9889746" lon="17.7387845">
        <ele>60.2197</ele>
        <time>2013-04-28T10:39:41Z</time>
      </trkpt>
      <trkpt lat="59.9890264" lon="17.7387388">
        <ele>60.2197</ele>
        <time>2013-04-28T10:39:42Z</time>
      </trkpt>
      <trkpt lat="59.9890751" lon="17.7387014">
        <ele>59.7391</ele>
        <time>2013-04-28T10:39:43Z</time>
      </trkpt>
      <trkpt lat="59.9891247" lon="17.7386743">
        <ele>59.2584</ele>
        <time>2013-04-28T10:39:44Z</time>
      </trkpt>
      <trkpt lat="59.9891754" lon="17.7386566">
        <ele>58.7777</ele>
        <time>2013-04-28T10:39:45Z</time>
      </trkpt>
      <trkpt lat="59.9892263" lon="17.7386338">
        <ele>58.2971</ele>
        <time>2013-04-28T10:39:46Z</time>
      </trkpt>
      <trkpt lat="59.9892834" lon="17.7386094">
        <ele>58.7777</ele>
        <time>2013-04-28T10:39:47Z</time>
      </trkpt>
      <trkpt lat="59.9893371" lon="17.7385856">
        <ele>58.7777</ele>
        <time>2013-04-28T10:39:48Z</time>
      </trkpt>
      <trkpt lat="59.9893951" lon="17.7385605">
        <ele>58.7777</ele>
        <time>2013-04-28T10:39:49Z</time>
      </trkpt>
      <trkpt lat="59.9894579" lon="17.7385331">
        <ele>58.7777</ele>
        <time>2013-04-28T10:39:50Z</time>
      </trkpt>
      <trkpt lat="59.9895206" lon="17.7385089">
        <ele>58.7777</ele>
        <time>2013-04-28T10:39:51Z</time>
      </trkpt>
      <trkpt lat="59.9895838" lon="17.7384856">
        <ele>58.7777</ele>
        <time>2013-04-28T10:39:52Z</time>
      </trkpt>
      <trkpt lat="59.9896476" lon="17.7384663">
        <ele>58.2971</ele>
        <time>2013-04-28T10:39:53Z</time>
      </trkpt>
      <trkpt lat="59.9897105" lon="17.738456">
        <ele>58.2971</ele>
        <time>2013-04-28T10:39:54Z</time>
      </trkpt>
      <trkpt lat="59.9897708" lon="17.738425">
        <ele>58.2971</ele>
        <time>2013-04-28T10:39:55Z</time>
      </trkpt>
      <trkpt lat="59.9898332" lon="17.7383943">
        <ele>58.2971</ele>
        <time>2013-04-28T10:39:56Z</time>
      </trkpt>
      <trkpt lat="59.9898962" lon="17.738367">
        <ele>57.8165</ele>
        <time>2013-04-28T10:39:57Z</time>
      </trkpt>
      <trkpt lat="59.9899588" lon="17.73834">
        <ele>58.2971</ele>
        <time>2013-04-28T10:39:58Z</time>
      </trkpt>
      <trkpt lat="59.9900236" lon="17.7383163">
        <ele>57.8165</ele>
        <time>2013-04-28T10:39:59Z</time>
      </trkpt>
      <trkpt lat="59.9900873" lon="17.7382831">
        <ele>57.8165</ele>
        <time>2013-04-28T10:40:00Z</time>
      </trkpt>
      <trkpt lat="59.990151" lon="17.7382484">
        <ele>57.8165</ele>
        <time>2013-04-28T10:40:01Z</time>
      </trkpt>
      <trkpt lat="59.9902155" lon="17.7382164">
        <ele>58.2971</ele>
        <time>2013-04-28T10:40:02Z</time>
      </trkpt>
      <trkpt lat="59.9902789" lon="17.7381795">
        <ele>57.8165</ele>
        <time>2013-04-28T10:40:03Z</time>
      </trkpt>
      <trkpt lat="59.9903466" lon="17.7381539">
        <ele>57.3358</ele>
        <time>2013-04-28T10:40:04Z</time>
      </trkpt>
      <trkpt lat="59.9904152" lon="17.7381275">
        <ele>56.8551</ele>
        <time>2013-04-28T10:40:05Z</time>
      </trkpt>
      <trkpt lat="59.9904845" lon="17.7380971">
        <ele>56.3745</ele>
        <time>2013-04-28T10:40:06Z</time>
      </trkpt>
      <trkpt lat="59.9905486" lon="17.7380639">
        <ele>55.8938</ele>
        <time>2013-04-28T10:40:07Z</time>
      </trkpt>
      <trkpt lat="59.9906085" lon="17.7380282">
        <ele>55.8938</ele>
        <time>2013-04-28T10:40:08Z</time>
      </trkpt>
      <trkpt lat="59.9906706" lon="17.7379872">
        <ele>55.4131</ele>
        <time>2013-04-28T10:40:09Z</time>
      </trkpt>
      <trkpt lat="59.9907369" lon="17.7379516">
        <ele>55.4131</ele>
        <time>2013-04-28T10:40:10Z</time>
      </trkpt>
      <trkpt lat="59.9908042" lon="17.7379125">
        <ele>54.9324</ele>
        <time>2013-04-28T10:40:11Z</time>
      </trkpt>
      <trkpt lat="59.9908715" lon="17.7378706">
        <ele>55.4131</ele>
        <time>2013-04-28T10:40:12Z</time>
      </trkpt>
      <trkpt lat="59.9909399" lon="17.7378287">
        <ele>55.4131</ele>
        <time>2013-04-28T10:40:13Z</time>
      </trkpt>
      <trkpt lat="59.9910061" lon="17.7377816">
        <ele>56.3745</ele>
        <time>2013-04-28T10:40:14Z</time>
      </trkpt>
      <trkpt lat="59.9910744" lon="17.7377458">
        <ele>56.8551</ele>
        <time>2013-04-28T10:40:15Z</time>
      </trkpt>
      <trkpt lat="59.9911451" lon="17.7377137">
        <ele>56.8551</ele>
        <time>2013-04-28T10:40:16Z</time>
      </trkpt>
      <trkpt lat="59.9912158" lon="17.7376976">
        <ele>56.8551</ele>
        <time>2013-04-28T10:40:17Z</time>
      </trkpt>
      <trkpt lat="59.991286" lon="17.737681">
        <ele>57.8165</ele>
        <time>2013-04-28T10:40:18Z</time>
      </trkpt>
      <trkpt lat="59.9913544" lon="17.7376717">
        <ele>58.2971</ele>
        <time>2013-04-28T10:40:19Z</time>
      </trkpt>
      <trkpt lat="59.9914212" lon="17.7376641">
        <ele>58.2971</ele>
        <time>2013-04-28T10:40:20Z</time>
      </trkpt>
      <trkpt lat="59.9914859" lon="17.7376524">
        <ele>59.2584</ele>
        <time>2013-04-28T10:40:21Z</time>
      </trkpt>
      <trkpt lat="59.9915484" lon="17.7376437">
        <ele>59.7391</ele>
        <time>2013-04-28T10:40:22Z</time>
      </trkpt>
      <trkpt lat="59.9916082" lon="17.7376462">
        <ele>59.2584</ele>
        <time>2013-04-28T10:40:23Z</time>
      </trkpt>
      <trkpt lat="59.9916668" lon="17.7376473">
        <ele>58.7777</ele>
        <time>2013-04-28T10:40:24Z</time>
      </trkpt>
      <trkpt lat="59.9917212" lon="17.7376436">
        <ele>58.7777</ele>
        <time>2013-04-28T10:40:25Z</time>
      </trkpt>
      <trkpt lat="59.9917817" lon="17.7376361">
        <ele>58.2971</ele>
        <time>2013-04-28T10:40:26Z</time>
      </trkpt>
      <trkpt lat="59.9918484" lon="17.7376184">
        <ele>57.3358</ele>
        <time>2013-04-28T10:40:27Z</time>
      </trkpt>
      <trkpt lat="59.9919204" lon="17.7376054">
        <ele>56.8551</ele>
        <time>2013-04-28T10:40:28Z</time>
      </trkpt>
      <trkpt lat="59.9919867" lon="17.7375947">
        <ele>56.3745</ele>
        <time>2013-04-28T10:40:29Z</time>
      </trkpt>
      <trkpt lat="59.9920437" lon="17.7375722">
        <ele>55.4131</ele>
        <time>2013-04-28T10:40:30Z</time>
      </trkpt>
      <trkpt lat="59.9921008" lon="17.7375584">
        <ele>54.9324</ele>
        <time>2013-04-28T10:40:31Z</time>
      </trkpt>
      <trkpt lat="59.9921557" lon="17.7375313">
        <ele>54.9324</ele>
        <time>2013-04-28T10:40:32Z</time>
      </trkpt>
      <trkpt lat="59.99221" lon="17.7374909">
        <ele>54.4518</ele>
        <time>2013-04-28T10:40:33Z</time>
      </trkpt>
      <trkpt lat="59.9922645" lon="17.7374475">
        <ele>54.4518</ele>
        <time>2013-04-28T10:40:34Z</time>
      </trkpt>
      <trkpt lat="59.9923205" lon="17.7374022">
        <ele>54.4518</ele>
        <time>2013-04-28T10:40:35Z</time>
      </trkpt>
      <trkpt lat="59.9923769" lon="17.7373536">
        <ele>54.4518</ele>
        <time>2013-04-28T10:40:36Z</time>
      </trkpt>
      <trkpt lat="59.9924313" lon="17.7372976">
        <ele>53.9712</ele>
        <time>2013-04-28T10:40:37Z</time>
      </trkpt>
      <trkpt lat="59.9924858" lon="17.7372376">
        <ele>53.9712</ele>
        <time>2013-04-28T10:40:38Z</time>
      </trkpt>
      <trkpt lat="59.9925391" lon="17.7371688">
        <ele>54.4518</ele>
        <time>2013-04-28T10:40:39Z</time>
      </trkpt>
      <trkpt lat="59.9925907" lon="17.7370937">
        <ele>53.9712</ele>
        <time>2013-04-28T10:40:40Z</time>
      </trkpt>
      <trkpt lat="59.9926434" lon="17.7370238">
        <ele>53.4905</ele>
        <time>2013-04-28T10:40:41Z</time>
      </trkpt>
      <trkpt lat="59.9926929" lon="17.7369513">
        <ele>53.4905</ele>
        <time>2013-04-28T10:40:42Z</time>
      </trkpt>
      <trkpt lat="59.9927416" lon="17.7368636">
        <ele>53.0098</ele>
        <time>2013-04-28T10:40:43Z</time>
      </trkpt>
      <trkpt lat="59.9927965" lon="17.7367674">
        <ele>52.0486</ele>
        <time>2013-04-28T10:40:44Z</time>
      </trkpt>
      <trkpt lat="59.9928532" lon="17.7366669">
        <ele>51.0872</ele>
        <time>2013-04-28T10:40:45Z</time>
      </trkpt>
      <trkpt lat="59.9929098" lon="17.7365587">
        <ele>50.6066</ele>
        <time>2013-04-28T10:40:46Z</time>
      </trkpt>
      <trkpt lat="59.9929654" lon="17.7364478">
        <ele>50.126</ele>
        <time>2013-04-28T10:40:47Z</time>
      </trkpt>
      <trkpt lat="59.9930204" lon="17.7363348">
        <ele>50.126</ele>
        <time>2013-04-28T10:40:48Z</time>
      </trkpt>
      <trkpt lat="59.9930737" lon="17.7362338">
        <ele>50.6066</ele>
        <time>2013-04-28T10:40:49Z</time>
      </trkpt>
      <trkpt lat="59.9931267" lon="17.7361293">
        <ele>51.0872</ele>
        <time>2013-04-28T10:40:50Z</time>
      </trkpt>
      <trkpt lat="59.9931854" lon="17.7360266">
        <ele>50.6066</ele>
        <time>2013-04-28T10:40:51Z</time>
      </trkpt>
      <trkpt lat="59.9932471" lon="17.7359291">
        <ele>49.6453</ele>
        <time>2013-04-28T10:40:52Z</time>
      </trkpt>
      <trkpt lat="59.9933103" lon="17.7358407">
        <ele>49.1646</ele>
        <time>2013-04-28T10:40:53Z</time>
      </trkpt>
      <trkpt lat="59.9933733" lon="17.7357651">
        <ele>49.1646</ele>
        <time>2013-04-28T10:40:54Z</time>
      </trkpt>
      <trkpt lat="59.9934377" lon="17.7356951">
        <ele>49.6453</ele>
        <time>2013-04-28T10:40:55Z</time>
      </trkpt>
      <trkpt lat="59.9935062" lon="17.7356235">
        <ele>49.6453</ele>
        <time>2013-04-28T10:40:56Z</time>
      </trkpt>
      <trkpt lat="59.9935832" lon="17.7355852">
        <ele>49.1646</ele>
        <time>2013-04-28T10:40:57Z</time>
      </trkpt>
      <trkpt lat="59.9936596" lon="17.7355706">
        <ele>49.1646</ele>
        <time>2013-04-28T10:40:58Z</time>
      </trkpt>
      <trkpt lat="59.9937319" lon="17.7356297">
        <ele>48.684</ele>
        <time>2013-04-28T10:40:59Z</time>
      </trkpt>
      <trkpt lat="59.993808" lon="17.7356376">
        <ele>47.7225</ele>
        <time>2013-04-28T10:41:00Z</time>
      </trkpt>
      <trkpt lat="59.9938975" lon="17.7356547">
        <ele>50.126</ele>
        <time>2013-04-28T10:41:01Z</time>
      </trkpt>
      <trkpt lat="59.9940001" lon="17.7356614">
        <ele>50.6066</ele>
        <time>2013-04-28T10:41:02Z</time>
      </trkpt>
      <trkpt lat="59.9940811" lon="17.7356656">
        <ele>50.126</ele>
        <time>2013-04-28T10:41:03Z</time>
      </trkpt>
      <trkpt lat="59.9941353" lon="17.7356825">
        <ele>50.126</ele>
        <time>2013-04-28T10:41:04Z</time>
      </trkpt>
      <trkpt lat="59.9941942" lon="17.7357008">
        <ele>50.126</ele>
        <time>2013-04-28T10:41:05Z</time>
      </trkpt>
      <trkpt lat="59.9942643" lon="17.7357169">
        <ele>50.126</ele>
        <time>2013-04-28T10:41:06Z</time>
      </trkpt>
      <trkpt lat="59.9943287" lon="17.7357365">
        <ele>49.6453</ele>
        <time>2013-04-28T10:41:07Z</time>
      </trkpt>
      <trkpt lat="59.9944" lon="17.7357654">
        <ele>49.1646</ele>
        <time>2013-04-28T10:41:08Z</time>
      </trkpt>
      <trkpt lat="59.9944742" lon="17.7358018">
        <ele>49.1646</ele>
        <time>2013-04-28T10:41:09Z</time>
      </trkpt>
      <trkpt lat="59.9945493" lon="17.735843">
        <ele>48.684</ele>
        <time>2013-04-28T10:41:10Z</time>
      </trkpt>
      <trkpt lat="59.9946266" lon="17.7358903">
        <ele>48.684</ele>
        <time>2013-04-28T10:41:11Z</time>
      </trkpt>
      <trkpt lat="59.9947046" lon="17.7359386">
        <ele>47.7225</ele>
        <time>2013-04-28T10:41:12Z</time>
      </trkpt>
      <trkpt lat="59.9947809" lon="17.7359867">
        <ele>47.2418</ele>
        <time>2013-04-28T10:41:13Z</time>
      </trkpt>
      <trkpt lat="59.9948595" lon="17.7360339">
        <ele>46.7612</ele>
        <time>2013-04-28T10:41:14Z</time>
      </trkpt>
      <trkpt lat="59.9949307" lon="17.7360794">
        <ele>46.2806</ele>
        <time>2013-04-28T10:41:15Z</time>
      </trkpt>
      <trkpt lat="59.9950032" lon="17.7361136">
        <ele>45.7999</ele>
        <time>2013-04-28T10:41:16Z</time>
      </trkpt>
      <trkpt lat="59.9950814" lon="17.7361364">
        <ele>44.8386</ele>
        <time>2013-04-28T10:41:17Z</time>
      </trkpt>
      <trkpt lat="59.9951602" lon="17.7361521">
        <ele>44.8386</ele>
        <time>2013-04-28T10:41:18Z</time>
      </trkpt>
      <trkpt lat="59.995242" lon="17.7361643">
        <ele>44.358</ele>
        <time>2013-04-28T10:41:19Z</time>
      </trkpt>
      <trkpt lat="59.9953233" lon="17.7361741">
        <ele>43.8773</ele>
        <time>2013-04-28T10:41:20Z</time>
      </trkpt>
      <trkpt lat="59.9954053" lon="17.7361825">
        <ele>43.3966</ele>
        <time>2013-04-28T10:41:21Z</time>
      </trkpt>
      <trkpt lat="59.9954829" lon="17.7361872">
        <ele>43.3966</ele>
        <time>2013-04-28T10:41:22Z</time>
      </trkpt>
      <trkpt lat="59.9955625" lon="17.7361851">
        <ele>43.3966</ele>
        <time>2013-04-28T10:41:23Z</time>
      </trkpt>
      <trkpt lat="59.9956419" lon="17.7361811">
        <ele>42.916</ele>
        <time>2013-04-28T10:41:24Z</time>
      </trkpt>
      <trkpt lat="59.9957129" lon="17.7361792">
        <ele>42.916</ele>
        <time>2013-04-28T10:41:25Z</time>
      </trkpt>
      <trkpt lat="59.9957788" lon="17.7361782">
        <ele>42.4354</ele>
        <time>2013-04-28T10:41:26Z</time>
      </trkpt>
      <trkpt lat="59.9958461" lon="17.7361763">
        <ele>42.4354</ele>
        <time>2013-04-28T10:41:27Z</time>
      </trkpt>
      <trkpt lat="59.9959131" lon="17.7361702">
        <ele>41.9547</ele>
        <time>2013-04-28T10:41:28Z</time>
      </trkpt>
      <trkpt lat="59.995982" lon="17.7361638">
        <ele>41.9547</ele>
        <time>2013-04-28T10:41:29Z</time>
      </trkpt>
      <trkpt lat="59.9960538" lon="17.7361621">
        <ele>41.9547</ele>
        <time>2013-04-28T10:41:30Z</time>
      </trkpt>
      <trkpt lat="59.9961271" lon="17.736171">
        <ele>41.9547</ele>
        <time>2013-04-28T10:41:31Z</time>
      </trkpt>
      <trkpt lat="59.9961985" lon="17.7361918">
        <ele>41.9547</ele>
        <time>2013-04-28T10:41:32Z</time>
      </trkpt>
      <trkpt lat="59.9962674" lon="17.7362224">
        <ele>42.4354</ele>
        <time>2013-04-28T10:41:33Z</time>
      </trkpt>
      <trkpt lat="59.9963397" lon="17.736245">
        <ele>42.4354</ele>
        <time>2013-04-28T10:41:34Z</time>
      </trkpt>
      <trkpt lat="59.996408" lon="17.7362841">
        <ele>42.4354</ele>
        <time>2013-04-28T10:41:35Z</time>
      </trkpt>
      <trkpt lat="59.9964749" lon="17.7363218">
        <ele>42.4354</ele>
        <time>2013-04-28T10:41:36Z</time>
      </trkpt>
      <trkpt lat="59.9965399" lon="17.7363575">
        <ele>42.4354</ele>
        <time>2013-04-28T10:41:37Z</time>
      </trkpt>
      <trkpt lat="59.9966044" lon="17.7363975">
        <ele>42.916</ele>
        <time>2013-04-28T10:41:38Z</time>
      </trkpt>
      <trkpt lat="59.9966684" lon="17.7364369">
        <ele>42.916</ele>
        <time>2013-04-28T10:41:39Z</time>
      </trkpt>
      <trkpt lat="59.9967352" lon="17.7364624">
        <ele>42.916</ele>
        <time>2013-04-28T10:41:40Z</time>
      </trkpt>
      <trkpt lat="59.9968023" lon="17.7364902">
        <ele>42.916</ele>
        <time>2013-04-28T10:41:41Z</time>
      </trkpt>
      <trkpt lat="59.9968727" lon="17.7365218">
        <ele>43.3966</ele>
        <time>2013-04-28T10:41:42Z</time>
      </trkpt>
      <trkpt lat="59.9969437" lon="17.7365494">
        <ele>43.3966</ele>
        <time>2013-04-28T10:41:43Z</time>
      </trkpt>
      <trkpt lat="59.9970136" lon="17.7365769">
        <ele>43.3966</ele>
        <time>2013-04-28T10:41:44Z</time>
      </trkpt>
      <trkpt lat="59.9970804" lon="17.7366014">
        <ele>43.8773</ele>
        <time>2013-04-28T10:41:45Z</time>
      </trkpt>
      <trkpt lat="59.997146" lon="17.7366235">
        <ele>43.8773</ele>
        <time>2013-04-28T10:41:46Z</time>
      </trkpt>
      <trkpt lat="59.9972121" lon="17.7366415">
        <ele>43.8773</ele>
        <time>2013-04-28T10:41:47Z</time>
      </trkpt>
      <trkpt lat="59.9972767" lon="17.7366509">
        <ele>43.8773</ele>
        <time>2013-04-28T10:41:48Z</time>
      </trkpt>
      <trkpt lat="59.9973398" lon="17.7366576">
        <ele>43.8773</ele>
        <time>2013-04-28T10:41:49Z</time>
      </trkpt>
      <trkpt lat="59.9974017" lon="17.7366643">
        <ele>43.8773</ele>
        <time>2013-04-28T10:41:50Z</time>
      </trkpt>
      <trkpt lat="59.9974621" lon="17.736671">
        <ele>43.8773</ele>
        <time>2013-04-28T10:41:51Z</time>
      </trkpt>
      <trkpt lat="59.9975182" lon="17.7366794">
        <ele>44.358</ele>
        <time>2013-04-28T10:41:52Z</time>
      </trkpt>
      <trkpt lat="59.9975744" lon="17.736684">
        <ele>44.8386</ele>
        <time>2013-04-28T10:41:53Z</time>
      </trkpt>
      <trkpt lat="59.9976283" lon="17.7366902">
        <ele>44.8386</ele>
        <time>2013-04-28T10:41:54Z</time>
      </trkpt>
      <trkpt lat="59.9976788" lon="17.7366983">
        <ele>44.8386</ele>
        <time>2013-04-28T10:41:55Z</time>
      </trkpt>
      <trkpt lat="59.9977305" lon="17.7367062">
        <ele>44.8386</ele>
        <time>2013-04-28T10:41:56Z</time>
      </trkpt>
      <trkpt lat="59.997788" lon="17.7367057">
        <ele>44.8386</ele>
        <time>2013-04-28T10:41:57Z</time>
      </trkpt>
      <trkpt lat="59.9978465" lon="17.7367088">
        <ele>44.8386</ele>
        <time>2013-04-28T10:41:58Z</time>
      </trkpt>
      <trkpt lat="59.9979057" lon="17.7367112">
        <ele>44.8386</ele>
        <time>2013-04-28T10:41:59Z</time>
      </trkpt>
      <trkpt lat="59.9979661" lon="17.7367125">
        <ele>44.8386</ele>
        <time>2013-04-28T10:42:00Z</time>
      </trkpt>
      <trkpt lat="59.9980285" lon="17.7367126">
        <ele>44.358</ele>
        <time>2013-04-28T10:42:01Z</time>
      </trkpt>
      <trkpt lat="59.9980937" lon="17.7367105">
        <ele>44.358</ele>
        <time>2013-04-28T10:42:02Z</time>
      </trkpt>
      <trkpt lat="59.9981582" lon="17.7367135">
        <ele>43.8773</ele>
        <time>2013-04-28T10:42:03Z</time>
      </trkpt>
      <trkpt lat="59.9982216" lon="17.7367207">
        <ele>43.8773</ele>
        <time>2013-04-28T10:42:04Z</time>
      </trkpt>
      <trkpt lat="59.9982861" lon="17.7367315">
        <ele>43.3966</ele>
        <time>2013-04-28T10:42:05Z</time>
      </trkpt>
      <trkpt lat="59.9983545" lon="17.7367414">
        <ele>43.3966</ele>
        <time>2013-04-28T10:42:06Z</time>
      </trkpt>
      <trkpt lat="59.9984237" lon="17.7367499">
        <ele>42.916</ele>
        <time>2013-04-28T10:42:07Z</time>
      </trkpt>
      <trkpt lat="59.9984944" lon="17.7367601">
        <ele>42.4354</ele>
        <time>2013-04-28T10:42:08Z</time>
      </trkpt>
      <trkpt lat="59.998566" lon="17.736772">
        <ele>41.9547</ele>
        <time>2013-04-28T10:42:09Z</time>
      </trkpt>
      <trkpt lat="59.9986394" lon="17.736784">
        <ele>41.474</ele>
        <time>2013-04-28T10:42:10Z</time>
      </trkpt>
      <trkpt lat="59.9987169" lon="17.7367928">
        <ele>41.474</ele>
        <time>2013-04-28T10:42:11Z</time>
      </trkpt>
      <trkpt lat="59.9987908" lon="17.7367996">
        <ele>41.474</ele>
        <time>2013-04-28T10:42:12Z</time>
      </trkpt>
      <trkpt lat="59.9988608" lon="17.7368103">
        <ele>41.474</ele>
        <time>2013-04-28T10:42:13Z</time>
      </trkpt>
      <trkpt lat="59.9989333" lon="17.7368224">
        <ele>41.474</ele>
        <time>2013-04-28T10:42:14Z</time>
      </trkpt>
      <trkpt lat="59.9990051" lon="17.7368326">
        <ele>41.474</ele>
        <time>2013-04-28T10:42:15Z</time>
      </trkpt>
      <trkpt lat="59.9990737" lon="17.7368428">
        <ele>41.474</ele>
        <time>2013-04-28T10:42:16Z</time>
      </trkpt>
      <trkpt lat="59.9991431" lon="17.736854">
        <ele>41.474</ele>
        <time>2013-04-28T10:42:17Z</time>
      </trkpt>
      <trkpt lat="59.9992099" lon="17.7368648">
        <ele>41.9547</ele>
        <time>2013-04-28T10:42:18Z</time>
      </trkpt>
      <trkpt lat="59.9992731" lon="17.7368754">
        <ele>42.4354</ele>
        <time>2013-04-28T10:42:19Z</time>
      </trkpt>
      <trkpt lat="59.9993379" lon="17.7368814">
        <ele>42.4354</ele>
        <time>2013-04-28T10:42:20Z</time>
      </trkpt>
      <trkpt lat="59.9993985" lon="17.7368922">
        <ele>42.4354</ele>
        <time>2013-04-28T10:42:21Z</time>
      </trkpt>
      <trkpt lat="59.9994571" lon="17.736901">
        <ele>42.916</ele>
        <time>2013-04-28T10:42:22Z</time>
      </trkpt>
      <trkpt lat="59.9995138" lon="17.7369088">
        <ele>42.916</ele>
        <time>2013-04-28T10:42:23Z</time>
      </trkpt>
      <trkpt lat="59.9995664" lon="17.7369155">
        <ele>42.916</ele>
        <time>2013-04-28T10:42:24Z</time>
      </trkpt>
      <trkpt lat="59.9996151" lon="17.7369243">
        <ele>42.916</ele>
        <time>2013-04-28T10:42:25Z</time>
      </trkpt>
      <trkpt lat="59.9996606" lon="17.7369357">
        <ele>42.916</ele>
        <time>2013-04-28T10:42:26Z</time>
      </trkpt>
      <trkpt lat="59.9997063" lon="17.7369451">
        <ele>42.916</ele>
        <time>2013-04-28T10:42:27Z</time>
      </trkpt>
      <trkpt lat="59.9997563" lon="17.7369529">
        <ele>43.3966</ele>
        <time>2013-04-28T10:42:28Z</time>
      </trkpt>
      <trkpt lat="59.999808" lon="17.7369544">
        <ele>43.3966</ele>
        <time>2013-04-28T10:42:29Z</time>
      </trkpt>
      <trkpt lat="59.9998591" lon="17.736958">
        <ele>43.3966</ele>
        <time>2013-04-28T10:42:30Z</time>
      </trkpt>
      <trkpt lat="59.9999118" lon="17.7369626">
        <ele>43.3966</ele>
        <time>2013-04-28T10:42:31Z</time>
      </trkpt>
      <trkpt lat="59.9999677" lon="17.7369673">
        <ele>43.3966</ele>
        <time>2013-04-28T10:42:32Z</time>
      </trkpt>
      <trkpt lat="60.0000278" lon="17.736965">
        <ele>42.916</ele>
        <time>2013-04-28T10:42:33Z</time>
      </trkpt>
      <trkpt lat="60.0000912" lon="17.7369557">
        <ele>42.916</ele>
        <time>2013-04-28T10:42:34Z</time>
      </trkpt>
      <trkpt lat="60.0001585" lon="17.7369431">
        <ele>42.4354</ele>
        <time>2013-04-28T10:42:35Z</time>
      </trkpt>
      <trkpt lat="60.0002298" lon="17.7369238">
        <ele>42.4354</ele>
        <time>2013-04-28T10:42:36Z</time>
      </trkpt>
      <trkpt lat="60.0003036" lon="17.7368952">
        <ele>41.9547</ele>
        <time>2013-04-28T10:42:37Z</time>
      </trkpt>
      <trkpt lat="60.0003779" lon="17.7368576">
        <ele>41.474</ele>
        <time>2013-04-28T10:42:38Z</time>
      </trkpt>
      <trkpt lat="60.0004551" lon="17.7368074">
        <ele>41.474</ele>
        <time>2013-04-28T10:42:39Z</time>
      </trkpt>
      <trkpt lat="60.0005304" lon="17.7367507">
        <ele>41.474</ele>
        <time>2013-04-28T10:42:40Z</time>
      </trkpt>
      <trkpt lat="60.000606" lon="17.7366905">
        <ele>41.9547</ele>
        <time>2013-04-28T10:42:41Z</time>
      </trkpt>
      <trkpt lat="60.0006812" lon="17.736628">
        <ele>41.9547</ele>
        <time>2013-04-28T10:42:42Z</time>
      </trkpt>
      <trkpt lat="60.0007555" lon="17.7365667">
        <ele>42.4354</ele>
        <time>2013-04-28T10:42:43Z</time>
      </trkpt>
      <trkpt lat="60.0008287" lon="17.736514">
        <ele>42.4354</ele>
        <time>2013-04-28T10:42:44Z</time>
      </trkpt>
      <trkpt lat="60.0009018" lon="17.7364695">
        <ele>42.916</ele>
        <time>2013-04-28T10:42:45Z</time>
      </trkpt>
      <trkpt lat="60.0009732" lon="17.7364291">
        <ele>42.916</ele>
        <time>2013-04-28T10:42:46Z</time>
      </trkpt>
      <trkpt lat="60.0010453" lon="17.7363921">
        <ele>43.3966</ele>
        <time>2013-04-28T10:42:47Z</time>
      </trkpt>
      <trkpt lat="60.0011163" lon="17.7363597">
        <ele>43.3966</ele>
        <time>2013-04-28T10:42:48Z</time>
      </trkpt>
      <trkpt lat="60.0011844" lon="17.7363254">
        <ele>43.3966</ele>
        <time>2013-04-28T10:42:49Z</time>
      </trkpt>
      <trkpt lat="60.0012494" lon="17.7362831">
        <ele>43.8773</ele>
        <time>2013-04-28T10:42:50Z</time>
      </trkpt>
      <trkpt lat="60.001312" lon="17.7362306">
        <ele>43.8773</ele>
        <time>2013-04-28T10:42:51Z</time>
      </trkpt>
      <trkpt lat="60.001371" lon="17.7361694">
        <ele>43.8773</ele>
        <time>2013-04-28T10:42:52Z</time>
      </trkpt>
      <trkpt lat="60.0014265" lon="17.7361055">
        <ele>43.8773</ele>
        <time>2013-04-28T10:42:53Z</time>
      </trkpt>
      <trkpt lat="60.0014841" lon="17.7360412">
        <ele>43.8773</ele>
        <time>2013-04-28T10:42:54Z</time>
      </trkpt>
      <trkpt lat="60.001542" lon="17.7359736">
        <ele>43.8773</ele>
        <time>2013-04-28T10:42:55Z</time>
      </trkpt>
      <trkpt lat="60.0015999" lon="17.7359021">
        <ele>43.8773</ele>
        <time>2013-04-28T10:42:56Z</time>
      </trkpt>
      <trkpt lat="60.0016596" lon="17.735825">
        <ele>43.8773</ele>
        <time>2013-04-28T10:42:57Z</time>
      </trkpt>
      <trkpt lat="60.0017232" lon="17.7357365">
        <ele>43.3966</ele>
        <time>2013-04-28T10:42:58Z</time>
      </trkpt>
      <trkpt lat="60.0017913" lon="17.735636">
        <ele>42.916</ele>
        <time>2013-04-28T10:42:59Z</time>
      </trkpt>
      <trkpt lat="60.0018604" lon="17.7355215">
        <ele>41.9547</ele>
        <time>2013-04-28T10:43:00Z</time>
      </trkpt>
      <trkpt lat="60.0019265" lon="17.7353865">
        <ele>41.9547</ele>
        <time>2013-04-28T10:43:01Z</time>
      </trkpt>
      <trkpt lat="60.0019808" lon="17.735235">
        <ele>41.9547</ele>
        <time>2013-04-28T10:43:02Z</time>
      </trkpt>
      <trkpt lat="60.0020313" lon="17.7350728">
        <ele>41.474</ele>
        <time>2013-04-28T10:43:03Z</time>
      </trkpt>
      <trkpt lat="60.0020764" lon="17.7349014">
        <ele>40.9934</ele>
        <time>2013-04-28T10:43:04Z</time>
      </trkpt>
      <trkpt lat="60.0021156" lon="17.7347203">
        <ele>40.9934</ele>
        <time>2013-04-28T10:43:05Z</time>
      </trkpt>
      <trkpt lat="60.0021485" lon="17.7345347">
        <ele>40.5128</ele>
        <time>2013-04-28T10:43:06Z</time>
      </trkpt>
      <trkpt lat="60.0021777" lon="17.7343497">
        <ele>40.5128</ele>
        <time>2013-04-28T10:43:07Z</time>
      </trkpt>
      <trkpt lat="60.0022067" lon="17.7341689">
        <ele>40.9934</ele>
        <time>2013-04-28T10:43:08Z</time>
      </trkpt>
      <trkpt lat="60.0022325" lon="17.7339904">
        <ele>40.5128</ele>
        <time>2013-04-28T10:43:09Z</time>
      </trkpt>
      <trkpt lat="60.0022523" lon="17.7338068">
        <ele>40.0321</ele>
        <time>2013-04-28T10:43:10Z</time>
      </trkpt>
      <trkpt lat="60.0022608" lon="17.7335861">
        <ele>40.0321</ele>
        <time>2013-04-28T10:43:11Z</time>
      </trkpt>
      <trkpt lat="60.0022558" lon="17.7333783">
        <ele>39.5513</ele>
        <time>2013-04-28T10:43:12Z</time>
      </trkpt>
      <trkpt lat="60.0022425" lon="17.733162">
        <ele>38.5901</ele>
        <time>2013-04-28T10:43:13Z</time>
      </trkpt>
      <trkpt lat="60.0022407" lon="17.7329468">
        <ele>38.1094</ele>
        <time>2013-04-28T10:43:14Z</time>
      </trkpt>
      <trkpt lat="60.0022454" lon="17.7327336">
        <ele>37.1481</ele>
        <time>2013-04-28T10:43:15Z</time>
      </trkpt>
      <trkpt lat="60.002263" lon="17.7325243">
        <ele>36.6675</ele>
        <time>2013-04-28T10:43:16Z</time>
      </trkpt>
      <trkpt lat="60.002289" lon="17.7323197">
        <ele>35.7061</ele>
        <time>2013-04-28T10:43:17Z</time>
      </trkpt>
      <trkpt lat="60.0023233" lon="17.732127">
        <ele>35.2255</ele>
        <time>2013-04-28T10:43:18Z</time>
      </trkpt>
      <trkpt lat="60.0023619" lon="17.7319474">
        <ele>34.7449</ele>
        <time>2013-04-28T10:43:19Z</time>
      </trkpt>
      <trkpt lat="60.0024066" lon="17.7317747">
        <ele>34.7449</ele>
        <time>2013-04-28T10:43:20Z</time>
      </trkpt>
      <trkpt lat="60.0024547" lon="17.7316085">
        <ele>34.2642</ele>
        <time>2013-04-28T10:43:21Z</time>
      </trkpt>
      <trkpt lat="60.0025087" lon="17.7314504">
        <ele>34.2642</ele>
        <time>2013-04-28T10:43:22Z</time>
      </trkpt>
      <trkpt lat="60.0025654" lon="17.7312987">
        <ele>34.2642</ele>
        <time>2013-04-28T10:43:23Z</time>
      </trkpt>
      <trkpt lat="60.002623" lon="17.7311474">
        <ele>34.2642</ele>
        <time>2013-04-28T10:43:24Z</time>
      </trkpt>
      <trkpt lat="60.002684" lon="17.7309982">
        <ele>34.2642</ele>
        <time>2013-04-28T10:43:25Z</time>
      </trkpt>
      <trkpt lat="60.0027501" lon="17.7308537">
        <ele>34.2642</ele>
        <time>2013-04-28T10:43:26Z</time>
      </trkpt>
      <trkpt lat="60.0028206" lon="17.7307151">
        <ele>34.2642</ele>
        <time>2013-04-28T10:43:27Z</time>
      </trkpt>
      <trkpt lat="60.0028939" lon="17.7305787">
        <ele>34.2642</ele>
        <time>2013-04-28T10:43:28Z</time>
      </trkpt>
      <trkpt lat="60.002971" lon="17.7304526">
        <ele>34.2642</ele>
        <time>2013-04-28T10:43:29Z</time>
      </trkpt>
      <trkpt lat="60.003047" lon="17.7303306">
        <ele>34.7449</ele>
        <time>2013-04-28T10:43:30Z</time>
      </trkpt>
      <trkpt lat="60.0031216" lon="17.7302109">
        <ele>34.7449</ele>
        <time>2013-04-28T10:43:31Z</time>
      </trkpt>
      <trkpt lat="60.0031924" lon="17.7300872">
        <ele>35.2255</ele>
        <time>2013-04-28T10:43:32Z</time>
      </trkpt>
      <trkpt lat="60.0032609" lon="17.7299689">
        <ele>35.2255</ele>
        <time>2013-04-28T10:43:33Z</time>
      </trkpt>
      <trkpt lat="60.0033281" lon="17.729851">
        <ele>35.2255</ele>
        <time>2013-04-28T10:43:34Z</time>
      </trkpt>
      <trkpt lat="60.0033947" lon="17.7297287">
        <ele>35.2255</ele>
        <time>2013-04-28T10:43:35Z</time>
      </trkpt>
      <trkpt lat="60.0034624" lon="17.7296099">
        <ele>35.2255</ele>
        <time>2013-04-28T10:43:36Z</time>
      </trkpt>
      <trkpt lat="60.0035302" lon="17.729494">
        <ele>35.2255</ele>
        <time>2013-04-28T10:43:37Z</time>
      </trkpt>
      <trkpt lat="60.0035974" lon="17.7293801">
        <ele>35.2255</ele>
        <time>2013-04-28T10:43:38Z</time>
      </trkpt>
      <trkpt lat="60.0036633" lon="17.7292695">
        <ele>35.2255</ele>
        <time>2013-04-28T10:43:39Z</time>
      </trkpt>
      <trkpt lat="60.0037254" lon="17.7291635">
        <ele>35.2255</ele>
        <time>2013-04-28T10:43:40Z</time>
      </trkpt>
      <trkpt lat="60.0037829" lon="17.729069">
        <ele>35.2255</ele>
        <time>2013-04-28T10:43:41Z</time>
      </trkpt>
      <trkpt lat="60.0038366" lon="17.7289906">
        <ele>35.2255</ele>
        <time>2013-04-28T10:43:42Z</time>
      </trkpt>
      <trkpt lat="60.0038875" lon="17.7289264">
        <ele>35.2255</ele>
        <time>2013-04-28T10:43:43Z</time>
      </trkpt>
      <trkpt lat="60.0039352" lon="17.7288753">
        <ele>35.2255</ele>
        <time>2013-04-28T10:43:44Z</time>
      </trkpt>
      <trkpt lat="60.0039811" lon="17.7288347">
        <ele>35.2255</ele>
        <time>2013-04-28T10:43:45Z</time>
      </trkpt>
      <trkpt lat="60.004026" lon="17.7288092">
        <ele>35.2255</ele>
        <time>2013-04-28T10:43:46Z</time>
      </trkpt>
      <trkpt lat="60.0040703" lon="17.7288067">
        <ele>35.2255</ele>
        <time>2013-04-28T10:43:47Z</time>
      </trkpt>
      <trkpt lat="60.0041106" lon="17.7288356">
        <ele>35.2255</ele>
        <time>2013-04-28T10:43:48Z</time>
      </trkpt>
      <trkpt lat="60.0041441" lon="17.728889">
        <ele>35.2255</ele>
        <time>2013-04-28T10:43:49Z</time>
      </trkpt>
      <trkpt lat="60.0041708" lon="17.7289573">
        <ele>35.2255</ele>
        <time>2013-04-28T10:43:50Z</time>
      </trkpt>
      <trkpt lat="60.0041952" lon="17.7290356">
        <ele>34.7449</ele>
        <time>2013-04-28T10:43:51Z</time>
      </trkpt>
      <trkpt lat="60.0042182" lon="17.7291221">
        <ele>34.7449</ele>
        <time>2013-04-28T10:43:52Z</time>
      </trkpt>
      <trkpt lat="60.0042409" lon="17.7292154">
        <ele>34.7449</ele>
        <time>2013-04-28T10:43:53Z</time>
      </trkpt>
      <trkpt lat="60.0042677" lon="17.7293149">
        <ele>34.2642</ele>
        <time>2013-04-28T10:43:54Z</time>
      </trkpt>
      <trkpt lat="60.0042984" lon="17.7294173">
        <ele>34.2642</ele>
        <time>2013-04-28T10:43:55Z</time>
      </trkpt>
      <trkpt lat="60.0043308" lon="17.7295214">
        <ele>34.7449</ele>
        <time>2013-04-28T10:43:56Z</time>
      </trkpt>
      <trkpt lat="60.0043616" lon="17.7296295">
        <ele>34.2642</ele>
        <time>2013-04-28T10:43:57Z</time>
      </trkpt>
      <trkpt lat="60.004393" lon="17.7297414">
        <ele>34.2642</ele>
        <time>2013-04-28T10:43:58Z</time>
      </trkpt>
      <trkpt lat="60.0044283" lon="17.7298545">
        <ele>34.7449</ele>
        <time>2013-04-28T10:43:59Z</time>
      </trkpt>
      <trkpt lat="60.0044631" lon="17.7299694">
        <ele>34.7449</ele>
        <time>2013-04-28T10:44:00Z</time>
      </trkpt>
      <trkpt lat="60.0044993" lon="17.7300879">
        <ele>34.7449</ele>
        <time>2013-04-28T10:44:01Z</time>
      </trkpt>
      <trkpt lat="60.0045336" lon="17.7302074">
        <ele>34.2642</ele>
        <time>2013-04-28T10:44:02Z</time>
      </trkpt>
      <trkpt lat="60.0045707" lon="17.7303296">
        <ele>34.2642</ele>
        <time>2013-04-28T10:44:03Z</time>
      </trkpt>
      <trkpt lat="60.0046092" lon="17.7304557">
        <ele>34.2642</ele>
        <time>2013-04-28T10:44:04Z</time>
      </trkpt>
      <trkpt lat="60.0046492" lon="17.7305832">
        <ele>34.7449</ele>
        <time>2013-04-28T10:44:05Z</time>
      </trkpt>
      <trkpt lat="60.0046887" lon="17.7307101">
        <ele>35.2255</ele>
        <time>2013-04-28T10:44:06Z</time>
      </trkpt>
      <trkpt lat="60.0047242" lon="17.7308326">
        <ele>35.7061</ele>
        <time>2013-04-28T10:44:07Z</time>
      </trkpt>
      <trkpt lat="60.0047592" lon="17.7309504">
        <ele>35.7061</ele>
        <time>2013-04-28T10:44:08Z</time>
      </trkpt>
      <trkpt lat="60.004792" lon="17.7310615">
        <ele>36.1868</ele>
        <time>2013-04-28T10:44:09Z</time>
      </trkpt>
      <trkpt lat="60.0048251" lon="17.7311701">
        <ele>36.1868</ele>
        <time>2013-04-28T10:44:10Z</time>
      </trkpt>
      <trkpt lat="60.0048581" lon="17.7312758">
        <ele>36.1868</ele>
        <time>2013-04-28T10:44:11Z</time>
      </trkpt>
      <trkpt lat="60.0048899" lon="17.7313805">
        <ele>36.6675</ele>
        <time>2013-04-28T10:44:12Z</time>
      </trkpt>
      <trkpt lat="60.0049213" lon="17.7314847">
        <ele>36.6675</ele>
        <time>2013-04-28T10:44:13Z</time>
      </trkpt>
      <trkpt lat="60.0049526" lon="17.7315868">
        <ele>37.1481</ele>
        <time>2013-04-28T10:44:14Z</time>
      </trkpt>
      <trkpt lat="60.0049847" lon="17.7316862">
        <ele>37.1481</ele>
        <time>2013-04-28T10:44:15Z</time>
      </trkpt>
      <trkpt lat="60.0050163" lon="17.731783">
        <ele>37.1481</ele>
        <time>2013-04-28T10:44:16Z</time>
      </trkpt>
      <trkpt lat="60.0050473" lon="17.7318774">
        <ele>37.6287</ele>
        <time>2013-04-28T10:44:17Z</time>
      </trkpt>
      <trkpt lat="60.0050772" lon="17.7319709">
        <ele>37.6287</ele>
        <time>2013-04-28T10:44:18Z</time>
      </trkpt>
      <trkpt lat="60.0051071" lon="17.7320637">
        <ele>37.6287</ele>
        <time>2013-04-28T10:44:19Z</time>
      </trkpt>
      <trkpt lat="60.0051375" lon="17.7321556">
        <ele>37.6287</ele>
        <time>2013-04-28T10:44:20Z</time>
      </trkpt>
      <trkpt lat="60.0051679" lon="17.7322475">
        <ele>37.6287</ele>
        <time>2013-04-28T10:44:21Z</time>
      </trkpt>
      <trkpt lat="60.0051981" lon="17.7323384">
        <ele>38.1094</ele>
        <time>2013-04-28T10:44:22Z</time>
      </trkpt>
      <trkpt lat="60.0052287" lon="17.732428">
        <ele>38.1094</ele>
        <time>2013-04-28T10:44:23Z</time>
      </trkpt>
      <trkpt lat="60.0052596" lon="17.7325171">
        <ele>38.1094</ele>
        <time>2013-04-28T10:44:24Z</time>
      </trkpt>
      <trkpt lat="60.0052898" lon="17.7326068">
        <ele>38.1094</ele>
        <time>2013-04-28T10:44:25Z</time>
      </trkpt>
      <trkpt lat="60.0053204" lon="17.732697">
        <ele>38.5901</ele>
        <time>2013-04-28T10:44:26Z</time>
      </trkpt>
      <trkpt lat="60.0053529" lon="17.7327871">
        <ele>38.5901</ele>
        <time>2013-04-28T10:44:27Z</time>
      </trkpt>
      <trkpt lat="60.0053863" lon="17.7328776">
        <ele>38.5901</ele>
        <time>2013-04-28T10:44:28Z</time>
      </trkpt>
      <trkpt lat="60.0054205" lon="17.7329694">
        <ele>39.0707</ele>
        <time>2013-04-28T10:44:29Z</time>
      </trkpt>
      <trkpt lat="60.0054545" lon="17.7330632">
        <ele>39.0707</ele>
        <time>2013-04-28T10:44:30Z</time>
      </trkpt>
      <trkpt lat="60.0054877" lon="17.7331593">
        <ele>39.0707</ele>
        <time>2013-04-28T10:44:31Z</time>
      </trkpt>
      <trkpt lat="60.0055233" lon="17.7332546">
        <ele>39.5513</ele>
        <time>2013-04-28T10:44:32Z</time>
      </trkpt>
      <trkpt lat="60.0055601" lon="17.73335">
        <ele>39.5513</ele>
        <time>2013-04-28T10:44:33Z</time>
      </trkpt>
      <trkpt lat="60.005597" lon="17.7334474">
        <ele>39.5513</ele>
        <time>2013-04-28T10:44:34Z</time>
      </trkpt>
      <trkpt lat="60.0056342" lon="17.7335454">
        <ele>40.0321</ele>
        <time>2013-04-28T10:44:35Z</time>
      </trkpt>
      <trkpt lat="60.0056726" lon="17.7336427">
        <ele>40.0321</ele>
        <time>2013-04-28T10:44:36Z</time>
      </trkpt>
      <trkpt lat="60.0057099" lon="17.7337396">
        <ele>40.0321</ele>
        <time>2013-04-28T10:44:37Z</time>
      </trkpt>
      <trkpt lat="60.0057463" lon="17.7338385">
        <ele>40.0321</ele>
        <time>2013-04-28T10:44:38Z</time>
      </trkpt>
      <trkpt lat="60.0057867" lon="17.7339371">
        <ele>40.5128</ele>
        <time>2013-04-28T10:44:39Z</time>
      </trkpt>
      <trkpt lat="60.0058253" lon="17.7340341">
        <ele>40.5128</ele>
        <time>2013-04-28T10:44:40Z</time>
      </trkpt>
      <trkpt lat="60.0058607" lon="17.7341307">
        <ele>40.5128</ele>
        <time>2013-04-28T10:44:41Z</time>
      </trkpt>
      <trkpt lat="60.005899" lon="17.7342266">
        <ele>40.9934</ele>
        <time>2013-04-28T10:44:42Z</time>
      </trkpt>
      <trkpt lat="60.0059378" lon="17.7343227">
        <ele>40.9934</ele>
        <time>2013-04-28T10:44:43Z</time>
      </trkpt>
      <trkpt lat="60.0059784" lon="17.7344171">
        <ele>40.9934</ele>
        <time>2013-04-28T10:44:44Z</time>
      </trkpt>
      <trkpt lat="60.0060183" lon="17.7345114">
        <ele>40.9934</ele>
        <time>2013-04-28T10:44:45Z</time>
      </trkpt>
      <trkpt lat="60.0060584" lon="17.7346069">
        <ele>41.474</ele>
        <time>2013-04-28T10:44:46Z</time>
      </trkpt>
      <trkpt lat="60.0060964" lon="17.7347034">
        <ele>41.474</ele>
        <time>2013-04-28T10:44:47Z</time>
      </trkpt>
      <trkpt lat="60.0061369" lon="17.7347994">
        <ele>41.474</ele>
        <time>2013-04-28T10:44:48Z</time>
      </trkpt>
      <trkpt lat="60.0061794" lon="17.7348948">
        <ele>41.474</ele>
        <time>2013-04-28T10:44:49Z</time>
      </trkpt>
      <trkpt lat="60.0062218" lon="17.7349895">
        <ele>41.9547</ele>
        <time>2013-04-28T10:44:50Z</time>
      </trkpt>
      <trkpt lat="60.0062637" lon="17.7350822">
        <ele>41.9547</ele>
        <time>2013-04-28T10:44:51Z</time>
      </trkpt>
      <trkpt lat="60.0063054" lon="17.7351765">
        <ele>41.9547</ele>
        <time>2013-04-28T10:44:52Z</time>
      </trkpt>
      <trkpt lat="60.0063477" lon="17.7352714">
        <ele>41.9547</ele>
        <time>2013-04-28T10:44:53Z</time>
      </trkpt>
      <trkpt lat="60.0063911" lon="17.7353659">
        <ele>41.9547</ele>
        <time>2013-04-28T10:44:54Z</time>
      </trkpt>
      <trkpt lat="60.006434" lon="17.7354589">
        <ele>42.4354</ele>
        <time>2013-04-28T10:44:55Z</time>
      </trkpt>
      <trkpt lat="60.0064761" lon="17.7355517">
        <ele>42.4354</ele>
        <time>2013-04-28T10:44:56Z</time>
      </trkpt>
      <trkpt lat="60.0065187" lon="17.7356454">
        <ele>42.4354</ele>
        <time>2013-04-28T10:44:57Z</time>
      </trkpt>
      <trkpt lat="60.0065615" lon="17.7357391">
        <ele>42.4354</ele>
        <time>2013-04-28T10:44:58Z</time>
      </trkpt>
      <trkpt lat="60.0066025" lon="17.7358332">
        <ele>42.4354</ele>
        <time>2013-04-28T10:44:59Z</time>
      </trkpt>
      <trkpt lat="60.0066451" lon="17.7359249">
        <ele>42.916</ele>
        <time>2013-04-28T10:45:00Z</time>
      </trkpt>
      <trkpt lat="60.0066905" lon="17.7360142">
        <ele>42.916</ele>
        <time>2013-04-28T10:45:01Z</time>
      </trkpt>
      <trkpt lat="60.0067339" lon="17.7361043">
        <ele>43.3966</ele>
        <time>2013-04-28T10:45:02Z</time>
      </trkpt>
      <trkpt lat="60.00678" lon="17.7361945">
        <ele>43.3966</ele>
        <time>2013-04-28T10:45:03Z</time>
      </trkpt>
      <trkpt lat="60.006825" lon="17.7362867">
        <ele>43.8773</ele>
        <time>2013-04-28T10:45:04Z</time>
      </trkpt>
      <trkpt lat="60.0068699" lon="17.7363797">
        <ele>43.8773</ele>
        <time>2013-04-28T10:45:05Z</time>
      </trkpt>
      <trkpt lat="60.0069148" lon="17.7364722">
        <ele>43.8773</ele>
        <time>2013-04-28T10:45:06Z</time>
      </trkpt>
      <trkpt lat="60.0069599" lon="17.7365646">
        <ele>43.8773</ele>
        <time>2013-04-28T10:45:07Z</time>
      </trkpt>
      <trkpt lat="60.0070074" lon="17.736656">
        <ele>43.8773</ele>
        <time>2013-04-28T10:45:08Z</time>
      </trkpt>
      <trkpt lat="60.0070542" lon="17.7367472">
        <ele>43.8773</ele>
        <time>2013-04-28T10:45:09Z</time>
      </trkpt>
      <trkpt lat="60.0071007" lon="17.7368392">
        <ele>43.8773</ele>
        <time>2013-04-28T10:45:10Z</time>
      </trkpt>
      <trkpt lat="60.0071483" lon="17.7369316">
        <ele>43.8773</ele>
        <time>2013-04-28T10:45:11Z</time>
      </trkpt>
      <trkpt lat="60.0071982" lon="17.7370242">
        <ele>43.8773</ele>
        <time>2013-04-28T10:45:12Z</time>
      </trkpt>
      <trkpt lat="60.0072496" lon="17.737115">
        <ele>44.358</ele>
        <time>2013-04-28T10:45:13Z</time>
      </trkpt>
      <trkpt lat="60.0073007" lon="17.7372051">
        <ele>44.358</ele>
        <time>2013-04-28T10:45:14Z</time>
      </trkpt>
      <trkpt lat="60.0073497" lon="17.7372955">
        <ele>44.358</ele>
        <time>2013-04-28T10:45:15Z</time>
      </trkpt>
      <trkpt lat="60.0074008" lon="17.7373811">
        <ele>44.358</ele>
        <time>2013-04-28T10:45:16Z</time>
      </trkpt>
      <trkpt lat="60.007451" lon="17.7374662">
        <ele>44.358</ele>
        <time>2013-04-28T10:45:17Z</time>
      </trkpt>
      <trkpt lat="60.0074997" lon="17.7375547">
        <ele>44.358</ele>
        <time>2013-04-28T10:45:18Z</time>
      </trkpt>
      <trkpt lat="60.0075489" lon="17.7376433">
        <ele>44.358</ele>
        <time>2013-04-28T10:45:19Z</time>
      </trkpt>
      <trkpt lat="60.0076007" lon="17.7377304">
        <ele>44.358</ele>
        <time>2013-04-28T10:45:20Z</time>
      </trkpt>
      <trkpt lat="60.0076509" lon="17.7378178">
        <ele>44.358</ele>
        <time>2013-04-28T10:45:21Z</time>
      </trkpt>
      <trkpt lat="60.007701" lon="17.7379045">
        <ele>44.358</ele>
        <time>2013-04-28T10:45:22Z</time>
      </trkpt>
      <trkpt lat="60.007753" lon="17.7379884">
        <ele>44.358</ele>
        <time>2013-04-28T10:45:23Z</time>
      </trkpt>
      <trkpt lat="60.0078048" lon="17.7380711">
        <ele>44.358</ele>
        <time>2013-04-28T10:45:24Z</time>
      </trkpt>
      <trkpt lat="60.0078543" lon="17.7381541">
        <ele>44.358</ele>
        <time>2013-04-28T10:45:25Z</time>
      </trkpt>
      <trkpt lat="60.0079047" lon="17.7382368">
        <ele>44.358</ele>
        <time>2013-04-28T10:45:26Z</time>
      </trkpt>
      <trkpt lat="60.0079538" lon="17.7383198">
        <ele>44.358</ele>
        <time>2013-04-28T10:45:27Z</time>
      </trkpt>
      <trkpt lat="60.0080072" lon="17.7384006">
        <ele>44.358</ele>
        <time>2013-04-28T10:45:28Z</time>
      </trkpt>
      <trkpt lat="60.0080589" lon="17.738482">
        <ele>44.8386</ele>
        <time>2013-04-28T10:45:29Z</time>
      </trkpt>
      <trkpt lat="60.0081064" lon="17.7385667">
        <ele>44.8386</ele>
        <time>2013-04-28T10:45:30Z</time>
      </trkpt>
      <trkpt lat="60.0081584" lon="17.7386477">
        <ele>44.8386</ele>
        <time>2013-04-28T10:45:31Z</time>
      </trkpt>
      <trkpt lat="60.0082123" lon="17.7387274">
        <ele>44.358</ele>
        <time>2013-04-28T10:45:32Z</time>
      </trkpt>
      <trkpt lat="60.0082651" lon="17.7388086">
        <ele>44.358</ele>
        <time>2013-04-28T10:45:33Z</time>
      </trkpt>
      <trkpt lat="60.0083186" lon="17.73889">
        <ele>44.358</ele>
        <time>2013-04-28T10:45:34Z</time>
      </trkpt>
      <trkpt lat="60.0083708" lon="17.7389711">
        <ele>44.358</ele>
        <time>2013-04-28T10:45:35Z</time>
      </trkpt>
      <trkpt lat="60.0084244" lon="17.7390503">
        <ele>44.358</ele>
        <time>2013-04-28T10:45:36Z</time>
      </trkpt>
      <trkpt lat="60.0084787" lon="17.7391291">
        <ele>44.358</ele>
        <time>2013-04-28T10:45:37Z</time>
      </trkpt>
      <trkpt lat="60.0085346" lon="17.739207">
        <ele>44.358</ele>
        <time>2013-04-28T10:45:38Z</time>
      </trkpt>
      <trkpt lat="60.0085912" lon="17.739284">
        <ele>44.358</ele>
        <time>2013-04-28T10:45:39Z</time>
      </trkpt>
      <trkpt lat="60.0086477" lon="17.7393617">
        <ele>44.358</ele>
        <time>2013-04-28T10:45:40Z</time>
      </trkpt>
      <trkpt lat="60.0087047" lon="17.7394396">
        <ele>44.358</ele>
        <time>2013-04-28T10:45:41Z</time>
      </trkpt>
      <trkpt lat="60.0087634" lon="17.7395158">
        <ele>44.8386</ele>
        <time>2013-04-28T10:45:42Z</time>
      </trkpt>
      <trkpt lat="60.0088212" lon="17.7395916">
        <ele>44.8386</ele>
        <time>2013-04-28T10:45:43Z</time>
      </trkpt>
      <trkpt lat="60.0088815" lon="17.739667">
        <ele>44.8386</ele>
        <time>2013-04-28T10:45:44Z</time>
      </trkpt>
      <trkpt lat="60.0089393" lon="17.7397424">
        <ele>44.8386</ele>
        <time>2013-04-28T10:45:45Z</time>
      </trkpt>
      <trkpt lat="60.0089976" lon="17.7398184">
        <ele>44.8386</ele>
        <time>2013-04-28T10:45:46Z</time>
      </trkpt>
      <trkpt lat="60.0090562" lon="17.7398956">
        <ele>44.8386</ele>
        <time>2013-04-28T10:45:47Z</time>
      </trkpt>
      <trkpt lat="60.0091178" lon="17.7399713">
        <ele>45.3192</ele>
        <time>2013-04-28T10:45:48Z</time>
      </trkpt>
      <trkpt lat="60.0091786" lon="17.7400459">
        <ele>45.3192</ele>
        <time>2013-04-28T10:45:49Z</time>
      </trkpt>
      <trkpt lat="60.0092382" lon="17.740121">
        <ele>45.3192</ele>
        <time>2013-04-28T10:45:50Z</time>
      </trkpt>
      <trkpt lat="60.0092996" lon="17.7401959">
        <ele>45.3192</ele>
        <time>2013-04-28T10:45:51Z</time>
      </trkpt>
      <trkpt lat="60.009362" lon="17.7402706">
        <ele>45.3192</ele>
        <time>2013-04-28T10:45:52Z</time>
      </trkpt>
      <trkpt lat="60.0094241" lon="17.7403461">
        <ele>44.8386</ele>
        <time>2013-04-28T10:45:53Z</time>
      </trkpt>
      <trkpt lat="60.0094874" lon="17.7404214">
        <ele>44.8386</ele>
        <time>2013-04-28T10:45:54Z</time>
      </trkpt>
      <trkpt lat="60.0095525" lon="17.7404951">
        <ele>44.8386</ele>
        <time>2013-04-28T10:45:55Z</time>
      </trkpt>
      <trkpt lat="60.0096176" lon="17.7405685">
        <ele>44.8386</ele>
        <time>2013-04-28T10:45:56Z</time>
      </trkpt>
      <trkpt lat="60.009682" lon="17.740643">
        <ele>44.8386</ele>
        <time>2013-04-28T10:45:57Z</time>
      </trkpt>
      <trkpt lat="60.0097468" lon="17.7407173">
        <ele>44.358</ele>
        <time>2013-04-28T10:45:58Z</time>
      </trkpt>
      <trkpt lat="60.0098124" lon="17.7407913">
        <ele>44.358</ele>
        <time>2013-04-28T10:45:59Z</time>
      </trkpt>
      <trkpt lat="60.0098793" lon="17.7408659">
        <ele>44.358</ele>
        <time>2013-04-28T10:46:00Z</time>
      </trkpt>
      <trkpt lat="60.0099481" lon="17.7409413">
        <ele>44.358</ele>
        <time>2013-04-28T10:46:01Z</time>
      </trkpt>
      <trkpt lat="60.0100186" lon="17.7410151">
        <ele>44.358</ele>
        <time>2013-04-28T10:46:02Z</time>
      </trkpt>
      <trkpt lat="60.0100897" lon="17.7410885">
        <ele>44.358</ele>
        <time>2013-04-28T10:46:03Z</time>
      </trkpt>
      <trkpt lat="60.0101611" lon="17.7411611">
        <ele>44.358</ele>
        <time>2013-04-28T10:46:04Z</time>
      </trkpt>
      <trkpt lat="60.0102325" lon="17.7412337">
        <ele>44.358</ele>
        <time>2013-04-28T10:46:05Z</time>
      </trkpt>
      <trkpt lat="60.0103052" lon="17.7413066">
        <ele>44.358</ele>
        <time>2013-04-28T10:46:06Z</time>
      </trkpt>
      <trkpt lat="60.0103787" lon="17.74138">
        <ele>44.358</ele>
        <time>2013-04-28T10:46:07Z</time>
      </trkpt>
      <trkpt lat="60.0104528" lon="17.7414528">
        <ele>43.8773</ele>
        <time>2013-04-28T10:46:08Z</time>
      </trkpt>
      <trkpt lat="60.010528" lon="17.7415244">
        <ele>43.8773</ele>
        <time>2013-04-28T10:46:09Z</time>
      </trkpt>
      <trkpt lat="60.0106044" lon="17.7415951">
        <ele>43.8773</ele>
        <time>2013-04-28T10:46:10Z</time>
      </trkpt>
      <trkpt lat="60.0106813" lon="17.7416642">
        <ele>43.8773</ele>
        <time>2013-04-28T10:46:11Z</time>
      </trkpt>
      <trkpt lat="60.0107585" lon="17.7417335">
        <ele>43.8773</ele>
        <time>2013-04-28T10:46:12Z</time>
      </trkpt>
      <trkpt lat="60.0108365" lon="17.7418024">
        <ele>43.8773</ele>
        <time>2013-04-28T10:46:13Z</time>
      </trkpt>
      <trkpt lat="60.010915" lon="17.7418698">
        <ele>43.8773</ele>
        <time>2013-04-28T10:46:14Z</time>
      </trkpt>
      <trkpt lat="60.0109937" lon="17.7419371">
        <ele>43.8773</ele>
        <time>2013-04-28T10:46:15Z</time>
      </trkpt>
      <trkpt lat="60.0110724" lon="17.742004">
        <ele>43.8773</ele>
        <time>2013-04-28T10:46:16Z</time>
      </trkpt>
      <trkpt lat="60.0111512" lon="17.7420693">
        <ele>43.3966</ele>
        <time>2013-04-28T10:46:17Z</time>
      </trkpt>
      <trkpt lat="60.0112309" lon="17.7421343">
        <ele>43.3966</ele>
        <time>2013-04-28T10:46:18Z</time>
      </trkpt>
      <trkpt lat="60.0113115" lon="17.7422002">
        <ele>43.3966</ele>
        <time>2013-04-28T10:46:19Z</time>
      </trkpt>
      <trkpt lat="60.0113931" lon="17.7422646">
        <ele>43.3966</ele>
        <time>2013-04-28T10:46:20Z</time>
      </trkpt>
      <trkpt lat="60.0114765" lon="17.7423276">
        <ele>43.3966</ele>
        <time>2013-04-28T10:46:21Z</time>
      </trkpt>
      <trkpt lat="60.0115615" lon="17.7423904">
        <ele>42.916</ele>
        <time>2013-04-28T10:46:22Z</time>
      </trkpt>
      <trkpt lat="60.0116479" lon="17.7424535">
        <ele>42.916</ele>
        <time>2013-04-28T10:46:23Z</time>
      </trkpt>
      <trkpt lat="60.0117343" lon="17.7425171">
        <ele>42.916</ele>
        <time>2013-04-28T10:46:24Z</time>
      </trkpt>
      <trkpt lat="60.011821" lon="17.74258">
        <ele>42.916</ele>
        <time>2013-04-28T10:46:25Z</time>
      </trkpt>
      <trkpt lat="60.0119091" lon="17.742641">
        <ele>42.916</ele>
        <time>2013-04-28T10:46:26Z</time>
      </trkpt>
      <trkpt lat="60.0119974" lon="17.7427012">
        <ele>42.916</ele>
        <time>2013-04-28T10:46:27Z</time>
      </trkpt>
      <trkpt lat="60.0120849" lon="17.7427611">
        <ele>42.4354</ele>
        <time>2013-04-28T10:46:28Z</time>
      </trkpt>
      <trkpt lat="60.0121726" lon="17.7428198">
        <ele>42.4354</ele>
        <time>2013-04-28T10:46:29Z</time>
      </trkpt>
      <trkpt lat="60.0122611" lon="17.7428772">
        <ele>42.4354</ele>
        <time>2013-04-28T10:46:30Z</time>
      </trkpt>
      <trkpt lat="60.0123501" lon="17.7429333">
        <ele>41.9547</ele>
        <time>2013-04-28T10:46:31Z</time>
      </trkpt>
      <trkpt lat="60.0124402" lon="17.7429877">
        <ele>41.9547</ele>
        <time>2013-04-28T10:46:32Z</time>
      </trkpt>
      <trkpt lat="60.012531" lon="17.7430405">
        <ele>41.9547</ele>
        <time>2013-04-28T10:46:33Z</time>
      </trkpt>
      <trkpt lat="60.0126227" lon="17.7430922">
        <ele>41.474</ele>
        <time>2013-04-28T10:46:34Z</time>
      </trkpt>
      <trkpt lat="60.0127155" lon="17.7431428">
        <ele>41.474</ele>
        <time>2013-04-28T10:46:35Z</time>
      </trkpt>
      <trkpt lat="60.0128093" lon="17.7431937">
        <ele>41.474</ele>
        <time>2013-04-28T10:46:36Z</time>
      </trkpt>
      <trkpt lat="60.0129035" lon="17.7432446">
        <ele>40.9934</ele>
        <time>2013-04-28T10:46:37Z</time>
      </trkpt>
      <trkpt lat="60.0129973" lon="17.7432931">
        <ele>40.9934</ele>
        <time>2013-04-28T10:46:38Z</time>
      </trkpt>
      <trkpt lat="60.0130901" lon="17.7433388">
        <ele>40.9934</ele>
        <time>2013-04-28T10:46:39Z</time>
      </trkpt>
      <trkpt lat="60.0131827" lon="17.7433834">
        <ele>40.5128</ele>
        <time>2013-04-28T10:46:40Z</time>
      </trkpt>
      <trkpt lat="60.0132751" lon="17.7434269">
        <ele>40.5128</ele>
        <time>2013-04-28T10:46:41Z</time>
      </trkpt>
      <trkpt lat="60.0133688" lon="17.7434693">
        <ele>40.5128</ele>
        <time>2013-04-28T10:46:42Z</time>
      </trkpt>
      <trkpt lat="60.013462" lon="17.7435106">
        <ele>40.5128</ele>
        <time>2013-04-28T10:46:43Z</time>
      </trkpt>
      <trkpt lat="60.0135552" lon="17.7435506">
        <ele>40.9934</ele>
        <time>2013-04-28T10:46:44Z</time>
      </trkpt>
      <trkpt lat="60.013649" lon="17.743588">
        <ele>40.9934</ele>
        <time>2013-04-28T10:46:45Z</time>
      </trkpt>
      <trkpt lat="60.0137437" lon="17.7436243">
        <ele>40.9934</ele>
        <time>2013-04-28T10:46:46Z</time>
      </trkpt>
      <trkpt lat="60.0138387" lon="17.7436608">
        <ele>40.9934</ele>
        <time>2013-04-28T10:46:47Z</time>
      </trkpt>
      <trkpt lat="60.0139331" lon="17.7436952">
        <ele>40.5128</ele>
        <time>2013-04-28T10:46:48Z</time>
      </trkpt>
      <trkpt lat="60.0140265" lon="17.7437274">
        <ele>40.5128</ele>
        <time>2013-04-28T10:46:49Z</time>
      </trkpt>
      <trkpt lat="60.0141215" lon="17.7437584">
        <ele>40.5128</ele>
        <time>2013-04-28T10:46:50Z</time>
      </trkpt>
      <trkpt lat="60.0142176" lon="17.7437891">
        <ele>40.5128</ele>
        <time>2013-04-28T10:46:51Z</time>
      </trkpt>
      <trkpt lat="60.0143132" lon="17.7438185">
        <ele>40.5128</ele>
        <time>2013-04-28T10:46:52Z</time>
      </trkpt>
      <trkpt lat="60.0144084" lon="17.7438444">
        <ele>40.5128</ele>
        <time>2013-04-28T10:46:53Z</time>
      </trkpt>
      <trkpt lat="60.0145053" lon="17.743867">
        <ele>40.0321</ele>
        <time>2013-04-28T10:46:54Z</time>
      </trkpt>
      <trkpt lat="60.0146016" lon="17.7438914">
        <ele>40.0321</ele>
        <time>2013-04-28T10:46:55Z</time>
      </trkpt>
      <trkpt lat="60.0146974" lon="17.7439164">
        <ele>39.5513</ele>
        <time>2013-04-28T10:46:56Z</time>
      </trkpt>
      <trkpt lat="60.0147922" lon="17.7439396">
        <ele>39.5513</ele>
        <time>2013-04-28T10:46:57Z</time>
      </trkpt>
      <trkpt lat="60.0148869" lon="17.7439608">
        <ele>39.0707</ele>
        <time>2013-04-28T10:46:58Z</time>
      </trkpt>
      <trkpt lat="60.0149813" lon="17.7439823">
        <ele>39.0707</ele>
        <time>2013-04-28T10:46:59Z</time>
      </trkpt>
      <trkpt lat="60.015075" lon="17.7440053">
        <ele>39.0707</ele>
        <time>2013-04-28T10:47:00Z</time>
      </trkpt>
      <trkpt lat="60.0151679" lon="17.7440283">
        <ele>39.0707</ele>
        <time>2013-04-28T10:47:01Z</time>
      </trkpt>
      <trkpt lat="60.0152606" lon="17.7440496">
        <ele>38.5901</ele>
        <time>2013-04-28T10:47:02Z</time>
      </trkpt>
      <trkpt lat="60.0153527" lon="17.7440681">
        <ele>38.5901</ele>
        <time>2013-04-28T10:47:03Z</time>
      </trkpt>
      <trkpt lat="60.0154449" lon="17.7440852">
        <ele>38.5901</ele>
        <time>2013-04-28T10:47:04Z</time>
      </trkpt>
      <trkpt lat="60.0155376" lon="17.7441034">
        <ele>38.1094</ele>
        <time>2013-04-28T10:47:05Z</time>
      </trkpt>
      <trkpt lat="60.0156293" lon="17.7441237">
        <ele>38.1094</ele>
        <time>2013-04-28T10:47:06Z</time>
      </trkpt>
      <trkpt lat="60.0157231" lon="17.7441449">
        <ele>37.6287</ele>
        <time>2013-04-28T10:47:07Z</time>
      </trkpt>
      <trkpt lat="60.0158179" lon="17.7441657">
        <ele>37.6287</ele>
        <time>2013-04-28T10:47:08Z</time>
      </trkpt>
      <trkpt lat="60.0159138" lon="17.7441861">
        <ele>37.6287</ele>
        <time>2013-04-28T10:47:09Z</time>
      </trkpt>
      <trkpt lat="60.0160102" lon="17.744207">
        <ele>37.6287</ele>
        <time>2013-04-28T10:47:10Z</time>
      </trkpt>
      <trkpt lat="60.016107" lon="17.7442283">
        <ele>37.1481</ele>
        <time>2013-04-28T10:47:11Z</time>
      </trkpt>
      <trkpt lat="60.0162037" lon="17.7442505">
        <ele>37.1481</ele>
        <time>2013-04-28T10:47:12Z</time>
      </trkpt>
      <trkpt lat="60.0163002" lon="17.7442747">
        <ele>37.1481</ele>
        <time>2013-04-28T10:47:13Z</time>
      </trkpt>
      <trkpt lat="60.0163979" lon="17.7442982">
        <ele>37.1481</ele>
        <time>2013-04-28T10:47:14Z</time>
      </trkpt>
      <trkpt lat="60.0164966" lon="17.7443208">
        <ele>37.1481</ele>
        <time>2013-04-28T10:47:15Z</time>
      </trkpt>
      <trkpt lat="60.0165954" lon="17.7443447">
        <ele>37.1481</ele>
        <time>2013-04-28T10:47:16Z</time>
      </trkpt>
      <trkpt lat="60.0166944" lon="17.7443697">
        <ele>37.1481</ele>
        <time>2013-04-28T10:47:17Z</time>
      </trkpt>
      <trkpt lat="60.0167934" lon="17.7443951">
        <ele>37.1481</ele>
        <time>2013-04-28T10:47:18Z</time>
      </trkpt>
      <trkpt lat="60.0168915" lon="17.7444206">
        <ele>37.1481</ele>
        <time>2013-04-28T10:47:19Z</time>
      </trkpt>
      <trkpt lat="60.016988" lon="17.7444463">
        <ele>36.6675</ele>
        <time>2013-04-28T10:47:20Z</time>
      </trkpt>
      <trkpt lat="60.0170828" lon="17.7444731">
        <ele>36.6675</ele>
        <time>2013-04-28T10:47:21Z</time>
      </trkpt>
      <trkpt lat="60.0171765" lon="17.7445001">
        <ele>36.6675</ele>
        <time>2013-04-28T10:47:22Z</time>
      </trkpt>
      <trkpt lat="60.0172682" lon="17.744527">
        <ele>36.6675</ele>
        <time>2013-04-28T10:47:23Z</time>
      </trkpt>
      <trkpt lat="60.0173587" lon="17.7445532">
        <ele>36.6675</ele>
        <time>2013-04-28T10:47:24Z</time>
      </trkpt>
      <trkpt lat="60.0174481" lon="17.74458">
        <ele>36.6675</ele>
        <time>2013-04-28T10:47:25Z</time>
      </trkpt>
      <trkpt lat="60.0175371" lon="17.7446081">
        <ele>36.6675</ele>
        <time>2013-04-28T10:47:26Z</time>
      </trkpt>
      <trkpt lat="60.0176258" lon="17.7446358">
        <ele>36.6675</ele>
        <time>2013-04-28T10:47:27Z</time>
      </trkpt>
      <trkpt lat="60.0177143" lon="17.7446643">
        <ele>36.6675</ele>
        <time>2013-04-28T10:47:28Z</time>
      </trkpt>
      <trkpt lat="60.0178023" lon="17.7446928">
        <ele>36.6675</ele>
        <time>2013-04-28T10:47:29Z</time>
      </trkpt>
      <trkpt lat="60.0178898" lon="17.7447204">
        <ele>36.6675</ele>
        <time>2013-04-28T10:47:30Z</time>
      </trkpt>
      <trkpt lat="60.0179769" lon="17.7447484">
        <ele>36.6675</ele>
        <time>2013-04-28T10:47:31Z</time>
      </trkpt>
      <trkpt lat="60.0180632" lon="17.7447763">
        <ele>36.6675</ele>
        <time>2013-04-28T10:47:32Z</time>
      </trkpt>
      <trkpt lat="60.018148" lon="17.7448039">
        <ele>36.6675</ele>
        <time>2013-04-28T10:47:33Z</time>
      </trkpt>
      <trkpt lat="60.0182323" lon="17.7448317">
        <ele>36.6675</ele>
        <time>2013-04-28T10:47:34Z</time>
      </trkpt>
      <trkpt lat="60.0183162" lon="17.7448602">
        <ele>36.6675</ele>
        <time>2013-04-28T10:47:35Z</time>
      </trkpt>
      <trkpt lat="60.018398" lon="17.7448894">
        <ele>36.6675</ele>
        <time>2013-04-28T10:47:36Z</time>
      </trkpt>
      <trkpt lat="60.0184813" lon="17.7449172">
        <ele>36.6675</ele>
        <time>2013-04-28T10:47:37Z</time>
      </trkpt>
      <trkpt lat="60.0185631" lon="17.7449452">
        <ele>36.6675</ele>
        <time>2013-04-28T10:47:38Z</time>
      </trkpt>
      <trkpt lat="60.0186416" lon="17.7449778">
        <ele>36.6675</ele>
        <time>2013-04-28T10:47:39Z</time>
      </trkpt>
      <trkpt lat="60.0187203" lon="17.7450097">
        <ele>36.6675</ele>
        <time>2013-04-28T10:47:40Z</time>
      </trkpt>
      <trkpt lat="60.0187993" lon="17.7450388">
        <ele>36.6675</ele>
        <time>2013-04-28T10:47:41Z</time>
      </trkpt>
      <trkpt lat="60.0188773" lon="17.7450685">
        <ele>36.6675</ele>
        <time>2013-04-28T10:47:42Z</time>
      </trkpt>
      <trkpt lat="60.0189555" lon="17.7450986">
        <ele>36.6675</ele>
        <time>2013-04-28T10:47:43Z</time>
      </trkpt>
      <trkpt lat="60.0190327" lon="17.7451285">
        <ele>36.6675</ele>
        <time>2013-04-28T10:47:44Z</time>
      </trkpt>
      <trkpt lat="60.0191092" lon="17.7451585">
        <ele>36.6675</ele>
        <time>2013-04-28T10:47:45Z</time>
      </trkpt>
      <trkpt lat="60.019185" lon="17.7451883">
        <ele>36.6675</ele>
        <time>2013-04-28T10:47:46Z</time>
      </trkpt>
      <trkpt lat="60.0192626" lon="17.7452177">
        <ele>36.6675</ele>
        <time>2013-04-28T10:47:47Z</time>
      </trkpt>
      <trkpt lat="60.0193401" lon="17.7452493">
        <ele>36.6675</ele>
        <time>2013-04-28T10:47:48Z</time>
      </trkpt>
      <trkpt lat="60.0194152" lon="17.7452804">
        <ele>36.6675</ele>
        <time>2013-04-28T10:47:49Z</time>
      </trkpt>
      <trkpt lat="60.0194909" lon="17.7453124">
        <ele>36.6675</ele>
        <time>2013-04-28T10:47:50Z</time>
      </trkpt>
      <trkpt lat="60.0195663" lon="17.7453446">
        <ele>36.6675</ele>
        <time>2013-04-28T10:47:51Z</time>
      </trkpt>
      <trkpt lat="60.0196408" lon="17.7453765">
        <ele>36.6675</ele>
        <time>2013-04-28T10:47:52Z</time>
      </trkpt>
      <trkpt lat="60.0197133" lon="17.7454083">
        <ele>36.6675</ele>
        <time>2013-04-28T10:47:53Z</time>
      </trkpt>
      <trkpt lat="60.0197839" lon="17.7454415">
        <ele>36.6675</ele>
        <time>2013-04-28T10:47:54Z</time>
      </trkpt>
      <trkpt lat="60.0198552" lon="17.745473">
        <ele>37.1481</ele>
        <time>2013-04-28T10:47:55Z</time>
      </trkpt>
      <trkpt lat="60.0199263" lon="17.7455055">
        <ele>37.1481</ele>
        <time>2013-04-28T10:47:56Z</time>
      </trkpt>
      <trkpt lat="60.0199983" lon="17.7455386">
        <ele>37.1481</ele>
        <time>2013-04-28T10:47:57Z</time>
      </trkpt>
      <trkpt lat="60.0200707" lon="17.7455718">
        <ele>37.1481</ele>
        <time>2013-04-28T10:47:58Z</time>
      </trkpt>
      <trkpt lat="60.0201431" lon="17.7456046">
        <ele>37.1481</ele>
        <time>2013-04-28T10:47:59Z</time>
      </trkpt>
      <trkpt lat="60.0202147" lon="17.7456381">
        <ele>37.1481</ele>
        <time>2013-04-28T10:48:00Z</time>
      </trkpt>
      <trkpt lat="60.0202852" lon="17.7456714">
        <ele>37.1481</ele>
        <time>2013-04-28T10:48:01Z</time>
      </trkpt>
      <trkpt lat="60.0203573" lon="17.7457056">
        <ele>37.1481</ele>
        <time>2013-04-28T10:48:02Z</time>
      </trkpt>
      <trkpt lat="60.0204293" lon="17.7457404">
        <ele>37.1481</ele>
        <time>2013-04-28T10:48:03Z</time>
      </trkpt>
      <trkpt lat="60.0205026" lon="17.7457746">
        <ele>37.1481</ele>
        <time>2013-04-28T10:48:04Z</time>
      </trkpt>
      <trkpt lat="60.0205758" lon="17.7458092">
        <ele>37.1481</ele>
        <time>2013-04-28T10:48:05Z</time>
      </trkpt>
      <trkpt lat="60.0206494" lon="17.7458443">
        <ele>37.1481</ele>
        <time>2013-04-28T10:48:06Z</time>
      </trkpt>
      <trkpt lat="60.020724" lon="17.7458798">
        <ele>36.6675</ele>
        <time>2013-04-28T10:48:07Z</time>
      </trkpt>
      <trkpt lat="60.0207974" lon="17.745918">
        <ele>36.6675</ele>
        <time>2013-04-28T10:48:08Z</time>
      </trkpt>
      <trkpt lat="60.0208717" lon="17.7459584">
        <ele>36.6675</ele>
        <time>2013-04-28T10:48:09Z</time>
      </trkpt>
      <trkpt lat="60.0209488" lon="17.7459978">
        <ele>36.6675</ele>
        <time>2013-04-28T10:48:10Z</time>
      </trkpt>
      <trkpt lat="60.021026" lon="17.7460382">
        <ele>36.6675</ele>
        <time>2013-04-28T10:48:11Z</time>
      </trkpt>
      <trkpt lat="60.021103" lon="17.746078">
        <ele>36.6675</ele>
        <time>2013-04-28T10:48:12Z</time>
      </trkpt>
      <trkpt lat="60.0211803" lon="17.7461173">
        <ele>36.6675</ele>
        <time>2013-04-28T10:48:13Z</time>
      </trkpt>
      <trkpt lat="60.0212566" lon="17.7461587">
        <ele>36.1868</ele>
        <time>2013-04-28T10:48:14Z</time>
      </trkpt>
      <trkpt lat="60.0213347" lon="17.7462002">
        <ele>36.1868</ele>
        <time>2013-04-28T10:48:15Z</time>
      </trkpt>
      <trkpt lat="60.0214139" lon="17.7462402">
        <ele>36.1868</ele>
        <time>2013-04-28T10:48:16Z</time>
      </trkpt>
      <trkpt lat="60.0214914" lon="17.7462812">
        <ele>35.7061</ele>
        <time>2013-04-28T10:48:17Z</time>
      </trkpt>
      <trkpt lat="60.0215683" lon="17.7463247">
        <ele>35.7061</ele>
        <time>2013-04-28T10:48:18Z</time>
      </trkpt>
      <trkpt lat="60.021645" lon="17.7463702">
        <ele>35.7061</ele>
        <time>2013-04-28T10:48:19Z</time>
      </trkpt>
      <trkpt lat="60.0217226" lon="17.7464162">
        <ele>35.7061</ele>
        <time>2013-04-28T10:48:20Z</time>
      </trkpt>
      <trkpt lat="60.0218015" lon="17.7464614">
        <ele>35.7061</ele>
        <time>2013-04-28T10:48:21Z</time>
      </trkpt>
      <trkpt lat="60.021883" lon="17.7465089">
        <ele>35.2255</ele>
        <time>2013-04-28T10:48:22Z</time>
      </trkpt>
      <trkpt lat="60.0219651" lon="17.7465578">
        <ele>35.2255</ele>
        <time>2013-04-28T10:48:23Z</time>
      </trkpt>
      <trkpt lat="60.022048" lon="17.7466079">
        <ele>35.2255</ele>
        <time>2013-04-28T10:48:24Z</time>
      </trkpt>
      <trkpt lat="60.0221319" lon="17.7466567">
        <ele>35.2255</ele>
        <time>2013-04-28T10:48:25Z</time>
      </trkpt>
      <trkpt lat="60.0222152" lon="17.7467028">
        <ele>35.2255</ele>
        <time>2013-04-28T10:48:26Z</time>
      </trkpt>
      <trkpt lat="60.0222987" lon="17.7467495">
        <ele>34.7449</ele>
        <time>2013-04-28T10:48:27Z</time>
      </trkpt>
      <trkpt lat="60.0223809" lon="17.7467972">
        <ele>34.7449</ele>
        <time>2013-04-28T10:48:28Z</time>
      </trkpt>
      <trkpt lat="60.0224614" lon="17.7468461">
        <ele>34.7449</ele>
        <time>2013-04-28T10:48:29Z</time>
      </trkpt>
      <trkpt lat="60.0225435" lon="17.746896">
        <ele>34.7449</ele>
        <time>2013-04-28T10:48:30Z</time>
      </trkpt>
      <trkpt lat="60.0226253" lon="17.7469452">
        <ele>34.7449</ele>
        <time>2013-04-28T10:48:31Z</time>
      </trkpt>
      <trkpt lat="60.0227064" lon="17.7469951">
        <ele>34.7449</ele>
        <time>2013-04-28T10:48:32Z</time>
      </trkpt>
      <trkpt lat="60.0227886" lon="17.7470448">
        <ele>34.2642</ele>
        <time>2013-04-28T10:48:33Z</time>
      </trkpt>
      <trkpt lat="60.0228712" lon="17.7470956">
        <ele>34.2642</ele>
        <time>2013-04-28T10:48:34Z</time>
      </trkpt>
      <trkpt lat="60.0229541" lon="17.7471474">
        <ele>34.2642</ele>
        <time>2013-04-28T10:48:35Z</time>
      </trkpt>
      <trkpt lat="60.0230361" lon="17.7471994">
        <ele>34.2642</ele>
        <time>2013-04-28T10:48:36Z</time>
      </trkpt>
      <trkpt lat="60.0231171" lon="17.7472503">
        <ele>34.2642</ele>
        <time>2013-04-28T10:48:37Z</time>
      </trkpt>
      <trkpt lat="60.0231963" lon="17.7473012">
        <ele>33.7834</ele>
        <time>2013-04-28T10:48:38Z</time>
      </trkpt>
      <trkpt lat="60.023276" lon="17.7473515">
        <ele>33.7834</ele>
        <time>2013-04-28T10:48:39Z</time>
      </trkpt>
      <trkpt lat="60.0233558" lon="17.7474024">
        <ele>33.7834</ele>
        <time>2013-04-28T10:48:40Z</time>
      </trkpt>
      <trkpt lat="60.0234352" lon="17.7474539">
        <ele>33.3029</ele>
        <time>2013-04-28T10:48:41Z</time>
      </trkpt>
      <trkpt lat="60.0235164" lon="17.7475">
        <ele>33.3029</ele>
        <time>2013-04-28T10:48:42Z</time>
      </trkpt>
      <trkpt lat="60.0235957" lon="17.7475461">
        <ele>33.3029</ele>
        <time>2013-04-28T10:48:43Z</time>
      </trkpt>
      <trkpt lat="60.0236689" lon="17.7475926">
        <ele>32.8223</ele>
        <time>2013-04-28T10:48:44Z</time>
      </trkpt>
      <trkpt lat="60.0237413" lon="17.7476405">
        <ele>32.8223</ele>
        <time>2013-04-28T10:48:45Z</time>
      </trkpt>
      <trkpt lat="60.0238131" lon="17.7476847">
        <ele>32.3416</ele>
        <time>2013-04-28T10:48:46Z</time>
      </trkpt>
      <trkpt lat="60.0238839" lon="17.7477255">
        <ele>31.8607</ele>
        <time>2013-04-28T10:48:47Z</time>
      </trkpt>
      <trkpt lat="60.0239543" lon="17.7477712">
        <ele>30.8995</ele>
        <time>2013-04-28T10:48:48Z</time>
      </trkpt>
      <trkpt lat="60.024026" lon="17.7478165">
        <ele>30.8995</ele>
        <time>2013-04-28T10:48:49Z</time>
      </trkpt>
      <trkpt lat="60.0240972" lon="17.7478655">
        <ele>30.4188</ele>
        <time>2013-04-28T10:48:50Z</time>
      </trkpt>
      <trkpt lat="60.024173" lon="17.747916">
        <ele>30.8995</ele>
        <time>2013-04-28T10:48:51Z</time>
      </trkpt>
      <trkpt lat="60.024247" lon="17.747962">
        <ele>30.8995</ele>
        <time>2013-04-28T10:48:52Z</time>
      </trkpt>
      <trkpt lat="60.024319" lon="17.7480092">
        <ele>30.8995</ele>
        <time>2013-04-28T10:48:53Z</time>
      </trkpt>
      <trkpt lat="60.024389" lon="17.7480552">
        <ele>31.3801</ele>
        <time>2013-04-28T10:48:54Z</time>
      </trkpt>
      <trkpt lat="60.0244556" lon="17.7481045">
        <ele>31.3801</ele>
        <time>2013-04-28T10:48:55Z</time>
      </trkpt>
      <trkpt lat="60.0245146" lon="17.7481746">
        <ele>30.8995</ele>
        <time>2013-04-28T10:48:56Z</time>
      </trkpt>
      <trkpt lat="60.0245568" lon="17.748279">
        <ele>30.8995</ele>
        <time>2013-04-28T10:48:57Z</time>
      </trkpt>
      <trkpt lat="60.0245805" lon="17.7484086">
        <ele>30.8995</ele>
        <time>2013-04-28T10:48:58Z</time>
      </trkpt>
      <trkpt lat="60.024582" lon="17.748548">
        <ele>31.3801</ele>
        <time>2013-04-28T10:48:59Z</time>
      </trkpt>
      <trkpt lat="60.0245691" lon="17.7486888">
        <ele>31.3801</ele>
        <time>2013-04-28T10:49:00Z</time>
      </trkpt>
      <trkpt lat="60.02455" lon="17.7488318">
        <ele>31.3801</ele>
        <time>2013-04-28T10:49:01Z</time>
      </trkpt>
      <trkpt lat="60.0245318" lon="17.7489793">
        <ele>31.8607</ele>
        <time>2013-04-28T10:49:02Z</time>
      </trkpt>
      <trkpt lat="60.0245137" lon="17.7491313">
        <ele>31.8607</ele>
        <time>2013-04-28T10:49:03Z</time>
      </trkpt>
      <trkpt lat="60.0244951" lon="17.749284">
        <ele>32.3416</ele>
        <time>2013-04-28T10:49:04Z</time>
      </trkpt>
      <trkpt lat="60.0244758" lon="17.7494384">
        <ele>32.3416</ele>
        <time>2013-04-28T10:49:05Z</time>
      </trkpt>
      <trkpt lat="60.0244573" lon="17.7495929">
        <ele>33.3029</ele>
        <time>2013-04-28T10:49:06Z</time>
      </trkpt>
      <trkpt lat="60.0244384" lon="17.7497486">
        <ele>33.7834</ele>
        <time>2013-04-28T10:49:07Z</time>
      </trkpt>
      <trkpt lat="60.0244232" lon="17.7499049">
        <ele>34.2642</ele>
        <time>2013-04-28T10:49:08Z</time>
      </trkpt>
      <trkpt lat="60.0244127" lon="17.7500611">
        <ele>34.7449</ele>
        <time>2013-04-28T10:49:09Z</time>
      </trkpt>
      <trkpt lat="60.0244059" lon="17.7502169">
        <ele>35.7061</ele>
        <time>2013-04-28T10:49:10Z</time>
      </trkpt>
      <trkpt lat="60.0244019" lon="17.7503708">
        <ele>36.1868</ele>
        <time>2013-04-28T10:49:11Z</time>
      </trkpt>
      <trkpt lat="60.0244008" lon="17.7505242">
        <ele>36.1868</ele>
        <time>2013-04-28T10:49:12Z</time>
      </trkpt>
      <trkpt lat="60.0244029" lon="17.750678">
        <ele>36.6675</ele>
        <time>2013-04-28T10:49:13Z</time>
      </trkpt>
      <trkpt lat="60.0244081" lon="17.7508303">
        <ele>36.6675</ele>
        <time>2013-04-28T10:49:14Z</time>
      </trkpt>
      <trkpt lat="60.0244135" lon="17.7509827">
        <ele>36.6675</ele>
        <time>2013-04-28T10:49:15Z</time>
      </trkpt>
      <trkpt lat="60.0244206" lon="17.7511334">
        <ele>36.6675</ele>
        <time>2013-04-28T10:49:16Z</time>
      </trkpt>
      <trkpt lat="60.0244302" lon="17.7512829">
        <ele>36.6675</ele>
        <time>2013-04-28T10:49:17Z</time>
      </trkpt>
      <trkpt lat="60.024438" lon="17.7514336">
        <ele>36.1868</ele>
        <time>2013-04-28T10:49:18Z</time>
      </trkpt>
      <trkpt lat="60.0244453" lon="17.751583">
        <ele>36.1868</ele>
        <time>2013-04-28T10:49:19Z</time>
      </trkpt>
      <trkpt lat="60.0244508" lon="17.7517321">
        <ele>36.6675</ele>
        <time>2013-04-28T10:49:20Z</time>
      </trkpt>
      <trkpt lat="60.0244531" lon="17.7518819">
        <ele>36.6675</ele>
        <time>2013-04-28T10:49:21Z</time>
      </trkpt>
      <trkpt lat="60.0244521" lon="17.7520353">
        <ele>36.6675</ele>
        <time>2013-04-28T10:49:22Z</time>
      </trkpt>
      <trkpt lat="60.0244503" lon="17.7521868">
        <ele>36.6675</ele>
        <time>2013-04-28T10:49:23Z</time>
      </trkpt>
      <trkpt lat="60.0244464" lon="17.7523388">
        <ele>36.6675</ele>
        <time>2013-04-28T10:49:24Z</time>
      </trkpt>
      <trkpt lat="60.0244399" lon="17.752492">
        <ele>36.1868</ele>
        <time>2013-04-28T10:49:25Z</time>
      </trkpt>
      <trkpt lat="60.0244304" lon="17.7526433">
        <ele>35.7061</ele>
        <time>2013-04-28T10:49:26Z</time>
      </trkpt>
      <trkpt lat="60.024422" lon="17.7527894">
        <ele>36.1868</ele>
        <time>2013-04-28T10:49:27Z</time>
      </trkpt>
      <trkpt lat="60.0244068" lon="17.7529337">
        <ele>36.1868</ele>
        <time>2013-04-28T10:49:28Z</time>
      </trkpt>
      <trkpt lat="60.0243884" lon="17.7530775">
        <ele>36.6675</ele>
        <time>2013-04-28T10:49:29Z</time>
      </trkpt>
      <trkpt lat="60.0243711" lon="17.7532192">
        <ele>36.6675</ele>
        <time>2013-04-28T10:49:30Z</time>
      </trkpt>
      <trkpt lat="60.0243526" lon="17.7533611">
        <ele>36.6675</ele>
        <time>2013-04-28T10:49:31Z</time>
      </trkpt>
      <trkpt lat="60.0243341" lon="17.7535017">
        <ele>36.6675</ele>
        <time>2013-04-28T10:49:32Z</time>
      </trkpt>
      <trkpt lat="60.0243136" lon="17.7536413">
        <ele>36.6675</ele>
        <time>2013-04-28T10:49:33Z</time>
      </trkpt>
      <trkpt lat="60.0242931" lon="17.7537774">
        <ele>36.6675</ele>
        <time>2013-04-28T10:49:34Z</time>
      </trkpt>
      <trkpt lat="60.0242731" lon="17.7539119">
        <ele>36.6675</ele>
        <time>2013-04-28T10:49:35Z</time>
      </trkpt>
      <trkpt lat="60.0242517" lon="17.7540465">
        <ele>36.6675</ele>
        <time>2013-04-28T10:49:36Z</time>
      </trkpt>
      <trkpt lat="60.0242296" lon="17.7541818">
        <ele>37.1481</ele>
        <time>2013-04-28T10:49:37Z</time>
      </trkpt>
      <trkpt lat="60.0242075" lon="17.7543187">
        <ele>37.1481</ele>
        <time>2013-04-28T10:49:38Z</time>
      </trkpt>
      <trkpt lat="60.0241854" lon="17.7544574">
        <ele>37.1481</ele>
        <time>2013-04-28T10:49:39Z</time>
      </trkpt>
      <trkpt lat="60.0241624" lon="17.7545984">
        <ele>37.1481</ele>
        <time>2013-04-28T10:49:40Z</time>
      </trkpt>
      <trkpt lat="60.0241387" lon="17.7547403">
        <ele>37.1481</ele>
        <time>2013-04-28T10:49:41Z</time>
      </trkpt>
      <trkpt lat="60.0241158" lon="17.7548815">
        <ele>37.6287</ele>
        <time>2013-04-28T10:49:42Z</time>
      </trkpt>
      <trkpt lat="60.0240924" lon="17.7550215">
        <ele>37.6287</ele>
        <time>2013-04-28T10:49:43Z</time>
      </trkpt>
      <trkpt lat="60.0240694" lon="17.7551619">
        <ele>37.6287</ele>
        <time>2013-04-28T10:49:44Z</time>
      </trkpt>
      <trkpt lat="60.0240476" lon="17.7552986">
        <ele>37.6287</ele>
        <time>2013-04-28T10:49:45Z</time>
      </trkpt>
      <trkpt lat="60.0240167" lon="17.755437">
        <ele>37.6287</ele>
        <time>2013-04-28T10:49:46Z</time>
      </trkpt>
      <trkpt lat="60.0239894" lon="17.7555742">
        <ele>37.6287</ele>
        <time>2013-04-28T10:49:47Z</time>
      </trkpt>
      <trkpt lat="60.0239538" lon="17.7557078">
        <ele>38.1094</ele>
        <time>2013-04-28T10:49:48Z</time>
      </trkpt>
      <trkpt lat="60.0239273" lon="17.7558441">
        <ele>38.5901</ele>
        <time>2013-04-28T10:49:49Z</time>
      </trkpt>
      <trkpt lat="60.0239024" lon="17.7559942">
        <ele>38.5901</ele>
        <time>2013-04-28T10:49:50Z</time>
      </trkpt>
      <trkpt lat="60.0238765" lon="17.75614">
        <ele>38.5901</ele>
        <time>2013-04-28T10:49:51Z</time>
      </trkpt>
      <trkpt lat="60.0238497" lon="17.7562803">
        <ele>38.5901</ele>
        <time>2013-04-28T10:49:52Z</time>
      </trkpt>
      <trkpt lat="60.0238228" lon="17.756417">
        <ele>38.5901</ele>
        <time>2013-04-28T10:49:53Z</time>
      </trkpt>
      <trkpt lat="60.0237984" lon="17.7565503">
        <ele>38.5901</ele>
        <time>2013-04-28T10:49:54Z</time>
      </trkpt>
      <trkpt lat="60.0237704" lon="17.7566823">
        <ele>39.0707</ele>
        <time>2013-04-28T10:49:55Z</time>
      </trkpt>
      <trkpt lat="60.0237533" lon="17.7567847">
        <ele>38.5901</ele>
        <time>2013-04-28T10:49:56Z</time>
      </trkpt>
      <trkpt lat="60.0237279" lon="17.7569081">
        <ele>38.5901</ele>
        <time>2013-04-28T10:49:57Z</time>
      </trkpt>
      <trkpt lat="60.0237038" lon="17.7570281">
        <ele>38.5901</ele>
        <time>2013-04-28T10:49:58Z</time>
      </trkpt>
      <trkpt lat="60.0236802" lon="17.7571443">
        <ele>38.5901</ele>
        <time>2013-04-28T10:49:59Z</time>
      </trkpt>
      <trkpt lat="60.0236543" lon="17.7572597">
        <ele>39.0707</ele>
        <time>2013-04-28T10:50:00Z</time>
      </trkpt>
      <trkpt lat="60.0236289" lon="17.7573736">
        <ele>39.0707</ele>
        <time>2013-04-28T10:50:01Z</time>
      </trkpt>
      <trkpt lat="60.0236025" lon="17.7574898">
        <ele>39.5513</ele>
        <time>2013-04-28T10:50:02Z</time>
      </trkpt>
      <trkpt lat="60.0235795" lon="17.7575991">
        <ele>39.5513</ele>
        <time>2013-04-28T10:50:03Z</time>
      </trkpt>
      <trkpt lat="60.0235575" lon="17.7577091">
        <ele>39.5513</ele>
        <time>2013-04-28T10:50:04Z</time>
      </trkpt>
      <trkpt lat="60.0235358" lon="17.7578188">
        <ele>39.5513</ele>
        <time>2013-04-28T10:50:05Z</time>
      </trkpt>
      <trkpt lat="60.0235141" lon="17.7579274">
        <ele>40.0321</ele>
        <time>2013-04-28T10:50:06Z</time>
      </trkpt>
      <trkpt lat="60.0234927" lon="17.7580346">
        <ele>40.0321</ele>
        <time>2013-04-28T10:50:07Z</time>
      </trkpt>
      <trkpt lat="60.0234738" lon="17.7581411">
        <ele>40.0321</ele>
        <time>2013-04-28T10:50:08Z</time>
      </trkpt>
      <trkpt lat="60.0234521" lon="17.7582554">
        <ele>40.5128</ele>
        <time>2013-04-28T10:50:09Z</time>
      </trkpt>
      <trkpt lat="60.0234382" lon="17.7583601">
        <ele>40.9934</ele>
        <time>2013-04-28T10:50:10Z</time>
      </trkpt>
      <trkpt lat="60.0234207" lon="17.7584557">
        <ele>40.9934</ele>
        <time>2013-04-28T10:50:11Z</time>
      </trkpt>
      <trkpt lat="60.0234041" lon="17.7585479">
        <ele>41.474</ele>
        <time>2013-04-28T10:50:12Z</time>
      </trkpt>
      <trkpt lat="60.0233912" lon="17.7586479">
        <ele>41.474</ele>
        <time>2013-04-28T10:50:13Z</time>
      </trkpt>
      <trkpt lat="60.023389" lon="17.7587453">
        <ele>41.474</ele>
        <time>2013-04-28T10:50:14Z</time>
      </trkpt>
      <trkpt lat="60.0233699" lon="17.7588522">
        <ele>40.9934</ele>
        <time>2013-04-28T10:50:15Z</time>
      </trkpt>
      <trkpt lat="60.0233508" lon="17.758961">
        <ele>40.9934</ele>
        <time>2013-04-28T10:50:16Z</time>
      </trkpt>
      <trkpt lat="60.0233285" lon="17.7590693">
        <ele>40.5128</ele>
        <time>2013-04-28T10:50:17Z</time>
      </trkpt>
      <trkpt lat="60.0233073" lon="17.7591729">
        <ele>40.9934</ele>
        <time>2013-04-28T10:50:18Z</time>
      </trkpt>
      <trkpt lat="60.023285" lon="17.7592805">
        <ele>41.474</ele>
        <time>2013-04-28T10:50:19Z</time>
      </trkpt>
      <trkpt lat="60.0232621" lon="17.7593926">
        <ele>41.9547</ele>
        <time>2013-04-28T10:50:20Z</time>
      </trkpt>
      <trkpt lat="60.02324" lon="17.7595054">
        <ele>42.4354</ele>
        <time>2013-04-28T10:50:21Z</time>
      </trkpt>
      <trkpt lat="60.0232196" lon="17.7596229">
        <ele>42.4354</ele>
        <time>2013-04-28T10:50:22Z</time>
      </trkpt>
      <trkpt lat="60.0232042" lon="17.7597469">
        <ele>42.916</ele>
        <time>2013-04-28T10:50:23Z</time>
      </trkpt>
      <trkpt lat="60.0231929" lon="17.7598823">
        <ele>42.916</ele>
        <time>2013-04-28T10:50:24Z</time>
      </trkpt>
      <trkpt lat="60.0231905" lon="17.7600066">
        <ele>43.3966</ele>
        <time>2013-04-28T10:50:25Z</time>
      </trkpt>
      <trkpt lat="60.0231921" lon="17.7601282">
        <ele>43.3966</ele>
        <time>2013-04-28T10:50:26Z</time>
      </trkpt>
      <trkpt lat="60.0232017" lon="17.7602668">
        <ele>43.8773</ele>
        <time>2013-04-28T10:50:27Z</time>
      </trkpt>
      <trkpt lat="60.023214" lon="17.7603777">
        <ele>43.8773</ele>
        <time>2013-04-28T10:50:28Z</time>
      </trkpt>
      <trkpt lat="60.0232074" lon="17.7604729">
        <ele>43.8773</ele>
        <time>2013-04-28T10:50:29Z</time>
      </trkpt>
      <trkpt lat="60.0232362" lon="17.7606151">
        <ele>43.8773</ele>
        <time>2013-04-28T10:50:30Z</time>
      </trkpt>
      <trkpt lat="60.0232433" lon="17.7607356">
        <ele>43.8773</ele>
        <time>2013-04-28T10:50:31Z</time>
      </trkpt>
      <trkpt lat="60.0232542" lon="17.7608662">
        <ele>44.358</ele>
        <time>2013-04-28T10:50:32Z</time>
      </trkpt>
      <trkpt lat="60.0232641" lon="17.7610062">
        <ele>43.8773</ele>
        <time>2013-04-28T10:50:33Z</time>
      </trkpt>
      <trkpt lat="60.0232814" lon="17.7611397">
        <ele>44.358</ele>
        <time>2013-04-28T10:50:34Z</time>
      </trkpt>
      <trkpt lat="60.0232912" lon="17.7612721">
        <ele>43.8773</ele>
        <time>2013-04-28T10:50:35Z</time>
      </trkpt>
      <trkpt lat="60.0233072" lon="17.7614051">
        <ele>44.358</ele>
        <time>2013-04-28T10:50:36Z</time>
      </trkpt>
      <trkpt lat="60.0233207" lon="17.761513">
        <ele>43.8773</ele>
        <time>2013-04-28T10:50:37Z</time>
      </trkpt>
      <trkpt lat="60.0233393" lon="17.7616167">
        <ele>43.8773</ele>
        <time>2013-04-28T10:50:38Z</time>
      </trkpt>
      <trkpt lat="60.0233523" lon="17.7617302">
        <ele>43.3966</ele>
        <time>2013-04-28T10:50:39Z</time>
      </trkpt>
      <trkpt lat="60.0233633" lon="17.7618502">
        <ele>43.3966</ele>
        <time>2013-04-28T10:50:40Z</time>
      </trkpt>
      <trkpt lat="60.0233648" lon="17.761985">
        <ele>43.8773</ele>
        <time>2013-04-28T10:50:41Z</time>
      </trkpt>
      <trkpt lat="60.0233666" lon="17.7621131">
        <ele>42.916</ele>
        <time>2013-04-28T10:50:42Z</time>
      </trkpt>
      <trkpt lat="60.0233687" lon="17.7622424">
        <ele>42.916</ele>
        <time>2013-04-28T10:50:43Z</time>
      </trkpt>
      <trkpt lat="60.0233678" lon="17.762368">
        <ele>43.3966</ele>
        <time>2013-04-28T10:50:44Z</time>
      </trkpt>
      <trkpt lat="60.0233672" lon="17.7624969">
        <ele>43.8773</ele>
        <time>2013-04-28T10:50:45Z</time>
      </trkpt>
      <trkpt lat="60.0233626" lon="17.7626233">
        <ele>43.8773</ele>
        <time>2013-04-28T10:50:46Z</time>
      </trkpt>
      <trkpt lat="60.0233509" lon="17.7627522">
        <ele>44.358</ele>
        <time>2013-04-28T10:50:47Z</time>
      </trkpt>
      <trkpt lat="60.0233443" lon="17.7628733">
        <ele>44.8386</ele>
        <time>2013-04-28T10:50:48Z</time>
      </trkpt>
      <trkpt lat="60.0233366" lon="17.7629956">
        <ele>44.8386</ele>
        <time>2013-04-28T10:50:49Z</time>
      </trkpt>
      <trkpt lat="60.0233356" lon="17.7631107">
        <ele>44.8386</ele>
        <time>2013-04-28T10:50:50Z</time>
      </trkpt>
      <trkpt lat="60.0233377" lon="17.7632259">
        <ele>45.3192</ele>
        <time>2013-04-28T10:50:51Z</time>
      </trkpt>
      <trkpt lat="60.0233358" lon="17.7633423">
        <ele>45.3192</ele>
        <time>2013-04-28T10:50:52Z</time>
      </trkpt>
      <trkpt lat="60.0233195" lon="17.763462">
        <ele>44.8386</ele>
        <time>2013-04-28T10:50:53Z</time>
      </trkpt>
      <trkpt lat="60.0232965" lon="17.7635835">
        <ele>43.8773</ele>
        <time>2013-04-28T10:50:54Z</time>
      </trkpt>
      <trkpt lat="60.023274" lon="17.7637099">
        <ele>43.3966</ele>
        <time>2013-04-28T10:50:55Z</time>
      </trkpt>
      <trkpt lat="60.0232533" lon="17.7638361">
        <ele>43.3966</ele>
        <time>2013-04-28T10:50:56Z</time>
      </trkpt>
      <trkpt lat="60.0232286" lon="17.7639656">
        <ele>42.916</ele>
        <time>2013-04-28T10:50:57Z</time>
      </trkpt>
      <trkpt lat="60.0232014" lon="17.7640923">
        <ele>42.916</ele>
        <time>2013-04-28T10:50:58Z</time>
      </trkpt>
      <trkpt lat="60.0231778" lon="17.7642151">
        <ele>42.4354</ele>
        <time>2013-04-28T10:50:59Z</time>
      </trkpt>
      <trkpt lat="60.0231522" lon="17.7643436">
        <ele>41.474</ele>
        <time>2013-04-28T10:51:00Z</time>
      </trkpt>
      <trkpt lat="60.0231284" lon="17.7644664">
        <ele>40.9934</ele>
        <time>2013-04-28T10:51:01Z</time>
      </trkpt>
      <trkpt lat="60.0231036" lon="17.7645866">
        <ele>40.5128</ele>
        <time>2013-04-28T10:51:02Z</time>
      </trkpt>
      <trkpt lat="60.0230705" lon="17.7647512">
        <ele>40.0321</ele>
        <time>2013-04-28T10:51:03Z</time>
      </trkpt>
      <trkpt lat="60.0230167" lon="17.7648771">
        <ele>39.5513</ele>
        <time>2013-04-28T10:51:04Z</time>
      </trkpt>
      <trkpt lat="60.0229788" lon="17.7650041">
        <ele>40.0321</ele>
        <time>2013-04-28T10:51:05Z</time>
      </trkpt>
      <trkpt lat="60.0229509" lon="17.7651355">
        <ele>40.0321</ele>
        <time>2013-04-28T10:51:06Z</time>
      </trkpt>
      <trkpt lat="60.0229177" lon="17.7652652">
        <ele>39.5513</ele>
        <time>2013-04-28T10:51:07Z</time>
      </trkpt>
      <trkpt lat="60.0228869" lon="17.7653921">
        <ele>39.5513</ele>
        <time>2013-04-28T10:51:08Z</time>
      </trkpt>
      <trkpt lat="60.0228538" lon="17.7655198">
        <ele>39.5513</ele>
        <time>2013-04-28T10:51:09Z</time>
      </trkpt>
      <trkpt lat="60.0228286" lon="17.7656552">
        <ele>39.0707</ele>
        <time>2013-04-28T10:51:10Z</time>
      </trkpt>
      <trkpt lat="60.0228032" lon="17.765798">
        <ele>39.0707</ele>
        <time>2013-04-28T10:51:11Z</time>
      </trkpt>
      <trkpt lat="60.0227826" lon="17.7659375">
        <ele>39.0707</ele>
        <time>2013-04-28T10:51:12Z</time>
      </trkpt>
      <trkpt lat="60.0227639" lon="17.7660763">
        <ele>38.5901</ele>
        <time>2013-04-28T10:51:13Z</time>
      </trkpt>
      <trkpt lat="60.02274" lon="17.7662421">
        <ele>38.1094</ele>
        <time>2013-04-28T10:51:14Z</time>
      </trkpt>
      <trkpt lat="60.0227145" lon="17.7663818">
        <ele>38.1094</ele>
        <time>2013-04-28T10:51:15Z</time>
      </trkpt>
      <trkpt lat="60.0226715" lon="17.7665048">
        <ele>38.1094</ele>
        <time>2013-04-28T10:51:16Z</time>
      </trkpt>
      <trkpt lat="60.0226528" lon="17.7666607">
        <ele>38.1094</ele>
        <time>2013-04-28T10:51:17Z</time>
      </trkpt>
      <trkpt lat="60.0226313" lon="17.7667922">
        <ele>37.6287</ele>
        <time>2013-04-28T10:51:18Z</time>
      </trkpt>
      <trkpt lat="60.0226017" lon="17.76693">
        <ele>38.5901</ele>
        <time>2013-04-28T10:51:19Z</time>
      </trkpt>
      <trkpt lat="60.0225655" lon="17.7670704">
        <ele>38.5901</ele>
        <time>2013-04-28T10:51:20Z</time>
      </trkpt>
      <trkpt lat="60.0225359" lon="17.7672013">
        <ele>38.5901</ele>
        <time>2013-04-28T10:51:21Z</time>
      </trkpt>
      <trkpt lat="60.0225089" lon="17.7673298">
        <ele>37.6287</ele>
        <time>2013-04-28T10:51:22Z</time>
      </trkpt>
      <trkpt lat="60.0224717" lon="17.7674615">
        <ele>37.1481</ele>
        <time>2013-04-28T10:51:23Z</time>
      </trkpt>
      <trkpt lat="60.0224105" lon="17.7676118">
        <ele>38.1094</ele>
        <time>2013-04-28T10:51:24Z</time>
      </trkpt>
      <trkpt lat="60.0223634" lon="17.7677409">
        <ele>38.1094</ele>
        <time>2013-04-28T10:51:25Z</time>
      </trkpt>
      <trkpt lat="60.0223251" lon="17.7678633">
        <ele>38.1094</ele>
        <time>2013-04-28T10:51:26Z</time>
      </trkpt>
      <trkpt lat="60.022289" lon="17.7679821">
        <ele>37.6287</ele>
        <time>2013-04-28T10:51:27Z</time>
      </trkpt>
      <trkpt lat="60.0222516" lon="17.7681013">
        <ele>37.1481</ele>
        <time>2013-04-28T10:51:28Z</time>
      </trkpt>
      <trkpt lat="60.0222153" lon="17.7682158">
        <ele>37.6287</ele>
        <time>2013-04-28T10:51:29Z</time>
      </trkpt>
      <trkpt lat="60.0221765" lon="17.7683402">
        <ele>37.6287</ele>
        <time>2013-04-28T10:51:30Z</time>
      </trkpt>
      <trkpt lat="60.0221421" lon="17.7684666">
        <ele>38.1094</ele>
        <time>2013-04-28T10:51:31Z</time>
      </trkpt>
      <trkpt lat="60.0221106" lon="17.7685948">
        <ele>39.0707</ele>
        <time>2013-04-28T10:51:32Z</time>
      </trkpt>
      <trkpt lat="60.0220911" lon="17.768725">
        <ele>39.5513</ele>
        <time>2013-04-28T10:51:33Z</time>
      </trkpt>
      <trkpt lat="60.0220681" lon="17.7688634">
        <ele>40.9934</ele>
        <time>2013-04-28T10:51:34Z</time>
      </trkpt>
      <trkpt lat="60.0220597" lon="17.7690071">
        <ele>40.9934</ele>
        <time>2013-04-28T10:51:35Z</time>
      </trkpt>
      <trkpt lat="60.0220618" lon="17.7691482">
        <ele>40.5128</ele>
        <time>2013-04-28T10:51:36Z</time>
      </trkpt>
      <trkpt lat="60.0220626" lon="17.7693">
        <ele>40.5128</ele>
        <time>2013-04-28T10:51:37Z</time>
      </trkpt>
      <trkpt lat="60.0220609" lon="17.7694515">
        <ele>39.5513</ele>
        <time>2013-04-28T10:51:38Z</time>
      </trkpt>
      <trkpt lat="60.0220671" lon="17.7695915">
        <ele>39.5513</ele>
        <time>2013-04-28T10:51:39Z</time>
      </trkpt>
      <trkpt lat="60.022077" lon="17.7697416">
        <ele>39.5513</ele>
        <time>2013-04-28T10:51:40Z</time>
      </trkpt>
      <trkpt lat="60.0220942" lon="17.7698801">
        <ele>39.0707</ele>
        <time>2013-04-28T10:51:41Z</time>
      </trkpt>
      <trkpt lat="60.0221081" lon="17.7700213">
        <ele>38.5901</ele>
        <time>2013-04-28T10:51:42Z</time>
      </trkpt>
      <trkpt lat="60.0221075" lon="17.7701703">
        <ele>38.1094</ele>
        <time>2013-04-28T10:51:43Z</time>
      </trkpt>
      <trkpt lat="60.0220996" lon="17.7703291">
        <ele>38.1094</ele>
        <time>2013-04-28T10:51:44Z</time>
      </trkpt>
      <trkpt lat="60.022092" lon="17.7704935">
        <ele>38.5901</ele>
        <time>2013-04-28T10:51:45Z</time>
      </trkpt>
      <trkpt lat="60.0220743" lon="17.7707046">
        <ele>38.5901</ele>
        <time>2013-04-28T10:51:46Z</time>
      </trkpt>
      <trkpt lat="60.0220533" lon="17.7708812">
        <ele>38.5901</ele>
        <time>2013-04-28T10:51:47Z</time>
      </trkpt>
      <trkpt lat="60.0220305" lon="17.7710261">
        <ele>38.5901</ele>
        <time>2013-04-28T10:51:48Z</time>
      </trkpt>
      <trkpt lat="60.0220092" lon="17.7711751">
        <ele>39.0707</ele>
        <time>2013-04-28T10:51:49Z</time>
      </trkpt>
      <trkpt lat="60.0219794" lon="17.7713267">
        <ele>38.5901</ele>
        <time>2013-04-28T10:51:50Z</time>
      </trkpt>
      <trkpt lat="60.0219476" lon="17.7714804">
        <ele>39.0707</ele>
        <time>2013-04-28T10:51:51Z</time>
      </trkpt>
      <trkpt lat="60.0219141" lon="17.7716363">
        <ele>39.5513</ele>
        <time>2013-04-28T10:51:52Z</time>
      </trkpt>
      <trkpt lat="60.0218812" lon="17.7717956">
        <ele>39.5513</ele>
        <time>2013-04-28T10:51:53Z</time>
      </trkpt>
      <trkpt lat="60.0218432" lon="17.7719582">
        <ele>40.0321</ele>
        <time>2013-04-28T10:51:54Z</time>
      </trkpt>
      <trkpt lat="60.0218061" lon="17.7721183">
        <ele>40.5128</ele>
        <time>2013-04-28T10:51:55Z</time>
      </trkpt>
      <trkpt lat="60.0217665" lon="17.7722693">
        <ele>40.5128</ele>
        <time>2013-04-28T10:51:56Z</time>
      </trkpt>
      <trkpt lat="60.0217163" lon="17.7724086">
        <ele>40.5128</ele>
        <time>2013-04-28T10:51:57Z</time>
      </trkpt>
      <trkpt lat="60.02166" lon="17.772533">
        <ele>40.5128</ele>
        <time>2013-04-28T10:51:58Z</time>
      </trkpt>
      <trkpt lat="60.0215993" lon="17.7726445">
        <ele>40.0321</ele>
        <time>2013-04-28T10:51:59Z</time>
      </trkpt>
      <trkpt lat="60.0215326" lon="17.7727523">
        <ele>40.0321</ele>
        <time>2013-04-28T10:52:00Z</time>
      </trkpt>
      <trkpt lat="60.0214662" lon="17.7728556">
        <ele>39.5513</ele>
        <time>2013-04-28T10:52:01Z</time>
      </trkpt>
      <trkpt lat="60.0214016" lon="17.7729572">
        <ele>39.0707</ele>
        <time>2013-04-28T10:52:02Z</time>
      </trkpt>
      <trkpt lat="60.0213419" lon="17.7730662">
        <ele>38.5901</ele>
        <time>2013-04-28T10:52:03Z</time>
      </trkpt>
      <trkpt lat="60.0212875" lon="17.7731922">
        <ele>38.5901</ele>
        <time>2013-04-28T10:52:04Z</time>
      </trkpt>
      <trkpt lat="60.0212191" lon="17.7733102">
        <ele>38.5901</ele>
        <time>2013-04-28T10:52:05Z</time>
      </trkpt>
      <trkpt lat="60.0211725" lon="17.7734446">
        <ele>38.1094</ele>
        <time>2013-04-28T10:52:06Z</time>
      </trkpt>
      <trkpt lat="60.0211275" lon="17.7735709">
        <ele>38.5901</ele>
        <time>2013-04-28T10:52:07Z</time>
      </trkpt>
      <trkpt lat="60.0210917" lon="17.7736876">
        <ele>38.1094</ele>
        <time>2013-04-28T10:52:08Z</time>
      </trkpt>
      <trkpt lat="60.0210487" lon="17.7738128">
        <ele>38.1094</ele>
        <time>2013-04-28T10:52:09Z</time>
      </trkpt>
      <trkpt lat="60.0210063" lon="17.7739434">
        <ele>38.1094</ele>
        <time>2013-04-28T10:52:10Z</time>
      </trkpt>
      <trkpt lat="60.020959" lon="17.7740706">
        <ele>38.1094</ele>
        <time>2013-04-28T10:52:11Z</time>
      </trkpt>
      <trkpt lat="60.0209145" lon="17.774189">
        <ele>38.1094</ele>
        <time>2013-04-28T10:52:12Z</time>
      </trkpt>
      <trkpt lat="60.0208716" lon="17.7742923">
        <ele>38.1094</ele>
        <time>2013-04-28T10:52:13Z</time>
      </trkpt>
      <trkpt lat="60.0208244" lon="17.7743831">
        <ele>38.1094</ele>
        <time>2013-04-28T10:52:14Z</time>
      </trkpt>
      <trkpt lat="60.0207683" lon="17.7744717">
        <ele>37.6287</ele>
        <time>2013-04-28T10:52:15Z</time>
      </trkpt>
      <trkpt lat="60.0206994" lon="17.7745649">
        <ele>38.1094</ele>
        <time>2013-04-28T10:52:16Z</time>
      </trkpt>
      <trkpt lat="60.0206359" lon="17.774608">
        <ele>38.1094</ele>
        <time>2013-04-28T10:52:17Z</time>
      </trkpt>
      <trkpt lat="60.0205627" lon="17.7746086">
        <ele>38.1094</ele>
        <time>2013-04-28T10:52:18Z</time>
      </trkpt>
      <trkpt lat="60.0204933" lon="17.7746321">
        <ele>37.6287</ele>
        <time>2013-04-28T10:52:19Z</time>
      </trkpt>
      <trkpt lat="60.0204173" lon="17.7746612">
        <ele>37.6287</ele>
        <time>2013-04-28T10:52:20Z</time>
      </trkpt>
      <trkpt lat="60.0203432" lon="17.7746878">
        <ele>37.1481</ele>
        <time>2013-04-28T10:52:21Z</time>
      </trkpt>
      <trkpt lat="60.0202778" lon="17.7747396">
        <ele>37.6287</ele>
        <time>2013-04-28T10:52:22Z</time>
      </trkpt>
      <trkpt lat="60.0202161" lon="17.7748187">
        <ele>37.6287</ele>
        <time>2013-04-28T10:52:23Z</time>
      </trkpt>
      <trkpt lat="60.0201603" lon="17.7749215">
        <ele>38.1094</ele>
        <time>2013-04-28T10:52:24Z</time>
      </trkpt>
      <trkpt lat="60.0201153" lon="17.7750634">
        <ele>38.1094</ele>
        <time>2013-04-28T10:52:25Z</time>
      </trkpt>
      <trkpt lat="60.0200986" lon="17.7752028">
        <ele>38.5901</ele>
        <time>2013-04-28T10:52:26Z</time>
      </trkpt>
      <trkpt lat="60.0200916" lon="17.7753529">
        <ele>38.5901</ele>
        <time>2013-04-28T10:52:27Z</time>
      </trkpt>
      <trkpt lat="60.0201114" lon="17.775504">
        <ele>38.1094</ele>
        <time>2013-04-28T10:52:28Z</time>
      </trkpt>
      <trkpt lat="60.0201247" lon="17.7756785">
        <ele>38.1094</ele>
        <time>2013-04-28T10:52:29Z</time>
      </trkpt>
      <trkpt lat="60.0201593" lon="17.7758393">
        <ele>38.5901</ele>
        <time>2013-04-28T10:52:30Z</time>
      </trkpt>
      <trkpt lat="60.0201842" lon="17.7759875">
        <ele>38.5901</ele>
        <time>2013-04-28T10:52:31Z</time>
      </trkpt>
      <trkpt lat="60.0202214" lon="17.7761092">
        <ele>38.5901</ele>
        <time>2013-04-28T10:52:32Z</time>
      </trkpt>
      <trkpt lat="60.0202635" lon="17.7761941">
        <ele>38.1094</ele>
        <time>2013-04-28T10:52:33Z</time>
      </trkpt>
      <trkpt lat="60.0203058" lon="17.7762822">
        <ele>37.6287</ele>
        <time>2013-04-28T10:52:34Z</time>
      </trkpt>
      <trkpt lat="60.0202966" lon="17.7764599">
        <ele>38.1094</ele>
        <time>2013-04-28T10:52:35Z</time>
      </trkpt>
      <trkpt lat="60.020323" lon="17.7766125">
        <ele>39.0707</ele>
        <time>2013-04-28T10:52:36Z</time>
      </trkpt>
      <trkpt lat="60.0203402" lon="17.7767568">
        <ele>39.5513</ele>
        <time>2013-04-28T10:52:37Z</time>
      </trkpt>
      <trkpt lat="60.020365" lon="17.776895">
        <ele>39.5513</ele>
        <time>2013-04-28T10:52:38Z</time>
      </trkpt>
      <trkpt lat="60.0203863" lon="17.7770336">
        <ele>39.0707</ele>
        <time>2013-04-28T10:52:39Z</time>
      </trkpt>
      <trkpt lat="60.0203985" lon="17.7771805">
        <ele>39.0707</ele>
        <time>2013-04-28T10:52:40Z</time>
      </trkpt>
      <trkpt lat="60.0204036" lon="17.7773377">
        <ele>38.5901</ele>
        <time>2013-04-28T10:52:41Z</time>
      </trkpt>
      <trkpt lat="60.0204098" lon="17.7774884">
        <ele>38.5901</ele>
        <time>2013-04-28T10:52:42Z</time>
      </trkpt>
      <trkpt lat="60.0204011" lon="17.7776306">
        <ele>39.0707</ele>
        <time>2013-04-28T10:52:43Z</time>
      </trkpt>
      <trkpt lat="60.0203831" lon="17.7777595">
        <ele>39.5513</ele>
        <time>2013-04-28T10:52:44Z</time>
      </trkpt>
      <trkpt lat="60.0203597" lon="17.7778856">
        <ele>40.0321</ele>
        <time>2013-04-28T10:52:45Z</time>
      </trkpt>
      <trkpt lat="60.0203337" lon="17.7779937">
        <ele>40.5128</ele>
        <time>2013-04-28T10:52:46Z</time>
      </trkpt>
      <trkpt lat="60.0203041" lon="17.7781103">
        <ele>40.9934</ele>
        <time>2013-04-28T10:52:47Z</time>
      </trkpt>
      <trkpt lat="60.0202734" lon="17.7782274">
        <ele>40.9934</ele>
        <time>2013-04-28T10:52:48Z</time>
      </trkpt>
      <trkpt lat="60.0202441" lon="17.7783435">
        <ele>41.474</ele>
        <time>2013-04-28T10:52:49Z</time>
      </trkpt>
      <trkpt lat="60.0202177" lon="17.7784589">
        <ele>41.474</ele>
        <time>2013-04-28T10:52:50Z</time>
      </trkpt>
      <trkpt lat="60.0201873" lon="17.7785765">
        <ele>41.474</ele>
        <time>2013-04-28T10:52:51Z</time>
      </trkpt>
      <trkpt lat="60.0201535" lon="17.7786812">
        <ele>41.9547</ele>
        <time>2013-04-28T10:52:52Z</time>
      </trkpt>
      <trkpt lat="60.0201158" lon="17.7787882">
        <ele>41.9547</ele>
        <time>2013-04-28T10:52:53Z</time>
      </trkpt>
      <trkpt lat="60.0200775" lon="17.7788935">
        <ele>41.474</ele>
        <time>2013-04-28T10:52:54Z</time>
      </trkpt>
      <trkpt lat="60.0200442" lon="17.7789992">
        <ele>41.474</ele>
        <time>2013-04-28T10:52:55Z</time>
      </trkpt>
      <trkpt lat="60.0200122" lon="17.7791032">
        <ele>41.474</ele>
        <time>2013-04-28T10:52:56Z</time>
      </trkpt>
      <trkpt lat="60.0199804" lon="17.7792094">
        <ele>41.474</ele>
        <time>2013-04-28T10:52:57Z</time>
      </trkpt>
      <trkpt lat="60.019948" lon="17.7793177">
        <ele>41.474</ele>
        <time>2013-04-28T10:52:58Z</time>
      </trkpt>
      <trkpt lat="60.0199169" lon="17.7794274">
        <ele>41.474</ele>
        <time>2013-04-28T10:52:59Z</time>
      </trkpt>
      <trkpt lat="60.0198836" lon="17.7795375">
        <ele>41.474</ele>
        <time>2013-04-28T10:53:00Z</time>
      </trkpt>
      <trkpt lat="60.0198495" lon="17.7796421">
        <ele>41.9547</ele>
        <time>2013-04-28T10:53:01Z</time>
      </trkpt>
      <trkpt lat="60.0198169" lon="17.779741">
        <ele>41.9547</ele>
        <time>2013-04-28T10:53:02Z</time>
      </trkpt>
      <trkpt lat="60.0197801" lon="17.7798328">
        <ele>42.4354</ele>
        <time>2013-04-28T10:53:03Z</time>
      </trkpt>
      <trkpt lat="60.0197392" lon="17.7799192">
        <ele>42.4354</ele>
        <time>2013-04-28T10:53:04Z</time>
      </trkpt>
      <trkpt lat="60.0196915" lon="17.7799965">
        <ele>42.4354</ele>
        <time>2013-04-28T10:53:05Z</time>
      </trkpt>
      <trkpt lat="60.0196404" lon="17.7800557">
        <ele>42.916</ele>
        <time>2013-04-28T10:53:06Z</time>
      </trkpt>
      <trkpt lat="60.0195854" lon="17.7800927">
        <ele>42.4354</ele>
        <time>2013-04-28T10:53:07Z</time>
      </trkpt>
      <trkpt lat="60.0195276" lon="17.7801208">
        <ele>42.4354</ele>
        <time>2013-04-28T10:53:08Z</time>
      </trkpt>
      <trkpt lat="60.0194667" lon="17.7801474">
        <ele>42.4354</ele>
        <time>2013-04-28T10:53:09Z</time>
      </trkpt>
      <trkpt lat="60.0194071" lon="17.7801691">
        <ele>41.474</ele>
        <time>2013-04-28T10:53:10Z</time>
      </trkpt>
      <trkpt lat="60.0193451" lon="17.7802004">
        <ele>41.474</ele>
        <time>2013-04-28T10:53:11Z</time>
      </trkpt>
      <trkpt lat="60.0192865" lon="17.780242">
        <ele>41.474</ele>
        <time>2013-04-28T10:53:12Z</time>
      </trkpt>
      <trkpt lat="60.019229" lon="17.780303">
        <ele>40.9934</ele>
        <time>2013-04-28T10:53:13Z</time>
      </trkpt>
      <trkpt lat="60.0191742" lon="17.7803827">
        <ele>40.9934</ele>
        <time>2013-04-28T10:53:14Z</time>
      </trkpt>
      <trkpt lat="60.0191212" lon="17.7804979">
        <ele>40.9934</ele>
        <time>2013-04-28T10:53:15Z</time>
      </trkpt>
      <trkpt lat="60.0190706" lon="17.7806147">
        <ele>40.9934</ele>
        <time>2013-04-28T10:53:16Z</time>
      </trkpt>
      <trkpt lat="60.0190223" lon="17.7807256">
        <ele>41.474</ele>
        <time>2013-04-28T10:53:17Z</time>
      </trkpt>
      <trkpt lat="60.01897" lon="17.7808293">
        <ele>41.474</ele>
        <time>2013-04-28T10:53:18Z</time>
      </trkpt>
      <trkpt lat="60.0189237" lon="17.7809182">
        <ele>41.474</ele>
        <time>2013-04-28T10:53:19Z</time>
      </trkpt>
      <trkpt lat="60.0188714" lon="17.7810007">
        <ele>40.9934</ele>
        <time>2013-04-28T10:53:20Z</time>
      </trkpt>
      <trkpt lat="60.0188156" lon="17.7810778">
        <ele>40.5128</ele>
        <time>2013-04-28T10:53:21Z</time>
      </trkpt>
      <trkpt lat="60.0187582" lon="17.7811577">
        <ele>40.5128</ele>
        <time>2013-04-28T10:53:22Z</time>
      </trkpt>
      <trkpt lat="60.0187011" lon="17.7812385">
        <ele>40.5128</ele>
        <time>2013-04-28T10:53:23Z</time>
      </trkpt>
      <trkpt lat="60.0186445" lon="17.7813183">
        <ele>40.5128</ele>
        <time>2013-04-28T10:53:24Z</time>
      </trkpt>
      <trkpt lat="60.0185896" lon="17.7814023">
        <ele>40.0321</ele>
        <time>2013-04-28T10:53:25Z</time>
      </trkpt>
      <trkpt lat="60.0185379" lon="17.7814971">
        <ele>39.5513</ele>
        <time>2013-04-28T10:53:26Z</time>
      </trkpt>
      <trkpt lat="60.0184917" lon="17.7816072">
        <ele>39.0707</ele>
        <time>2013-04-28T10:53:27Z</time>
      </trkpt>
      <trkpt lat="60.0184509" lon="17.7817372">
        <ele>38.5901</ele>
        <time>2013-04-28T10:53:28Z</time>
      </trkpt>
      <trkpt lat="60.0184179" lon="17.7818809">
        <ele>38.1094</ele>
        <time>2013-04-28T10:53:29Z</time>
      </trkpt>
      <trkpt lat="60.0183872" lon="17.7820333">
        <ele>38.1094</ele>
        <time>2013-04-28T10:53:30Z</time>
      </trkpt>
      <trkpt lat="60.018359" lon="17.7821884">
        <ele>38.1094</ele>
        <time>2013-04-28T10:53:31Z</time>
      </trkpt>
      <trkpt lat="60.0183329" lon="17.782344">
        <ele>37.6287</ele>
        <time>2013-04-28T10:53:32Z</time>
      </trkpt>
      <trkpt lat="60.0183064" lon="17.7824982">
        <ele>37.6287</ele>
        <time>2013-04-28T10:53:33Z</time>
      </trkpt>
      <trkpt lat="60.0182819" lon="17.7826473">
        <ele>37.1481</ele>
        <time>2013-04-28T10:53:34Z</time>
      </trkpt>
      <trkpt lat="60.0182601" lon="17.7828071">
        <ele>37.1481</ele>
        <time>2013-04-28T10:53:35Z</time>
      </trkpt>
      <trkpt lat="60.0182364" lon="17.782964">
        <ele>37.1481</ele>
        <time>2013-04-28T10:53:36Z</time>
      </trkpt>
      <trkpt lat="60.0182184" lon="17.783118">
        <ele>37.1481</ele>
        <time>2013-04-28T10:53:37Z</time>
      </trkpt>
      <trkpt lat="60.0182074" lon="17.7832655">
        <ele>37.1481</ele>
        <time>2013-04-28T10:53:38Z</time>
      </trkpt>
      <trkpt lat="60.0182044" lon="17.7834127">
        <ele>37.1481</ele>
        <time>2013-04-28T10:53:39Z</time>
      </trkpt>
      <trkpt lat="60.0182106" lon="17.7835727">
        <ele>37.6287</ele>
        <time>2013-04-28T10:53:40Z</time>
      </trkpt>
      <trkpt lat="60.0182204" lon="17.7837248">
        <ele>37.6287</ele>
        <time>2013-04-28T10:53:41Z</time>
      </trkpt>
      <trkpt lat="60.0182286" lon="17.7838836">
        <ele>38.1094</ele>
        <time>2013-04-28T10:53:42Z</time>
      </trkpt>
      <trkpt lat="60.0182385" lon="17.7840335">
        <ele>38.1094</ele>
        <time>2013-04-28T10:53:43Z</time>
      </trkpt>
      <trkpt lat="60.0182463" lon="17.7841823">
        <ele>38.1094</ele>
        <time>2013-04-28T10:53:44Z</time>
      </trkpt>
      <trkpt lat="60.0182526" lon="17.7843315">
        <ele>38.5901</ele>
        <time>2013-04-28T10:53:45Z</time>
      </trkpt>
      <trkpt lat="60.0182544" lon="17.7844766">
        <ele>39.0707</ele>
        <time>2013-04-28T10:53:46Z</time>
      </trkpt>
      <trkpt lat="60.0182516" lon="17.784617">
        <ele>39.5513</ele>
        <time>2013-04-28T10:53:47Z</time>
      </trkpt>
      <trkpt lat="60.0182454" lon="17.7847489">
        <ele>39.5513</ele>
        <time>2013-04-28T10:53:48Z</time>
      </trkpt>
      <trkpt lat="60.0182328" lon="17.7848836">
        <ele>39.5513</ele>
        <time>2013-04-28T10:53:49Z</time>
      </trkpt>
      <trkpt lat="60.0182208" lon="17.7850213">
        <ele>40.0321</ele>
        <time>2013-04-28T10:53:50Z</time>
      </trkpt>
      <trkpt lat="60.0182117" lon="17.7851628">
        <ele>40.5128</ele>
        <time>2013-04-28T10:53:51Z</time>
      </trkpt>
      <trkpt lat="60.018205" lon="17.7853049">
        <ele>40.5128</ele>
        <time>2013-04-28T10:53:52Z</time>
      </trkpt>
      <trkpt lat="60.018199" lon="17.7854473">
        <ele>40.9934</ele>
        <time>2013-04-28T10:53:53Z</time>
      </trkpt>
      <trkpt lat="60.0181975" lon="17.7855912">
        <ele>41.474</ele>
        <time>2013-04-28T10:53:54Z</time>
      </trkpt>
      <trkpt lat="60.0181991" lon="17.7857329">
        <ele>41.474</ele>
        <time>2013-04-28T10:53:55Z</time>
      </trkpt>
      <trkpt lat="60.018206" lon="17.7858742">
        <ele>41.9547</ele>
        <time>2013-04-28T10:53:56Z</time>
      </trkpt>
      <trkpt lat="60.018215" lon="17.7860108">
        <ele>42.4354</ele>
        <time>2013-04-28T10:53:57Z</time>
      </trkpt>
      <trkpt lat="60.0182266" lon="17.7861471">
        <ele>42.916</ele>
        <time>2013-04-28T10:53:58Z</time>
      </trkpt>
      <trkpt lat="60.0182364" lon="17.786285">
        <ele>43.3966</ele>
        <time>2013-04-28T10:53:59Z</time>
      </trkpt>
      <trkpt lat="60.0182453" lon="17.7864231">
        <ele>43.8773</ele>
        <time>2013-04-28T10:54:00Z</time>
      </trkpt>
      <trkpt lat="60.0182519" lon="17.7865621">
        <ele>43.8773</ele>
        <time>2013-04-28T10:54:01Z</time>
      </trkpt>
      <trkpt lat="60.0182582" lon="17.7867025">
        <ele>44.358</ele>
        <time>2013-04-28T10:54:02Z</time>
      </trkpt>
      <trkpt lat="60.0182661" lon="17.7868538">
        <ele>44.358</ele>
        <time>2013-04-28T10:54:03Z</time>
      </trkpt>
      <trkpt lat="60.0182748" lon="17.7870167">
        <ele>44.358</ele>
        <time>2013-04-28T10:54:04Z</time>
      </trkpt>
      <trkpt lat="60.0182842" lon="17.7871874">
        <ele>44.8386</ele>
        <time>2013-04-28T10:54:05Z</time>
      </trkpt>
      <trkpt lat="60.0182914" lon="17.7873626">
        <ele>44.358</ele>
        <time>2013-04-28T10:54:06Z</time>
      </trkpt>
      <trkpt lat="60.018297" lon="17.78754">
        <ele>43.8773</ele>
        <time>2013-04-28T10:54:07Z</time>
      </trkpt>
      <trkpt lat="60.0183011" lon="17.7877245">
        <ele>44.358</ele>
        <time>2013-04-28T10:54:08Z</time>
      </trkpt>
      <trkpt lat="60.018302" lon="17.7879007">
        <ele>44.358</ele>
        <time>2013-04-28T10:54:09Z</time>
      </trkpt>
      <trkpt lat="60.0182958" lon="17.7880895">
        <ele>44.8386</ele>
        <time>2013-04-28T10:54:10Z</time>
      </trkpt>
      <trkpt lat="60.0182954" lon="17.788284">
        <ele>44.358</ele>
        <time>2013-04-28T10:54:11Z</time>
      </trkpt>
      <trkpt lat="60.0183063" lon="17.788471">
        <ele>43.8773</ele>
        <time>2013-04-28T10:54:12Z</time>
      </trkpt>
      <trkpt lat="60.0183098" lon="17.7886485">
        <ele>42.4354</ele>
        <time>2013-04-28T10:54:13Z</time>
      </trkpt>
      <trkpt lat="60.0183399" lon="17.7888061">
        <ele>41.474</ele>
        <time>2013-04-28T10:54:14Z</time>
      </trkpt>
      <trkpt lat="60.0183529" lon="17.7889485">
        <ele>40.5128</ele>
        <time>2013-04-28T10:54:15Z</time>
      </trkpt>
      <trkpt lat="60.0184021" lon="17.7890791">
        <ele>40.0321</ele>
        <time>2013-04-28T10:54:16Z</time>
      </trkpt>
      <trkpt lat="60.0184456" lon="17.7891988">
        <ele>39.5513</ele>
        <time>2013-04-28T10:54:17Z</time>
      </trkpt>
      <trkpt lat="60.0184737" lon="17.7893478">
        <ele>38.5901</ele>
        <time>2013-04-28T10:54:18Z</time>
      </trkpt>
      <trkpt lat="60.0184996" lon="17.7894697">
        <ele>37.6287</ele>
        <time>2013-04-28T10:54:19Z</time>
      </trkpt>
      <trkpt lat="60.0185469" lon="17.7895514">
        <ele>36.1868</ele>
        <time>2013-04-28T10:54:20Z</time>
      </trkpt>
      <trkpt lat="60.0186009" lon="17.7896345">
        <ele>36.6675</ele>
        <time>2013-04-28T10:54:21Z</time>
      </trkpt>
      <trkpt lat="60.0186574" lon="17.7897078">
        <ele>36.6675</ele>
        <time>2013-04-28T10:54:22Z</time>
      </trkpt>
      <trkpt lat="60.0187092" lon="17.7897696">
        <ele>36.6675</ele>
        <time>2013-04-28T10:54:23Z</time>
      </trkpt>
      <trkpt lat="60.0187551" lon="17.789836">
        <ele>36.6675</ele>
        <time>2013-04-28T10:54:24Z</time>
      </trkpt>
      <trkpt lat="60.0188073" lon="17.7899054">
        <ele>35.7061</ele>
        <time>2013-04-28T10:54:25Z</time>
      </trkpt>
      <trkpt lat="60.0188758" lon="17.7899834">
        <ele>36.1868</ele>
        <time>2013-04-28T10:54:26Z</time>
      </trkpt>
      <trkpt lat="60.0189418" lon="17.7900504">
        <ele>36.6675</ele>
        <time>2013-04-28T10:54:27Z</time>
      </trkpt>
      <trkpt lat="60.0190134" lon="17.7901206">
        <ele>36.1868</ele>
        <time>2013-04-28T10:54:28Z</time>
      </trkpt>
      <trkpt lat="60.0190881" lon="17.7901932">
        <ele>36.6675</ele>
        <time>2013-04-28T10:54:29Z</time>
      </trkpt>
      <trkpt lat="60.0191642" lon="17.7902787">
        <ele>37.1481</ele>
        <time>2013-04-28T10:54:30Z</time>
      </trkpt>
      <trkpt lat="60.0192461" lon="17.7904026">
        <ele>37.6287</ele>
        <time>2013-04-28T10:54:31Z</time>
      </trkpt>
      <trkpt lat="60.019317" lon="17.7905244">
        <ele>39.0707</ele>
        <time>2013-04-28T10:54:32Z</time>
      </trkpt>
      <trkpt lat="60.0193767" lon="17.7906201">
        <ele>39.0707</ele>
        <time>2013-04-28T10:54:33Z</time>
      </trkpt>
      <trkpt lat="60.0194336" lon="17.7907254">
        <ele>39.0707</ele>
        <time>2013-04-28T10:54:34Z</time>
      </trkpt>
      <trkpt lat="60.0194838" lon="17.7908433">
        <ele>39.5513</ele>
        <time>2013-04-28T10:54:35Z</time>
      </trkpt>
      <trkpt lat="60.0195336" lon="17.7909625">
        <ele>40.0321</ele>
        <time>2013-04-28T10:54:36Z</time>
      </trkpt>
      <trkpt lat="60.0195784" lon="17.7910854">
        <ele>40.9934</ele>
        <time>2013-04-28T10:54:37Z</time>
      </trkpt>
      <trkpt lat="60.0196131" lon="17.7912048">
        <ele>41.474</ele>
        <time>2013-04-28T10:54:38Z</time>
      </trkpt>
      <trkpt lat="60.0196475" lon="17.7913273">
        <ele>42.916</ele>
        <time>2013-04-28T10:54:39Z</time>
      </trkpt>
      <trkpt lat="60.0196771" lon="17.7914413">
        <ele>43.3966</ele>
        <time>2013-04-28T10:54:40Z</time>
      </trkpt>
      <trkpt lat="60.019704" lon="17.7915532">
        <ele>43.8773</ele>
        <time>2013-04-28T10:54:41Z</time>
      </trkpt>
      <trkpt lat="60.0197283" lon="17.7916681">
        <ele>44.8386</ele>
        <time>2013-04-28T10:54:42Z</time>
      </trkpt>
      <trkpt lat="60.0197531" lon="17.7917838">
        <ele>44.8386</ele>
        <time>2013-04-28T10:54:43Z</time>
      </trkpt>
      <trkpt lat="60.0197832" lon="17.7919058">
        <ele>45.7999</ele>
        <time>2013-04-28T10:54:44Z</time>
      </trkpt>
      <trkpt lat="60.0198162" lon="17.7920282">
        <ele>46.2806</ele>
        <time>2013-04-28T10:54:45Z</time>
      </trkpt>
      <trkpt lat="60.0198533" lon="17.7921529">
        <ele>46.7612</ele>
        <time>2013-04-28T10:54:46Z</time>
      </trkpt>
      <trkpt lat="60.0198941" lon="17.792268">
        <ele>47.2418</ele>
        <time>2013-04-28T10:54:47Z</time>
      </trkpt>
      <trkpt lat="60.0199374" lon="17.792374">
        <ele>47.2418</ele>
        <time>2013-04-28T10:54:48Z</time>
      </trkpt>
      <trkpt lat="60.0199815" lon="17.792476">
        <ele>47.7225</ele>
        <time>2013-04-28T10:54:49Z</time>
      </trkpt>
      <trkpt lat="60.0200275" lon="17.7925727">
        <ele>47.7225</ele>
        <time>2013-04-28T10:54:50Z</time>
      </trkpt>
      <trkpt lat="60.020075" lon="17.7926646">
        <ele>48.2034</ele>
        <time>2013-04-28T10:54:51Z</time>
      </trkpt>
      <trkpt lat="60.0201239" lon="17.7927576">
        <ele>48.2034</ele>
        <time>2013-04-28T10:54:52Z</time>
      </trkpt>
      <trkpt lat="60.0201729" lon="17.792857">
        <ele>48.2034</ele>
        <time>2013-04-28T10:54:53Z</time>
      </trkpt>
      <trkpt lat="60.0202211" lon="17.7929659">
        <ele>48.2034</ele>
        <time>2013-04-28T10:54:54Z</time>
      </trkpt>
      <trkpt lat="60.0202692" lon="17.7930797">
        <ele>47.7225</ele>
        <time>2013-04-28T10:54:55Z</time>
      </trkpt>
      <trkpt lat="60.0203198" lon="17.7931967">
        <ele>47.7225</ele>
        <time>2013-04-28T10:54:56Z</time>
      </trkpt>
      <trkpt lat="60.0203712" lon="17.793316">
        <ele>47.7225</ele>
        <time>2013-04-28T10:54:57Z</time>
      </trkpt>
      <trkpt lat="60.020423" lon="17.7934395">
        <ele>48.2034</ele>
        <time>2013-04-28T10:54:58Z</time>
      </trkpt>
      <trkpt lat="60.0204748" lon="17.7935655">
        <ele>48.2034</ele>
        <time>2013-04-28T10:54:59Z</time>
      </trkpt>
      <trkpt lat="60.020524" lon="17.7936978">
        <ele>48.2034</ele>
        <time>2013-04-28T10:55:00Z</time>
      </trkpt>
      <trkpt lat="60.0205753" lon="17.7938317">
        <ele>48.684</ele>
        <time>2013-04-28T10:55:01Z</time>
      </trkpt>
      <trkpt lat="60.0206301" lon="17.7939593">
        <ele>48.684</ele>
        <time>2013-04-28T10:55:02Z</time>
      </trkpt>
      <trkpt lat="60.0206877" lon="17.7940782">
        <ele>48.684</ele>
        <time>2013-04-28T10:55:03Z</time>
      </trkpt>
      <trkpt lat="60.0207524" lon="17.7941867">
        <ele>48.684</ele>
        <time>2013-04-28T10:55:04Z</time>
      </trkpt>
      <trkpt lat="60.020819" lon="17.7942852">
        <ele>48.2034</ele>
        <time>2013-04-28T10:55:05Z</time>
      </trkpt>
      <trkpt lat="60.020887" lon="17.7943855">
        <ele>48.2034</ele>
        <time>2013-04-28T10:55:06Z</time>
      </trkpt>
      <trkpt lat="60.0209571" lon="17.7944855">
        <ele>47.7225</ele>
        <time>2013-04-28T10:55:07Z</time>
      </trkpt>
      <trkpt lat="60.02103" lon="17.7945848">
        <ele>47.2418</ele>
        <time>2013-04-28T10:55:08Z</time>
      </trkpt>
      <trkpt lat="60.021104" lon="17.7946954">
        <ele>47.2418</ele>
        <time>2013-04-28T10:55:09Z</time>
      </trkpt>
      <trkpt lat="60.0211781" lon="17.7948094">
        <ele>47.2418</ele>
        <time>2013-04-28T10:55:10Z</time>
      </trkpt>
      <trkpt lat="60.0212481" lon="17.794927">
        <ele>47.2418</ele>
        <time>2013-04-28T10:55:11Z</time>
      </trkpt>
      <trkpt lat="60.0213103" lon="17.7950526">
        <ele>46.7612</ele>
        <time>2013-04-28T10:55:12Z</time>
      </trkpt>
      <trkpt lat="60.0213636" lon="17.7951916">
        <ele>47.2418</ele>
        <time>2013-04-28T10:55:13Z</time>
      </trkpt>
      <trkpt lat="60.0214096" lon="17.7953434">
        <ele>46.7612</ele>
        <time>2013-04-28T10:55:14Z</time>
      </trkpt>
      <trkpt lat="60.0214467" lon="17.7955133">
        <ele>46.2806</ele>
        <time>2013-04-28T10:55:15Z</time>
      </trkpt>
      <trkpt lat="60.0214782" lon="17.7956986">
        <ele>46.2806</ele>
        <time>2013-04-28T10:55:16Z</time>
      </trkpt>
      <trkpt lat="60.0215056" lon="17.7958892">
        <ele>45.7999</ele>
        <time>2013-04-28T10:55:17Z</time>
      </trkpt>
      <trkpt lat="60.0215383" lon="17.7960779">
        <ele>45.3192</ele>
        <time>2013-04-28T10:55:18Z</time>
      </trkpt>
      <trkpt lat="60.0215762" lon="17.7962632">
        <ele>45.3192</ele>
        <time>2013-04-28T10:55:19Z</time>
      </trkpt>
      <trkpt lat="60.0216209" lon="17.7964429">
        <ele>45.3192</ele>
        <time>2013-04-28T10:55:20Z</time>
      </trkpt>
      <trkpt lat="60.0216675" lon="17.7966149">
        <ele>45.7999</ele>
        <time>2013-04-28T10:55:21Z</time>
      </trkpt>
      <trkpt lat="60.0217062" lon="17.7967794">
        <ele>46.2806</ele>
        <time>2013-04-28T10:55:22Z</time>
      </trkpt>
      <trkpt lat="60.0217292" lon="17.7969337">
        <ele>46.7612</ele>
        <time>2013-04-28T10:55:23Z</time>
      </trkpt>
      <trkpt lat="60.0217356" lon="17.7970802">
        <ele>46.7612</ele>
        <time>2013-04-28T10:55:24Z</time>
      </trkpt>
      <trkpt lat="60.0217219" lon="17.7972176">
        <ele>46.7612</ele>
        <time>2013-04-28T10:55:25Z</time>
      </trkpt>
      <trkpt lat="60.0216942" lon="17.7973486">
        <ele>46.2806</ele>
        <time>2013-04-28T10:55:26Z</time>
      </trkpt>
      <trkpt lat="60.0216578" lon="17.7974779">
        <ele>45.7999</ele>
        <time>2013-04-28T10:55:27Z</time>
      </trkpt>
      <trkpt lat="60.021614" lon="17.7976159">
        <ele>45.3192</ele>
        <time>2013-04-28T10:55:28Z</time>
      </trkpt>
      <trkpt lat="60.0215653" lon="17.797765">
        <ele>44.8386</ele>
        <time>2013-04-28T10:55:29Z</time>
      </trkpt>
      <trkpt lat="60.0215111" lon="17.7979195">
        <ele>43.8773</ele>
        <time>2013-04-28T10:55:30Z</time>
      </trkpt>
      <trkpt lat="60.0214505" lon="17.7980666">
        <ele>43.3966</ele>
        <time>2013-04-28T10:55:31Z</time>
      </trkpt>
      <trkpt lat="60.0213828" lon="17.7982">
        <ele>42.4354</ele>
        <time>2013-04-28T10:55:32Z</time>
      </trkpt>
      <trkpt lat="60.0213057" lon="17.7983116">
        <ele>41.9547</ele>
        <time>2013-04-28T10:55:33Z</time>
      </trkpt>
      <trkpt lat="60.0212026" lon="17.7983847">
        <ele>41.474</ele>
        <time>2013-04-28T10:55:34Z</time>
      </trkpt>
      <trkpt lat="60.0211157" lon="17.7984551">
        <ele>41.474</ele>
        <time>2013-04-28T10:55:35Z</time>
      </trkpt>
      <trkpt lat="60.0210332" lon="17.7985312">
        <ele>40.5128</ele>
        <time>2013-04-28T10:55:36Z</time>
      </trkpt>
      <trkpt lat="60.02096" lon="17.798612">
        <ele>40.0321</ele>
        <time>2013-04-28T10:55:37Z</time>
      </trkpt>
      <trkpt lat="60.0208882" lon="17.798701">
        <ele>40.0321</ele>
        <time>2013-04-28T10:55:38Z</time>
      </trkpt>
      <trkpt lat="60.0208203" lon="17.7987954">
        <ele>39.5513</ele>
        <time>2013-04-28T10:55:39Z</time>
      </trkpt>
      <trkpt lat="60.0207565" lon="17.7988897">
        <ele>39.0707</ele>
        <time>2013-04-28T10:55:40Z</time>
      </trkpt>
      <trkpt lat="60.0206966" lon="17.7989844">
        <ele>39.5513</ele>
        <time>2013-04-28T10:55:41Z</time>
      </trkpt>
      <trkpt lat="60.02064" lon="17.7990722">
        <ele>39.5513</ele>
        <time>2013-04-28T10:55:42Z</time>
      </trkpt>
      <trkpt lat="60.0206083" lon="17.7992026">
        <ele>39.5513</ele>
        <time>2013-04-28T10:55:43Z</time>
      </trkpt>
      <trkpt lat="60.0205979" lon="17.7993294">
        <ele>39.5513</ele>
        <time>2013-04-28T10:55:44Z</time>
      </trkpt>
      <trkpt lat="60.020573" lon="17.7995028">
        <ele>39.5513</ele>
        <time>2013-04-28T10:55:45Z</time>
      </trkpt>
      <trkpt lat="60.020578" lon="17.7996437">
        <ele>40.0321</ele>
        <time>2013-04-28T10:55:46Z</time>
      </trkpt>
      <trkpt lat="60.0205942" lon="17.7997734">
        <ele>40.0321</ele>
        <time>2013-04-28T10:55:47Z</time>
      </trkpt>
      <trkpt lat="60.0206129" lon="17.7999054">
        <ele>40.0321</ele>
        <time>2013-04-28T10:55:48Z</time>
      </trkpt>
      <trkpt lat="60.0206329" lon="17.8000369">
        <ele>40.0321</ele>
        <time>2013-04-28T10:55:49Z</time>
      </trkpt>
      <trkpt lat="60.0206512" lon="17.800178">
        <ele>40.5128</ele>
        <time>2013-04-28T10:55:50Z</time>
      </trkpt>
      <trkpt lat="60.0206738" lon="17.8003184">
        <ele>40.5128</ele>
        <time>2013-04-28T10:55:51Z</time>
      </trkpt>
      <trkpt lat="60.0206991" lon="17.800464">
        <ele>40.9934</ele>
        <time>2013-04-28T10:55:52Z</time>
      </trkpt>
      <trkpt lat="60.0207246" lon="17.8006161">
        <ele>41.474</ele>
        <time>2013-04-28T10:55:53Z</time>
      </trkpt>
      <trkpt lat="60.0207493" lon="17.8007728">
        <ele>41.474</ele>
        <time>2013-04-28T10:55:54Z</time>
      </trkpt>
      <trkpt lat="60.0207711" lon="17.8009342">
        <ele>41.474</ele>
        <time>2013-04-28T10:55:55Z</time>
      </trkpt>
      <trkpt lat="60.0207881" lon="17.8010966">
        <ele>41.9547</ele>
        <time>2013-04-28T10:55:56Z</time>
      </trkpt>
      <trkpt lat="60.0207981" lon="17.8012581">
        <ele>42.4354</ele>
        <time>2013-04-28T10:55:57Z</time>
      </trkpt>
      <trkpt lat="60.0208015" lon="17.8014153">
        <ele>43.3966</ele>
        <time>2013-04-28T10:55:58Z</time>
      </trkpt>
      <trkpt lat="60.0207968" lon="17.8015627">
        <ele>44.358</ele>
        <time>2013-04-28T10:55:59Z</time>
      </trkpt>
      <trkpt lat="60.0207843" lon="17.8017046">
        <ele>43.8773</ele>
        <time>2013-04-28T10:56:00Z</time>
      </trkpt>
      <trkpt lat="60.0207698" lon="17.8018334">
        <ele>43.8773</ele>
        <time>2013-04-28T10:56:01Z</time>
      </trkpt>
      <trkpt lat="60.0207556" lon="17.8019476">
        <ele>44.358</ele>
        <time>2013-04-28T10:56:02Z</time>
      </trkpt>
      <trkpt lat="60.0207408" lon="17.8020486">
        <ele>44.8386</ele>
        <time>2013-04-28T10:56:03Z</time>
      </trkpt>
      <trkpt lat="60.020726" lon="17.8021502">
        <ele>44.8386</ele>
        <time>2013-04-28T10:56:04Z</time>
      </trkpt>
      <trkpt lat="60.0207118" lon="17.8022566">
        <ele>45.3192</ele>
        <time>2013-04-28T10:56:05Z</time>
      </trkpt>
      <trkpt lat="60.020697" lon="17.8023713">
        <ele>45.7999</ele>
        <time>2013-04-28T10:56:06Z</time>
      </trkpt>
      <trkpt lat="60.0206788" lon="17.8024949">
        <ele>45.7999</ele>
        <time>2013-04-28T10:56:07Z</time>
      </trkpt>
      <trkpt lat="60.0206581" lon="17.8026188">
        <ele>45.3192</ele>
        <time>2013-04-28T10:56:08Z</time>
      </trkpt>
      <trkpt lat="60.0206358" lon="17.8027337">
        <ele>45.3192</ele>
        <time>2013-04-28T10:56:09Z</time>
      </trkpt>
      <trkpt lat="60.020611" lon="17.8028451">
        <ele>44.8386</ele>
        <time>2013-04-28T10:56:10Z</time>
      </trkpt>
      <trkpt lat="60.0205836" lon="17.8029552">
        <ele>44.8386</ele>
        <time>2013-04-28T10:56:11Z</time>
      </trkpt>
      <trkpt lat="60.020554" lon="17.8030669">
        <ele>44.8386</ele>
        <time>2013-04-28T10:56:12Z</time>
      </trkpt>
      <trkpt lat="60.0205239" lon="17.8031786">
        <ele>44.8386</ele>
        <time>2013-04-28T10:56:13Z</time>
      </trkpt>
      <trkpt lat="60.0204945" lon="17.8032923">
        <ele>44.8386</ele>
        <time>2013-04-28T10:56:14Z</time>
      </trkpt>
      <trkpt lat="60.0204682" lon="17.803411">
        <ele>44.358</ele>
        <time>2013-04-28T10:56:15Z</time>
      </trkpt>
      <trkpt lat="60.0204442" lon="17.8035352">
        <ele>44.358</ele>
        <time>2013-04-28T10:56:16Z</time>
      </trkpt>
      <trkpt lat="60.0204229" lon="17.803663">
        <ele>44.358</ele>
        <time>2013-04-28T10:56:17Z</time>
      </trkpt>
      <trkpt lat="60.0204041" lon="17.8037964">
        <ele>44.358</ele>
        <time>2013-04-28T10:56:18Z</time>
      </trkpt>
      <trkpt lat="60.0203887" lon="17.8039351">
        <ele>44.358</ele>
        <time>2013-04-28T10:56:19Z</time>
      </trkpt>
      <trkpt lat="60.0203751" lon="17.8040791">
        <ele>44.358</ele>
        <time>2013-04-28T10:56:20Z</time>
      </trkpt>
      <trkpt lat="60.020362" lon="17.8042237">
        <ele>44.358</ele>
        <time>2013-04-28T10:56:21Z</time>
      </trkpt>
      <trkpt lat="60.0203477" lon="17.8043652">
        <ele>44.8386</ele>
        <time>2013-04-28T10:56:22Z</time>
      </trkpt>
      <trkpt lat="60.0203329" lon="17.8045012">
        <ele>45.3192</ele>
        <time>2013-04-28T10:56:23Z</time>
      </trkpt>
      <trkpt lat="60.0203195" lon="17.8046282">
        <ele>45.7999</ele>
        <time>2013-04-28T10:56:24Z</time>
      </trkpt>
      <trkpt lat="60.0203069" lon="17.8047489">
        <ele>46.2806</ele>
        <time>2013-04-28T10:56:25Z</time>
      </trkpt>
      <trkpt lat="60.0202935" lon="17.804864">
        <ele>46.2806</ele>
        <time>2013-04-28T10:56:26Z</time>
      </trkpt>
      <trkpt lat="60.0202788" lon="17.8049749">
        <ele>46.2806</ele>
        <time>2013-04-28T10:56:27Z</time>
      </trkpt>
      <trkpt lat="60.0202645" lon="17.8050859">
        <ele>46.7612</ele>
        <time>2013-04-28T10:56:28Z</time>
      </trkpt>
      <trkpt lat="60.0202515" lon="17.8051995">
        <ele>46.7612</ele>
        <time>2013-04-28T10:56:29Z</time>
      </trkpt>
      <trkpt lat="60.0202405" lon="17.8053196">
        <ele>46.7612</ele>
        <time>2013-04-28T10:56:30Z</time>
      </trkpt>
      <trkpt lat="60.0202323" lon="17.8054444">
        <ele>46.7612</ele>
        <time>2013-04-28T10:56:31Z</time>
      </trkpt>
      <trkpt lat="60.0202245" lon="17.8055734">
        <ele>46.7612</ele>
        <time>2013-04-28T10:56:32Z</time>
      </trkpt>
      <trkpt lat="60.0202172" lon="17.8057052">
        <ele>47.2418</ele>
        <time>2013-04-28T10:56:33Z</time>
      </trkpt>
      <trkpt lat="60.0202093" lon="17.8058399">
        <ele>47.2418</ele>
        <time>2013-04-28T10:56:34Z</time>
      </trkpt>
      <trkpt lat="60.0202002" lon="17.8059767">
        <ele>47.2418</ele>
        <time>2013-04-28T10:56:35Z</time>
      </trkpt>
      <trkpt lat="60.0201893" lon="17.8061138">
        <ele>47.2418</ele>
        <time>2013-04-28T10:56:36Z</time>
      </trkpt>
      <trkpt lat="60.0201763" lon="17.8062486">
        <ele>47.7225</ele>
        <time>2013-04-28T10:56:37Z</time>
      </trkpt>
      <trkpt lat="60.0201614" lon="17.8063802">
        <ele>48.2034</ele>
        <time>2013-04-28T10:56:38Z</time>
      </trkpt>
      <trkpt lat="60.0201451" lon="17.8065108">
        <ele>48.2034</ele>
        <time>2013-04-28T10:56:39Z</time>
      </trkpt>
      <trkpt lat="60.0201281" lon="17.8066389">
        <ele>48.2034</ele>
        <time>2013-04-28T10:56:40Z</time>
      </trkpt>
      <trkpt lat="60.0201091" lon="17.8067646">
        <ele>48.2034</ele>
        <time>2013-04-28T10:56:41Z</time>
      </trkpt>
      <trkpt lat="60.0200877" lon="17.8068894">
        <ele>47.7225</ele>
        <time>2013-04-28T10:56:42Z</time>
      </trkpt>
      <trkpt lat="60.0200627" lon="17.8070135">
        <ele>47.7225</ele>
        <time>2013-04-28T10:56:43Z</time>
      </trkpt>
      <trkpt lat="60.0200324" lon="17.8071354">
        <ele>48.2034</ele>
        <time>2013-04-28T10:56:44Z</time>
      </trkpt>
      <trkpt lat="60.0199965" lon="17.8072535">
        <ele>48.2034</ele>
        <time>2013-04-28T10:56:45Z</time>
      </trkpt>
      <trkpt lat="60.0199593" lon="17.8073664">
        <ele>47.7225</ele>
        <time>2013-04-28T10:56:46Z</time>
      </trkpt>
      <trkpt lat="60.0199241" lon="17.8074764">
        <ele>47.7225</ele>
        <time>2013-04-28T10:56:47Z</time>
      </trkpt>
      <trkpt lat="60.0198882" lon="17.8075897">
        <ele>47.7225</ele>
        <time>2013-04-28T10:56:48Z</time>
      </trkpt>
      <trkpt lat="60.0198532" lon="17.8077088">
        <ele>47.7225</ele>
        <time>2013-04-28T10:56:49Z</time>
      </trkpt>
      <trkpt lat="60.0198208" lon="17.8078238">
        <ele>47.2418</ele>
        <time>2013-04-28T10:56:50Z</time>
      </trkpt>
      <trkpt lat="60.0197905" lon="17.8079377">
        <ele>47.2418</ele>
        <time>2013-04-28T10:56:51Z</time>
      </trkpt>
      <trkpt lat="60.0197624" lon="17.8080559">
        <ele>46.2806</ele>
        <time>2013-04-28T10:56:52Z</time>
      </trkpt>
      <trkpt lat="60.0197392" lon="17.8081791">
        <ele>46.2806</ele>
        <time>2013-04-28T10:56:53Z</time>
      </trkpt>
      <trkpt lat="60.019719" lon="17.8083081">
        <ele>45.7999</ele>
        <time>2013-04-28T10:56:54Z</time>
      </trkpt>
      <trkpt lat="60.0196978" lon="17.8084445">
        <ele>45.3192</ele>
        <time>2013-04-28T10:56:55Z</time>
      </trkpt>
      <trkpt lat="60.0196755" lon="17.8085893">
        <ele>44.358</ele>
        <time>2013-04-28T10:56:56Z</time>
      </trkpt>
      <trkpt lat="60.0196554" lon="17.8087493">
        <ele>43.8773</ele>
        <time>2013-04-28T10:56:57Z</time>
      </trkpt>
      <trkpt lat="60.0196409" lon="17.8089226">
        <ele>43.3966</ele>
        <time>2013-04-28T10:56:58Z</time>
      </trkpt>
      <trkpt lat="60.019635" lon="17.8090981">
        <ele>43.3966</ele>
        <time>2013-04-28T10:56:59Z</time>
      </trkpt>
      <trkpt lat="60.0196372" lon="17.8092727">
        <ele>42.916</ele>
        <time>2013-04-28T10:57:00Z</time>
      </trkpt>
      <trkpt lat="60.0196455" lon="17.8094458">
        <ele>42.916</ele>
        <time>2013-04-28T10:57:01Z</time>
      </trkpt>
      <trkpt lat="60.0196491" lon="17.8096347">
        <ele>42.916</ele>
        <time>2013-04-28T10:57:02Z</time>
      </trkpt>
      <trkpt lat="60.019662" lon="17.8098064">
        <ele>42.916</ele>
        <time>2013-04-28T10:57:03Z</time>
      </trkpt>
      <trkpt lat="60.0196739" lon="17.8099793">
        <ele>42.916</ele>
        <time>2013-04-28T10:57:04Z</time>
      </trkpt>
      <trkpt lat="60.0196867" lon="17.8101533">
        <ele>42.916</ele>
        <time>2013-04-28T10:57:05Z</time>
      </trkpt>
      <trkpt lat="60.0197007" lon="17.8103243">
        <ele>42.916</ele>
        <time>2013-04-28T10:57:06Z</time>
      </trkpt>
      <trkpt lat="60.0197137" lon="17.810504">
        <ele>42.4354</ele>
        <time>2013-04-28T10:57:07Z</time>
      </trkpt>
      <trkpt lat="60.019723" lon="17.8106711">
        <ele>41.9547</ele>
        <time>2013-04-28T10:57:08Z</time>
      </trkpt>
      <trkpt lat="60.0197387" lon="17.8108416">
        <ele>41.9547</ele>
        <time>2013-04-28T10:57:09Z</time>
      </trkpt>
      <trkpt lat="60.0197584" lon="17.8110028">
        <ele>41.474</ele>
        <time>2013-04-28T10:57:10Z</time>
      </trkpt>
      <trkpt lat="60.0197879" lon="17.811157">
        <ele>41.474</ele>
        <time>2013-04-28T10:57:11Z</time>
      </trkpt>
      <trkpt lat="60.0198314" lon="17.8113012">
        <ele>41.474</ele>
        <time>2013-04-28T10:57:12Z</time>
      </trkpt>
      <trkpt lat="60.0198843" lon="17.8114349">
        <ele>41.474</ele>
        <time>2013-04-28T10:57:13Z</time>
      </trkpt>
      <trkpt lat="60.0199419" lon="17.8115543">
        <ele>41.474</ele>
        <time>2013-04-28T10:57:14Z</time>
      </trkpt>
      <trkpt lat="60.0200039" lon="17.8116628">
        <ele>41.474</ele>
        <time>2013-04-28T10:57:15Z</time>
      </trkpt>
      <trkpt lat="60.0200657" lon="17.8117667">
        <ele>41.474</ele>
        <time>2013-04-28T10:57:16Z</time>
      </trkpt>
      <trkpt lat="60.0201293" lon="17.8118674">
        <ele>41.474</ele>
        <time>2013-04-28T10:57:17Z</time>
      </trkpt>
      <trkpt lat="60.0201915" lon="17.8119727">
        <ele>41.474</ele>
        <time>2013-04-28T10:57:18Z</time>
      </trkpt>
      <trkpt lat="60.0202518" lon="17.8120849">
        <ele>41.474</ele>
        <time>2013-04-28T10:57:19Z</time>
      </trkpt>
      <trkpt lat="60.0203081" lon="17.8122036">
        <ele>41.474</ele>
        <time>2013-04-28T10:57:20Z</time>
      </trkpt>
      <trkpt lat="60.0203619" lon="17.812328">
        <ele>41.474</ele>
        <time>2013-04-28T10:57:21Z</time>
      </trkpt>
      <trkpt lat="60.0204198" lon="17.8124709">
        <ele>41.474</ele>
        <time>2013-04-28T10:57:22Z</time>
      </trkpt>
      <trkpt lat="60.0204759" lon="17.8126087">
        <ele>40.9934</ele>
        <time>2013-04-28T10:57:23Z</time>
      </trkpt>
      <trkpt lat="60.0205338" lon="17.8127398">
        <ele>40.9934</ele>
        <time>2013-04-28T10:57:24Z</time>
      </trkpt>
      <trkpt lat="60.0205943" lon="17.8128659">
        <ele>40.9934</ele>
        <time>2013-04-28T10:57:25Z</time>
      </trkpt>
      <trkpt lat="60.0206549" lon="17.8129901">
        <ele>41.474</ele>
        <time>2013-04-28T10:57:26Z</time>
      </trkpt>
      <trkpt lat="60.0207124" lon="17.8131226">
        <ele>40.9934</ele>
        <time>2013-04-28T10:57:27Z</time>
      </trkpt>
      <trkpt lat="60.0207685" lon="17.8132619">
        <ele>40.9934</ele>
        <time>2013-04-28T10:57:28Z</time>
      </trkpt>
      <trkpt lat="60.0208151" lon="17.8134133">
        <ele>40.9934</ele>
        <time>2013-04-28T10:57:29Z</time>
      </trkpt>
      <trkpt lat="60.0208548" lon="17.8135705">
        <ele>40.9934</ele>
        <time>2013-04-28T10:57:30Z</time>
      </trkpt>
      <trkpt lat="60.020888" lon="17.8137209">
        <ele>40.5128</ele>
        <time>2013-04-28T10:57:31Z</time>
      </trkpt>
      <trkpt lat="60.020914" lon="17.8138752">
        <ele>40.9934</ele>
        <time>2013-04-28T10:57:32Z</time>
      </trkpt>
      <trkpt lat="60.0209296" lon="17.8140393">
        <ele>41.9547</ele>
        <time>2013-04-28T10:57:33Z</time>
      </trkpt>
      <trkpt lat="60.0209385" lon="17.8142048">
        <ele>41.9547</ele>
        <time>2013-04-28T10:57:34Z</time>
      </trkpt>
      <trkpt lat="60.0209439" lon="17.8143697">
        <ele>41.474</ele>
        <time>2013-04-28T10:57:35Z</time>
      </trkpt>
      <trkpt lat="60.0209491" lon="17.8145341">
        <ele>41.474</ele>
        <time>2013-04-28T10:57:36Z</time>
      </trkpt>
      <trkpt lat="60.0209633" lon="17.8146981">
        <ele>41.474</ele>
        <time>2013-04-28T10:57:37Z</time>
      </trkpt>
      <trkpt lat="60.0209751" lon="17.8148605">
        <ele>40.5128</ele>
        <time>2013-04-28T10:57:38Z</time>
      </trkpt>
      <trkpt lat="60.0209838" lon="17.8150314">
        <ele>38.1094</ele>
        <time>2013-04-28T10:57:39Z</time>
      </trkpt>
      <trkpt lat="60.0209891" lon="17.8152106">
        <ele>36.6675</ele>
        <time>2013-04-28T10:57:40Z</time>
      </trkpt>
      <trkpt lat="60.0209912" lon="17.8153996">
        <ele>36.6675</ele>
        <time>2013-04-28T10:57:41Z</time>
      </trkpt>
      <trkpt lat="60.020986" lon="17.8155928">
        <ele>36.1868</ele>
        <time>2013-04-28T10:57:42Z</time>
      </trkpt>
      <trkpt lat="60.0209772" lon="17.815792">
        <ele>35.2255</ele>
        <time>2013-04-28T10:57:43Z</time>
      </trkpt>
      <trkpt lat="60.0209632" lon="17.8159984">
        <ele>35.7061</ele>
        <time>2013-04-28T10:57:44Z</time>
      </trkpt>
      <trkpt lat="60.0209467" lon="17.816196">
        <ele>35.2255</ele>
        <time>2013-04-28T10:57:45Z</time>
      </trkpt>
      <trkpt lat="60.0209176" lon="17.8164276">
        <ele>35.2255</ele>
        <time>2013-04-28T10:57:46Z</time>
      </trkpt>
      <trkpt lat="60.0209115" lon="17.8166118">
        <ele>36.1868</ele>
        <time>2013-04-28T10:57:47Z</time>
      </trkpt>
      <trkpt lat="60.0209104" lon="17.8167726">
        <ele>35.7061</ele>
        <time>2013-04-28T10:57:48Z</time>
      </trkpt>
      <trkpt lat="60.0209135" lon="17.8169408">
        <ele>35.7061</ele>
        <time>2013-04-28T10:57:49Z</time>
      </trkpt>
      <trkpt lat="60.0209284" lon="17.8171002">
        <ele>35.7061</ele>
        <time>2013-04-28T10:57:50Z</time>
      </trkpt>
      <trkpt lat="60.0209465" lon="17.8172532">
        <ele>35.2255</ele>
        <time>2013-04-28T10:57:51Z</time>
      </trkpt>
      <trkpt lat="60.0209672" lon="17.8174013">
        <ele>35.2255</ele>
        <time>2013-04-28T10:57:52Z</time>
      </trkpt>
      <trkpt lat="60.0209886" lon="17.8175542">
        <ele>35.2255</ele>
        <time>2013-04-28T10:57:53Z</time>
      </trkpt>
      <trkpt lat="60.0210042" lon="17.8177192">
        <ele>35.2255</ele>
        <time>2013-04-28T10:57:54Z</time>
      </trkpt>
      <trkpt lat="60.0210244" lon="17.8178815">
        <ele>35.2255</ele>
        <time>2013-04-28T10:57:55Z</time>
      </trkpt>
      <trkpt lat="60.0210456" lon="17.8180395">
        <ele>35.7061</ele>
        <time>2013-04-28T10:57:56Z</time>
      </trkpt>
      <trkpt lat="60.0210639" lon="17.8182004">
        <ele>36.6675</ele>
        <time>2013-04-28T10:57:57Z</time>
      </trkpt>
      <trkpt lat="60.0210742" lon="17.8183607">
        <ele>36.6675</ele>
        <time>2013-04-28T10:57:58Z</time>
      </trkpt>
      <trkpt lat="60.0210771" lon="17.8185161">
        <ele>36.6675</ele>
        <time>2013-04-28T10:57:59Z</time>
      </trkpt>
      <trkpt lat="60.0210682" lon="17.8186715">
        <ele>36.1868</ele>
        <time>2013-04-28T10:58:00Z</time>
      </trkpt>
      <trkpt lat="60.0210482" lon="17.818837">
        <ele>35.7061</ele>
        <time>2013-04-28T10:58:01Z</time>
      </trkpt>
      <trkpt lat="60.0210209" lon="17.8190031">
        <ele>35.2255</ele>
        <time>2013-04-28T10:58:02Z</time>
      </trkpt>
      <trkpt lat="60.0209833" lon="17.8191732">
        <ele>35.2255</ele>
        <time>2013-04-28T10:58:03Z</time>
      </trkpt>
      <trkpt lat="60.0209392" lon="17.8193475">
        <ele>35.2255</ele>
        <time>2013-04-28T10:58:04Z</time>
      </trkpt>
      <trkpt lat="60.0209022" lon="17.8195175">
        <ele>34.7449</ele>
        <time>2013-04-28T10:58:05Z</time>
      </trkpt>
      <trkpt lat="60.0208715" lon="17.8196841">
        <ele>34.2642</ele>
        <time>2013-04-28T10:58:06Z</time>
      </trkpt>
      <trkpt lat="60.0208415" lon="17.8198542">
        <ele>33.3029</ele>
        <time>2013-04-28T10:58:07Z</time>
      </trkpt>
      <trkpt lat="60.020811" lon="17.8200303">
        <ele>33.3029</ele>
        <time>2013-04-28T10:58:08Z</time>
      </trkpt>
      <trkpt lat="60.0207849" lon="17.8202116">
        <ele>33.3029</ele>
        <time>2013-04-28T10:58:09Z</time>
      </trkpt>
      <trkpt lat="60.0207637" lon="17.8204028">
        <ele>32.3416</ele>
        <time>2013-04-28T10:58:10Z</time>
      </trkpt>
      <trkpt lat="60.0207529" lon="17.8205976">
        <ele>32.3416</ele>
        <time>2013-04-28T10:58:11Z</time>
      </trkpt>
      <trkpt lat="60.0207535" lon="17.8207875">
        <ele>31.8607</ele>
        <time>2013-04-28T10:58:12Z</time>
      </trkpt>
      <trkpt lat="60.0207553" lon="17.8209797">
        <ele>31.3801</ele>
        <time>2013-04-28T10:58:13Z</time>
      </trkpt>
      <trkpt lat="60.0207508" lon="17.8211725">
        <ele>30.8995</ele>
        <time>2013-04-28T10:58:14Z</time>
      </trkpt>
      <trkpt lat="60.0207365" lon="17.8213667">
        <ele>31.3801</ele>
        <time>2013-04-28T10:58:15Z</time>
      </trkpt>
      <trkpt lat="60.0207093" lon="17.8215563">
        <ele>31.8607</ele>
        <time>2013-04-28T10:58:16Z</time>
      </trkpt>
      <trkpt lat="60.0206835" lon="17.8217256">
        <ele>31.8607</ele>
        <time>2013-04-28T10:58:17Z</time>
      </trkpt>
      <trkpt lat="60.0206574" lon="17.8218845">
        <ele>31.3801</ele>
        <time>2013-04-28T10:58:18Z</time>
      </trkpt>
      <trkpt lat="60.0206394" lon="17.8220416">
        <ele>30.8995</ele>
        <time>2013-04-28T10:58:19Z</time>
      </trkpt>
      <trkpt lat="60.020621" lon="17.8222063">
        <ele>30.8995</ele>
        <time>2013-04-28T10:58:20Z</time>
      </trkpt>
      <trkpt lat="60.0206115" lon="17.8223716">
        <ele>30.4188</ele>
        <time>2013-04-28T10:58:21Z</time>
      </trkpt>
      <trkpt lat="60.0206193" lon="17.8225782">
        <ele>30.4188</ele>
        <time>2013-04-28T10:58:22Z</time>
      </trkpt>
      <trkpt lat="60.0206229" lon="17.8227634">
        <ele>29.9381</ele>
        <time>2013-04-28T10:58:23Z</time>
      </trkpt>
      <trkpt lat="60.020637" lon="17.8229594">
        <ele>29.9381</ele>
        <time>2013-04-28T10:58:24Z</time>
      </trkpt>
      <trkpt lat="60.0206609" lon="17.8231324">
        <ele>29.4575</ele>
        <time>2013-04-28T10:58:25Z</time>
      </trkpt>
      <trkpt lat="60.0206654" lon="17.8233077">
        <ele>29.9381</ele>
        <time>2013-04-28T10:58:26Z</time>
      </trkpt>
      <trkpt lat="60.0206916" lon="17.8234403">
        <ele>30.4188</ele>
        <time>2013-04-28T10:58:27Z</time>
      </trkpt>
      <trkpt lat="60.0207038" lon="17.823589">
        <ele>30.4188</ele>
        <time>2013-04-28T10:58:28Z</time>
      </trkpt>
      <trkpt lat="60.0207192" lon="17.8237524">
        <ele>29.9381</ele>
        <time>2013-04-28T10:58:29Z</time>
      </trkpt>
      <trkpt lat="60.0207317" lon="17.8239325">
        <ele>28.9769</ele>
        <time>2013-04-28T10:58:30Z</time>
      </trkpt>
      <trkpt lat="60.0207382" lon="17.8241178">
        <ele>29.4575</ele>
        <time>2013-04-28T10:58:31Z</time>
      </trkpt>
      <trkpt lat="60.0207451" lon="17.8243048">
        <ele>29.9381</ele>
        <time>2013-04-28T10:58:32Z</time>
      </trkpt>
      <trkpt lat="60.0207377" lon="17.8244927">
        <ele>30.4188</ele>
        <time>2013-04-28T10:58:33Z</time>
      </trkpt>
      <trkpt lat="60.0207191" lon="17.8246762">
        <ele>30.4188</ele>
        <time>2013-04-28T10:58:34Z</time>
      </trkpt>
      <trkpt lat="60.0206983" lon="17.824857">
        <ele>30.4188</ele>
        <time>2013-04-28T10:58:35Z</time>
      </trkpt>
      <trkpt lat="60.0206799" lon="17.8250414">
        <ele>30.4188</ele>
        <time>2013-04-28T10:58:36Z</time>
      </trkpt>
      <trkpt lat="60.0206613" lon="17.8252251">
        <ele>30.4188</ele>
        <time>2013-04-28T10:58:37Z</time>
      </trkpt>
      <trkpt lat="60.0206431" lon="17.8254111">
        <ele>30.4188</ele>
        <time>2013-04-28T10:58:38Z</time>
      </trkpt>
      <trkpt lat="60.020625" lon="17.8255987">
        <ele>30.4188</ele>
        <time>2013-04-28T10:58:39Z</time>
      </trkpt>
      <trkpt lat="60.0206067" lon="17.8257846">
        <ele>30.4188</ele>
        <time>2013-04-28T10:58:40Z</time>
      </trkpt>
      <trkpt lat="60.0205865" lon="17.825963">
        <ele>30.8995</ele>
        <time>2013-04-28T10:58:41Z</time>
      </trkpt>
      <trkpt lat="60.0205618" lon="17.8261355">
        <ele>31.8607</ele>
        <time>2013-04-28T10:58:42Z</time>
      </trkpt>
      <trkpt lat="60.020536" lon="17.8263057">
        <ele>31.8607</ele>
        <time>2013-04-28T10:58:43Z</time>
      </trkpt>
      <trkpt lat="60.0205088" lon="17.8264676">
        <ele>31.3801</ele>
        <time>2013-04-28T10:58:44Z</time>
      </trkpt>
      <trkpt lat="60.0204811" lon="17.8266235">
        <ele>30.8995</ele>
        <time>2013-04-28T10:58:45Z</time>
      </trkpt>
      <trkpt lat="60.0204525" lon="17.826768">
        <ele>30.4188</ele>
        <time>2013-04-28T10:58:46Z</time>
      </trkpt>
      <trkpt lat="60.0204213" lon="17.8269092">
        <ele>28.9769</ele>
        <time>2013-04-28T10:58:47Z</time>
      </trkpt>
      <trkpt lat="60.0203861" lon="17.8270602">
        <ele>28.9769</ele>
        <time>2013-04-28T10:58:48Z</time>
      </trkpt>
      <trkpt lat="60.0203473" lon="17.8272162">
        <ele>28.0155</ele>
        <time>2013-04-28T10:58:49Z</time>
      </trkpt>
      <trkpt lat="60.0203096" lon="17.8273693">
        <ele>27.0543</ele>
        <time>2013-04-28T10:58:50Z</time>
      </trkpt>
      <trkpt lat="60.0202729" lon="17.8275361">
        <ele>27.0543</ele>
        <time>2013-04-28T10:58:51Z</time>
      </trkpt>
      <trkpt lat="60.0202397" lon="17.8277035">
        <ele>27.0543</ele>
        <time>2013-04-28T10:58:52Z</time>
      </trkpt>
      <trkpt lat="60.020207" lon="17.8278656">
        <ele>27.0543</ele>
        <time>2013-04-28T10:58:53Z</time>
      </trkpt>
      <trkpt lat="60.0201741" lon="17.8280232">
        <ele>27.0543</ele>
        <time>2013-04-28T10:58:54Z</time>
      </trkpt>
      <trkpt lat="60.0201354" lon="17.8281766">
        <ele>26.5736</ele>
        <time>2013-04-28T10:58:55Z</time>
      </trkpt>
      <trkpt lat="60.0200843" lon="17.8283303">
        <ele>26.5736</ele>
        <time>2013-04-28T10:58:56Z</time>
      </trkpt>
      <trkpt lat="60.0200242" lon="17.8284582">
        <ele>26.5736</ele>
        <time>2013-04-28T10:58:57Z</time>
      </trkpt>
      <trkpt lat="60.0199697" lon="17.8285795">
        <ele>26.0929</ele>
        <time>2013-04-28T10:58:58Z</time>
      </trkpt>
      <trkpt lat="60.0199163" lon="17.8286907">
        <ele>25.6123</ele>
        <time>2013-04-28T10:58:59Z</time>
      </trkpt>
      <trkpt lat="60.0198585" lon="17.8287913">
        <ele>25.1317</ele>
        <time>2013-04-28T10:59:00Z</time>
      </trkpt>
      <trkpt lat="60.0198032" lon="17.8288974">
        <ele>24.651</ele>
        <time>2013-04-28T10:59:01Z</time>
      </trkpt>
      <trkpt lat="60.0197572" lon="17.8290208">
        <ele>23.6896</ele>
        <time>2013-04-28T10:59:02Z</time>
      </trkpt>
      <trkpt lat="60.0197136" lon="17.8291492">
        <ele>23.209</ele>
        <time>2013-04-28T10:59:03Z</time>
      </trkpt>
      <trkpt lat="60.0196564" lon="17.8292722">
        <ele>22.7283</ele>
        <time>2013-04-28T10:59:04Z</time>
      </trkpt>
      <trkpt lat="60.0196169" lon="17.8293786">
        <ele>23.209</ele>
        <time>2013-04-28T10:59:05Z</time>
      </trkpt>
      <trkpt lat="60.0195662" lon="17.8294874">
        <ele>23.209</ele>
        <time>2013-04-28T10:59:06Z</time>
      </trkpt>
      <trkpt lat="60.0195217" lon="17.8295896">
        <ele>23.209</ele>
        <time>2013-04-28T10:59:07Z</time>
      </trkpt>
      <trkpt lat="60.0194833" lon="17.8296874">
        <ele>24.1703</ele>
        <time>2013-04-28T10:59:08Z</time>
      </trkpt>
      <trkpt lat="60.0194432" lon="17.8297959">
        <ele>24.651</ele>
        <time>2013-04-28T10:59:09Z</time>
      </trkpt>
      <trkpt lat="60.019402" lon="17.8299109">
        <ele>24.651</ele>
        <time>2013-04-28T10:59:10Z</time>
      </trkpt>
      <trkpt lat="60.0193798" lon="17.8300511">
        <ele>24.1703</ele>
        <time>2013-04-28T10:59:11Z</time>
      </trkpt>
      <trkpt lat="60.0193729" lon="17.8301967">
        <ele>24.1703</ele>
        <time>2013-04-28T10:59:12Z</time>
      </trkpt>
      <trkpt lat="60.0193465" lon="17.830362">
        <ele>24.651</ele>
        <time>2013-04-28T10:59:13Z</time>
      </trkpt>
      <trkpt lat="60.019332" lon="17.8305313">
        <ele>25.1317</ele>
        <time>2013-04-28T10:59:14Z</time>
      </trkpt>
      <trkpt lat="60.0193123" lon="17.8307504">
        <ele>25.6123</ele>
        <time>2013-04-28T10:59:15Z</time>
      </trkpt>
      <trkpt lat="60.0193094" lon="17.8309129">
        <ele>26.0929</ele>
        <time>2013-04-28T10:59:16Z</time>
      </trkpt>
      <trkpt lat="60.0193135" lon="17.8310818">
        <ele>26.0929</ele>
        <time>2013-04-28T10:59:17Z</time>
      </trkpt>
      <trkpt lat="60.0193207" lon="17.8312494">
        <ele>26.5736</ele>
        <time>2013-04-28T10:59:18Z</time>
      </trkpt>
      <trkpt lat="60.0193294" lon="17.8314254">
        <ele>27.0543</ele>
        <time>2013-04-28T10:59:19Z</time>
      </trkpt>
      <trkpt lat="60.0193326" lon="17.8316005">
        <ele>27.0543</ele>
        <time>2013-04-28T10:59:20Z</time>
      </trkpt>
      <trkpt lat="60.01933" lon="17.8317781">
        <ele>27.0543</ele>
        <time>2013-04-28T10:59:21Z</time>
      </trkpt>
      <trkpt lat="60.0193249" lon="17.8319563">
        <ele>27.5349</ele>
        <time>2013-04-28T10:59:22Z</time>
      </trkpt>
      <trkpt lat="60.0193212" lon="17.8321321">
        <ele>27.5349</ele>
        <time>2013-04-28T10:59:23Z</time>
      </trkpt>
      <trkpt lat="60.0193151" lon="17.8323138">
        <ele>27.5349</ele>
        <time>2013-04-28T10:59:24Z</time>
      </trkpt>
      <trkpt lat="60.0193129" lon="17.8324924">
        <ele>27.5349</ele>
        <time>2013-04-28T10:59:25Z</time>
      </trkpt>
      <trkpt lat="60.0193142" lon="17.832671">
        <ele>27.5349</ele>
        <time>2013-04-28T10:59:26Z</time>
      </trkpt>
      <trkpt lat="60.0193205" lon="17.832849">
        <ele>27.5349</ele>
        <time>2013-04-28T10:59:27Z</time>
      </trkpt>
      <trkpt lat="60.0193322" lon="17.8330186">
        <ele>27.5349</ele>
        <time>2013-04-28T10:59:28Z</time>
      </trkpt>
      <trkpt lat="60.0193485" lon="17.8331867">
        <ele>27.5349</ele>
        <time>2013-04-28T10:59:29Z</time>
      </trkpt>
      <trkpt lat="60.019373" lon="17.8333519">
        <ele>28.0155</ele>
        <time>2013-04-28T10:59:30Z</time>
      </trkpt>
      <trkpt lat="60.0193916" lon="17.8335176">
        <ele>27.0543</ele>
        <time>2013-04-28T10:59:31Z</time>
      </trkpt>
      <trkpt lat="60.0194046" lon="17.8336855">
        <ele>26.5736</ele>
        <time>2013-04-28T10:59:32Z</time>
      </trkpt>
      <trkpt lat="60.0194122" lon="17.8339065">
        <ele>26.0929</ele>
        <time>2013-04-28T10:59:33Z</time>
      </trkpt>
      <trkpt lat="60.0194111" lon="17.8341217">
        <ele>26.0929</ele>
        <time>2013-04-28T10:59:34Z</time>
      </trkpt>
      <trkpt lat="60.0194144" lon="17.8343227">
        <ele>26.0929</ele>
        <time>2013-04-28T10:59:35Z</time>
      </trkpt>
      <trkpt lat="60.0194201" lon="17.8345153">
        <ele>25.6123</ele>
        <time>2013-04-28T10:59:36Z</time>
      </trkpt>
      <trkpt lat="60.0194332" lon="17.8347056">
        <ele>25.6123</ele>
        <time>2013-04-28T10:59:37Z</time>
      </trkpt>
      <trkpt lat="60.0194398" lon="17.8348992">
        <ele>25.1317</ele>
        <time>2013-04-28T10:59:38Z</time>
      </trkpt>
      <trkpt lat="60.0194463" lon="17.8350898">
        <ele>24.651</ele>
        <time>2013-04-28T10:59:39Z</time>
      </trkpt>
      <trkpt lat="60.0194513" lon="17.8352782">
        <ele>24.651</ele>
        <time>2013-04-28T10:59:40Z</time>
      </trkpt>
      <trkpt lat="60.0194569" lon="17.8354648">
        <ele>24.1703</ele>
        <time>2013-04-28T10:59:41Z</time>
      </trkpt>
      <trkpt lat="60.019462" lon="17.8356492">
        <ele>24.1703</ele>
        <time>2013-04-28T10:59:42Z</time>
      </trkpt>
      <trkpt lat="60.0194671" lon="17.8358305">
        <ele>24.1703</ele>
        <time>2013-04-28T10:59:43Z</time>
      </trkpt>
      <trkpt lat="60.0194733" lon="17.8360081">
        <ele>24.1703</ele>
        <time>2013-04-28T10:59:44Z</time>
      </trkpt>
      <trkpt lat="60.0194776" lon="17.8361797">
        <ele>24.651</ele>
        <time>2013-04-28T10:59:45Z</time>
      </trkpt>
      <trkpt lat="60.0194812" lon="17.8363456">
        <ele>24.651</ele>
        <time>2013-04-28T10:59:46Z</time>
      </trkpt>
      <trkpt lat="60.0194813" lon="17.8365076">
        <ele>25.1317</ele>
        <time>2013-04-28T10:59:47Z</time>
      </trkpt>
      <trkpt lat="60.0194821" lon="17.8366625">
        <ele>25.1317</ele>
        <time>2013-04-28T10:59:48Z</time>
      </trkpt>
      <trkpt lat="60.0194815" lon="17.8368149">
        <ele>25.6123</ele>
        <time>2013-04-28T10:59:49Z</time>
      </trkpt>
      <trkpt lat="60.0194797" lon="17.8369638">
        <ele>26.0929</ele>
        <time>2013-04-28T10:59:50Z</time>
      </trkpt>
      <trkpt lat="60.0194769" lon="17.837111">
        <ele>26.0929</ele>
        <time>2013-04-28T10:59:51Z</time>
      </trkpt>
      <trkpt lat="60.0194722" lon="17.8372592">
        <ele>26.5736</ele>
        <time>2013-04-28T10:59:52Z</time>
      </trkpt>
      <trkpt lat="60.0194653" lon="17.8374084">
        <ele>26.5736</ele>
        <time>2013-04-28T10:59:53Z</time>
      </trkpt>
      <trkpt lat="60.0194587" lon="17.8375597">
        <ele>26.0929</ele>
        <time>2013-04-28T10:59:54Z</time>
      </trkpt>
      <trkpt lat="60.0194537" lon="17.8377131">
        <ele>26.0929</ele>
        <time>2013-04-28T10:59:55Z</time>
      </trkpt>
      <trkpt lat="60.0194503" lon="17.8378705">
        <ele>26.0929</ele>
        <time>2013-04-28T10:59:56Z</time>
      </trkpt>
      <trkpt lat="60.0194472" lon="17.8380296">
        <ele>26.0929</ele>
        <time>2013-04-28T10:59:57Z</time>
      </trkpt>
      <trkpt lat="60.019444" lon="17.8381891">
        <ele>25.6123</ele>
        <time>2013-04-28T10:59:58Z</time>
      </trkpt>
      <trkpt lat="60.0194383" lon="17.8383481">
        <ele>25.6123</ele>
        <time>2013-04-28T10:59:59Z</time>
      </trkpt>
      <trkpt lat="60.019432" lon="17.8385056">
        <ele>25.6123</ele>
        <time>2013-04-28T11:00:00Z</time>
      </trkpt>
      <trkpt lat="60.0194257" lon="17.8386621">
        <ele>25.6123</ele>
        <time>2013-04-28T11:00:01Z</time>
      </trkpt>
      <trkpt lat="60.0194186" lon="17.8388177">
        <ele>25.6123</ele>
        <time>2013-04-28T11:00:02Z</time>
      </trkpt>
      <trkpt lat="60.0194082" lon="17.8389713">
        <ele>26.0929</ele>
        <time>2013-04-28T11:00:03Z</time>
      </trkpt>
      <trkpt lat="60.0193943" lon="17.8391223">
        <ele>26.0929</ele>
        <time>2013-04-28T11:00:04Z</time>
      </trkpt>
      <trkpt lat="60.0193756" lon="17.8392697">
        <ele>26.0929</ele>
        <time>2013-04-28T11:00:05Z</time>
      </trkpt>
      <trkpt lat="60.0193512" lon="17.8394109">
        <ele>26.0929</ele>
        <time>2013-04-28T11:00:06Z</time>
      </trkpt>
      <trkpt lat="60.0193259" lon="17.8395478">
        <ele>26.5736</ele>
        <time>2013-04-28T11:00:07Z</time>
      </trkpt>
      <trkpt lat="60.0193016" lon="17.8396854">
        <ele>27.0543</ele>
        <time>2013-04-28T11:00:08Z</time>
      </trkpt>
      <trkpt lat="60.0192766" lon="17.8398266">
        <ele>27.0543</ele>
        <time>2013-04-28T11:00:09Z</time>
      </trkpt>
      <trkpt lat="60.019249" lon="17.8399632">
        <ele>27.0543</ele>
        <time>2013-04-28T11:00:10Z</time>
      </trkpt>
      <trkpt lat="60.0192186" lon="17.8400975">
        <ele>26.5736</ele>
        <time>2013-04-28T11:00:11Z</time>
      </trkpt>
      <trkpt lat="60.0191883" lon="17.8402351">
        <ele>26.0929</ele>
        <time>2013-04-28T11:00:12Z</time>
      </trkpt>
      <trkpt lat="60.019158" lon="17.8403765">
        <ele>26.0929</ele>
        <time>2013-04-28T11:00:13Z</time>
      </trkpt>
      <trkpt lat="60.0191229" lon="17.8405254">
        <ele>25.6123</ele>
        <time>2013-04-28T11:00:14Z</time>
      </trkpt>
      <trkpt lat="60.019087" lon="17.8406765">
        <ele>25.6123</ele>
        <time>2013-04-28T11:00:15Z</time>
      </trkpt>
      <trkpt lat="60.0190518" lon="17.8408299">
        <ele>25.6123</ele>
        <time>2013-04-28T11:00:16Z</time>
      </trkpt>
      <trkpt lat="60.0190154" lon="17.8409832">
        <ele>25.1317</ele>
        <time>2013-04-28T11:00:17Z</time>
      </trkpt>
      <trkpt lat="60.0189803" lon="17.8411355">
        <ele>25.1317</ele>
        <time>2013-04-28T11:00:18Z</time>
      </trkpt>
      <trkpt lat="60.0189461" lon="17.8412883">
        <ele>25.1317</ele>
        <time>2013-04-28T11:00:19Z</time>
      </trkpt>
      <trkpt lat="60.0189095" lon="17.8414378">
        <ele>25.1317</ele>
        <time>2013-04-28T11:00:20Z</time>
      </trkpt>
      <trkpt lat="60.0188714" lon="17.8415837">
        <ele>25.1317</ele>
        <time>2013-04-28T11:00:21Z</time>
      </trkpt>
      <trkpt lat="60.0188335" lon="17.8417287">
        <ele>25.1317</ele>
        <time>2013-04-28T11:00:22Z</time>
      </trkpt>
      <trkpt lat="60.0187969" lon="17.8418757">
        <ele>25.1317</ele>
        <time>2013-04-28T11:00:23Z</time>
      </trkpt>
      <trkpt lat="60.0187597" lon="17.8420214">
        <ele>25.1317</ele>
        <time>2013-04-28T11:00:24Z</time>
      </trkpt>
      <trkpt lat="60.0187234" lon="17.8421667">
        <ele>25.1317</ele>
        <time>2013-04-28T11:00:25Z</time>
      </trkpt>
      <trkpt lat="60.0186872" lon="17.8423125">
        <ele>25.1317</ele>
        <time>2013-04-28T11:00:26Z</time>
      </trkpt>
      <trkpt lat="60.0186496" lon="17.8424585">
        <ele>25.1317</ele>
        <time>2013-04-28T11:00:27Z</time>
      </trkpt>
      <trkpt lat="60.018611" lon="17.842604">
        <ele>25.1317</ele>
        <time>2013-04-28T11:00:28Z</time>
      </trkpt>
      <trkpt lat="60.0185743" lon="17.8427501">
        <ele>25.6123</ele>
        <time>2013-04-28T11:00:29Z</time>
      </trkpt>
      <trkpt lat="60.0185385" lon="17.8428947">
        <ele>25.6123</ele>
        <time>2013-04-28T11:00:30Z</time>
      </trkpt>
      <trkpt lat="60.0185026" lon="17.8430377">
        <ele>25.6123</ele>
        <time>2013-04-28T11:00:31Z</time>
      </trkpt>
      <trkpt lat="60.0184675" lon="17.8431805">
        <ele>25.6123</ele>
        <time>2013-04-28T11:00:32Z</time>
      </trkpt>
      <trkpt lat="60.0184334" lon="17.8433229">
        <ele>25.6123</ele>
        <time>2013-04-28T11:00:33Z</time>
      </trkpt>
      <trkpt lat="60.0184001" lon="17.8434645">
        <ele>25.6123</ele>
        <time>2013-04-28T11:00:34Z</time>
      </trkpt>
      <trkpt lat="60.0183668" lon="17.8436045">
        <ele>25.6123</ele>
        <time>2013-04-28T11:00:35Z</time>
      </trkpt>
      <trkpt lat="60.0183339" lon="17.8437447">
        <ele>25.1317</ele>
        <time>2013-04-28T11:00:36Z</time>
      </trkpt>
      <trkpt lat="60.0183015" lon="17.8438851">
        <ele>25.1317</ele>
        <time>2013-04-28T11:00:37Z</time>
      </trkpt>
      <trkpt lat="60.0182681" lon="17.8440268">
        <ele>24.651</ele>
        <time>2013-04-28T11:00:38Z</time>
      </trkpt>
      <trkpt lat="60.0182355" lon="17.8441694">
        <ele>24.651</ele>
        <time>2013-04-28T11:00:39Z</time>
      </trkpt>
      <trkpt lat="60.018205" lon="17.844313">
        <ele>24.651</ele>
        <time>2013-04-28T11:00:40Z</time>
      </trkpt>
      <trkpt lat="60.018176" lon="17.8444575">
        <ele>24.1703</ele>
        <time>2013-04-28T11:00:41Z</time>
      </trkpt>
      <trkpt lat="60.0181474" lon="17.8446025">
        <ele>24.1703</ele>
        <time>2013-04-28T11:00:42Z</time>
      </trkpt>
      <trkpt lat="60.0181185" lon="17.8447482">
        <ele>23.6896</ele>
        <time>2013-04-28T11:00:43Z</time>
      </trkpt>
      <trkpt lat="60.01809" lon="17.8448943">
        <ele>23.6896</ele>
        <time>2013-04-28T11:00:44Z</time>
      </trkpt>
      <trkpt lat="60.0180609" lon="17.8450403">
        <ele>23.6896</ele>
        <time>2013-04-28T11:00:45Z</time>
      </trkpt>
      <trkpt lat="60.0180313" lon="17.8451847">
        <ele>23.209</ele>
        <time>2013-04-28T11:00:46Z</time>
      </trkpt>
      <trkpt lat="60.0180011" lon="17.8453282">
        <ele>23.209</ele>
        <time>2013-04-28T11:00:47Z</time>
      </trkpt>
      <trkpt lat="60.0179707" lon="17.845471">
        <ele>22.7283</ele>
        <time>2013-04-28T11:00:48Z</time>
      </trkpt>
      <trkpt lat="60.0179391" lon="17.8456122">
        <ele>22.7283</ele>
        <time>2013-04-28T11:00:49Z</time>
      </trkpt>
      <trkpt lat="60.017905" lon="17.8457506">
        <ele>22.7283</ele>
        <time>2013-04-28T11:00:50Z</time>
      </trkpt>
      <trkpt lat="60.0178666" lon="17.8458841">
        <ele>22.7283</ele>
        <time>2013-04-28T11:00:51Z</time>
      </trkpt>
      <trkpt lat="60.0178236" lon="17.8460121">
        <ele>22.7283</ele>
        <time>2013-04-28T11:00:52Z</time>
      </trkpt>
      <trkpt lat="60.0177766" lon="17.8461329">
        <ele>22.7283</ele>
        <time>2013-04-28T11:00:53Z</time>
      </trkpt>
      <trkpt lat="60.0177271" lon="17.8462493">
        <ele>22.7283</ele>
        <time>2013-04-28T11:00:54Z</time>
      </trkpt>
      <trkpt lat="60.0176753" lon="17.8463599">
        <ele>22.7283</ele>
        <time>2013-04-28T11:00:55Z</time>
      </trkpt>
      <trkpt lat="60.0176206" lon="17.8464631">
        <ele>22.7283</ele>
        <time>2013-04-28T11:00:56Z</time>
      </trkpt>
      <trkpt lat="60.017565" lon="17.8465632">
        <ele>22.7283</ele>
        <time>2013-04-28T11:00:57Z</time>
      </trkpt>
      <trkpt lat="60.0175101" lon="17.8466622">
        <ele>22.7283</ele>
        <time>2013-04-28T11:00:58Z</time>
      </trkpt>
      <trkpt lat="60.0174574" lon="17.846765">
        <ele>22.7283</ele>
        <time>2013-04-28T11:00:59Z</time>
      </trkpt>
      <trkpt lat="60.0174091" lon="17.8468734">
        <ele>22.7283</ele>
        <time>2013-04-28T11:01:00Z</time>
      </trkpt>
      <trkpt lat="60.0173658" lon="17.8469857">
        <ele>22.7283</ele>
        <time>2013-04-28T11:01:01Z</time>
      </trkpt>
      <trkpt lat="60.0173269" lon="17.8471013">
        <ele>22.7283</ele>
        <time>2013-04-28T11:01:02Z</time>
      </trkpt>
      <trkpt lat="60.0172927" lon="17.8472211">
        <ele>22.7283</ele>
        <time>2013-04-28T11:01:03Z</time>
      </trkpt>
      <trkpt lat="60.0172631" lon="17.8473455">
        <ele>22.7283</ele>
        <time>2013-04-28T11:01:04Z</time>
      </trkpt>
      <trkpt lat="60.0172375" lon="17.8474696">
        <ele>22.7283</ele>
        <time>2013-04-28T11:01:05Z</time>
      </trkpt>
      <trkpt lat="60.0172138" lon="17.8475938">
        <ele>22.7283</ele>
        <time>2013-04-28T11:01:06Z</time>
      </trkpt>
      <trkpt lat="60.0171921" lon="17.8477183">
        <ele>22.7283</ele>
        <time>2013-04-28T11:01:07Z</time>
      </trkpt>
      <trkpt lat="60.0171725" lon="17.8478418">
        <ele>22.7283</ele>
        <time>2013-04-28T11:01:08Z</time>
      </trkpt>
      <trkpt lat="60.0171539" lon="17.8479639">
        <ele>22.7283</ele>
        <time>2013-04-28T11:01:09Z</time>
      </trkpt>
      <trkpt lat="60.0171361" lon="17.8480832">
        <ele>22.7283</ele>
        <time>2013-04-28T11:01:10Z</time>
      </trkpt>
      <trkpt lat="60.0171191" lon="17.8481987">
        <ele>22.7283</ele>
        <time>2013-04-28T11:01:11Z</time>
      </trkpt>
      <trkpt lat="60.0171026" lon="17.8483116">
        <ele>22.7283</ele>
        <time>2013-04-28T11:01:12Z</time>
      </trkpt>
      <trkpt lat="60.0170886" lon="17.8484239">
        <ele>22.7283</ele>
        <time>2013-04-28T11:01:13Z</time>
      </trkpt>
      <trkpt lat="60.0170782" lon="17.8485379">
        <ele>23.209</ele>
        <time>2013-04-28T11:01:14Z</time>
      </trkpt>
      <trkpt lat="60.0170728" lon="17.8486534">
        <ele>23.209</ele>
        <time>2013-04-28T11:01:15Z</time>
      </trkpt>
      <trkpt lat="60.0170699" lon="17.8487723">
        <ele>23.209</ele>
        <time>2013-04-28T11:01:16Z</time>
      </trkpt>
      <trkpt lat="60.0170683" lon="17.8488939">
        <ele>22.7283</ele>
        <time>2013-04-28T11:01:17Z</time>
      </trkpt>
      <trkpt lat="60.0170653" lon="17.8490184">
        <ele>22.7283</ele>
        <time>2013-04-28T11:01:18Z</time>
      </trkpt>
      <trkpt lat="60.0170616" lon="17.8491451">
        <ele>22.7283</ele>
        <time>2013-04-28T11:01:19Z</time>
      </trkpt>
      <trkpt lat="60.0170564" lon="17.849272">
        <ele>22.7283</ele>
        <time>2013-04-28T11:01:20Z</time>
      </trkpt>
      <trkpt lat="60.0170487" lon="17.8493998">
        <ele>22.7283</ele>
        <time>2013-04-28T11:01:21Z</time>
      </trkpt>
      <trkpt lat="60.0170396" lon="17.8495292">
        <ele>22.7283</ele>
        <time>2013-04-28T11:01:22Z</time>
      </trkpt>
      <trkpt lat="60.017029" lon="17.8496609">
        <ele>22.2476</ele>
        <time>2013-04-28T11:01:23Z</time>
      </trkpt>
      <trkpt lat="60.0170171" lon="17.8497961">
        <ele>22.2476</ele>
        <time>2013-04-28T11:01:24Z</time>
      </trkpt>
      <trkpt lat="60.0170035" lon="17.8499349">
        <ele>22.2476</ele>
        <time>2013-04-28T11:01:25Z</time>
      </trkpt>
      <trkpt lat="60.0169906" lon="17.8500758">
        <ele>21.767</ele>
        <time>2013-04-28T11:01:26Z</time>
      </trkpt>
      <trkpt lat="60.0169808" lon="17.850221">
        <ele>21.767</ele>
        <time>2013-04-28T11:01:27Z</time>
      </trkpt>
      <trkpt lat="60.0169725" lon="17.8503712">
        <ele>21.2864</ele>
        <time>2013-04-28T11:01:28Z</time>
      </trkpt>
      <trkpt lat="60.0169632" lon="17.8505234">
        <ele>21.2864</ele>
        <time>2013-04-28T11:01:29Z</time>
      </trkpt>
      <trkpt lat="60.0169517" lon="17.850675">
        <ele>21.2864</ele>
        <time>2013-04-28T11:01:30Z</time>
      </trkpt>
      <trkpt lat="60.0169394" lon="17.8508257">
        <ele>20.8057</ele>
        <time>2013-04-28T11:01:31Z</time>
      </trkpt>
      <trkpt lat="60.0169274" lon="17.8509772">
        <ele>20.8057</ele>
        <time>2013-04-28T11:01:32Z</time>
      </trkpt>
      <trkpt lat="60.0169148" lon="17.851129">
        <ele>20.8057</ele>
        <time>2013-04-28T11:01:33Z</time>
      </trkpt>
      <trkpt lat="60.0169015" lon="17.8512787">
        <ele>20.8057</ele>
        <time>2013-04-28T11:01:34Z</time>
      </trkpt>
      <trkpt lat="60.0168876" lon="17.8514268">
        <ele>20.8057</ele>
        <time>2013-04-28T11:01:35Z</time>
      </trkpt>
      <trkpt lat="60.0168726" lon="17.8515734">
        <ele>20.8057</ele>
        <time>2013-04-28T11:01:36Z</time>
      </trkpt>
      <trkpt lat="60.0168554" lon="17.8517179">
        <ele>20.8057</ele>
        <time>2013-04-28T11:01:37Z</time>
      </trkpt>
      <trkpt lat="60.0168345" lon="17.8518593">
        <ele>20.8057</ele>
        <time>2013-04-28T11:01:38Z</time>
      </trkpt>
      <trkpt lat="60.0168094" lon="17.8519966">
        <ele>20.8057</ele>
        <time>2013-04-28T11:01:39Z</time>
      </trkpt>
      <trkpt lat="60.0167814" lon="17.8521295">
        <ele>20.8057</ele>
        <time>2013-04-28T11:01:40Z</time>
      </trkpt>
      <trkpt lat="60.0167513" lon="17.8522606">
        <ele>20.8057</ele>
        <time>2013-04-28T11:01:41Z</time>
      </trkpt>
      <trkpt lat="60.0167208" lon="17.8523907">
        <ele>20.8057</ele>
        <time>2013-04-28T11:01:42Z</time>
      </trkpt>
      <trkpt lat="60.0166891" lon="17.8525194">
        <ele>20.8057</ele>
        <time>2013-04-28T11:01:43Z</time>
      </trkpt>
      <trkpt lat="60.0166563" lon="17.8526441">
        <ele>20.8057</ele>
        <time>2013-04-28T11:01:44Z</time>
      </trkpt>
      <trkpt lat="60.0166238" lon="17.8527674">
        <ele>20.8057</ele>
        <time>2013-04-28T11:01:45Z</time>
      </trkpt>
      <trkpt lat="60.0165934" lon="17.8528886">
        <ele>20.8057</ele>
        <time>2013-04-28T11:01:46Z</time>
      </trkpt>
      <trkpt lat="60.0165643" lon="17.8530099">
        <ele>21.2864</ele>
        <time>2013-04-28T11:01:47Z</time>
      </trkpt>
      <trkpt lat="60.0165359" lon="17.8531309">
        <ele>20.8057</ele>
        <time>2013-04-28T11:01:48Z</time>
      </trkpt>
      <trkpt lat="60.0165073" lon="17.8532512">
        <ele>20.8057</ele>
        <time>2013-04-28T11:01:49Z</time>
      </trkpt>
      <trkpt lat="60.0164803" lon="17.8533723">
        <ele>20.8057</ele>
        <time>2013-04-28T11:01:50Z</time>
      </trkpt>
      <trkpt lat="60.0164562" lon="17.8534961">
        <ele>20.8057</ele>
        <time>2013-04-28T11:01:51Z</time>
      </trkpt>
      <trkpt lat="60.0164322" lon="17.85362">
        <ele>20.8057</ele>
        <time>2013-04-28T11:01:52Z</time>
      </trkpt>
      <trkpt lat="60.0164069" lon="17.8537438">
        <ele>20.8057</ele>
        <time>2013-04-28T11:01:53Z</time>
      </trkpt>
      <trkpt lat="60.0163819" lon="17.8538685">
        <ele>20.8057</ele>
        <time>2013-04-28T11:01:54Z</time>
      </trkpt>
      <trkpt lat="60.016358" lon="17.853993">
        <ele>20.8057</ele>
        <time>2013-04-28T11:01:55Z</time>
      </trkpt>
      <trkpt lat="60.0163354" lon="17.8541158">
        <ele>21.2864</ele>
        <time>2013-04-28T11:01:56Z</time>
      </trkpt>
      <trkpt lat="60.0163131" lon="17.8542329">
        <ele>21.2864</ele>
        <time>2013-04-28T11:01:57Z</time>
      </trkpt>
      <trkpt lat="60.0162918" lon="17.854343">
        <ele>21.767</ele>
        <time>2013-04-28T11:01:58Z</time>
      </trkpt>
      <trkpt lat="60.0162717" lon="17.8544472">
        <ele>21.767</ele>
        <time>2013-04-28T11:01:59Z</time>
      </trkpt>
      <trkpt lat="60.0162518" lon="17.8545477">
        <ele>22.2476</ele>
        <time>2013-04-28T11:02:00Z</time>
      </trkpt>
      <trkpt lat="60.0162302" lon="17.854646">
        <ele>22.7283</ele>
        <time>2013-04-28T11:02:01Z</time>
      </trkpt>
      <trkpt lat="60.0162048" lon="17.8547437">
        <ele>23.209</ele>
        <time>2013-04-28T11:02:02Z</time>
      </trkpt>
      <trkpt lat="60.0161774" lon="17.8548378">
        <ele>23.6896</ele>
        <time>2013-04-28T11:02:03Z</time>
      </trkpt>
      <trkpt lat="60.0161476" lon="17.8549218">
        <ele>24.1703</ele>
        <time>2013-04-28T11:02:04Z</time>
      </trkpt>
      <trkpt lat="60.0161173" lon="17.8549867">
        <ele>24.651</ele>
        <time>2013-04-28T11:02:05Z</time>
      </trkpt>
      <trkpt lat="60.0160848" lon="17.8550394">
        <ele>25.1317</ele>
        <time>2013-04-28T11:02:06Z</time>
      </trkpt>
      <trkpt lat="60.0160506" lon="17.855088">
        <ele>25.6123</ele>
        <time>2013-04-28T11:02:07Z</time>
      </trkpt>
      <trkpt lat="60.0160147" lon="17.8551419">
        <ele>25.6123</ele>
        <time>2013-04-28T11:02:08Z</time>
      </trkpt>
      <trkpt lat="60.0159793" lon="17.8551922">
        <ele>25.6123</ele>
        <time>2013-04-28T11:02:09Z</time>
      </trkpt>
      <trkpt lat="60.0159474" lon="17.8552324">
        <ele>26.0929</ele>
        <time>2013-04-28T11:02:10Z</time>
      </trkpt>
      <trkpt lat="60.0159135" lon="17.8552787">
        <ele>26.0929</ele>
        <time>2013-04-28T11:02:11Z</time>
      </trkpt>
      <trkpt lat="60.0158791" lon="17.8553283">
        <ele>26.0929</ele>
        <time>2013-04-28T11:02:12Z</time>
      </trkpt>
      <trkpt lat="60.0158454" lon="17.8553747">
        <ele>26.0929</ele>
        <time>2013-04-28T11:02:13Z</time>
      </trkpt>
      <trkpt lat="60.0158117" lon="17.8554138">
        <ele>26.0929</ele>
        <time>2013-04-28T11:02:14Z</time>
      </trkpt>
      <trkpt lat="60.0157795" lon="17.8554517">
        <ele>26.0929</ele>
        <time>2013-04-28T11:02:15Z</time>
      </trkpt>
      <trkpt lat="60.0157475" lon="17.8554914">
        <ele>25.6123</ele>
        <time>2013-04-28T11:02:16Z</time>
      </trkpt>
      <trkpt lat="60.0157174" lon="17.8555241">
        <ele>25.6123</ele>
        <time>2013-04-28T11:02:17Z</time>
      </trkpt>
      <trkpt lat="60.0156866" lon="17.8555667">
        <ele>25.1317</ele>
        <time>2013-04-28T11:02:18Z</time>
      </trkpt>
      <trkpt lat="60.0156578" lon="17.8556157">
        <ele>25.1317</ele>
        <time>2013-04-28T11:02:19Z</time>
      </trkpt>
      <trkpt lat="60.0156287" lon="17.8556651">
        <ele>25.1317</ele>
        <time>2013-04-28T11:02:20Z</time>
      </trkpt>
      <trkpt lat="60.0155996" lon="17.855716">
        <ele>25.1317</ele>
        <time>2013-04-28T11:02:21Z</time>
      </trkpt>
      <trkpt lat="60.0155713" lon="17.8557646">
        <ele>25.1317</ele>
        <time>2013-04-28T11:02:22Z</time>
      </trkpt>
      <trkpt lat="60.0155438" lon="17.8558129">
        <ele>25.1317</ele>
        <time>2013-04-28T11:02:23Z</time>
      </trkpt>
      <trkpt lat="60.0155173" lon="17.855862">
        <ele>25.1317</ele>
        <time>2013-04-28T11:02:24Z</time>
      </trkpt>
      <trkpt lat="60.0154919" lon="17.8559111">
        <ele>25.1317</ele>
        <time>2013-04-28T11:02:25Z</time>
      </trkpt>
      <trkpt lat="60.0154672" lon="17.8559616">
        <ele>25.1317</ele>
        <time>2013-04-28T11:02:26Z</time>
      </trkpt>
      <trkpt lat="60.0154414" lon="17.8560103">
        <ele>25.1317</ele>
        <time>2013-04-28T11:02:27Z</time>
      </trkpt>
      <trkpt lat="60.0154154" lon="17.8560598">
        <ele>25.1317</ele>
        <time>2013-04-28T11:02:28Z</time>
      </trkpt>
      <trkpt lat="60.0153906" lon="17.8561116">
        <ele>25.1317</ele>
        <time>2013-04-28T11:02:29Z</time>
      </trkpt>
      <trkpt lat="60.0153656" lon="17.856165">
        <ele>25.1317</ele>
        <time>2013-04-28T11:02:30Z</time>
      </trkpt>
      <trkpt lat="60.0153382" lon="17.8562175">
        <ele>25.1317</ele>
        <time>2013-04-28T11:02:31Z</time>
      </trkpt>
      <trkpt lat="60.0153091" lon="17.8562697">
        <ele>25.1317</ele>
        <time>2013-04-28T11:02:32Z</time>
      </trkpt>
      <trkpt lat="60.0152791" lon="17.8563244">
        <ele>25.1317</ele>
        <time>2013-04-28T11:02:33Z</time>
      </trkpt>
      <trkpt lat="60.0152471" lon="17.856379">
        <ele>25.1317</ele>
        <time>2013-04-28T11:02:34Z</time>
      </trkpt>
      <trkpt lat="60.0152127" lon="17.8564293">
        <ele>25.1317</ele>
        <time>2013-04-28T11:02:35Z</time>
      </trkpt>
      <trkpt lat="60.0151724" lon="17.856476">
        <ele>25.1317</ele>
        <time>2013-04-28T11:02:36Z</time>
      </trkpt>
      <trkpt lat="60.0151295" lon="17.8565244">
        <ele>25.6123</ele>
        <time>2013-04-28T11:02:37Z</time>
      </trkpt>
      <trkpt lat="60.0150849" lon="17.8565704">
        <ele>25.6123</ele>
        <time>2013-04-28T11:02:38Z</time>
      </trkpt>
      <trkpt lat="60.0150373" lon="17.8566115">
        <ele>25.6123</ele>
        <time>2013-04-28T11:02:39Z</time>
      </trkpt>
      <trkpt lat="60.0149876" lon="17.8566467">
        <ele>25.1317</ele>
        <time>2013-04-28T11:02:40Z</time>
      </trkpt>
      <trkpt lat="60.0149357" lon="17.856677">
        <ele>25.1317</ele>
        <time>2013-04-28T11:02:41Z</time>
      </trkpt>
      <trkpt lat="60.0148804" lon="17.8567037">
        <ele>24.651</ele>
        <time>2013-04-28T11:02:42Z</time>
      </trkpt>
      <trkpt lat="60.0148244" lon="17.8567272">
        <ele>24.651</ele>
        <time>2013-04-28T11:02:43Z</time>
      </trkpt>
      <trkpt lat="60.0147673" lon="17.8567494">
        <ele>24.651</ele>
        <time>2013-04-28T11:02:44Z</time>
      </trkpt>
      <trkpt lat="60.0147093" lon="17.8567688">
        <ele>24.651</ele>
        <time>2013-04-28T11:02:45Z</time>
      </trkpt>
      <trkpt lat="60.0146509" lon="17.8567867">
        <ele>25.1317</ele>
        <time>2013-04-28T11:02:46Z</time>
      </trkpt>
      <trkpt lat="60.0145928" lon="17.8568043">
        <ele>25.1317</ele>
        <time>2013-04-28T11:02:47Z</time>
      </trkpt>
      <trkpt lat="60.0145345" lon="17.8568199">
        <ele>25.1317</ele>
        <time>2013-04-28T11:02:48Z</time>
      </trkpt>
      <trkpt lat="60.0144767" lon="17.8568336">
        <ele>25.1317</ele>
        <time>2013-04-28T11:02:49Z</time>
      </trkpt>
      <trkpt lat="60.0144196" lon="17.8568484">
        <ele>25.1317</ele>
        <time>2013-04-28T11:02:50Z</time>
      </trkpt>
      <trkpt lat="60.0143637" lon="17.856868">
        <ele>25.1317</ele>
        <time>2013-04-28T11:02:51Z</time>
      </trkpt>
      <trkpt lat="60.0143084" lon="17.8568914">
        <ele>25.6123</ele>
        <time>2013-04-28T11:02:52Z</time>
      </trkpt>
      <trkpt lat="60.0142539" lon="17.8569149">
        <ele>25.1317</ele>
        <time>2013-04-28T11:02:53Z</time>
      </trkpt>
      <trkpt lat="60.0142005" lon="17.856939">
        <ele>25.1317</ele>
        <time>2013-04-28T11:02:54Z</time>
      </trkpt>
      <trkpt lat="60.0141478" lon="17.8569628">
        <ele>25.1317</ele>
        <time>2013-04-28T11:02:55Z</time>
      </trkpt>
      <trkpt lat="60.014095" lon="17.8569862">
        <ele>25.1317</ele>
        <time>2013-04-28T11:02:56Z</time>
      </trkpt>
      <trkpt lat="60.0140415" lon="17.8570092">
        <ele>25.1317</ele>
        <time>2013-04-28T11:02:57Z</time>
      </trkpt>
      <trkpt lat="60.0139868" lon="17.8570343">
        <ele>25.1317</ele>
        <time>2013-04-28T11:02:58Z</time>
      </trkpt>
      <trkpt lat="60.0139323" lon="17.8570649">
        <ele>24.651</ele>
        <time>2013-04-28T11:02:59Z</time>
      </trkpt>
      <trkpt lat="60.0138779" lon="17.8570988">
        <ele>24.651</ele>
        <time>2013-04-28T11:03:00Z</time>
      </trkpt>
      <trkpt lat="60.013824" lon="17.8571363">
        <ele>24.651</ele>
        <time>2013-04-28T11:03:01Z</time>
      </trkpt>
      <trkpt lat="60.0137712" lon="17.8571793">
        <ele>24.651</ele>
        <time>2013-04-28T11:03:02Z</time>
      </trkpt>
      <trkpt lat="60.013718" lon="17.8572254">
        <ele>24.651</ele>
        <time>2013-04-28T11:03:03Z</time>
      </trkpt>
      <trkpt lat="60.0136646" lon="17.8572731">
        <ele>24.1703</ele>
        <time>2013-04-28T11:03:04Z</time>
      </trkpt>
      <trkpt lat="60.0136111" lon="17.8573234">
        <ele>24.1703</ele>
        <time>2013-04-28T11:03:05Z</time>
      </trkpt>
      <trkpt lat="60.0135569" lon="17.8573746">
        <ele>24.1703</ele>
        <time>2013-04-28T11:03:06Z</time>
      </trkpt>
      <trkpt lat="60.0135022" lon="17.8574227">
        <ele>23.6896</ele>
        <time>2013-04-28T11:03:07Z</time>
      </trkpt>
      <trkpt lat="60.0134464" lon="17.8574674">
        <ele>23.6896</ele>
        <time>2013-04-28T11:03:08Z</time>
      </trkpt>
      <trkpt lat="60.0133905" lon="17.8575077">
        <ele>24.1703</ele>
        <time>2013-04-28T11:03:09Z</time>
      </trkpt>
      <trkpt lat="60.0133334" lon="17.8575414">
        <ele>24.1703</ele>
        <time>2013-04-28T11:03:10Z</time>
      </trkpt>
      <trkpt lat="60.0132764" lon="17.8575671">
        <ele>24.651</ele>
        <time>2013-04-28T11:03:11Z</time>
      </trkpt>
      <trkpt lat="60.0132195" lon="17.8575911">
        <ele>24.651</ele>
        <time>2013-04-28T11:03:12Z</time>
      </trkpt>
      <trkpt lat="60.0131631" lon="17.8576123">
        <ele>24.651</ele>
        <time>2013-04-28T11:03:13Z</time>
      </trkpt>
      <trkpt lat="60.0131066" lon="17.8576273">
        <ele>24.651</ele>
        <time>2013-04-28T11:03:14Z</time>
      </trkpt>
      <trkpt lat="60.01305" lon="17.8576388">
        <ele>24.651</ele>
        <time>2013-04-28T11:03:15Z</time>
      </trkpt>
      <trkpt lat="60.012994" lon="17.857646">
        <ele>25.1317</ele>
        <time>2013-04-28T11:03:16Z</time>
      </trkpt>
      <trkpt lat="60.0129389" lon="17.857649">
        <ele>25.1317</ele>
        <time>2013-04-28T11:03:17Z</time>
      </trkpt>
      <trkpt lat="60.0128852" lon="17.8576492">
        <ele>25.1317</ele>
        <time>2013-04-28T11:03:18Z</time>
      </trkpt>
      <trkpt lat="60.0128318" lon="17.8576455">
        <ele>25.1317</ele>
        <time>2013-04-28T11:03:19Z</time>
      </trkpt>
      <trkpt lat="60.0127792" lon="17.8576402">
        <ele>25.6123</ele>
        <time>2013-04-28T11:03:20Z</time>
      </trkpt>
      <trkpt lat="60.0127274" lon="17.857633">
        <ele>25.6123</ele>
        <time>2013-04-28T11:03:21Z</time>
      </trkpt>
      <trkpt lat="60.0126767" lon="17.8576202">
        <ele>25.6123</ele>
        <time>2013-04-28T11:03:22Z</time>
      </trkpt>
      <trkpt lat="60.0126276" lon="17.8576016">
        <ele>25.6123</ele>
        <time>2013-04-28T11:03:23Z</time>
      </trkpt>
      <trkpt lat="60.0125796" lon="17.8575839">
        <ele>26.0929</ele>
        <time>2013-04-28T11:03:24Z</time>
      </trkpt>
      <trkpt lat="60.0125304" lon="17.8575708">
        <ele>25.6123</ele>
        <time>2013-04-28T11:03:25Z</time>
      </trkpt>
      <trkpt lat="60.0124818" lon="17.8575536">
        <ele>25.6123</ele>
        <time>2013-04-28T11:03:26Z</time>
      </trkpt>
      <trkpt lat="60.0124319" lon="17.8575387">
        <ele>26.0929</ele>
        <time>2013-04-28T11:03:27Z</time>
      </trkpt>
      <trkpt lat="60.0123809" lon="17.8575233">
        <ele>26.5736</ele>
        <time>2013-04-28T11:03:28Z</time>
      </trkpt>
      <trkpt lat="60.0123289" lon="17.8575145">
        <ele>26.5736</ele>
        <time>2013-04-28T11:03:29Z</time>
      </trkpt>
      <trkpt lat="60.0122737" lon="17.8575118">
        <ele>27.0543</ele>
        <time>2013-04-28T11:03:30Z</time>
      </trkpt>
      <trkpt lat="60.012215" lon="17.8575143">
        <ele>28.0155</ele>
        <time>2013-04-28T11:03:31Z</time>
      </trkpt>
      <trkpt lat="60.012154" lon="17.8575201">
        <ele>28.4962</ele>
        <time>2013-04-28T11:03:32Z</time>
      </trkpt>
      <trkpt lat="60.012093" lon="17.8575278">
        <ele>28.9769</ele>
        <time>2013-04-28T11:03:33Z</time>
      </trkpt>
      <trkpt lat="60.0120328" lon="17.857536">
        <ele>29.4575</ele>
        <time>2013-04-28T11:03:34Z</time>
      </trkpt>
      <trkpt lat="60.0119723" lon="17.8575471">
        <ele>29.4575</ele>
        <time>2013-04-28T11:03:35Z</time>
      </trkpt>
      <trkpt lat="60.0119121" lon="17.8575591">
        <ele>29.9381</ele>
        <time>2013-04-28T11:03:36Z</time>
      </trkpt>
      <trkpt lat="60.0118503" lon="17.8575709">
        <ele>29.9381</ele>
        <time>2013-04-28T11:03:37Z</time>
      </trkpt>
      <trkpt lat="60.0117718" lon="17.8575829">
        <ele>30.4188</ele>
        <time>2013-04-28T11:03:38Z</time>
      </trkpt>
      <trkpt lat="60.011696" lon="17.8576283">
        <ele>30.4188</ele>
        <time>2013-04-28T11:03:39Z</time>
      </trkpt>
      <trkpt lat="60.0116329" lon="17.8576485">
        <ele>30.4188</ele>
        <time>2013-04-28T11:03:40Z</time>
      </trkpt>
      <trkpt lat="60.0115697" lon="17.8576712">
        <ele>30.4188</ele>
        <time>2013-04-28T11:03:41Z</time>
      </trkpt>
      <trkpt lat="60.0115078" lon="17.8576932">
        <ele>30.4188</ele>
        <time>2013-04-28T11:03:42Z</time>
      </trkpt>
      <trkpt lat="60.0114467" lon="17.8577149">
        <ele>29.9381</ele>
        <time>2013-04-28T11:03:43Z</time>
      </trkpt>
      <trkpt lat="60.0113894" lon="17.8577223">
        <ele>29.4575</ele>
        <time>2013-04-28T11:03:44Z</time>
      </trkpt>
      <trkpt lat="60.0113339" lon="17.8577294">
        <ele>28.4962</ele>
        <time>2013-04-28T11:03:45Z</time>
      </trkpt>
      <trkpt lat="60.0112773" lon="17.8577308">
        <ele>28.4962</ele>
        <time>2013-04-28T11:03:46Z</time>
      </trkpt>
      <trkpt lat="60.0112194" lon="17.857731">
        <ele>28.0155</ele>
        <time>2013-04-28T11:03:47Z</time>
      </trkpt>
      <trkpt lat="60.0111594" lon="17.857724">
        <ele>28.4962</ele>
        <time>2013-04-28T11:03:48Z</time>
      </trkpt>
      <trkpt lat="60.0111007" lon="17.8577149">
        <ele>28.0155</ele>
        <time>2013-04-28T11:03:49Z</time>
      </trkpt>
      <trkpt lat="60.0110443" lon="17.8577071">
        <ele>28.0155</ele>
        <time>2013-04-28T11:03:50Z</time>
      </trkpt>
      <trkpt lat="60.0109859" lon="17.8576942">
        <ele>27.5349</ele>
        <time>2013-04-28T11:03:51Z</time>
      </trkpt>
      <trkpt lat="60.0109247" lon="17.8576777">
        <ele>27.5349</ele>
        <time>2013-04-28T11:03:52Z</time>
      </trkpt>
      <trkpt lat="60.0108624" lon="17.8576554">
        <ele>27.5349</ele>
        <time>2013-04-28T11:03:53Z</time>
      </trkpt>
      <trkpt lat="60.0107999" lon="17.8576368">
        <ele>27.0543</ele>
        <time>2013-04-28T11:03:54Z</time>
      </trkpt>
      <trkpt lat="60.0107349" lon="17.8576147">
        <ele>27.0543</ele>
        <time>2013-04-28T11:03:55Z</time>
      </trkpt>
      <trkpt lat="60.0106684" lon="17.8575948">
        <ele>27.0543</ele>
        <time>2013-04-28T11:03:56Z</time>
      </trkpt>
      <trkpt lat="60.0106023" lon="17.8575735">
        <ele>27.0543</ele>
        <time>2013-04-28T11:03:57Z</time>
      </trkpt>
      <trkpt lat="60.0105362" lon="17.8575581">
        <ele>26.5736</ele>
        <time>2013-04-28T11:03:58Z</time>
      </trkpt>
      <trkpt lat="60.0104693" lon="17.8575435">
        <ele>26.5736</ele>
        <time>2013-04-28T11:03:59Z</time>
      </trkpt>
      <trkpt lat="60.0104014" lon="17.8575253">
        <ele>26.5736</ele>
        <time>2013-04-28T11:04:00Z</time>
      </trkpt>
      <trkpt lat="60.0103331" lon="17.8575111">
        <ele>26.0929</ele>
        <time>2013-04-28T11:04:01Z</time>
      </trkpt>
      <trkpt lat="60.0102638" lon="17.8575005">
        <ele>26.0929</ele>
        <time>2013-04-28T11:04:02Z</time>
      </trkpt>
      <trkpt lat="60.0101937" lon="17.8574935">
        <ele>25.6123</ele>
        <time>2013-04-28T11:04:03Z</time>
      </trkpt>
      <trkpt lat="60.0101234" lon="17.8574909">
        <ele>25.1317</ele>
        <time>2013-04-28T11:04:04Z</time>
      </trkpt>
      <trkpt lat="60.010054" lon="17.85749">
        <ele>25.1317</ele>
        <time>2013-04-28T11:04:05Z</time>
      </trkpt>
      <trkpt lat="60.0099865" lon="17.8574935">
        <ele>25.1317</ele>
        <time>2013-04-28T11:04:06Z</time>
      </trkpt>
      <trkpt lat="60.0099204" lon="17.857499">
        <ele>24.651</ele>
        <time>2013-04-28T11:04:07Z</time>
      </trkpt>
      <trkpt lat="60.0098545" lon="17.8575041">
        <ele>25.1317</ele>
        <time>2013-04-28T11:04:08Z</time>
      </trkpt>
      <trkpt lat="60.0097886" lon="17.8575112">
        <ele>25.1317</ele>
        <time>2013-04-28T11:04:09Z</time>
      </trkpt>
      <trkpt lat="60.009722" lon="17.85752">
        <ele>25.1317</ele>
        <time>2013-04-28T11:04:10Z</time>
      </trkpt>
      <trkpt lat="60.0096559" lon="17.8575332">
        <ele>25.1317</ele>
        <time>2013-04-28T11:04:11Z</time>
      </trkpt>
      <trkpt lat="60.0095907" lon="17.8575497">
        <ele>25.6123</ele>
        <time>2013-04-28T11:04:12Z</time>
      </trkpt>
      <trkpt lat="60.0095262" lon="17.8575683">
        <ele>25.6123</ele>
        <time>2013-04-28T11:04:13Z</time>
      </trkpt>
      <trkpt lat="60.0094634" lon="17.8575896">
        <ele>25.6123</ele>
        <time>2013-04-28T11:04:14Z</time>
      </trkpt>
      <trkpt lat="60.0094019" lon="17.8576165">
        <ele>25.6123</ele>
        <time>2013-04-28T11:04:15Z</time>
      </trkpt>
      <trkpt lat="60.0093412" lon="17.8576446">
        <ele>25.1317</ele>
        <time>2013-04-28T11:04:16Z</time>
      </trkpt>
      <trkpt lat="60.0092796" lon="17.8576693">
        <ele>25.1317</ele>
        <time>2013-04-28T11:04:17Z</time>
      </trkpt>
      <trkpt lat="60.0092178" lon="17.8576962">
        <ele>25.1317</ele>
        <time>2013-04-28T11:04:18Z</time>
      </trkpt>
      <trkpt lat="60.0091561" lon="17.8577241">
        <ele>25.1317</ele>
        <time>2013-04-28T11:04:19Z</time>
      </trkpt>
      <trkpt lat="60.009095" lon="17.857752">
        <ele>25.1317</ele>
        <time>2013-04-28T11:04:20Z</time>
      </trkpt>
      <trkpt lat="60.0090341" lon="17.8577813">
        <ele>24.651</ele>
        <time>2013-04-28T11:04:21Z</time>
      </trkpt>
      <trkpt lat="60.008972" lon="17.8578081">
        <ele>24.651</ele>
        <time>2013-04-28T11:04:22Z</time>
      </trkpt>
      <trkpt lat="60.0089088" lon="17.8578294">
        <ele>24.651</ele>
        <time>2013-04-28T11:04:23Z</time>
      </trkpt>
      <trkpt lat="60.0088454" lon="17.8578546">
        <ele>24.1703</ele>
        <time>2013-04-28T11:04:24Z</time>
      </trkpt>
      <trkpt lat="60.0087801" lon="17.8578772">
        <ele>24.1703</ele>
        <time>2013-04-28T11:04:25Z</time>
      </trkpt>
      <trkpt lat="60.0087142" lon="17.8579009">
        <ele>24.1703</ele>
        <time>2013-04-28T11:04:26Z</time>
      </trkpt>
      <trkpt lat="60.0086465" lon="17.8579248">
        <ele>24.1703</ele>
        <time>2013-04-28T11:04:27Z</time>
      </trkpt>
      <trkpt lat="60.0085777" lon="17.8579454">
        <ele>24.1703</ele>
        <time>2013-04-28T11:04:28Z</time>
      </trkpt>
      <trkpt lat="60.0085087" lon="17.8579635">
        <ele>23.6896</ele>
        <time>2013-04-28T11:04:29Z</time>
      </trkpt>
      <trkpt lat="60.0084394" lon="17.8579787">
        <ele>23.6896</ele>
        <time>2013-04-28T11:04:30Z</time>
      </trkpt>
      <trkpt lat="60.0083715" lon="17.8579999">
        <ele>23.6896</ele>
        <time>2013-04-28T11:04:31Z</time>
      </trkpt>
      <trkpt lat="60.0083039" lon="17.8580196">
        <ele>23.209</ele>
        <time>2013-04-28T11:04:32Z</time>
      </trkpt>
      <trkpt lat="60.0082362" lon="17.8580354">
        <ele>23.209</ele>
        <time>2013-04-28T11:04:33Z</time>
      </trkpt>
      <trkpt lat="60.0081704" lon="17.8580545">
        <ele>22.7283</ele>
        <time>2013-04-28T11:04:34Z</time>
      </trkpt>
      <trkpt lat="60.0081055" lon="17.8580733">
        <ele>22.7283</ele>
        <time>2013-04-28T11:04:35Z</time>
      </trkpt>
      <trkpt lat="60.00804" lon="17.8580895">
        <ele>22.7283</ele>
        <time>2013-04-28T11:04:36Z</time>
      </trkpt>
      <trkpt lat="60.0079737" lon="17.8581084">
        <ele>22.2476</ele>
        <time>2013-04-28T11:04:37Z</time>
      </trkpt>
      <trkpt lat="60.0079073" lon="17.8581278">
        <ele>21.767</ele>
        <time>2013-04-28T11:04:38Z</time>
      </trkpt>
      <trkpt lat="60.0078414" lon="17.8581474">
        <ele>21.767</ele>
        <time>2013-04-28T11:04:39Z</time>
      </trkpt>
      <trkpt lat="60.0077757" lon="17.8581682">
        <ele>21.2864</ele>
        <time>2013-04-28T11:04:40Z</time>
      </trkpt>
      <trkpt lat="60.0077099" lon="17.8581852">
        <ele>21.2864</ele>
        <time>2013-04-28T11:04:41Z</time>
      </trkpt>
      <trkpt lat="60.0076447" lon="17.8581978">
        <ele>21.2864</ele>
        <time>2013-04-28T11:04:42Z</time>
      </trkpt>
      <trkpt lat="60.0075809" lon="17.8582087">
        <ele>21.2864</ele>
        <time>2013-04-28T11:04:43Z</time>
      </trkpt>
      <trkpt lat="60.0075178" lon="17.8582174">
        <ele>21.2864</ele>
        <time>2013-04-28T11:04:44Z</time>
      </trkpt>
      <trkpt lat="60.0074556" lon="17.858226">
        <ele>21.2864</ele>
        <time>2013-04-28T11:04:45Z</time>
      </trkpt>
      <trkpt lat="60.0073933" lon="17.8582334">
        <ele>20.8057</ele>
        <time>2013-04-28T11:04:46Z</time>
      </trkpt>
      <trkpt lat="60.0073322" lon="17.8582405">
        <ele>20.8057</ele>
        <time>2013-04-28T11:04:47Z</time>
      </trkpt>
      <trkpt lat="60.0072732" lon="17.8582496">
        <ele>20.325</ele>
        <time>2013-04-28T11:04:48Z</time>
      </trkpt>
      <trkpt lat="60.0072149" lon="17.8582586">
        <ele>19.8444</ele>
        <time>2013-04-28T11:04:49Z</time>
      </trkpt>
      <trkpt lat="60.0071576" lon="17.8582676">
        <ele>19.8444</ele>
        <time>2013-04-28T11:04:50Z</time>
      </trkpt>
      <trkpt lat="60.0070998" lon="17.8582711">
        <ele>20.325</ele>
        <time>2013-04-28T11:04:51Z</time>
      </trkpt>
      <trkpt lat="60.0070433" lon="17.8582709">
        <ele>20.325</ele>
        <time>2013-04-28T11:04:52Z</time>
      </trkpt>
      <trkpt lat="60.0069892" lon="17.8582779">
        <ele>20.325</ele>
        <time>2013-04-28T11:04:53Z</time>
      </trkpt>
      <trkpt lat="60.0069355" lon="17.858292">
        <ele>20.325</ele>
        <time>2013-04-28T11:04:54Z</time>
      </trkpt>
      <trkpt lat="60.0068817" lon="17.8583096">
        <ele>20.325</ele>
        <time>2013-04-28T11:04:55Z</time>
      </trkpt>
      <trkpt lat="60.0068268" lon="17.8583252">
        <ele>20.8057</ele>
        <time>2013-04-28T11:04:56Z</time>
      </trkpt>
      <trkpt lat="60.0067719" lon="17.8583412">
        <ele>20.8057</ele>
        <time>2013-04-28T11:04:57Z</time>
      </trkpt>
      <trkpt lat="60.0067164" lon="17.8583592">
        <ele>20.8057</ele>
        <time>2013-04-28T11:04:58Z</time>
      </trkpt>
      <trkpt lat="60.006661" lon="17.8583806">
        <ele>21.2864</ele>
        <time>2013-04-28T11:04:59Z</time>
      </trkpt>
      <trkpt lat="60.0066061" lon="17.8584032">
        <ele>21.2864</ele>
        <time>2013-04-28T11:05:00Z</time>
      </trkpt>
      <trkpt lat="60.0065507" lon="17.8584241">
        <ele>20.8057</ele>
        <time>2013-04-28T11:05:01Z</time>
      </trkpt>
      <trkpt lat="60.0064951" lon="17.8584457">
        <ele>20.8057</ele>
        <time>2013-04-28T11:05:02Z</time>
      </trkpt>
      <trkpt lat="60.0064401" lon="17.8584689">
        <ele>20.8057</ele>
        <time>2013-04-28T11:05:03Z</time>
      </trkpt>
      <trkpt lat="60.0063848" lon="17.8584919">
        <ele>20.8057</ele>
        <time>2013-04-28T11:05:04Z</time>
      </trkpt>
      <trkpt lat="60.0063295" lon="17.8585142">
        <ele>20.8057</ele>
        <time>2013-04-28T11:05:05Z</time>
      </trkpt>
      <trkpt lat="60.0062749" lon="17.8585368">
        <ele>20.8057</ele>
        <time>2013-04-28T11:05:06Z</time>
      </trkpt>
      <trkpt lat="60.0062202" lon="17.8585593">
        <ele>20.325</ele>
        <time>2013-04-28T11:05:07Z</time>
      </trkpt>
      <trkpt lat="60.0061647" lon="17.858579">
        <ele>20.325</ele>
        <time>2013-04-28T11:05:08Z</time>
      </trkpt>
      <trkpt lat="60.0061093" lon="17.8585987">
        <ele>20.325</ele>
        <time>2013-04-28T11:05:09Z</time>
      </trkpt>
      <trkpt lat="60.0060545" lon="17.8586207">
        <ele>20.325</ele>
        <time>2013-04-28T11:05:10Z</time>
      </trkpt>
      <trkpt lat="60.0059995" lon="17.8586405">
        <ele>20.325</ele>
        <time>2013-04-28T11:05:11Z</time>
      </trkpt>
      <trkpt lat="60.0059428" lon="17.8586556">
        <ele>20.8057</ele>
        <time>2013-04-28T11:05:12Z</time>
      </trkpt>
      <trkpt lat="60.0058862" lon="17.8586722">
        <ele>20.8057</ele>
        <time>2013-04-28T11:05:13Z</time>
      </trkpt>
      <trkpt lat="60.0058291" lon="17.8586909">
        <ele>21.2864</ele>
        <time>2013-04-28T11:05:14Z</time>
      </trkpt>
      <trkpt lat="60.005771" lon="17.8587145">
        <ele>21.2864</ele>
        <time>2013-04-28T11:05:15Z</time>
      </trkpt>
      <trkpt lat="60.0057103" lon="17.8587426">
        <ele>21.767</ele>
        <time>2013-04-28T11:05:16Z</time>
      </trkpt>
      <trkpt lat="60.0056486" lon="17.8587638">
        <ele>22.2476</ele>
        <time>2013-04-28T11:05:17Z</time>
      </trkpt>
      <trkpt lat="60.0055867" lon="17.8587815">
        <ele>22.2476</ele>
        <time>2013-04-28T11:05:18Z</time>
      </trkpt>
      <trkpt lat="60.0055245" lon="17.8588034">
        <ele>22.7283</ele>
        <time>2013-04-28T11:05:19Z</time>
      </trkpt>
      <trkpt lat="60.0054627" lon="17.8588275">
        <ele>22.7283</ele>
        <time>2013-04-28T11:05:20Z</time>
      </trkpt>
      <trkpt lat="60.0054017" lon="17.8588497">
        <ele>23.209</ele>
        <time>2013-04-28T11:05:21Z</time>
      </trkpt>
      <trkpt lat="60.0053414" lon="17.8588705">
        <ele>23.209</ele>
        <time>2013-04-28T11:05:22Z</time>
      </trkpt>
      <trkpt lat="60.0052815" lon="17.858892">
        <ele>23.6896</ele>
        <time>2013-04-28T11:05:23Z</time>
      </trkpt>
      <trkpt lat="60.0052215" lon="17.8589175">
        <ele>24.1703</ele>
        <time>2013-04-28T11:05:24Z</time>
      </trkpt>
      <trkpt lat="60.0051618" lon="17.8589437">
        <ele>24.1703</ele>
        <time>2013-04-28T11:05:25Z</time>
      </trkpt>
      <trkpt lat="60.0051019" lon="17.85897">
        <ele>24.1703</ele>
        <time>2013-04-28T11:05:26Z</time>
      </trkpt>
      <trkpt lat="60.0050422" lon="17.858997">
        <ele>24.651</ele>
        <time>2013-04-28T11:05:27Z</time>
      </trkpt>
      <trkpt lat="60.004982" lon="17.8590292">
        <ele>24.1703</ele>
        <time>2013-04-28T11:05:28Z</time>
      </trkpt>
      <trkpt lat="60.0049215" lon="17.85906">
        <ele>24.1703</ele>
        <time>2013-04-28T11:05:29Z</time>
      </trkpt>
      <trkpt lat="60.0048604" lon="17.8590892">
        <ele>24.651</ele>
        <time>2013-04-28T11:05:30Z</time>
      </trkpt>
      <trkpt lat="60.0047992" lon="17.8591196">
        <ele>24.651</ele>
        <time>2013-04-28T11:05:31Z</time>
      </trkpt>
      <trkpt lat="60.0047386" lon="17.8591538">
        <ele>24.651</ele>
        <time>2013-04-28T11:05:32Z</time>
      </trkpt>
      <trkpt lat="60.0046781" lon="17.8591918">
        <ele>24.651</ele>
        <time>2013-04-28T11:05:33Z</time>
      </trkpt>
      <trkpt lat="60.0046178" lon="17.8592292">
        <ele>24.651</ele>
        <time>2013-04-28T11:05:34Z</time>
      </trkpt>
      <trkpt lat="60.0045579" lon="17.8592642">
        <ele>24.651</ele>
        <time>2013-04-28T11:05:35Z</time>
      </trkpt>
      <trkpt lat="60.0044979" lon="17.859299">
        <ele>24.651</ele>
        <time>2013-04-28T11:05:36Z</time>
      </trkpt>
      <trkpt lat="60.0044387" lon="17.8593373">
        <ele>24.651</ele>
        <time>2013-04-28T11:05:37Z</time>
      </trkpt>
      <trkpt lat="60.0043803" lon="17.8593791">
        <ele>25.1317</ele>
        <time>2013-04-28T11:05:38Z</time>
      </trkpt>
      <trkpt lat="60.0043222" lon="17.8594203">
        <ele>25.1317</ele>
        <time>2013-04-28T11:05:39Z</time>
      </trkpt>
      <trkpt lat="60.0042646" lon="17.8594579">
        <ele>25.1317</ele>
        <time>2013-04-28T11:05:40Z</time>
      </trkpt>
      <trkpt lat="60.0042088" lon="17.8594885">
        <ele>25.1317</ele>
        <time>2013-04-28T11:05:41Z</time>
      </trkpt>
      <trkpt lat="60.0041523" lon="17.8595197">
        <ele>25.1317</ele>
        <time>2013-04-28T11:05:42Z</time>
      </trkpt>
      <trkpt lat="60.0040949" lon="17.8595544">
        <ele>25.1317</ele>
        <time>2013-04-28T11:05:43Z</time>
      </trkpt>
      <trkpt lat="60.0040379" lon="17.8595886">
        <ele>25.1317</ele>
        <time>2013-04-28T11:05:44Z</time>
      </trkpt>
      <trkpt lat="60.0039818" lon="17.8596215">
        <ele>25.1317</ele>
        <time>2013-04-28T11:05:45Z</time>
      </trkpt>
      <trkpt lat="60.0039269" lon="17.8596544">
        <ele>25.6123</ele>
        <time>2013-04-28T11:05:46Z</time>
      </trkpt>
      <trkpt lat="60.0038721" lon="17.859687">
        <ele>25.1317</ele>
        <time>2013-04-28T11:05:47Z</time>
      </trkpt>
      <trkpt lat="60.0038172" lon="17.8597186">
        <ele>25.1317</ele>
        <time>2013-04-28T11:05:48Z</time>
      </trkpt>
      <trkpt lat="60.0037622" lon="17.8597507">
        <ele>25.1317</ele>
        <time>2013-04-28T11:05:49Z</time>
      </trkpt>
      <trkpt lat="60.0037076" lon="17.8597831">
        <ele>25.1317</ele>
        <time>2013-04-28T11:05:50Z</time>
      </trkpt>
      <trkpt lat="60.003654" lon="17.8598121">
        <ele>25.1317</ele>
        <time>2013-04-28T11:05:51Z</time>
      </trkpt>
      <trkpt lat="60.0036017" lon="17.8598386">
        <ele>25.1317</ele>
        <time>2013-04-28T11:05:52Z</time>
      </trkpt>
      <trkpt lat="60.0035489" lon="17.859866">
        <ele>25.1317</ele>
        <time>2013-04-28T11:05:53Z</time>
      </trkpt>
      <trkpt lat="60.003495" lon="17.8598952">
        <ele>25.6123</ele>
        <time>2013-04-28T11:05:54Z</time>
      </trkpt>
      <trkpt lat="60.0034405" lon="17.8599232">
        <ele>25.6123</ele>
        <time>2013-04-28T11:05:55Z</time>
      </trkpt>
      <trkpt lat="60.0033849" lon="17.8599522">
        <ele>25.6123</ele>
        <time>2013-04-28T11:05:56Z</time>
      </trkpt>
      <trkpt lat="60.0033291" lon="17.8599816">
        <ele>25.6123</ele>
        <time>2013-04-28T11:05:57Z</time>
      </trkpt>
      <trkpt lat="60.0032728" lon="17.8600101">
        <ele>25.1317</ele>
        <time>2013-04-28T11:05:58Z</time>
      </trkpt>
      <trkpt lat="60.0032162" lon="17.8600394">
        <ele>25.1317</ele>
        <time>2013-04-28T11:05:59Z</time>
      </trkpt>
      <trkpt lat="60.0031588" lon="17.8600701">
        <ele>25.1317</ele>
        <time>2013-04-28T11:06:00Z</time>
      </trkpt>
      <trkpt lat="60.0031017" lon="17.8601017">
        <ele>25.1317</ele>
        <time>2013-04-28T11:06:01Z</time>
      </trkpt>
      <trkpt lat="60.003044" lon="17.8601324">
        <ele>25.1317</ele>
        <time>2013-04-28T11:06:02Z</time>
      </trkpt>
      <trkpt lat="60.0029857" lon="17.8601632">
        <ele>25.6123</ele>
        <time>2013-04-28T11:06:03Z</time>
      </trkpt>
      <trkpt lat="60.0029265" lon="17.8601961">
        <ele>25.6123</ele>
        <time>2013-04-28T11:06:04Z</time>
      </trkpt>
      <trkpt lat="60.0028682" lon="17.8602278">
        <ele>25.6123</ele>
        <time>2013-04-28T11:06:05Z</time>
      </trkpt>
      <trkpt lat="60.0028089" lon="17.8602599">
        <ele>25.6123</ele>
        <time>2013-04-28T11:06:06Z</time>
      </trkpt>
      <trkpt lat="60.002749" lon="17.8602913">
        <ele>25.6123</ele>
        <time>2013-04-28T11:06:07Z</time>
      </trkpt>
      <trkpt lat="60.002689" lon="17.8603283">
        <ele>26.0929</ele>
        <time>2013-04-28T11:06:08Z</time>
      </trkpt>
      <trkpt lat="60.0026314" lon="17.8603628">
        <ele>26.0929</ele>
        <time>2013-04-28T11:06:09Z</time>
      </trkpt>
      <trkpt lat="60.0025734" lon="17.8603952">
        <ele>26.0929</ele>
        <time>2013-04-28T11:06:10Z</time>
      </trkpt>
      <trkpt lat="60.0025163" lon="17.8604252">
        <ele>26.0929</ele>
        <time>2013-04-28T11:06:11Z</time>
      </trkpt>
      <trkpt lat="60.0024598" lon="17.8604546">
        <ele>26.0929</ele>
        <time>2013-04-28T11:06:12Z</time>
      </trkpt>
      <trkpt lat="60.0024036" lon="17.8604842">
        <ele>26.0929</ele>
        <time>2013-04-28T11:06:13Z</time>
      </trkpt>
      <trkpt lat="60.002348" lon="17.8605142">
        <ele>26.0929</ele>
        <time>2013-04-28T11:06:14Z</time>
      </trkpt>
      <trkpt lat="60.0022921" lon="17.8605443">
        <ele>26.0929</ele>
        <time>2013-04-28T11:06:15Z</time>
      </trkpt>
      <trkpt lat="60.0022356" lon="17.8605739">
        <ele>26.0929</ele>
        <time>2013-04-28T11:06:16Z</time>
      </trkpt>
      <trkpt lat="60.002178" lon="17.8606013">
        <ele>26.0929</ele>
        <time>2013-04-28T11:06:17Z</time>
      </trkpt>
      <trkpt lat="60.0021194" lon="17.8606262">
        <ele>25.6123</ele>
        <time>2013-04-28T11:06:18Z</time>
      </trkpt>
      <trkpt lat="60.0020593" lon="17.86065">
        <ele>25.6123</ele>
        <time>2013-04-28T11:06:19Z</time>
      </trkpt>
      <trkpt lat="60.0019979" lon="17.8606717">
        <ele>25.6123</ele>
        <time>2013-04-28T11:06:20Z</time>
      </trkpt>
      <trkpt lat="60.0019352" lon="17.8606914">
        <ele>26.0929</ele>
        <time>2013-04-28T11:06:21Z</time>
      </trkpt>
      <trkpt lat="60.0018723" lon="17.8607099">
        <ele>26.0929</ele>
        <time>2013-04-28T11:06:22Z</time>
      </trkpt>
      <trkpt lat="60.0018093" lon="17.8607277">
        <ele>25.6123</ele>
        <time>2013-04-28T11:06:23Z</time>
      </trkpt>
      <trkpt lat="60.0017462" lon="17.8607413">
        <ele>25.6123</ele>
        <time>2013-04-28T11:06:24Z</time>
      </trkpt>
      <trkpt lat="60.001683" lon="17.8607541">
        <ele>25.6123</ele>
        <time>2013-04-28T11:06:25Z</time>
      </trkpt>
      <trkpt lat="60.0016196" lon="17.8607656">
        <ele>25.6123</ele>
        <time>2013-04-28T11:06:26Z</time>
      </trkpt>
      <trkpt lat="60.0015558" lon="17.8607749">
        <ele>25.6123</ele>
        <time>2013-04-28T11:06:27Z</time>
      </trkpt>
      <trkpt lat="60.0014917" lon="17.8607814">
        <ele>25.6123</ele>
        <time>2013-04-28T11:06:28Z</time>
      </trkpt>
      <trkpt lat="60.0014275" lon="17.8607847">
        <ele>25.6123</ele>
        <time>2013-04-28T11:06:29Z</time>
      </trkpt>
      <trkpt lat="60.0013638" lon="17.8607857">
        <ele>25.6123</ele>
        <time>2013-04-28T11:06:30Z</time>
      </trkpt>
      <trkpt lat="60.0013001" lon="17.8607862">
        <ele>25.1317</ele>
        <time>2013-04-28T11:06:31Z</time>
      </trkpt>
      <trkpt lat="60.001236" lon="17.8607876">
        <ele>25.1317</ele>
        <time>2013-04-28T11:06:32Z</time>
      </trkpt>
      <trkpt lat="60.0011723" lon="17.8607919">
        <ele>25.1317</ele>
        <time>2013-04-28T11:06:33Z</time>
      </trkpt>
      <trkpt lat="60.0011062" lon="17.8607919">
        <ele>25.6123</ele>
        <time>2013-04-28T11:06:34Z</time>
      </trkpt>
      <trkpt lat="60.0010402" lon="17.8607935">
        <ele>26.0929</ele>
        <time>2013-04-28T11:06:35Z</time>
      </trkpt>
      <trkpt lat="60.0009743" lon="17.860794">
        <ele>26.0929</ele>
        <time>2013-04-28T11:06:36Z</time>
      </trkpt>
      <trkpt lat="60.0009089" lon="17.8608005">
        <ele>26.5736</ele>
        <time>2013-04-28T11:06:37Z</time>
      </trkpt>
      <trkpt lat="60.0008442" lon="17.8608145">
        <ele>26.5736</ele>
        <time>2013-04-28T11:06:38Z</time>
      </trkpt>
      <trkpt lat="60.00078" lon="17.8608307">
        <ele>27.0543</ele>
        <time>2013-04-28T11:06:39Z</time>
      </trkpt>
      <trkpt lat="60.0007097" lon="17.8608436">
        <ele>27.0543</ele>
        <time>2013-04-28T11:06:40Z</time>
      </trkpt>
      <trkpt lat="60.0006526" lon="17.8608862">
        <ele>27.0543</ele>
        <time>2013-04-28T11:06:41Z</time>
      </trkpt>
      <trkpt lat="60.0005976" lon="17.860934">
        <ele>27.0543</ele>
        <time>2013-04-28T11:06:42Z</time>
      </trkpt>
      <trkpt lat="60.0005407" lon="17.8609748">
        <ele>27.0543</ele>
        <time>2013-04-28T11:06:43Z</time>
      </trkpt>
      <trkpt lat="60.0004877" lon="17.8610047">
        <ele>26.5736</ele>
        <time>2013-04-28T11:06:44Z</time>
      </trkpt>
      <trkpt lat="60.0004265" lon="17.8610329">
        <ele>26.5736</ele>
        <time>2013-04-28T11:06:45Z</time>
      </trkpt>
      <trkpt lat="60.0003602" lon="17.8610691">
        <ele>25.6123</ele>
        <time>2013-04-28T11:06:46Z</time>
      </trkpt>
      <trkpt lat="60.0002925" lon="17.8610991">
        <ele>25.6123</ele>
        <time>2013-04-28T11:06:47Z</time>
      </trkpt>
      <trkpt lat="60.0002221" lon="17.8611298">
        <ele>25.1317</ele>
        <time>2013-04-28T11:06:48Z</time>
      </trkpt>
      <trkpt lat="60.0001525" lon="17.8611676">
        <ele>24.651</ele>
        <time>2013-04-28T11:06:49Z</time>
      </trkpt>
      <trkpt lat="60.0000842" lon="17.8612066">
        <ele>24.1703</ele>
        <time>2013-04-28T11:06:50Z</time>
      </trkpt>
      <trkpt lat="60.0000169" lon="17.8612501">
        <ele>24.1703</ele>
        <time>2013-04-28T11:06:51Z</time>
      </trkpt>
      <trkpt lat="59.9999517" lon="17.8612954">
        <ele>23.6896</ele>
        <time>2013-04-28T11:06:52Z</time>
      </trkpt>
      <trkpt lat="59.9998884" lon="17.8613432">
        <ele>23.209</ele>
        <time>2013-04-28T11:06:53Z</time>
      </trkpt>
      <trkpt lat="59.9998274" lon="17.8613974">
        <ele>23.209</ele>
        <time>2013-04-28T11:06:54Z</time>
      </trkpt>
      <trkpt lat="59.9997688" lon="17.8614607">
        <ele>23.209</ele>
        <time>2013-04-28T11:06:55Z</time>
      </trkpt>
      <trkpt lat="59.9997124" lon="17.8615307">
        <ele>23.209</ele>
        <time>2013-04-28T11:06:56Z</time>
      </trkpt>
      <trkpt lat="59.9996579" lon="17.8616073">
        <ele>23.209</ele>
        <time>2013-04-28T11:06:57Z</time>
      </trkpt>
      <trkpt lat="59.9996069" lon="17.8616913">
        <ele>22.7283</ele>
        <time>2013-04-28T11:06:58Z</time>
      </trkpt>
      <trkpt lat="59.9995578" lon="17.8617879">
        <ele>23.209</ele>
        <time>2013-04-28T11:06:59Z</time>
      </trkpt>
      <trkpt lat="59.9995057" lon="17.8619191">
        <ele>23.209</ele>
        <time>2013-04-28T11:07:00Z</time>
      </trkpt>
      <trkpt lat="59.9994528" lon="17.8620253">
        <ele>23.6896</ele>
        <time>2013-04-28T11:07:01Z</time>
      </trkpt>
      <trkpt lat="59.9994028" lon="17.8621375">
        <ele>24.1703</ele>
        <time>2013-04-28T11:07:02Z</time>
      </trkpt>
      <trkpt lat="59.9993569" lon="17.8622486">
        <ele>24.1703</ele>
        <time>2013-04-28T11:07:03Z</time>
      </trkpt>
      <trkpt lat="59.9993126" lon="17.8623589">
        <ele>24.651</ele>
        <time>2013-04-28T11:07:04Z</time>
      </trkpt>
      <trkpt lat="59.999269" lon="17.8624646">
        <ele>25.1317</ele>
        <time>2013-04-28T11:07:05Z</time>
      </trkpt>
      <trkpt lat="59.9992225" lon="17.8625659">
        <ele>25.1317</ele>
        <time>2013-04-28T11:07:06Z</time>
      </trkpt>
      <trkpt lat="59.9991728" lon="17.8626583">
        <ele>25.6123</ele>
        <time>2013-04-28T11:07:07Z</time>
      </trkpt>
      <trkpt lat="59.9991213" lon="17.8627453">
        <ele>25.6123</ele>
        <time>2013-04-28T11:07:08Z</time>
      </trkpt>
      <trkpt lat="59.9990666" lon="17.862835">
        <ele>25.6123</ele>
        <time>2013-04-28T11:07:09Z</time>
      </trkpt>
      <trkpt lat="59.9990174" lon="17.8629026">
        <ele>25.6123</ele>
        <time>2013-04-28T11:07:10Z</time>
      </trkpt>
      <trkpt lat="59.9989656" lon="17.8629707">
        <ele>25.6123</ele>
        <time>2013-04-28T11:07:11Z</time>
      </trkpt>
      <trkpt lat="59.998909" lon="17.8630582">
        <ele>25.6123</ele>
        <time>2013-04-28T11:07:12Z</time>
      </trkpt>
      <trkpt lat="59.9988344" lon="17.8631396">
        <ele>26.0929</ele>
        <time>2013-04-28T11:07:13Z</time>
      </trkpt>
      <trkpt lat="59.9987716" lon="17.8632245">
        <ele>26.0929</ele>
        <time>2013-04-28T11:07:14Z</time>
      </trkpt>
      <trkpt lat="59.9987081" lon="17.863312">
        <ele>26.0929</ele>
        <time>2013-04-28T11:07:15Z</time>
      </trkpt>
      <trkpt lat="59.9986537" lon="17.8634049">
        <ele>26.5736</ele>
        <time>2013-04-28T11:07:16Z</time>
      </trkpt>
      <trkpt lat="59.9986002" lon="17.8634985">
        <ele>26.5736</ele>
        <time>2013-04-28T11:07:17Z</time>
      </trkpt>
      <trkpt lat="59.9985448" lon="17.8635927">
        <ele>27.0543</ele>
        <time>2013-04-28T11:07:18Z</time>
      </trkpt>
      <trkpt lat="59.9984889" lon="17.8636851">
        <ele>27.0543</ele>
        <time>2013-04-28T11:07:19Z</time>
      </trkpt>
      <trkpt lat="59.9984366" lon="17.8637695">
        <ele>27.0543</ele>
        <time>2013-04-28T11:07:20Z</time>
      </trkpt>
      <trkpt lat="59.9983833" lon="17.8638552">
        <ele>27.0543</ele>
        <time>2013-04-28T11:07:21Z</time>
      </trkpt>
      <trkpt lat="59.9983298" lon="17.8639395">
        <ele>27.0543</ele>
        <time>2013-04-28T11:07:22Z</time>
      </trkpt>
      <trkpt lat="59.9982765" lon="17.8640257">
        <ele>27.0543</ele>
        <time>2013-04-28T11:07:23Z</time>
      </trkpt>
      <trkpt lat="59.9982229" lon="17.8641133">
        <ele>27.0543</ele>
        <time>2013-04-28T11:07:24Z</time>
      </trkpt>
      <trkpt lat="59.9981673" lon="17.8641987">
        <ele>27.0543</ele>
        <time>2013-04-28T11:07:25Z</time>
      </trkpt>
      <trkpt lat="59.9981103" lon="17.8642823">
        <ele>27.0543</ele>
        <time>2013-04-28T11:07:26Z</time>
      </trkpt>
      <trkpt lat="59.9980527" lon="17.8643678">
        <ele>27.0543</ele>
        <time>2013-04-28T11:07:27Z</time>
      </trkpt>
      <trkpt lat="59.9979956" lon="17.8644515">
        <ele>27.0543</ele>
        <time>2013-04-28T11:07:28Z</time>
      </trkpt>
      <trkpt lat="59.9979394" lon="17.8645351">
        <ele>27.5349</ele>
        <time>2013-04-28T11:07:29Z</time>
      </trkpt>
      <trkpt lat="59.9978837" lon="17.8646186">
        <ele>27.5349</ele>
        <time>2013-04-28T11:07:30Z</time>
      </trkpt>
      <trkpt lat="59.9978279" lon="17.8646982">
        <ele>27.5349</ele>
        <time>2013-04-28T11:07:31Z</time>
      </trkpt>
      <trkpt lat="59.9977723" lon="17.8647749">
        <ele>27.5349</ele>
        <time>2013-04-28T11:07:32Z</time>
      </trkpt>
      <trkpt lat="59.9977181" lon="17.8648514">
        <ele>28.0155</ele>
        <time>2013-04-28T11:07:33Z</time>
      </trkpt>
      <trkpt lat="59.9976654" lon="17.8649251">
        <ele>28.0155</ele>
        <time>2013-04-28T11:07:34Z</time>
      </trkpt>
      <trkpt lat="59.997614" lon="17.8649938">
        <ele>28.0155</ele>
        <time>2013-04-28T11:07:35Z</time>
      </trkpt>
      <trkpt lat="59.9975623" lon="17.8650577">
        <ele>28.0155</ele>
        <time>2013-04-28T11:07:36Z</time>
      </trkpt>
      <trkpt lat="59.9975097" lon="17.8651217">
        <ele>28.0155</ele>
        <time>2013-04-28T11:07:37Z</time>
      </trkpt>
      <trkpt lat="59.9974534" lon="17.865178">
        <ele>28.0155</ele>
        <time>2013-04-28T11:07:38Z</time>
      </trkpt>
      <trkpt lat="59.9973824" lon="17.8652151">
        <ele>28.0155</ele>
        <time>2013-04-28T11:07:39Z</time>
      </trkpt>
      <trkpt lat="59.9973178" lon="17.865263">
        <ele>28.0155</ele>
        <time>2013-04-28T11:07:40Z</time>
      </trkpt>
      <trkpt lat="59.9972595" lon="17.8652845">
        <ele>28.0155</ele>
        <time>2013-04-28T11:07:41Z</time>
      </trkpt>
      <trkpt lat="59.997194" lon="17.8653196">
        <ele>28.0155</ele>
        <time>2013-04-28T11:07:42Z</time>
      </trkpt>
      <trkpt lat="59.9971325" lon="17.865337">
        <ele>28.0155</ele>
        <time>2013-04-28T11:07:43Z</time>
      </trkpt>
      <trkpt lat="59.9970689" lon="17.8653608">
        <ele>28.0155</ele>
        <time>2013-04-28T11:07:44Z</time>
      </trkpt>
      <trkpt lat="59.9970079" lon="17.865383">
        <ele>28.0155</ele>
        <time>2013-04-28T11:07:45Z</time>
      </trkpt>
      <trkpt lat="59.9969472" lon="17.8653847">
        <ele>28.0155</ele>
        <time>2013-04-28T11:07:46Z</time>
      </trkpt>
      <trkpt lat="59.9968825" lon="17.8653825">
        <ele>28.4962</ele>
        <time>2013-04-28T11:07:47Z</time>
      </trkpt>
      <trkpt lat="59.9968178" lon="17.8653837">
        <ele>28.0155</ele>
        <time>2013-04-28T11:07:48Z</time>
      </trkpt>
      <trkpt lat="59.9967514" lon="17.865374">
        <ele>28.4962</ele>
        <time>2013-04-28T11:07:49Z</time>
      </trkpt>
      <trkpt lat="59.9966842" lon="17.8653587">
        <ele>28.4962</ele>
        <time>2013-04-28T11:07:50Z</time>
      </trkpt>
      <trkpt lat="59.9966187" lon="17.8653422">
        <ele>28.0155</ele>
        <time>2013-04-28T11:07:51Z</time>
      </trkpt>
      <trkpt lat="59.9965532" lon="17.8653272">
        <ele>28.0155</ele>
        <time>2013-04-28T11:07:52Z</time>
      </trkpt>
      <trkpt lat="59.9964852" lon="17.8653177">
        <ele>28.0155</ele>
        <time>2013-04-28T11:07:53Z</time>
      </trkpt>
      <trkpt lat="59.9964153" lon="17.8653033">
        <ele>27.5349</ele>
        <time>2013-04-28T11:07:54Z</time>
      </trkpt>
      <trkpt lat="59.9963427" lon="17.8652824">
        <ele>27.0543</ele>
        <time>2013-04-28T11:07:55Z</time>
      </trkpt>
      <trkpt lat="59.9962656" lon="17.8652577">
        <ele>27.0543</ele>
        <time>2013-04-28T11:07:56Z</time>
      </trkpt>
      <trkpt lat="59.9961874" lon="17.8652333">
        <ele>27.0543</ele>
        <time>2013-04-28T11:07:57Z</time>
      </trkpt>
      <trkpt lat="59.996108" lon="17.8652059">
        <ele>26.5736</ele>
        <time>2013-04-28T11:07:58Z</time>
      </trkpt>
      <trkpt lat="59.9960263" lon="17.8651773">
        <ele>26.0929</ele>
        <time>2013-04-28T11:07:59Z</time>
      </trkpt>
      <trkpt lat="59.9959437" lon="17.8651552">
        <ele>25.6123</ele>
        <time>2013-04-28T11:08:00Z</time>
      </trkpt>
      <trkpt lat="59.9958578" lon="17.8651406">
        <ele>25.1317</ele>
        <time>2013-04-28T11:08:01Z</time>
      </trkpt>
      <trkpt lat="59.9957738" lon="17.865128">
        <ele>24.1703</ele>
        <time>2013-04-28T11:08:02Z</time>
      </trkpt>
      <trkpt lat="59.9956906" lon="17.8651177">
        <ele>23.6896</ele>
        <time>2013-04-28T11:08:03Z</time>
      </trkpt>
      <trkpt lat="59.9956078" lon="17.8650938">
        <ele>23.209</ele>
        <time>2013-04-28T11:08:04Z</time>
      </trkpt>
      <trkpt lat="59.9955252" lon="17.8650873">
        <ele>23.209</ele>
        <time>2013-04-28T11:08:05Z</time>
      </trkpt>
      <trkpt lat="59.9954413" lon="17.8650684">
        <ele>23.6896</ele>
        <time>2013-04-28T11:08:06Z</time>
      </trkpt>
      <trkpt lat="59.9953566" lon="17.8650395">
        <ele>23.6896</ele>
        <time>2013-04-28T11:08:07Z</time>
      </trkpt>
      <trkpt lat="59.995271" lon="17.8649886">
        <ele>24.651</ele>
        <time>2013-04-28T11:08:08Z</time>
      </trkpt>
      <trkpt lat="59.9951884" lon="17.8649432">
        <ele>24.651</ele>
        <time>2013-04-28T11:08:09Z</time>
      </trkpt>
      <trkpt lat="59.9951033" lon="17.8649039">
        <ele>24.1703</ele>
        <time>2013-04-28T11:08:10Z</time>
      </trkpt>
      <trkpt lat="59.9950187" lon="17.8648706">
        <ele>24.1703</ele>
        <time>2013-04-28T11:08:11Z</time>
      </trkpt>
      <trkpt lat="59.9949337" lon="17.8648443">
        <ele>23.6896</ele>
        <time>2013-04-28T11:08:12Z</time>
      </trkpt>
      <trkpt lat="59.9948498" lon="17.8648197">
        <ele>23.6896</ele>
        <time>2013-04-28T11:08:13Z</time>
      </trkpt>
      <trkpt lat="59.9947684" lon="17.86479">
        <ele>23.209</ele>
        <time>2013-04-28T11:08:14Z</time>
      </trkpt>
      <trkpt lat="59.9946872" lon="17.8647566">
        <ele>22.7283</ele>
        <time>2013-04-28T11:08:15Z</time>
      </trkpt>
      <trkpt lat="59.9946112" lon="17.8647158">
        <ele>22.2476</ele>
        <time>2013-04-28T11:08:16Z</time>
      </trkpt>
      <trkpt lat="59.9945359" lon="17.8646687">
        <ele>21.767</ele>
        <time>2013-04-28T11:08:17Z</time>
      </trkpt>
      <trkpt lat="59.9944611" lon="17.864619">
        <ele>21.2864</ele>
        <time>2013-04-28T11:08:18Z</time>
      </trkpt>
      <trkpt lat="59.9943877" lon="17.8645667">
        <ele>20.8057</ele>
        <time>2013-04-28T11:08:19Z</time>
      </trkpt>
      <trkpt lat="59.9943149" lon="17.8645097">
        <ele>20.8057</ele>
        <time>2013-04-28T11:08:20Z</time>
      </trkpt>
      <trkpt lat="59.9942423" lon="17.864452">
        <ele>20.325</ele>
        <time>2013-04-28T11:08:21Z</time>
      </trkpt>
      <trkpt lat="59.9941711" lon="17.8643922">
        <ele>20.325</ele>
        <time>2013-04-28T11:08:22Z</time>
      </trkpt>
      <trkpt lat="59.9941017" lon="17.8643256">
        <ele>19.8444</ele>
        <time>2013-04-28T11:08:23Z</time>
      </trkpt>
      <trkpt lat="59.9940338" lon="17.8642549">
        <ele>19.8444</ele>
        <time>2013-04-28T11:08:24Z</time>
      </trkpt>
      <trkpt lat="59.9939672" lon="17.8641824">
        <ele>19.3638</ele>
        <time>2013-04-28T11:08:25Z</time>
      </trkpt>
      <trkpt lat="59.9939022" lon="17.8641082">
        <ele>19.3638</ele>
        <time>2013-04-28T11:08:26Z</time>
      </trkpt>
      <trkpt lat="59.993838" lon="17.8640308">
        <ele>19.3638</ele>
        <time>2013-04-28T11:08:27Z</time>
      </trkpt>
      <trkpt lat="59.9937741" lon="17.8639507">
        <ele>18.8831</ele>
        <time>2013-04-28T11:08:28Z</time>
      </trkpt>
      <trkpt lat="59.9937117" lon="17.8638718">
        <ele>18.8831</ele>
        <time>2013-04-28T11:08:29Z</time>
      </trkpt>
      <trkpt lat="59.9936499" lon="17.8637908">
        <ele>18.8831</ele>
        <time>2013-04-28T11:08:30Z</time>
      </trkpt>
      <trkpt lat="59.9935886" lon="17.8637119">
        <ele>18.8831</ele>
        <time>2013-04-28T11:08:31Z</time>
      </trkpt>
      <trkpt lat="59.9935283" lon="17.8636357">
        <ele>18.8831</ele>
        <time>2013-04-28T11:08:32Z</time>
      </trkpt>
      <trkpt lat="59.9934693" lon="17.8635599">
        <ele>18.4023</ele>
        <time>2013-04-28T11:08:33Z</time>
      </trkpt>
      <trkpt lat="59.9934109" lon="17.8634839">
        <ele>18.4023</ele>
        <time>2013-04-28T11:08:34Z</time>
      </trkpt>
      <trkpt lat="59.9933528" lon="17.8634095">
        <ele>18.4023</ele>
        <time>2013-04-28T11:08:35Z</time>
      </trkpt>
      <trkpt lat="59.9932957" lon="17.8633351">
        <ele>18.4023</ele>
        <time>2013-04-28T11:08:36Z</time>
      </trkpt>
      <trkpt lat="59.9932397" lon="17.8632608">
        <ele>18.4023</ele>
        <time>2013-04-28T11:08:37Z</time>
      </trkpt>
      <trkpt lat="59.9931845" lon="17.8631887">
        <ele>18.4023</ele>
        <time>2013-04-28T11:08:38Z</time>
      </trkpt>
      <trkpt lat="59.9931301" lon="17.8631184">
        <ele>18.4023</ele>
        <time>2013-04-28T11:08:39Z</time>
      </trkpt>
      <trkpt lat="59.993076" lon="17.8630489">
        <ele>18.4023</ele>
        <time>2013-04-28T11:08:40Z</time>
      </trkpt>
      <trkpt lat="59.9930228" lon="17.8629789">
        <ele>18.4023</ele>
        <time>2013-04-28T11:08:41Z</time>
      </trkpt>
      <trkpt lat="59.9929709" lon="17.8629086">
        <ele>18.4023</ele>
        <time>2013-04-28T11:08:42Z</time>
      </trkpt>
      <trkpt lat="59.9929198" lon="17.8628402">
        <ele>18.8831</ele>
        <time>2013-04-28T11:08:43Z</time>
      </trkpt>
      <trkpt lat="59.9928696" lon="17.8627749">
        <ele>18.8831</ele>
        <time>2013-04-28T11:08:44Z</time>
      </trkpt>
      <trkpt lat="59.9928204" lon="17.8627102">
        <ele>18.8831</ele>
        <time>2013-04-28T11:08:45Z</time>
      </trkpt>
      <trkpt lat="59.9927716" lon="17.8626463">
        <ele>19.3638</ele>
        <time>2013-04-28T11:08:46Z</time>
      </trkpt>
      <trkpt lat="59.9927229" lon="17.8625837">
        <ele>19.3638</ele>
        <time>2013-04-28T11:08:47Z</time>
      </trkpt>
      <trkpt lat="59.9926747" lon="17.8625222">
        <ele>19.3638</ele>
        <time>2013-04-28T11:08:48Z</time>
      </trkpt>
      <trkpt lat="59.9926271" lon="17.8624607">
        <ele>19.3638</ele>
        <time>2013-04-28T11:08:49Z</time>
      </trkpt>
      <trkpt lat="59.9925806" lon="17.8623983">
        <ele>19.3638</ele>
        <time>2013-04-28T11:08:50Z</time>
      </trkpt>
      <trkpt lat="59.9925345" lon="17.862336">
        <ele>19.8444</ele>
        <time>2013-04-28T11:08:51Z</time>
      </trkpt>
      <trkpt lat="59.9924883" lon="17.8622743">
        <ele>19.8444</ele>
        <time>2013-04-28T11:08:52Z</time>
      </trkpt>
      <trkpt lat="59.992442" lon="17.8622147">
        <ele>19.8444</ele>
        <time>2013-04-28T11:08:53Z</time>
      </trkpt>
      <trkpt lat="59.9923959" lon="17.8621563">
        <ele>19.8444</ele>
        <time>2013-04-28T11:08:54Z</time>
      </trkpt>
      <trkpt lat="59.9923503" lon="17.8620973">
        <ele>19.8444</ele>
        <time>2013-04-28T11:08:55Z</time>
      </trkpt>
      <trkpt lat="59.992305" lon="17.8620383">
        <ele>20.325</ele>
        <time>2013-04-28T11:08:56Z</time>
      </trkpt>
      <trkpt lat="59.9922602" lon="17.8619793">
        <ele>20.325</ele>
        <time>2013-04-28T11:08:57Z</time>
      </trkpt>
      <trkpt lat="59.9922153" lon="17.8619207">
        <ele>20.325</ele>
        <time>2013-04-28T11:08:58Z</time>
      </trkpt>
      <trkpt lat="59.9921705" lon="17.8618612">
        <ele>20.325</ele>
        <time>2013-04-28T11:08:59Z</time>
      </trkpt>
      <trkpt lat="59.9921256" lon="17.8618014">
        <ele>20.325</ele>
        <time>2013-04-28T11:09:00Z</time>
      </trkpt>
      <trkpt lat="59.9920805" lon="17.861744">
        <ele>20.325</ele>
        <time>2013-04-28T11:09:01Z</time>
      </trkpt>
      <trkpt lat="59.992035" lon="17.861687">
        <ele>20.325</ele>
        <time>2013-04-28T11:09:02Z</time>
      </trkpt>
      <trkpt lat="59.9919902" lon="17.8616295">
        <ele>20.325</ele>
        <time>2013-04-28T11:09:03Z</time>
      </trkpt>
      <trkpt lat="59.9919464" lon="17.8615741">
        <ele>20.325</ele>
        <time>2013-04-28T11:09:04Z</time>
      </trkpt>
      <trkpt lat="59.9919024" lon="17.8615172">
        <ele>20.325</ele>
        <time>2013-04-28T11:09:05Z</time>
      </trkpt>
      <trkpt lat="59.9918584" lon="17.8614599">
        <ele>20.325</ele>
        <time>2013-04-28T11:09:06Z</time>
      </trkpt>
      <trkpt lat="59.9918142" lon="17.8614012">
        <ele>20.325</ele>
        <time>2013-04-28T11:09:07Z</time>
      </trkpt>
      <trkpt lat="59.9917688" lon="17.8613437">
        <ele>20.325</ele>
        <time>2013-04-28T11:09:08Z</time>
      </trkpt>
      <trkpt lat="59.9917221" lon="17.8612881">
        <ele>20.325</ele>
        <time>2013-04-28T11:09:09Z</time>
      </trkpt>
      <trkpt lat="59.9916745" lon="17.861233">
        <ele>20.8057</ele>
        <time>2013-04-28T11:09:10Z</time>
      </trkpt>
      <trkpt lat="59.9916273" lon="17.8611768">
        <ele>20.8057</ele>
        <time>2013-04-28T11:09:11Z</time>
      </trkpt>
      <trkpt lat="59.9915797" lon="17.8611203">
        <ele>20.8057</ele>
        <time>2013-04-28T11:09:12Z</time>
      </trkpt>
      <trkpt lat="59.9915316" lon="17.8610663">
        <ele>20.8057</ele>
        <time>2013-04-28T11:09:13Z</time>
      </trkpt>
      <trkpt lat="59.9914834" lon="17.8610147">
        <ele>20.8057</ele>
        <time>2013-04-28T11:09:14Z</time>
      </trkpt>
      <trkpt lat="59.9914356" lon="17.8609655">
        <ele>20.8057</ele>
        <time>2013-04-28T11:09:15Z</time>
      </trkpt>
      <trkpt lat="59.9913885" lon="17.8609178">
        <ele>20.8057</ele>
        <time>2013-04-28T11:09:16Z</time>
      </trkpt>
      <trkpt lat="59.9913423" lon="17.8608706">
        <ele>21.2864</ele>
        <time>2013-04-28T11:09:17Z</time>
      </trkpt>
      <trkpt lat="59.9912967" lon="17.8608245">
        <ele>21.2864</ele>
        <time>2013-04-28T11:09:18Z</time>
      </trkpt>
      <trkpt lat="59.9912511" lon="17.8607799">
        <ele>21.2864</ele>
        <time>2013-04-28T11:09:19Z</time>
      </trkpt>
      <trkpt lat="59.991206" lon="17.860736">
        <ele>21.2864</ele>
        <time>2013-04-28T11:09:20Z</time>
      </trkpt>
      <trkpt lat="59.9911609" lon="17.860694">
        <ele>21.767</ele>
        <time>2013-04-28T11:09:21Z</time>
      </trkpt>
      <trkpt lat="59.9911159" lon="17.8606553">
        <ele>21.767</ele>
        <time>2013-04-28T11:09:22Z</time>
      </trkpt>
      <trkpt lat="59.9910711" lon="17.8606179">
        <ele>21.767</ele>
        <time>2013-04-28T11:09:23Z</time>
      </trkpt>
      <trkpt lat="59.9910285" lon="17.8605821">
        <ele>21.767</ele>
        <time>2013-04-28T11:09:24Z</time>
      </trkpt>
      <trkpt lat="59.990987" lon="17.860547">
        <ele>21.767</ele>
        <time>2013-04-28T11:09:25Z</time>
      </trkpt>
      <trkpt lat="59.9909439" lon="17.8605117">
        <ele>21.767</ele>
        <time>2013-04-28T11:09:26Z</time>
      </trkpt>
      <trkpt lat="59.9908993" lon="17.860477">
        <ele>22.2476</ele>
        <time>2013-04-28T11:09:27Z</time>
      </trkpt>
      <trkpt lat="59.9908538" lon="17.8604423">
        <ele>22.2476</ele>
        <time>2013-04-28T11:09:28Z</time>
      </trkpt>
      <trkpt lat="59.9908078" lon="17.8604081">
        <ele>22.7283</ele>
        <time>2013-04-28T11:09:29Z</time>
      </trkpt>
      <trkpt lat="59.9907616" lon="17.8603753">
        <ele>22.7283</ele>
        <time>2013-04-28T11:09:30Z</time>
      </trkpt>
      <trkpt lat="59.9907152" lon="17.8603438">
        <ele>22.7283</ele>
        <time>2013-04-28T11:09:31Z</time>
      </trkpt>
      <trkpt lat="59.990669" lon="17.8603127">
        <ele>23.209</ele>
        <time>2013-04-28T11:09:32Z</time>
      </trkpt>
      <trkpt lat="59.9906222" lon="17.8602813">
        <ele>23.209</ele>
        <time>2013-04-28T11:09:33Z</time>
      </trkpt>
      <trkpt lat="59.9905752" lon="17.8602527">
        <ele>23.6896</ele>
        <time>2013-04-28T11:09:34Z</time>
      </trkpt>
      <trkpt lat="59.9905276" lon="17.8602247">
        <ele>23.6896</ele>
        <time>2013-04-28T11:09:35Z</time>
      </trkpt>
      <trkpt lat="59.9904798" lon="17.8601927">
        <ele>23.6896</ele>
        <time>2013-04-28T11:09:36Z</time>
      </trkpt>
      <trkpt lat="59.9904322" lon="17.860158">
        <ele>24.1703</ele>
        <time>2013-04-28T11:09:37Z</time>
      </trkpt>
      <trkpt lat="59.990385" lon="17.860123">
        <ele>24.651</ele>
        <time>2013-04-28T11:09:38Z</time>
      </trkpt>
      <trkpt lat="59.9903381" lon="17.8600894">
        <ele>24.651</ele>
        <time>2013-04-28T11:09:39Z</time>
      </trkpt>
      <trkpt lat="59.9902914" lon="17.8600541">
        <ele>24.651</ele>
        <time>2013-04-28T11:09:40Z</time>
      </trkpt>
      <trkpt lat="59.9902451" lon="17.8600112">
        <ele>25.1317</ele>
        <time>2013-04-28T11:09:41Z</time>
      </trkpt>
      <trkpt lat="59.9901996" lon="17.8599626">
        <ele>25.1317</ele>
        <time>2013-04-28T11:09:42Z</time>
      </trkpt>
      <trkpt lat="59.9901545" lon="17.8599117">
        <ele>25.6123</ele>
        <time>2013-04-28T11:09:43Z</time>
      </trkpt>
      <trkpt lat="59.9901099" lon="17.8598579">
        <ele>25.6123</ele>
        <time>2013-04-28T11:09:44Z</time>
      </trkpt>
      <trkpt lat="59.990065" lon="17.8598061">
        <ele>25.1317</ele>
        <time>2013-04-28T11:09:45Z</time>
      </trkpt>
      <trkpt lat="59.9900226" lon="17.85975">
        <ele>25.1317</ele>
        <time>2013-04-28T11:09:46Z</time>
      </trkpt>
      <trkpt lat="59.9899804" lon="17.859684">
        <ele>25.1317</ele>
        <time>2013-04-28T11:09:47Z</time>
      </trkpt>
      <trkpt lat="59.9899366" lon="17.8596167">
        <ele>25.1317</ele>
        <time>2013-04-28T11:09:48Z</time>
      </trkpt>
      <trkpt lat="59.9898949" lon="17.8595534">
        <ele>25.6123</ele>
        <time>2013-04-28T11:09:49Z</time>
      </trkpt>
      <trkpt lat="59.9898557" lon="17.8594902">
        <ele>25.6123</ele>
        <time>2013-04-28T11:09:50Z</time>
      </trkpt>
      <trkpt lat="59.989818" lon="17.859427">
        <ele>25.6123</ele>
        <time>2013-04-28T11:09:51Z</time>
      </trkpt>
      <trkpt lat="59.9897806" lon="17.8593658">
        <ele>26.0929</ele>
        <time>2013-04-28T11:09:52Z</time>
      </trkpt>
      <trkpt lat="59.9897434" lon="17.8593043">
        <ele>26.0929</ele>
        <time>2013-04-28T11:09:53Z</time>
      </trkpt>
      <trkpt lat="59.9897077" lon="17.8592399">
        <ele>26.0929</ele>
        <time>2013-04-28T11:09:54Z</time>
      </trkpt>
      <trkpt lat="59.989674" lon="17.8591726">
        <ele>26.0929</ele>
        <time>2013-04-28T11:09:55Z</time>
      </trkpt>
      <trkpt lat="59.9896423" lon="17.8591045">
        <ele>26.5736</ele>
        <time>2013-04-28T11:09:56Z</time>
      </trkpt>
      <trkpt lat="59.9896117" lon="17.859036">
        <ele>26.5736</ele>
        <time>2013-04-28T11:09:57Z</time>
      </trkpt>
      <trkpt lat="59.9895832" lon="17.8589676">
        <ele>26.5736</ele>
        <time>2013-04-28T11:09:58Z</time>
      </trkpt>
      <trkpt lat="59.9895563" lon="17.8588961">
        <ele>26.5736</ele>
        <time>2013-04-28T11:09:59Z</time>
      </trkpt>
      <trkpt lat="59.989532" lon="17.8588246">
        <ele>26.5736</ele>
        <time>2013-04-28T11:10:00Z</time>
      </trkpt>
      <trkpt lat="59.9895098" lon="17.85875">
        <ele>26.5736</ele>
        <time>2013-04-28T11:10:01Z</time>
      </trkpt>
      <trkpt lat="59.989489" lon="17.8586732">
        <ele>26.5736</ele>
        <time>2013-04-28T11:10:02Z</time>
      </trkpt>
      <trkpt lat="59.9894683" lon="17.8585948">
        <ele>26.5736</ele>
        <time>2013-04-28T11:10:03Z</time>
      </trkpt>
      <trkpt lat="59.9894475" lon="17.8585158">
        <ele>26.5736</ele>
        <time>2013-04-28T11:10:04Z</time>
      </trkpt>
      <trkpt lat="59.9894262" lon="17.8584365">
        <ele>26.5736</ele>
        <time>2013-04-28T11:10:05Z</time>
      </trkpt>
      <trkpt lat="59.9894043" lon="17.8583573">
        <ele>26.5736</ele>
        <time>2013-04-28T11:10:06Z</time>
      </trkpt>
      <trkpt lat="59.9893828" lon="17.858277">
        <ele>26.5736</ele>
        <time>2013-04-28T11:10:07Z</time>
      </trkpt>
      <trkpt lat="59.9893614" lon="17.8581954">
        <ele>26.5736</ele>
        <time>2013-04-28T11:10:08Z</time>
      </trkpt>
      <trkpt lat="59.9893387" lon="17.8581137">
        <ele>26.5736</ele>
        <time>2013-04-28T11:10:09Z</time>
      </trkpt>
      <trkpt lat="59.9893145" lon="17.8580314">
        <ele>26.5736</ele>
        <time>2013-04-28T11:10:10Z</time>
      </trkpt>
      <trkpt lat="59.9892904" lon="17.8579464">
        <ele>26.5736</ele>
        <time>2013-04-28T11:10:11Z</time>
      </trkpt>
      <trkpt lat="59.9892676" lon="17.8578641">
        <ele>26.5736</ele>
        <time>2013-04-28T11:10:12Z</time>
      </trkpt>
      <trkpt lat="59.9892432" lon="17.8577823">
        <ele>26.0929</ele>
        <time>2013-04-28T11:10:13Z</time>
      </trkpt>
      <trkpt lat="59.9892159" lon="17.8577004">
        <ele>26.0929</ele>
        <time>2013-04-28T11:10:14Z</time>
      </trkpt>
      <trkpt lat="59.9891858" lon="17.8576181">
        <ele>26.0929</ele>
        <time>2013-04-28T11:10:15Z</time>
      </trkpt>
      <trkpt lat="59.9891529" lon="17.8575363">
        <ele>25.6123</ele>
        <time>2013-04-28T11:10:16Z</time>
      </trkpt>
      <trkpt lat="59.9891166" lon="17.8574575">
        <ele>25.6123</ele>
        <time>2013-04-28T11:10:17Z</time>
      </trkpt>
      <trkpt lat="59.9890761" lon="17.8573817">
        <ele>25.6123</ele>
        <time>2013-04-28T11:10:18Z</time>
      </trkpt>
      <trkpt lat="59.9890322" lon="17.8573105">
        <ele>25.6123</ele>
        <time>2013-04-28T11:10:19Z</time>
      </trkpt>
      <trkpt lat="59.9889865" lon="17.857244">
        <ele>25.6123</ele>
        <time>2013-04-28T11:10:20Z</time>
      </trkpt>
      <trkpt lat="59.988939" lon="17.8571767">
        <ele>25.6123</ele>
        <time>2013-04-28T11:10:21Z</time>
      </trkpt>
      <trkpt lat="59.9888907" lon="17.8571109">
        <ele>25.6123</ele>
        <time>2013-04-28T11:10:22Z</time>
      </trkpt>
      <trkpt lat="59.988842" lon="17.8570451">
        <ele>25.6123</ele>
        <time>2013-04-28T11:10:23Z</time>
      </trkpt>
      <trkpt lat="59.9887939" lon="17.8569797">
        <ele>25.6123</ele>
        <time>2013-04-28T11:10:24Z</time>
      </trkpt>
      <trkpt lat="59.9887461" lon="17.856913">
        <ele>25.6123</ele>
        <time>2013-04-28T11:10:25Z</time>
      </trkpt>
      <trkpt lat="59.9886981" lon="17.8568426">
        <ele>25.1317</ele>
        <time>2013-04-28T11:10:26Z</time>
      </trkpt>
      <trkpt lat="59.9886497" lon="17.8567685">
        <ele>25.1317</ele>
        <time>2013-04-28T11:10:27Z</time>
      </trkpt>
      <trkpt lat="59.9886001" lon="17.8566903">
        <ele>25.1317</ele>
        <time>2013-04-28T11:10:28Z</time>
      </trkpt>
      <trkpt lat="59.9885497" lon="17.8566079">
        <ele>25.1317</ele>
        <time>2013-04-28T11:10:29Z</time>
      </trkpt>
      <trkpt lat="59.9884978" lon="17.8565235">
        <ele>24.651</ele>
        <time>2013-04-28T11:10:30Z</time>
      </trkpt>
      <trkpt lat="59.9884446" lon="17.8564395">
        <ele>24.651</ele>
        <time>2013-04-28T11:10:31Z</time>
      </trkpt>
      <trkpt lat="59.9883918" lon="17.856354">
        <ele>24.651</ele>
        <time>2013-04-28T11:10:32Z</time>
      </trkpt>
      <trkpt lat="59.9883395" lon="17.8562671">
        <ele>24.1703</ele>
        <time>2013-04-28T11:10:33Z</time>
      </trkpt>
      <trkpt lat="59.9882866" lon="17.8561788">
        <ele>23.6896</ele>
        <time>2013-04-28T11:10:34Z</time>
      </trkpt>
      <trkpt lat="59.9882328" lon="17.8560898">
        <ele>23.6896</ele>
        <time>2013-04-28T11:10:35Z</time>
      </trkpt>
      <trkpt lat="59.9881789" lon="17.8560007">
        <ele>23.209</ele>
        <time>2013-04-28T11:10:36Z</time>
      </trkpt>
      <trkpt lat="59.9881248" lon="17.8559115">
        <ele>23.209</ele>
        <time>2013-04-28T11:10:37Z</time>
      </trkpt>
      <trkpt lat="59.9880703" lon="17.8558216">
        <ele>23.209</ele>
        <time>2013-04-28T11:10:38Z</time>
      </trkpt>
      <trkpt lat="59.9880158" lon="17.855731">
        <ele>22.7283</ele>
        <time>2013-04-28T11:10:39Z</time>
      </trkpt>
      <trkpt lat="59.9879608" lon="17.8556409">
        <ele>22.7283</ele>
        <time>2013-04-28T11:10:40Z</time>
      </trkpt>
      <trkpt lat="59.9879064" lon="17.8555495">
        <ele>22.7283</ele>
        <time>2013-04-28T11:10:41Z</time>
      </trkpt>
      <trkpt lat="59.9878526" lon="17.8554575">
        <ele>22.7283</ele>
        <time>2013-04-28T11:10:42Z</time>
      </trkpt>
      <trkpt lat="59.9877995" lon="17.8553679">
        <ele>22.7283</ele>
        <time>2013-04-28T11:10:43Z</time>
      </trkpt>
      <trkpt lat="59.9877465" lon="17.8552798">
        <ele>22.7283</ele>
        <time>2013-04-28T11:10:44Z</time>
      </trkpt>
      <trkpt lat="59.9876944" lon="17.8551927">
        <ele>22.7283</ele>
        <time>2013-04-28T11:10:45Z</time>
      </trkpt>
      <trkpt lat="59.9876437" lon="17.8551052">
        <ele>23.209</ele>
        <time>2013-04-28T11:10:46Z</time>
      </trkpt>
      <trkpt lat="59.9875936" lon="17.8550195">
        <ele>23.209</ele>
        <time>2013-04-28T11:10:47Z</time>
      </trkpt>
      <trkpt lat="59.9875445" lon="17.8549367">
        <ele>23.209</ele>
        <time>2013-04-28T11:10:48Z</time>
      </trkpt>
      <trkpt lat="59.9874971" lon="17.854855">
        <ele>23.209</ele>
        <time>2013-04-28T11:10:49Z</time>
      </trkpt>
      <trkpt lat="59.9874499" lon="17.8547725">
        <ele>23.209</ele>
        <time>2013-04-28T11:10:50Z</time>
      </trkpt>
      <trkpt lat="59.9874023" lon="17.8546868">
        <ele>23.209</ele>
        <time>2013-04-28T11:10:51Z</time>
      </trkpt>
      <trkpt lat="59.9873538" lon="17.8545981">
        <ele>23.209</ele>
        <time>2013-04-28T11:10:52Z</time>
      </trkpt>
      <trkpt lat="59.9873041" lon="17.854506">
        <ele>22.7283</ele>
        <time>2013-04-28T11:10:53Z</time>
      </trkpt>
      <trkpt lat="59.9872538" lon="17.8544137">
        <ele>22.7283</ele>
        <time>2013-04-28T11:10:54Z</time>
      </trkpt>
      <trkpt lat="59.9872041" lon="17.8543199">
        <ele>22.2476</ele>
        <time>2013-04-28T11:10:55Z</time>
      </trkpt>
      <trkpt lat="59.9871574" lon="17.8542233">
        <ele>22.2476</ele>
        <time>2013-04-28T11:10:56Z</time>
      </trkpt>
      <trkpt lat="59.9871102" lon="17.8541277">
        <ele>21.767</ele>
        <time>2013-04-28T11:10:57Z</time>
      </trkpt>
      <trkpt lat="59.9870612" lon="17.8540343">
        <ele>21.2864</ele>
        <time>2013-04-28T11:10:58Z</time>
      </trkpt>
      <trkpt lat="59.9870111" lon="17.8539422">
        <ele>20.325</ele>
        <time>2013-04-28T11:10:59Z</time>
      </trkpt>
      <trkpt lat="59.9869569" lon="17.8538551">
        <ele>19.8444</ele>
        <time>2013-04-28T11:11:00Z</time>
      </trkpt>
      <trkpt lat="59.9868992" lon="17.8537765">
        <ele>19.3638</ele>
        <time>2013-04-28T11:11:01Z</time>
      </trkpt>
      <trkpt lat="59.9868378" lon="17.8537103">
        <ele>19.3638</ele>
        <time>2013-04-28T11:11:02Z</time>
      </trkpt>
      <trkpt lat="59.9867732" lon="17.8536568">
        <ele>18.8831</ele>
        <time>2013-04-28T11:11:03Z</time>
      </trkpt>
      <trkpt lat="59.9867069" lon="17.8536106">
        <ele>18.8831</ele>
        <time>2013-04-28T11:11:04Z</time>
      </trkpt>
      <trkpt lat="59.98664" lon="17.8535665">
        <ele>18.8831</ele>
        <time>2013-04-28T11:11:05Z</time>
      </trkpt>
      <trkpt lat="59.986573" lon="17.8535246">
        <ele>18.8831</ele>
        <time>2013-04-28T11:11:06Z</time>
      </trkpt>
      <trkpt lat="59.9865061" lon="17.8534838">
        <ele>18.4023</ele>
        <time>2013-04-28T11:11:07Z</time>
      </trkpt>
      <trkpt lat="59.9864398" lon="17.8534424">
        <ele>18.4023</ele>
        <time>2013-04-28T11:11:08Z</time>
      </trkpt>
      <trkpt lat="59.9863741" lon="17.8534031">
        <ele>18.4023</ele>
        <time>2013-04-28T11:11:09Z</time>
      </trkpt>
      <trkpt lat="59.9863092" lon="17.8533658">
        <ele>18.4023</ele>
        <time>2013-04-28T11:11:10Z</time>
      </trkpt>
      <trkpt lat="59.9862455" lon="17.8533272">
        <ele>18.4023</ele>
        <time>2013-04-28T11:11:11Z</time>
      </trkpt>
      <trkpt lat="59.986183" lon="17.853288">
        <ele>18.4023</ele>
        <time>2013-04-28T11:11:12Z</time>
      </trkpt>
      <trkpt lat="59.9861214" lon="17.8532497">
        <ele>18.8831</ele>
        <time>2013-04-28T11:11:13Z</time>
      </trkpt>
      <trkpt lat="59.9860617" lon="17.8532155">
        <ele>19.3638</ele>
        <time>2013-04-28T11:11:14Z</time>
      </trkpt>
      <trkpt lat="59.9860032" lon="17.8531823">
        <ele>19.8444</ele>
        <time>2013-04-28T11:11:15Z</time>
      </trkpt>
      <trkpt lat="59.9859461" lon="17.853147">
        <ele>20.325</ele>
        <time>2013-04-28T11:11:16Z</time>
      </trkpt>
      <trkpt lat="59.9858905" lon="17.8531144">
        <ele>20.8057</ele>
        <time>2013-04-28T11:11:17Z</time>
      </trkpt>
      <trkpt lat="59.985836" lon="17.8530855">
        <ele>21.2864</ele>
        <time>2013-04-28T11:11:18Z</time>
      </trkpt>
      <trkpt lat="59.9857827" lon="17.8530585">
        <ele>21.767</ele>
        <time>2013-04-28T11:11:19Z</time>
      </trkpt>
      <trkpt lat="59.9857318" lon="17.8530306">
        <ele>22.2476</ele>
        <time>2013-04-28T11:11:20Z</time>
      </trkpt>
      <trkpt lat="59.9856833" lon="17.8530016">
        <ele>22.7283</ele>
        <time>2013-04-28T11:11:21Z</time>
      </trkpt>
      <trkpt lat="59.9856354" lon="17.8529737">
        <ele>22.7283</ele>
        <time>2013-04-28T11:11:22Z</time>
      </trkpt>
      <trkpt lat="59.9855866" lon="17.8529544">
        <ele>22.7283</ele>
        <time>2013-04-28T11:11:23Z</time>
      </trkpt>
      <trkpt lat="59.985536" lon="17.85294">
        <ele>22.7283</ele>
        <time>2013-04-28T11:11:24Z</time>
      </trkpt>
      <trkpt lat="59.9854835" lon="17.8529273">
        <ele>22.2476</ele>
        <time>2013-04-28T11:11:25Z</time>
      </trkpt>
      <trkpt lat="59.9854267" lon="17.8529156">
        <ele>22.2476</ele>
        <time>2013-04-28T11:11:26Z</time>
      </trkpt>
      <trkpt lat="59.9853678" lon="17.8529083">
        <ele>22.7283</ele>
        <time>2013-04-28T11:11:27Z</time>
      </trkpt>
      <trkpt lat="59.9853066" lon="17.8529052">
        <ele>22.7283</ele>
        <time>2013-04-28T11:11:28Z</time>
      </trkpt>
      <trkpt lat="59.9852426" lon="17.8529079">
        <ele>23.209</ele>
        <time>2013-04-28T11:11:29Z</time>
      </trkpt>
      <trkpt lat="59.9851765" lon="17.852914">
        <ele>23.6896</ele>
        <time>2013-04-28T11:11:30Z</time>
      </trkpt>
      <trkpt lat="59.9851092" lon="17.8529264">
        <ele>24.1703</ele>
        <time>2013-04-28T11:11:31Z</time>
      </trkpt>
      <trkpt lat="59.9850401" lon="17.8529419">
        <ele>24.1703</ele>
        <time>2013-04-28T11:11:32Z</time>
      </trkpt>
      <trkpt lat="59.9849689" lon="17.8529586">
        <ele>24.1703</ele>
        <time>2013-04-28T11:11:33Z</time>
      </trkpt>
      <trkpt lat="59.9848972" lon="17.8529701">
        <ele>24.1703</ele>
        <time>2013-04-28T11:11:34Z</time>
      </trkpt>
      <trkpt lat="59.9848248" lon="17.8529745">
        <ele>24.651</ele>
        <time>2013-04-28T11:11:35Z</time>
      </trkpt>
      <trkpt lat="59.9847538" lon="17.8529721">
        <ele>25.1317</ele>
        <time>2013-04-28T11:11:36Z</time>
      </trkpt>
      <trkpt lat="59.9846844" lon="17.8529648">
        <ele>25.1317</ele>
        <time>2013-04-28T11:11:37Z</time>
      </trkpt>
      <trkpt lat="59.9846172" lon="17.8529498">
        <ele>25.6123</ele>
        <time>2013-04-28T11:11:38Z</time>
      </trkpt>
      <trkpt lat="59.984553" lon="17.8529243">
        <ele>25.1317</ele>
        <time>2013-04-28T11:11:39Z</time>
      </trkpt>
      <trkpt lat="59.9844887" lon="17.8528968">
        <ele>25.6123</ele>
        <time>2013-04-28T11:11:40Z</time>
      </trkpt>
      <trkpt lat="59.9844266" lon="17.8528688">
        <ele>26.0929</ele>
        <time>2013-04-28T11:11:41Z</time>
      </trkpt>
      <trkpt lat="59.9843673" lon="17.8528337">
        <ele>26.0929</ele>
        <time>2013-04-28T11:11:42Z</time>
      </trkpt>
      <trkpt lat="59.984309" lon="17.8527923">
        <ele>26.0929</ele>
        <time>2013-04-28T11:11:43Z</time>
      </trkpt>
      <trkpt lat="59.9842535" lon="17.8527481">
        <ele>26.5736</ele>
        <time>2013-04-28T11:11:44Z</time>
      </trkpt>
      <trkpt lat="59.9842012" lon="17.8527037">
        <ele>26.5736</ele>
        <time>2013-04-28T11:11:45Z</time>
      </trkpt>
      <trkpt lat="59.9841498" lon="17.8526576">
        <ele>26.5736</ele>
        <time>2013-04-28T11:11:46Z</time>
      </trkpt>
      <trkpt lat="59.9840981" lon="17.8526002">
        <ele>27.0543</ele>
        <time>2013-04-28T11:11:47Z</time>
      </trkpt>
      <trkpt lat="59.9840494" lon="17.8525369">
        <ele>27.0543</ele>
        <time>2013-04-28T11:11:48Z</time>
      </trkpt>
      <trkpt lat="59.9840002" lon="17.8524797">
        <ele>27.0543</ele>
        <time>2013-04-28T11:11:49Z</time>
      </trkpt>
      <trkpt lat="59.9839518" lon="17.852439">
        <ele>27.0543</ele>
        <time>2013-04-28T11:11:50Z</time>
      </trkpt>
      <trkpt lat="59.9839017" lon="17.8524017">
        <ele>27.0543</ele>
        <time>2013-04-28T11:11:51Z</time>
      </trkpt>
      <trkpt lat="59.9838492" lon="17.8523373">
        <ele>27.5349</ele>
        <time>2013-04-28T11:11:52Z</time>
      </trkpt>
      <trkpt lat="59.983798" lon="17.8522681">
        <ele>27.5349</ele>
        <time>2013-04-28T11:11:53Z</time>
      </trkpt>
      <trkpt lat="59.9837484" lon="17.8522094">
        <ele>27.5349</ele>
        <time>2013-04-28T11:11:54Z</time>
      </trkpt>
      <trkpt lat="59.9836997" lon="17.8521541">
        <ele>27.5349</ele>
        <time>2013-04-28T11:11:55Z</time>
      </trkpt>
      <trkpt lat="59.9836537" lon="17.8520988">
        <ele>28.0155</ele>
        <time>2013-04-28T11:11:56Z</time>
      </trkpt>
      <trkpt lat="59.9836048" lon="17.8520375">
        <ele>28.0155</ele>
        <time>2013-04-28T11:11:57Z</time>
      </trkpt>
      <trkpt lat="59.9835603" lon="17.8519816">
        <ele>28.9769</ele>
        <time>2013-04-28T11:11:58Z</time>
      </trkpt>
      <trkpt lat="59.9835195" lon="17.8519329">
        <ele>29.4575</ele>
        <time>2013-04-28T11:11:59Z</time>
      </trkpt>
      <trkpt lat="59.9834789" lon="17.851882">
        <ele>29.9381</ele>
        <time>2013-04-28T11:12:00Z</time>
      </trkpt>
      <trkpt lat="59.9834329" lon="17.8518284">
        <ele>30.4188</ele>
        <time>2013-04-28T11:12:01Z</time>
      </trkpt>
      <trkpt lat="59.9833888" lon="17.8517678">
        <ele>31.3801</ele>
        <time>2013-04-28T11:12:02Z</time>
      </trkpt>
      <trkpt lat="59.9833428" lon="17.8517086">
        <ele>31.3801</ele>
        <time>2013-04-28T11:12:03Z</time>
      </trkpt>
      <trkpt lat="59.9832951" lon="17.8516486">
        <ele>30.8995</ele>
        <time>2013-04-28T11:12:04Z</time>
      </trkpt>
      <trkpt lat="59.9832501" lon="17.8515914">
        <ele>30.8995</ele>
        <time>2013-04-28T11:12:05Z</time>
      </trkpt>
      <trkpt lat="59.9832056" lon="17.8515298">
        <ele>30.8995</ele>
        <time>2013-04-28T11:12:06Z</time>
      </trkpt>
      <trkpt lat="59.9831615" lon="17.8514678">
        <ele>30.8995</ele>
        <time>2013-04-28T11:12:07Z</time>
      </trkpt>
      <trkpt lat="59.9831149" lon="17.8514023">
        <ele>30.8995</ele>
        <time>2013-04-28T11:12:08Z</time>
      </trkpt>
      <trkpt lat="59.983067" lon="17.8513321">
        <ele>30.4188</ele>
        <time>2013-04-28T11:12:09Z</time>
      </trkpt>
      <trkpt lat="59.983019" lon="17.8512604">
        <ele>29.9381</ele>
        <time>2013-04-28T11:12:10Z</time>
      </trkpt>
      <trkpt lat="59.9829714" lon="17.8511821">
        <ele>29.4575</ele>
        <time>2013-04-28T11:12:11Z</time>
      </trkpt>
      <trkpt lat="59.9829252" lon="17.8511015">
        <ele>29.4575</ele>
        <time>2013-04-28T11:12:12Z</time>
      </trkpt>
      <trkpt lat="59.9828795" lon="17.851015">
        <ele>28.9769</ele>
        <time>2013-04-28T11:12:13Z</time>
      </trkpt>
      <trkpt lat="59.982834" lon="17.8509253">
        <ele>28.4962</ele>
        <time>2013-04-28T11:12:14Z</time>
      </trkpt>
      <trkpt lat="59.9827874" lon="17.8508317">
        <ele>28.0155</ele>
        <time>2013-04-28T11:12:15Z</time>
      </trkpt>
      <trkpt lat="59.9827379" lon="17.8507341">
        <ele>28.0155</ele>
        <time>2013-04-28T11:12:16Z</time>
      </trkpt>
      <trkpt lat="59.9826869" lon="17.8506306">
        <ele>27.5349</ele>
        <time>2013-04-28T11:12:17Z</time>
      </trkpt>
      <trkpt lat="59.9826329" lon="17.850524">
        <ele>27.5349</ele>
        <time>2013-04-28T11:12:18Z</time>
      </trkpt>
      <trkpt lat="59.9825766" lon="17.8504083">
        <ele>26.5736</ele>
        <time>2013-04-28T11:12:19Z</time>
      </trkpt>
      <trkpt lat="59.9825186" lon="17.850283">
        <ele>26.5736</ele>
        <time>2013-04-28T11:12:20Z</time>
      </trkpt>
      <trkpt lat="59.9824611" lon="17.8501633">
        <ele>26.5736</ele>
        <time>2013-04-28T11:12:21Z</time>
      </trkpt>
      <trkpt lat="59.9824036" lon="17.8500468">
        <ele>27.0543</ele>
        <time>2013-04-28T11:12:22Z</time>
      </trkpt>
      <trkpt lat="59.9823472" lon="17.8499355">
        <ele>26.5736</ele>
        <time>2013-04-28T11:12:23Z</time>
      </trkpt>
      <trkpt lat="59.9822897" lon="17.8498263">
        <ele>26.0929</ele>
        <time>2013-04-28T11:12:24Z</time>
      </trkpt>
      <trkpt lat="59.9822306" lon="17.8497244">
        <ele>26.0929</ele>
        <time>2013-04-28T11:12:25Z</time>
      </trkpt>
      <trkpt lat="59.9821695" lon="17.8496276">
        <ele>25.6123</ele>
        <time>2013-04-28T11:12:26Z</time>
      </trkpt>
      <trkpt lat="59.9821064" lon="17.8495386">
        <ele>25.1317</ele>
        <time>2013-04-28T11:12:27Z</time>
      </trkpt>
      <trkpt lat="59.9820432" lon="17.8494536">
        <ele>24.651</ele>
        <time>2013-04-28T11:12:28Z</time>
      </trkpt>
      <trkpt lat="59.9819792" lon="17.8493682">
        <ele>24.651</ele>
        <time>2013-04-28T11:12:29Z</time>
      </trkpt>
      <trkpt lat="59.9819156" lon="17.8492916">
        <ele>24.1703</ele>
        <time>2013-04-28T11:12:30Z</time>
      </trkpt>
      <trkpt lat="59.9818509" lon="17.8492123">
        <ele>24.651</ele>
        <time>2013-04-28T11:12:31Z</time>
      </trkpt>
      <trkpt lat="59.9817887" lon="17.8491412">
        <ele>24.1703</ele>
        <time>2013-04-28T11:12:32Z</time>
      </trkpt>
      <trkpt lat="59.9817287" lon="17.849073">
        <ele>24.1703</ele>
        <time>2013-04-28T11:12:33Z</time>
      </trkpt>
      <trkpt lat="59.9816696" lon="17.8489946">
        <ele>24.1703</ele>
        <time>2013-04-28T11:12:34Z</time>
      </trkpt>
      <trkpt lat="59.9816124" lon="17.8489082">
        <ele>24.1703</ele>
        <time>2013-04-28T11:12:35Z</time>
      </trkpt>
      <trkpt lat="59.9815573" lon="17.8488172">
        <ele>24.651</ele>
        <time>2013-04-28T11:12:36Z</time>
      </trkpt>
      <trkpt lat="59.981505" lon="17.8487202">
        <ele>24.651</ele>
        <time>2013-04-28T11:12:37Z</time>
      </trkpt>
      <trkpt lat="59.9814563" lon="17.8486196">
        <ele>24.651</ele>
        <time>2013-04-28T11:12:38Z</time>
      </trkpt>
      <trkpt lat="59.9814092" lon="17.8485144">
        <ele>24.651</ele>
        <time>2013-04-28T11:12:39Z</time>
      </trkpt>
      <trkpt lat="59.981363" lon="17.8484062">
        <ele>24.651</ele>
        <time>2013-04-28T11:12:40Z</time>
      </trkpt>
      <trkpt lat="59.9813174" lon="17.8482975">
        <ele>24.651</ele>
        <time>2013-04-28T11:12:41Z</time>
      </trkpt>
      <trkpt lat="59.9812718" lon="17.8481861">
        <ele>25.1317</ele>
        <time>2013-04-28T11:12:42Z</time>
      </trkpt>
      <trkpt lat="59.9812257" lon="17.8480748">
        <ele>25.1317</ele>
        <time>2013-04-28T11:12:43Z</time>
      </trkpt>
      <trkpt lat="59.9811802" lon="17.8479635">
        <ele>25.6123</ele>
        <time>2013-04-28T11:12:44Z</time>
      </trkpt>
      <trkpt lat="59.9811361" lon="17.8478551">
        <ele>25.6123</ele>
        <time>2013-04-28T11:12:45Z</time>
      </trkpt>
      <trkpt lat="59.9810931" lon="17.8477496">
        <ele>25.6123</ele>
        <time>2013-04-28T11:12:46Z</time>
      </trkpt>
      <trkpt lat="59.98105" lon="17.8476457">
        <ele>26.0929</ele>
        <time>2013-04-28T11:12:47Z</time>
      </trkpt>
      <trkpt lat="59.9810072" lon="17.8475457">
        <ele>26.0929</ele>
        <time>2013-04-28T11:12:48Z</time>
      </trkpt>
      <trkpt lat="59.9809651" lon="17.8474526">
        <ele>26.5736</ele>
        <time>2013-04-28T11:12:49Z</time>
      </trkpt>
      <trkpt lat="59.9809222" lon="17.8473615">
        <ele>26.5736</ele>
        <time>2013-04-28T11:12:50Z</time>
      </trkpt>
      <trkpt lat="59.9808786" lon="17.8472734">
        <ele>27.0543</ele>
        <time>2013-04-28T11:12:51Z</time>
      </trkpt>
      <trkpt lat="59.980836" lon="17.8471878">
        <ele>27.0543</ele>
        <time>2013-04-28T11:12:52Z</time>
      </trkpt>
      <trkpt lat="59.9807919" lon="17.8471064">
        <ele>27.5349</ele>
        <time>2013-04-28T11:12:53Z</time>
      </trkpt>
      <trkpt lat="59.9807468" lon="17.8470298">
        <ele>27.5349</ele>
        <time>2013-04-28T11:12:54Z</time>
      </trkpt>
      <trkpt lat="59.9806999" lon="17.846959">
        <ele>27.5349</ele>
        <time>2013-04-28T11:12:55Z</time>
      </trkpt>
      <trkpt lat="59.980652" lon="17.8468901">
        <ele>27.5349</ele>
        <time>2013-04-28T11:12:56Z</time>
      </trkpt>
      <trkpt lat="59.9806037" lon="17.8468217">
        <ele>27.5349</ele>
        <time>2013-04-28T11:12:57Z</time>
      </trkpt>
      <trkpt lat="59.9805552" lon="17.8467586">
        <ele>27.5349</ele>
        <time>2013-04-28T11:12:58Z</time>
      </trkpt>
      <trkpt lat="59.980506" lon="17.8467018">
        <ele>27.0543</ele>
        <time>2013-04-28T11:12:59Z</time>
      </trkpt>
      <trkpt lat="59.9804568" lon="17.8466501">
        <ele>27.0543</ele>
        <time>2013-04-28T11:13:00Z</time>
      </trkpt>
      <trkpt lat="59.9804076" lon="17.8466041">
        <ele>27.0543</ele>
        <time>2013-04-28T11:13:01Z</time>
      </trkpt>
      <trkpt lat="59.9803584" lon="17.8465648">
        <ele>26.0929</ele>
        <time>2013-04-28T11:13:02Z</time>
      </trkpt>
      <trkpt lat="59.9803099" lon="17.8465263">
        <ele>26.0929</ele>
        <time>2013-04-28T11:13:03Z</time>
      </trkpt>
      <trkpt lat="59.9802606" lon="17.8464864">
        <ele>25.6123</ele>
        <time>2013-04-28T11:13:04Z</time>
      </trkpt>
      <trkpt lat="59.9802074" lon="17.8464486">
        <ele>25.1317</ele>
        <time>2013-04-28T11:13:05Z</time>
      </trkpt>
      <trkpt lat="59.9801559" lon="17.8464088">
        <ele>25.1317</ele>
        <time>2013-04-28T11:13:06Z</time>
      </trkpt>
      <trkpt lat="59.9801077" lon="17.8463789">
        <ele>24.651</ele>
        <time>2013-04-28T11:13:07Z</time>
      </trkpt>
      <trkpt lat="59.9800581" lon="17.8463512">
        <ele>24.1703</ele>
        <time>2013-04-28T11:13:08Z</time>
      </trkpt>
      <trkpt lat="59.980005" lon="17.8463261">
        <ele>24.1703</ele>
        <time>2013-04-28T11:13:09Z</time>
      </trkpt>
      <trkpt lat="59.9799502" lon="17.8463027">
        <ele>23.6896</ele>
        <time>2013-04-28T11:13:10Z</time>
      </trkpt>
      <trkpt lat="59.9798942" lon="17.8462845">
        <ele>24.1703</ele>
        <time>2013-04-28T11:13:11Z</time>
      </trkpt>
      <trkpt lat="59.9798378" lon="17.8462706">
        <ele>24.651</ele>
        <time>2013-04-28T11:13:12Z</time>
      </trkpt>
      <trkpt lat="59.979781" lon="17.8462611">
        <ele>24.651</ele>
        <time>2013-04-28T11:13:13Z</time>
      </trkpt>
      <trkpt lat="59.9797214" lon="17.8462515">
        <ele>25.1317</ele>
        <time>2013-04-28T11:13:14Z</time>
      </trkpt>
      <trkpt lat="59.9796592" lon="17.8462431">
        <ele>25.6123</ele>
        <time>2013-04-28T11:13:15Z</time>
      </trkpt>
      <trkpt lat="59.9795974" lon="17.8462414">
        <ele>27.0543</ele>
        <time>2013-04-28T11:13:16Z</time>
      </trkpt>
      <trkpt lat="59.9795349" lon="17.8462467">
        <ele>27.5349</ele>
        <time>2013-04-28T11:13:17Z</time>
      </trkpt>
      <trkpt lat="59.9794717" lon="17.8462527">
        <ele>28.4962</ele>
        <time>2013-04-28T11:13:18Z</time>
      </trkpt>
      <trkpt lat="59.9794101" lon="17.846262">
        <ele>29.4575</ele>
        <time>2013-04-28T11:13:19Z</time>
      </trkpt>
      <trkpt lat="59.9793496" lon="17.8462708">
        <ele>30.8995</ele>
        <time>2013-04-28T11:13:20Z</time>
      </trkpt>
      <trkpt lat="59.9792872" lon="17.8462839">
        <ele>30.8995</ele>
        <time>2013-04-28T11:13:21Z</time>
      </trkpt>
      <trkpt lat="59.9792237" lon="17.8462978">
        <ele>31.3801</ele>
        <time>2013-04-28T11:13:22Z</time>
      </trkpt>
      <trkpt lat="59.9791581" lon="17.8463126">
        <ele>31.3801</ele>
        <time>2013-04-28T11:13:23Z</time>
      </trkpt>
      <trkpt lat="59.9790905" lon="17.8463321">
        <ele>30.8995</ele>
        <time>2013-04-28T11:13:24Z</time>
      </trkpt>
      <trkpt lat="59.9790227" lon="17.8463523">
        <ele>30.4188</ele>
        <time>2013-04-28T11:13:25Z</time>
      </trkpt>
      <trkpt lat="59.9789551" lon="17.8463752">
        <ele>30.4188</ele>
        <time>2013-04-28T11:13:26Z</time>
      </trkpt>
      <trkpt lat="59.9788859" lon="17.8464026">
        <ele>29.9381</ele>
        <time>2013-04-28T11:13:27Z</time>
      </trkpt>
      <trkpt lat="59.9788163" lon="17.8464284">
        <ele>28.9769</ele>
        <time>2013-04-28T11:13:28Z</time>
      </trkpt>
      <trkpt lat="59.9787468" lon="17.846448">
        <ele>28.4962</ele>
        <time>2013-04-28T11:13:29Z</time>
      </trkpt>
      <trkpt lat="59.9786771" lon="17.8464675">
        <ele>28.0155</ele>
        <time>2013-04-28T11:13:30Z</time>
      </trkpt>
      <trkpt lat="59.9786061" lon="17.8464834">
        <ele>28.9769</ele>
        <time>2013-04-28T11:13:31Z</time>
      </trkpt>
      <trkpt lat="59.9785349" lon="17.8464978">
        <ele>28.9769</ele>
        <time>2013-04-28T11:13:32Z</time>
      </trkpt>
      <trkpt lat="59.9784632" lon="17.8465097">
        <ele>28.9769</ele>
        <time>2013-04-28T11:13:33Z</time>
      </trkpt>
      <trkpt lat="59.9783911" lon="17.8465136">
        <ele>28.9769</ele>
        <time>2013-04-28T11:13:34Z</time>
      </trkpt>
      <trkpt lat="59.978319" lon="17.8465125">
        <ele>28.4962</ele>
        <time>2013-04-28T11:13:35Z</time>
      </trkpt>
      <trkpt lat="59.9782469" lon="17.8465088">
        <ele>28.0155</ele>
        <time>2013-04-28T11:13:36Z</time>
      </trkpt>
      <trkpt lat="59.9781737" lon="17.8465016">
        <ele>28.4962</ele>
        <time>2013-04-28T11:13:37Z</time>
      </trkpt>
      <trkpt lat="59.9781" lon="17.8464916">
        <ele>28.9769</ele>
        <time>2013-04-28T11:13:38Z</time>
      </trkpt>
      <trkpt lat="59.978027" lon="17.8464766">
        <ele>28.9769</ele>
        <time>2013-04-28T11:13:39Z</time>
      </trkpt>
      <trkpt lat="59.9779539" lon="17.8464589">
        <ele>28.4962</ele>
        <time>2013-04-28T11:13:40Z</time>
      </trkpt>
      <trkpt lat="59.9778814" lon="17.8464373">
        <ele>28.4962</ele>
        <time>2013-04-28T11:13:41Z</time>
      </trkpt>
      <trkpt lat="59.97781" lon="17.8464119">
        <ele>28.9769</ele>
        <time>2013-04-28T11:13:42Z</time>
      </trkpt>
      <trkpt lat="59.9777395" lon="17.8463833">
        <ele>28.9769</ele>
        <time>2013-04-28T11:13:43Z</time>
      </trkpt>
      <trkpt lat="59.97767" lon="17.8463517">
        <ele>28.9769</ele>
        <time>2013-04-28T11:13:44Z</time>
      </trkpt>
      <trkpt lat="59.9776021" lon="17.8463188">
        <ele>29.4575</ele>
        <time>2013-04-28T11:13:45Z</time>
      </trkpt>
      <trkpt lat="59.9775376" lon="17.8462809">
        <ele>29.4575</ele>
        <time>2013-04-28T11:13:46Z</time>
      </trkpt>
      <trkpt lat="59.9774742" lon="17.8462405">
        <ele>29.4575</ele>
        <time>2013-04-28T11:13:47Z</time>
      </trkpt>
      <trkpt lat="59.9774115" lon="17.8461969">
        <ele>29.9381</ele>
        <time>2013-04-28T11:13:48Z</time>
      </trkpt>
      <trkpt lat="59.9773514" lon="17.8461523">
        <ele>29.9381</ele>
        <time>2013-04-28T11:13:49Z</time>
      </trkpt>
      <trkpt lat="59.9772913" lon="17.8461109">
        <ele>30.4188</ele>
        <time>2013-04-28T11:13:50Z</time>
      </trkpt>
      <trkpt lat="59.9772313" lon="17.846069">
        <ele>30.8995</ele>
        <time>2013-04-28T11:13:51Z</time>
      </trkpt>
      <trkpt lat="59.9771724" lon="17.8460233">
        <ele>30.8995</ele>
        <time>2013-04-28T11:13:52Z</time>
      </trkpt>
      <trkpt lat="59.9771141" lon="17.8459775">
        <ele>30.8995</ele>
        <time>2013-04-28T11:13:53Z</time>
      </trkpt>
      <trkpt lat="59.9770561" lon="17.8459307">
        <ele>30.8995</ele>
        <time>2013-04-28T11:13:54Z</time>
      </trkpt>
      <trkpt lat="59.9769972" lon="17.8458834">
        <ele>30.8995</ele>
        <time>2013-04-28T11:13:55Z</time>
      </trkpt>
      <trkpt lat="59.9769376" lon="17.8458393">
        <ele>30.8995</ele>
        <time>2013-04-28T11:13:56Z</time>
      </trkpt>
      <trkpt lat="59.9768801" lon="17.8457951">
        <ele>30.8995</ele>
        <time>2013-04-28T11:13:57Z</time>
      </trkpt>
      <trkpt lat="59.9768216" lon="17.8457506">
        <ele>30.8995</ele>
        <time>2013-04-28T11:13:58Z</time>
      </trkpt>
      <trkpt lat="59.976762" lon="17.8457074">
        <ele>30.8995</ele>
        <time>2013-04-28T11:13:59Z</time>
      </trkpt>
      <trkpt lat="59.9767019" lon="17.8456664">
        <ele>30.8995</ele>
        <time>2013-04-28T11:14:00Z</time>
      </trkpt>
      <trkpt lat="59.9766423" lon="17.8456246">
        <ele>30.8995</ele>
        <time>2013-04-28T11:14:01Z</time>
      </trkpt>
      <trkpt lat="59.9765833" lon="17.8455811">
        <ele>30.8995</ele>
        <time>2013-04-28T11:14:02Z</time>
      </trkpt>
      <trkpt lat="59.9765227" lon="17.8455353">
        <ele>30.8995</ele>
        <time>2013-04-28T11:14:03Z</time>
      </trkpt>
      <trkpt lat="59.9764624" lon="17.8454881">
        <ele>30.8995</ele>
        <time>2013-04-28T11:14:04Z</time>
      </trkpt>
      <trkpt lat="59.976403" lon="17.8454451">
        <ele>30.8995</ele>
        <time>2013-04-28T11:14:05Z</time>
      </trkpt>
      <trkpt lat="59.9763438" lon="17.8454007">
        <ele>31.3801</ele>
        <time>2013-04-28T11:14:06Z</time>
      </trkpt>
      <trkpt lat="59.9762863" lon="17.8453525">
        <ele>31.3801</ele>
        <time>2013-04-28T11:14:07Z</time>
      </trkpt>
      <trkpt lat="59.9762273" lon="17.8453086">
        <ele>31.8607</ele>
        <time>2013-04-28T11:14:08Z</time>
      </trkpt>
      <trkpt lat="59.9761669" lon="17.8452699">
        <ele>32.3416</ele>
        <time>2013-04-28T11:14:09Z</time>
      </trkpt>
      <trkpt lat="59.9761075" lon="17.8452293">
        <ele>32.3416</ele>
        <time>2013-04-28T11:14:10Z</time>
      </trkpt>
      <trkpt lat="59.9760481" lon="17.8451863">
        <ele>32.8223</ele>
        <time>2013-04-28T11:14:11Z</time>
      </trkpt>
      <trkpt lat="59.9759886" lon="17.8451422">
        <ele>32.8223</ele>
        <time>2013-04-28T11:14:12Z</time>
      </trkpt>
      <trkpt lat="59.9759257" lon="17.8450991">
        <ele>32.8223</ele>
        <time>2013-04-28T11:14:13Z</time>
      </trkpt>
      <trkpt lat="59.9758613" lon="17.845054">
        <ele>32.8223</ele>
        <time>2013-04-28T11:14:14Z</time>
      </trkpt>
      <trkpt lat="59.9757967" lon="17.8450082">
        <ele>32.8223</ele>
        <time>2013-04-28T11:14:15Z</time>
      </trkpt>
      <trkpt lat="59.9757333" lon="17.8449611">
        <ele>32.8223</ele>
        <time>2013-04-28T11:14:16Z</time>
      </trkpt>
      <trkpt lat="59.9756689" lon="17.8449128">
        <ele>32.3416</ele>
        <time>2013-04-28T11:14:17Z</time>
      </trkpt>
      <trkpt lat="59.9756077" lon="17.8448614">
        <ele>32.3416</ele>
        <time>2013-04-28T11:14:18Z</time>
      </trkpt>
      <trkpt lat="59.9755337" lon="17.8447971">
        <ele>32.3416</ele>
        <time>2013-04-28T11:14:19Z</time>
      </trkpt>
      <trkpt lat="59.9754702" lon="17.8447304">
        <ele>32.3416</ele>
        <time>2013-04-28T11:14:20Z</time>
      </trkpt>
      <trkpt lat="59.975412" lon="17.8446694">
        <ele>31.8607</ele>
        <time>2013-04-28T11:14:21Z</time>
      </trkpt>
      <trkpt lat="59.9753569" lon="17.8446081">
        <ele>31.8607</ele>
        <time>2013-04-28T11:14:22Z</time>
      </trkpt>
      <trkpt lat="59.9752997" lon="17.8445296">
        <ele>31.8607</ele>
        <time>2013-04-28T11:14:23Z</time>
      </trkpt>
      <trkpt lat="59.9752423" lon="17.8444487">
        <ele>31.8607</ele>
        <time>2013-04-28T11:14:24Z</time>
      </trkpt>
      <trkpt lat="59.9751891" lon="17.8443746">
        <ele>31.8607</ele>
        <time>2013-04-28T11:14:25Z</time>
      </trkpt>
      <trkpt lat="59.975135" lon="17.8442995">
        <ele>32.3416</ele>
        <time>2013-04-28T11:14:26Z</time>
      </trkpt>
      <trkpt lat="59.9750788" lon="17.8442203">
        <ele>32.3416</ele>
        <time>2013-04-28T11:14:27Z</time>
      </trkpt>
      <trkpt lat="59.975022" lon="17.8441462">
        <ele>32.3416</ele>
        <time>2013-04-28T11:14:28Z</time>
      </trkpt>
      <trkpt lat="59.974963" lon="17.8440731">
        <ele>33.3029</ele>
        <time>2013-04-28T11:14:29Z</time>
      </trkpt>
      <trkpt lat="59.9749054" lon="17.8440084">
        <ele>33.3029</ele>
        <time>2013-04-28T11:14:30Z</time>
      </trkpt>
      <trkpt lat="59.9748457" lon="17.8439574">
        <ele>33.3029</ele>
        <time>2013-04-28T11:14:31Z</time>
      </trkpt>
      <trkpt lat="59.9747893" lon="17.8439146">
        <ele>32.8223</ele>
        <time>2013-04-28T11:14:32Z</time>
      </trkpt>
      <trkpt lat="59.974735" lon="17.8438769">
        <ele>32.3416</ele>
        <time>2013-04-28T11:14:33Z</time>
      </trkpt>
      <trkpt lat="59.9746811" lon="17.8438307">
        <ele>30.8995</ele>
        <time>2013-04-28T11:14:34Z</time>
      </trkpt>
      <trkpt lat="59.9746229" lon="17.8437944">
        <ele>30.4188</ele>
        <time>2013-04-28T11:14:35Z</time>
      </trkpt>
      <trkpt lat="59.9745611" lon="17.8437666">
        <ele>28.9769</ele>
        <time>2013-04-28T11:14:36Z</time>
      </trkpt>
      <trkpt lat="59.9744997" lon="17.8437415">
        <ele>28.0155</ele>
        <time>2013-04-28T11:14:37Z</time>
      </trkpt>
      <trkpt lat="59.9744408" lon="17.8437163">
        <ele>27.5349</ele>
        <time>2013-04-28T11:14:38Z</time>
      </trkpt>
      <trkpt lat="59.9743812" lon="17.8436959">
        <ele>26.0929</ele>
        <time>2013-04-28T11:14:39Z</time>
      </trkpt>
      <trkpt lat="59.9743165" lon="17.8436727">
        <ele>25.6123</ele>
        <time>2013-04-28T11:14:40Z</time>
      </trkpt>
      <trkpt lat="59.9742495" lon="17.8436432">
        <ele>26.0929</ele>
        <time>2013-04-28T11:14:41Z</time>
      </trkpt>
      <trkpt lat="59.9741833" lon="17.8436103">
        <ele>26.5736</ele>
        <time>2013-04-28T11:14:42Z</time>
      </trkpt>
      <trkpt lat="59.9741173" lon="17.843579">
        <ele>27.0543</ele>
        <time>2013-04-28T11:14:43Z</time>
      </trkpt>
      <trkpt lat="59.9740512" lon="17.8435478">
        <ele>27.0543</ele>
        <time>2013-04-28T11:14:44Z</time>
      </trkpt>
      <trkpt lat="59.9739844" lon="17.8435132">
        <ele>27.0543</ele>
        <time>2013-04-28T11:14:45Z</time>
      </trkpt>
      <trkpt lat="59.9739177" lon="17.8434764">
        <ele>27.0543</ele>
        <time>2013-04-28T11:14:46Z</time>
      </trkpt>
      <trkpt lat="59.9738497" lon="17.8434316">
        <ele>27.5349</ele>
        <time>2013-04-28T11:14:47Z</time>
      </trkpt>
      <trkpt lat="59.973782" lon="17.84338">
        <ele>27.5349</ele>
        <time>2013-04-28T11:14:48Z</time>
      </trkpt>
      <trkpt lat="59.9737166" lon="17.8433215">
        <ele>28.0155</ele>
        <time>2013-04-28T11:14:49Z</time>
      </trkpt>
      <trkpt lat="59.9736539" lon="17.84326">
        <ele>28.4962</ele>
        <time>2013-04-28T11:14:50Z</time>
      </trkpt>
      <trkpt lat="59.9735936" lon="17.8431951">
        <ele>28.4962</ele>
        <time>2013-04-28T11:14:51Z</time>
      </trkpt>
      <trkpt lat="59.9735363" lon="17.8431324">
        <ele>28.0155</ele>
        <time>2013-04-28T11:14:52Z</time>
      </trkpt>
      <trkpt lat="59.9734805" lon="17.8430695">
        <ele>28.4962</ele>
        <time>2013-04-28T11:14:53Z</time>
      </trkpt>
      <trkpt lat="59.9734259" lon="17.8430086">
        <ele>28.4962</ele>
        <time>2013-04-28T11:14:54Z</time>
      </trkpt>
      <trkpt lat="59.9733727" lon="17.8429502">
        <ele>28.9769</ele>
        <time>2013-04-28T11:14:55Z</time>
      </trkpt>
      <trkpt lat="59.9733207" lon="17.8428921">
        <ele>28.9769</ele>
        <time>2013-04-28T11:14:56Z</time>
      </trkpt>
      <trkpt lat="59.9732696" lon="17.8428335">
        <ele>28.9769</ele>
        <time>2013-04-28T11:14:57Z</time>
      </trkpt>
      <trkpt lat="59.9732189" lon="17.8427758">
        <ele>28.9769</ele>
        <time>2013-04-28T11:14:58Z</time>
      </trkpt>
      <trkpt lat="59.9731691" lon="17.8427216">
        <ele>28.9769</ele>
        <time>2013-04-28T11:14:59Z</time>
      </trkpt>
      <trkpt lat="59.9731188" lon="17.8426637">
        <ele>28.9769</ele>
        <time>2013-04-28T11:15:00Z</time>
      </trkpt>
      <trkpt lat="59.9730687" lon="17.8426062">
        <ele>28.9769</ele>
        <time>2013-04-28T11:15:01Z</time>
      </trkpt>
      <trkpt lat="59.9730194" lon="17.8425529">
        <ele>29.4575</ele>
        <time>2013-04-28T11:15:02Z</time>
      </trkpt>
      <trkpt lat="59.9729695" lon="17.8424954">
        <ele>29.4575</ele>
        <time>2013-04-28T11:15:03Z</time>
      </trkpt>
      <trkpt lat="59.9729197" lon="17.8424393">
        <ele>29.4575</ele>
        <time>2013-04-28T11:15:04Z</time>
      </trkpt>
      <trkpt lat="59.9728689" lon="17.8423839">
        <ele>29.4575</ele>
        <time>2013-04-28T11:15:05Z</time>
      </trkpt>
      <trkpt lat="59.9728169" lon="17.8423296">
        <ele>28.9769</ele>
        <time>2013-04-28T11:15:06Z</time>
      </trkpt>
      <trkpt lat="59.9727641" lon="17.8422736">
        <ele>28.4962</ele>
        <time>2013-04-28T11:15:07Z</time>
      </trkpt>
      <trkpt lat="59.9727109" lon="17.8422135">
        <ele>28.4962</ele>
        <time>2013-04-28T11:15:08Z</time>
      </trkpt>
      <trkpt lat="59.9726573" lon="17.8421518">
        <ele>28.4962</ele>
        <time>2013-04-28T11:15:09Z</time>
      </trkpt>
      <trkpt lat="59.9726044" lon="17.8420884">
        <ele>28.4962</ele>
        <time>2013-04-28T11:15:10Z</time>
      </trkpt>
      <trkpt lat="59.9725514" lon="17.8420228">
        <ele>28.4962</ele>
        <time>2013-04-28T11:15:11Z</time>
      </trkpt>
      <trkpt lat="59.9724984" lon="17.8419522">
        <ele>28.4962</ele>
        <time>2013-04-28T11:15:12Z</time>
      </trkpt>
      <trkpt lat="59.972447" lon="17.8418774">
        <ele>28.4962</ele>
        <time>2013-04-28T11:15:13Z</time>
      </trkpt>
      <trkpt lat="59.9723966" lon="17.8418035">
        <ele>28.0155</ele>
        <time>2013-04-28T11:15:14Z</time>
      </trkpt>
      <trkpt lat="59.9723459" lon="17.8417292">
        <ele>28.0155</ele>
        <time>2013-04-28T11:15:15Z</time>
      </trkpt>
      <trkpt lat="59.9722947" lon="17.8416552">
        <ele>28.0155</ele>
        <time>2013-04-28T11:15:16Z</time>
      </trkpt>
      <trkpt lat="59.9722429" lon="17.841582">
        <ele>28.0155</ele>
        <time>2013-04-28T11:15:17Z</time>
      </trkpt>
      <trkpt lat="59.9721904" lon="17.8415101">
        <ele>28.0155</ele>
        <time>2013-04-28T11:15:18Z</time>
      </trkpt>
      <trkpt lat="59.9721366" lon="17.8414397">
        <ele>28.0155</ele>
        <time>2013-04-28T11:15:19Z</time>
      </trkpt>
      <trkpt lat="59.9720818" lon="17.8413707">
        <ele>28.0155</ele>
        <time>2013-04-28T11:15:20Z</time>
      </trkpt>
      <trkpt lat="59.9720258" lon="17.8413033">
        <ele>28.0155</ele>
        <time>2013-04-28T11:15:21Z</time>
      </trkpt>
      <trkpt lat="59.9719697" lon="17.8412374">
        <ele>27.5349</ele>
        <time>2013-04-28T11:15:22Z</time>
      </trkpt>
      <trkpt lat="59.9719134" lon="17.8411732">
        <ele>27.5349</ele>
        <time>2013-04-28T11:15:23Z</time>
      </trkpt>
      <trkpt lat="59.9718563" lon="17.8411144">
        <ele>27.0543</ele>
        <time>2013-04-28T11:15:24Z</time>
      </trkpt>
      <trkpt lat="59.9717979" lon="17.8410588">
        <ele>27.0543</ele>
        <time>2013-04-28T11:15:25Z</time>
      </trkpt>
      <trkpt lat="59.9717369" lon="17.8410049">
        <ele>26.5736</ele>
        <time>2013-04-28T11:15:26Z</time>
      </trkpt>
      <trkpt lat="59.9716739" lon="17.8409589">
        <ele>26.5736</ele>
        <time>2013-04-28T11:15:27Z</time>
      </trkpt>
      <trkpt lat="59.9716083" lon="17.8409225">
        <ele>26.5736</ele>
        <time>2013-04-28T11:15:28Z</time>
      </trkpt>
      <trkpt lat="59.9715403" lon="17.840892">
        <ele>26.0929</ele>
        <time>2013-04-28T11:15:29Z</time>
      </trkpt>
      <trkpt lat="59.9714699" lon="17.8408636">
        <ele>26.0929</ele>
        <time>2013-04-28T11:15:30Z</time>
      </trkpt>
      <trkpt lat="59.9713986" lon="17.8408375">
        <ele>25.1317</ele>
        <time>2013-04-28T11:15:31Z</time>
      </trkpt>
      <trkpt lat="59.971328" lon="17.8408154">
        <ele>24.651</ele>
        <time>2013-04-28T11:15:32Z</time>
      </trkpt>
      <trkpt lat="59.9712581" lon="17.8407998">
        <ele>24.1703</ele>
        <time>2013-04-28T11:15:33Z</time>
      </trkpt>
      <trkpt lat="59.9711871" lon="17.8407879">
        <ele>25.1317</ele>
        <time>2013-04-28T11:15:34Z</time>
      </trkpt>
      <trkpt lat="59.9711157" lon="17.840776">
        <ele>25.1317</ele>
        <time>2013-04-28T11:15:35Z</time>
      </trkpt>
      <trkpt lat="59.9710452" lon="17.8407644">
        <ele>25.6123</ele>
        <time>2013-04-28T11:15:36Z</time>
      </trkpt>
      <trkpt lat="59.9709766" lon="17.8407515">
        <ele>25.6123</ele>
        <time>2013-04-28T11:15:37Z</time>
      </trkpt>
      <trkpt lat="59.9709099" lon="17.8407382">
        <ele>26.0929</ele>
        <time>2013-04-28T11:15:38Z</time>
      </trkpt>
      <trkpt lat="59.9708459" lon="17.8407285">
        <ele>26.0929</ele>
        <time>2013-04-28T11:15:39Z</time>
      </trkpt>
      <trkpt lat="59.9707832" lon="17.840718">
        <ele>26.0929</ele>
        <time>2013-04-28T11:15:40Z</time>
      </trkpt>
      <trkpt lat="59.9707205" lon="17.8407075">
        <ele>26.0929</ele>
        <time>2013-04-28T11:15:41Z</time>
      </trkpt>
      <trkpt lat="59.9706582" lon="17.8406993">
        <ele>26.0929</ele>
        <time>2013-04-28T11:15:42Z</time>
      </trkpt>
      <trkpt lat="59.9705961" lon="17.8406908">
        <ele>26.5736</ele>
        <time>2013-04-28T11:15:43Z</time>
      </trkpt>
      <trkpt lat="59.9705236" lon="17.8406827">
        <ele>27.0543</ele>
        <time>2013-04-28T11:15:44Z</time>
      </trkpt>
      <trkpt lat="59.9704552" lon="17.8406761">
        <ele>26.5736</ele>
        <time>2013-04-28T11:15:45Z</time>
      </trkpt>
      <trkpt lat="59.9703904" lon="17.8406694">
        <ele>26.0929</ele>
        <time>2013-04-28T11:15:46Z</time>
      </trkpt>
      <trkpt lat="59.9703245" lon="17.8406589">
        <ele>25.6123</ele>
        <time>2013-04-28T11:15:47Z</time>
      </trkpt>
      <trkpt lat="59.9702572" lon="17.8406471">
        <ele>25.1317</ele>
        <time>2013-04-28T11:15:48Z</time>
      </trkpt>
      <trkpt lat="59.9701894" lon="17.8406304">
        <ele>25.1317</ele>
        <time>2013-04-28T11:15:49Z</time>
      </trkpt>
      <trkpt lat="59.9701222" lon="17.8406132">
        <ele>24.651</ele>
        <time>2013-04-28T11:15:50Z</time>
      </trkpt>
      <trkpt lat="59.9700564" lon="17.8406">
        <ele>24.651</ele>
        <time>2013-04-28T11:15:51Z</time>
      </trkpt>
      <trkpt lat="59.9699906" lon="17.840589">
        <ele>24.1703</ele>
        <time>2013-04-28T11:15:52Z</time>
      </trkpt>
      <trkpt lat="59.9699244" lon="17.8405777">
        <ele>23.6896</ele>
        <time>2013-04-28T11:15:53Z</time>
      </trkpt>
      <trkpt lat="59.969858" lon="17.8405683">
        <ele>23.209</ele>
        <time>2013-04-28T11:15:54Z</time>
      </trkpt>
      <trkpt lat="59.9697906" lon="17.8405528">
        <ele>23.6896</ele>
        <time>2013-04-28T11:15:55Z</time>
      </trkpt>
      <trkpt lat="59.9697241" lon="17.8405408">
        <ele>23.209</ele>
        <time>2013-04-28T11:15:56Z</time>
      </trkpt>
      <trkpt lat="59.9696585" lon="17.8405289">
        <ele>23.209</ele>
        <time>2013-04-28T11:15:57Z</time>
      </trkpt>
      <trkpt lat="59.9695941" lon="17.8405174">
        <ele>22.7283</ele>
        <time>2013-04-28T11:15:58Z</time>
      </trkpt>
      <trkpt lat="59.9695301" lon="17.8405028">
        <ele>23.209</ele>
        <time>2013-04-28T11:15:59Z</time>
      </trkpt>
      <trkpt lat="59.9694679" lon="17.8404885">
        <ele>22.7283</ele>
        <time>2013-04-28T11:16:00Z</time>
      </trkpt>
      <trkpt lat="59.9694066" lon="17.8404704">
        <ele>23.209</ele>
        <time>2013-04-28T11:16:01Z</time>
      </trkpt>
      <trkpt lat="59.9693454" lon="17.8404492">
        <ele>22.7283</ele>
        <time>2013-04-28T11:16:02Z</time>
      </trkpt>
      <trkpt lat="59.9692828" lon="17.8404272">
        <ele>22.7283</ele>
        <time>2013-04-28T11:16:03Z</time>
      </trkpt>
      <trkpt lat="59.9692175" lon="17.8404019">
        <ele>22.7283</ele>
        <time>2013-04-28T11:16:04Z</time>
      </trkpt>
      <trkpt lat="59.9691498" lon="17.8403719">
        <ele>22.2476</ele>
        <time>2013-04-28T11:16:05Z</time>
      </trkpt>
      <trkpt lat="59.9690802" lon="17.8403389">
        <ele>21.767</ele>
        <time>2013-04-28T11:16:06Z</time>
      </trkpt>
      <trkpt lat="59.9690088" lon="17.8403035">
        <ele>21.2864</ele>
        <time>2013-04-28T11:16:07Z</time>
      </trkpt>
      <trkpt lat="59.9689357" lon="17.8402637">
        <ele>21.2864</ele>
        <time>2013-04-28T11:16:08Z</time>
      </trkpt>
      <trkpt lat="59.9688618" lon="17.840225">
        <ele>21.2864</ele>
        <time>2013-04-28T11:16:09Z</time>
      </trkpt>
      <trkpt lat="59.9687878" lon="17.8401881">
        <ele>20.8057</ele>
        <time>2013-04-28T11:16:10Z</time>
      </trkpt>
      <trkpt lat="59.9687141" lon="17.8401485">
        <ele>20.325</ele>
        <time>2013-04-28T11:16:11Z</time>
      </trkpt>
      <trkpt lat="59.9686409" lon="17.8401053">
        <ele>20.325</ele>
        <time>2013-04-28T11:16:12Z</time>
      </trkpt>
      <trkpt lat="59.9685677" lon="17.8400604">
        <ele>19.8444</ele>
        <time>2013-04-28T11:16:13Z</time>
      </trkpt>
      <trkpt lat="59.9684952" lon="17.8400187">
        <ele>19.8444</ele>
        <time>2013-04-28T11:16:14Z</time>
      </trkpt>
      <trkpt lat="59.968424" lon="17.8399799">
        <ele>19.8444</ele>
        <time>2013-04-28T11:16:15Z</time>
      </trkpt>
      <trkpt lat="59.9683545" lon="17.8399403">
        <ele>19.8444</ele>
        <time>2013-04-28T11:16:16Z</time>
      </trkpt>
      <trkpt lat="59.9682871" lon="17.8399002">
        <ele>20.325</ele>
        <time>2013-04-28T11:16:17Z</time>
      </trkpt>
      <trkpt lat="59.9682213" lon="17.8398632">
        <ele>20.8057</ele>
        <time>2013-04-28T11:16:18Z</time>
      </trkpt>
      <trkpt lat="59.9681566" lon="17.8398263">
        <ele>21.2864</ele>
        <time>2013-04-28T11:16:19Z</time>
      </trkpt>
      <trkpt lat="59.9680929" lon="17.8397891">
        <ele>21.767</ele>
        <time>2013-04-28T11:16:20Z</time>
      </trkpt>
      <trkpt lat="59.9680288" lon="17.8397538">
        <ele>22.7283</ele>
        <time>2013-04-28T11:16:21Z</time>
      </trkpt>
      <trkpt lat="59.9679652" lon="17.8397177">
        <ele>23.209</ele>
        <time>2013-04-28T11:16:22Z</time>
      </trkpt>
      <trkpt lat="59.9679019" lon="17.8396814">
        <ele>23.6896</ele>
        <time>2013-04-28T11:16:23Z</time>
      </trkpt>
      <trkpt lat="59.9678381" lon="17.8396429">
        <ele>24.1703</ele>
        <time>2013-04-28T11:16:24Z</time>
      </trkpt>
      <trkpt lat="59.9677741" lon="17.8396048">
        <ele>24.1703</ele>
        <time>2013-04-28T11:16:25Z</time>
      </trkpt>
      <trkpt lat="59.9677125" lon="17.8395696">
        <ele>24.651</ele>
        <time>2013-04-28T11:16:26Z</time>
      </trkpt>
      <trkpt lat="59.9676542" lon="17.8395337">
        <ele>24.651</ele>
        <time>2013-04-28T11:16:27Z</time>
      </trkpt>
      <trkpt lat="59.9675963" lon="17.839496">
        <ele>24.651</ele>
        <time>2013-04-28T11:16:28Z</time>
      </trkpt>
      <trkpt lat="59.9675383" lon="17.8394595">
        <ele>24.651</ele>
        <time>2013-04-28T11:16:29Z</time>
      </trkpt>
      <trkpt lat="59.9674781" lon="17.839424">
        <ele>24.1703</ele>
        <time>2013-04-28T11:16:30Z</time>
      </trkpt>
      <trkpt lat="59.9674159" lon="17.8393856">
        <ele>24.1703</ele>
        <time>2013-04-28T11:16:31Z</time>
      </trkpt>
      <trkpt lat="59.9673514" lon="17.8393469">
        <ele>23.6896</ele>
        <time>2013-04-28T11:16:32Z</time>
      </trkpt>
      <trkpt lat="59.9672866" lon="17.8393114">
        <ele>23.6896</ele>
        <time>2013-04-28T11:16:33Z</time>
      </trkpt>
      <trkpt lat="59.9672197" lon="17.8392752">
        <ele>23.209</ele>
        <time>2013-04-28T11:16:34Z</time>
      </trkpt>
      <trkpt lat="59.9671503" lon="17.8392401">
        <ele>23.6896</ele>
        <time>2013-04-28T11:16:35Z</time>
      </trkpt>
      <trkpt lat="59.9670802" lon="17.8392053">
        <ele>23.209</ele>
        <time>2013-04-28T11:16:36Z</time>
      </trkpt>
      <trkpt lat="59.9670073" lon="17.8391707">
        <ele>22.7283</ele>
        <time>2013-04-28T11:16:37Z</time>
      </trkpt>
      <trkpt lat="59.9669306" lon="17.8391405">
        <ele>22.2476</ele>
        <time>2013-04-28T11:16:38Z</time>
      </trkpt>
      <trkpt lat="59.9668518" lon="17.8391126">
        <ele>21.767</ele>
        <time>2013-04-28T11:16:39Z</time>
      </trkpt>
      <trkpt lat="59.9667706" lon="17.8390895">
        <ele>21.2864</ele>
        <time>2013-04-28T11:16:40Z</time>
      </trkpt>
      <trkpt lat="59.9666884" lon="17.8390684">
        <ele>20.8057</ele>
        <time>2013-04-28T11:16:41Z</time>
      </trkpt>
      <trkpt lat="59.9666054" lon="17.8390459">
        <ele>21.2864</ele>
        <time>2013-04-28T11:16:42Z</time>
      </trkpt>
      <trkpt lat="59.9665239" lon="17.8390276">
        <ele>20.8057</ele>
        <time>2013-04-28T11:16:43Z</time>
      </trkpt>
      <trkpt lat="59.9664427" lon="17.8390083">
        <ele>20.325</ele>
        <time>2013-04-28T11:16:44Z</time>
      </trkpt>
      <trkpt lat="59.9663629" lon="17.838992">
        <ele>20.325</ele>
        <time>2013-04-28T11:16:45Z</time>
      </trkpt>
      <trkpt lat="59.9662837" lon="17.8389774">
        <ele>19.8444</ele>
        <time>2013-04-28T11:16:46Z</time>
      </trkpt>
      <trkpt lat="59.9662058" lon="17.8389617">
        <ele>19.8444</ele>
        <time>2013-04-28T11:16:47Z</time>
      </trkpt>
      <trkpt lat="59.9661284" lon="17.838946">
        <ele>19.8444</ele>
        <time>2013-04-28T11:16:48Z</time>
      </trkpt>
      <trkpt lat="59.9660515" lon="17.8389303">
        <ele>19.8444</ele>
        <time>2013-04-28T11:16:49Z</time>
      </trkpt>
      <trkpt lat="59.965975" lon="17.8389158">
        <ele>19.8444</ele>
        <time>2013-04-28T11:16:50Z</time>
      </trkpt>
      <trkpt lat="59.9658984" lon="17.8389032">
        <ele>19.8444</ele>
        <time>2013-04-28T11:16:51Z</time>
      </trkpt>
      <trkpt lat="59.9658224" lon="17.8388883">
        <ele>19.8444</ele>
        <time>2013-04-28T11:16:52Z</time>
      </trkpt>
      <trkpt lat="59.965746" lon="17.8388722">
        <ele>19.8444</ele>
        <time>2013-04-28T11:16:53Z</time>
      </trkpt>
      <trkpt lat="59.9656692" lon="17.8388581">
        <ele>19.8444</ele>
        <time>2013-04-28T11:16:54Z</time>
      </trkpt>
      <trkpt lat="59.9655916" lon="17.8388453">
        <ele>19.8444</ele>
        <time>2013-04-28T11:16:55Z</time>
      </trkpt>
      <trkpt lat="59.9655135" lon="17.8388328">
        <ele>19.8444</ele>
        <time>2013-04-28T11:16:56Z</time>
      </trkpt>
      <trkpt lat="59.9654358" lon="17.8388196">
        <ele>19.8444</ele>
        <time>2013-04-28T11:16:57Z</time>
      </trkpt>
      <trkpt lat="59.9653585" lon="17.8388044">
        <ele>19.3638</ele>
        <time>2013-04-28T11:16:58Z</time>
      </trkpt>
      <trkpt lat="59.9652816" lon="17.8387894">
        <ele>19.3638</ele>
        <time>2013-04-28T11:16:59Z</time>
      </trkpt>
      <trkpt lat="59.965205" lon="17.8387769">
        <ele>19.3638</ele>
        <time>2013-04-28T11:17:00Z</time>
      </trkpt>
      <trkpt lat="59.9651297" lon="17.8387654">
        <ele>19.3638</ele>
        <time>2013-04-28T11:17:01Z</time>
      </trkpt>
      <trkpt lat="59.9650555" lon="17.8387515">
        <ele>19.3638</ele>
        <time>2013-04-28T11:17:02Z</time>
      </trkpt>
      <trkpt lat="59.9649808" lon="17.8387348">
        <ele>19.3638</ele>
        <time>2013-04-28T11:17:03Z</time>
      </trkpt>
      <trkpt lat="59.9649058" lon="17.8387195">
        <ele>19.3638</ele>
        <time>2013-04-28T11:17:04Z</time>
      </trkpt>
      <trkpt lat="59.96483" lon="17.8387056">
        <ele>19.3638</ele>
        <time>2013-04-28T11:17:05Z</time>
      </trkpt>
      <trkpt lat="59.9647538" lon="17.838691">
        <ele>19.3638</ele>
        <time>2013-04-28T11:17:06Z</time>
      </trkpt>
      <trkpt lat="59.9646779" lon="17.8386782">
        <ele>19.3638</ele>
        <time>2013-04-28T11:17:07Z</time>
      </trkpt>
      <trkpt lat="59.9646022" lon="17.838665">
        <ele>19.8444</ele>
        <time>2013-04-28T11:17:08Z</time>
      </trkpt>
      <trkpt lat="59.9645281" lon="17.8386518">
        <ele>20.325</ele>
        <time>2013-04-28T11:17:09Z</time>
      </trkpt>
      <trkpt lat="59.9644557" lon="17.8386377">
        <ele>20.325</ele>
        <time>2013-04-28T11:17:10Z</time>
      </trkpt>
      <trkpt lat="59.9643826" lon="17.8386229">
        <ele>20.325</ele>
        <time>2013-04-28T11:17:11Z</time>
      </trkpt>
      <trkpt lat="59.9643075" lon="17.8386118">
        <ele>20.325</ele>
        <time>2013-04-28T11:17:12Z</time>
      </trkpt>
      <trkpt lat="59.9642325" lon="17.8385989">
        <ele>20.325</ele>
        <time>2013-04-28T11:17:13Z</time>
      </trkpt>
      <trkpt lat="59.9641602" lon="17.8385834">
        <ele>20.325</ele>
        <time>2013-04-28T11:17:14Z</time>
      </trkpt>
      <trkpt lat="59.9640909" lon="17.8385644">
        <ele>20.325</ele>
        <time>2013-04-28T11:17:15Z</time>
      </trkpt>
      <trkpt lat="59.96402" lon="17.8385492">
        <ele>20.325</ele>
        <time>2013-04-28T11:17:16Z</time>
      </trkpt>
      <trkpt lat="59.9639483" lon="17.8385385">
        <ele>20.325</ele>
        <time>2013-04-28T11:17:17Z</time>
      </trkpt>
      <trkpt lat="59.963879" lon="17.8385223">
        <ele>20.325</ele>
        <time>2013-04-28T11:17:18Z</time>
      </trkpt>
      <trkpt lat="59.9638081" lon="17.83851">
        <ele>19.8444</ele>
        <time>2013-04-28T11:17:19Z</time>
      </trkpt>
      <trkpt lat="59.9637382" lon="17.8384994">
        <ele>19.8444</ele>
        <time>2013-04-28T11:17:20Z</time>
      </trkpt>
      <trkpt lat="59.9636694" lon="17.8384864">
        <ele>19.8444</ele>
        <time>2013-04-28T11:17:21Z</time>
      </trkpt>
      <trkpt lat="59.9636033" lon="17.8384684">
        <ele>19.8444</ele>
        <time>2013-04-28T11:17:22Z</time>
      </trkpt>
      <trkpt lat="59.9635359" lon="17.8384522">
        <ele>20.325</ele>
        <time>2013-04-28T11:17:23Z</time>
      </trkpt>
      <trkpt lat="59.9634663" lon="17.8384422">
        <ele>20.8057</ele>
        <time>2013-04-28T11:17:24Z</time>
      </trkpt>
      <trkpt lat="59.9633956" lon="17.8384336">
        <ele>20.8057</ele>
        <time>2013-04-28T11:17:25Z</time>
      </trkpt>
      <trkpt lat="59.9633253" lon="17.838421">
        <ele>20.8057</ele>
        <time>2013-04-28T11:17:26Z</time>
      </trkpt>
      <trkpt lat="59.9632555" lon="17.8384091">
        <ele>20.325</ele>
        <time>2013-04-28T11:17:27Z</time>
      </trkpt>
      <trkpt lat="59.963186" lon="17.8383916">
        <ele>21.2864</ele>
        <time>2013-04-28T11:17:28Z</time>
      </trkpt>
      <trkpt lat="59.9631167" lon="17.8383779">
        <ele>21.767</ele>
        <time>2013-04-28T11:17:29Z</time>
      </trkpt>
      <trkpt lat="59.9630504" lon="17.8383605">
        <ele>21.2864</ele>
        <time>2013-04-28T11:17:30Z</time>
      </trkpt>
      <trkpt lat="59.9629835" lon="17.8383388">
        <ele>21.767</ele>
        <time>2013-04-28T11:17:31Z</time>
      </trkpt>
      <trkpt lat="59.9629161" lon="17.8383106">
        <ele>21.767</ele>
        <time>2013-04-28T11:17:32Z</time>
      </trkpt>
      <trkpt lat="59.9628466" lon="17.8382849">
        <ele>21.767</ele>
        <time>2013-04-28T11:17:33Z</time>
      </trkpt>
      <trkpt lat="59.9627769" lon="17.8382576">
        <ele>22.2476</ele>
        <time>2013-04-28T11:17:34Z</time>
      </trkpt>
      <trkpt lat="59.962708" lon="17.8382253">
        <ele>22.2476</ele>
        <time>2013-04-28T11:17:35Z</time>
      </trkpt>
      <trkpt lat="59.9626399" lon="17.8381868">
        <ele>22.2476</ele>
        <time>2013-04-28T11:17:36Z</time>
      </trkpt>
      <trkpt lat="59.9625693" lon="17.8381445">
        <ele>22.2476</ele>
        <time>2013-04-28T11:17:37Z</time>
      </trkpt>
      <trkpt lat="59.9625004" lon="17.8381001">
        <ele>21.2864</ele>
        <time>2013-04-28T11:17:38Z</time>
      </trkpt>
      <trkpt lat="59.9624338" lon="17.8380449">
        <ele>21.2864</ele>
        <time>2013-04-28T11:17:39Z</time>
      </trkpt>
      <trkpt lat="59.9623689" lon="17.8379824">
        <ele>21.2864</ele>
        <time>2013-04-28T11:17:40Z</time>
      </trkpt>
      <trkpt lat="59.9623052" lon="17.8379192">
        <ele>21.2864</ele>
        <time>2013-04-28T11:17:41Z</time>
      </trkpt>
      <trkpt lat="59.9622418" lon="17.8378575">
        <ele>21.2864</ele>
        <time>2013-04-28T11:17:42Z</time>
      </trkpt>
      <trkpt lat="59.9621786" lon="17.8378006">
        <ele>21.767</ele>
        <time>2013-04-28T11:17:43Z</time>
      </trkpt>
      <trkpt lat="59.9621158" lon="17.8377463">
        <ele>22.7283</ele>
        <time>2013-04-28T11:17:44Z</time>
      </trkpt>
      <trkpt lat="59.9620541" lon="17.8376897">
        <ele>23.209</ele>
        <time>2013-04-28T11:17:45Z</time>
      </trkpt>
      <trkpt lat="59.9619936" lon="17.8376353">
        <ele>23.6896</ele>
        <time>2013-04-28T11:17:46Z</time>
      </trkpt>
      <trkpt lat="59.9619334" lon="17.837583">
        <ele>24.1703</ele>
        <time>2013-04-28T11:17:47Z</time>
      </trkpt>
      <trkpt lat="59.9618742" lon="17.8375312">
        <ele>24.651</ele>
        <time>2013-04-28T11:17:48Z</time>
      </trkpt>
      <trkpt lat="59.9618169" lon="17.8374788">
        <ele>25.1317</ele>
        <time>2013-04-28T11:17:49Z</time>
      </trkpt>
      <trkpt lat="59.9617613" lon="17.8374277">
        <ele>25.6123</ele>
        <time>2013-04-28T11:17:50Z</time>
      </trkpt>
      <trkpt lat="59.9617065" lon="17.8373769">
        <ele>25.6123</ele>
        <time>2013-04-28T11:17:51Z</time>
      </trkpt>
      <trkpt lat="59.9616525" lon="17.8373264">
        <ele>26.0929</ele>
        <time>2013-04-28T11:17:52Z</time>
      </trkpt>
      <trkpt lat="59.9615976" lon="17.8372772">
        <ele>26.5736</ele>
        <time>2013-04-28T11:17:53Z</time>
      </trkpt>
      <trkpt lat="59.9615418" lon="17.8372251">
        <ele>27.0543</ele>
        <time>2013-04-28T11:17:54Z</time>
      </trkpt>
      <trkpt lat="59.9614854" lon="17.8371743">
        <ele>27.0543</ele>
        <time>2013-04-28T11:17:55Z</time>
      </trkpt>
      <trkpt lat="59.9614279" lon="17.8371235">
        <ele>27.0543</ele>
        <time>2013-04-28T11:17:56Z</time>
      </trkpt>
      <trkpt lat="59.9613692" lon="17.837068">
        <ele>27.0543</ele>
        <time>2013-04-28T11:17:57Z</time>
      </trkpt>
      <trkpt lat="59.9613082" lon="17.8370158">
        <ele>26.5736</ele>
        <time>2013-04-28T11:17:58Z</time>
      </trkpt>
      <trkpt lat="59.9612467" lon="17.836965">
        <ele>26.5736</ele>
        <time>2013-04-28T11:17:59Z</time>
      </trkpt>
      <trkpt lat="59.961186" lon="17.8369136">
        <ele>26.0929</ele>
        <time>2013-04-28T11:18:00Z</time>
      </trkpt>
      <trkpt lat="59.9611232" lon="17.8368671">
        <ele>26.0929</ele>
        <time>2013-04-28T11:18:01Z</time>
      </trkpt>
      <trkpt lat="59.961059" lon="17.8368265">
        <ele>25.6123</ele>
        <time>2013-04-28T11:18:02Z</time>
      </trkpt>
      <trkpt lat="59.960998" lon="17.8367888">
        <ele>25.6123</ele>
        <time>2013-04-28T11:18:03Z</time>
      </trkpt>
      <trkpt lat="59.9609377" lon="17.8367522">
        <ele>25.6123</ele>
        <time>2013-04-28T11:18:04Z</time>
      </trkpt>
      <trkpt lat="59.9608751" lon="17.8367183">
        <ele>25.6123</ele>
        <time>2013-04-28T11:18:05Z</time>
      </trkpt>
      <trkpt lat="59.9608123" lon="17.8366866">
        <ele>25.1317</ele>
        <time>2013-04-28T11:18:06Z</time>
      </trkpt>
      <trkpt lat="59.9607489" lon="17.8366521">
        <ele>24.651</ele>
        <time>2013-04-28T11:18:07Z</time>
      </trkpt>
      <trkpt lat="59.96069" lon="17.8366222">
        <ele>24.1703</ele>
        <time>2013-04-28T11:18:08Z</time>
      </trkpt>
      <trkpt lat="59.9606368" lon="17.8366056">
        <ele>24.1703</ele>
        <time>2013-04-28T11:18:09Z</time>
      </trkpt>
      <trkpt lat="59.9605791" lon="17.8366004">
        <ele>23.6896</ele>
        <time>2013-04-28T11:18:10Z</time>
      </trkpt>
      <trkpt lat="59.9605135" lon="17.8366004">
        <ele>22.7283</ele>
        <time>2013-04-28T11:18:11Z</time>
      </trkpt>
      <trkpt lat="59.9604445" lon="17.8365946">
        <ele>22.2476</ele>
        <time>2013-04-28T11:18:12Z</time>
      </trkpt>
      <trkpt lat="59.9603735" lon="17.8365795">
        <ele>21.767</ele>
        <time>2013-04-28T11:18:13Z</time>
      </trkpt>
      <trkpt lat="59.9603017" lon="17.8365614">
        <ele>21.2864</ele>
        <time>2013-04-28T11:18:14Z</time>
      </trkpt>
      <trkpt lat="59.9602318" lon="17.8365431">
        <ele>20.8057</ele>
        <time>2013-04-28T11:18:15Z</time>
      </trkpt>
      <trkpt lat="59.9601606" lon="17.8365268">
        <ele>20.325</ele>
        <time>2013-04-28T11:18:16Z</time>
      </trkpt>
      <trkpt lat="59.960091" lon="17.8365107">
        <ele>19.8444</ele>
        <time>2013-04-28T11:18:17Z</time>
      </trkpt>
      <trkpt lat="59.9600219" lon="17.8364965">
        <ele>18.8831</ele>
        <time>2013-04-28T11:18:18Z</time>
      </trkpt>
      <trkpt lat="59.9599549" lon="17.8364811">
        <ele>18.4023</ele>
        <time>2013-04-28T11:18:19Z</time>
      </trkpt>
      <trkpt lat="59.9598868" lon="17.8364672">
        <ele>17.9218</ele>
        <time>2013-04-28T11:18:20Z</time>
      </trkpt>
      <trkpt lat="59.9598197" lon="17.8364506">
        <ele>17.9218</ele>
        <time>2013-04-28T11:18:21Z</time>
      </trkpt>
      <trkpt lat="59.9597534" lon="17.836438">
        <ele>17.9218</ele>
        <time>2013-04-28T11:18:22Z</time>
      </trkpt>
      <trkpt lat="59.9596863" lon="17.8364206">
        <ele>18.4023</ele>
        <time>2013-04-28T11:18:23Z</time>
      </trkpt>
      <trkpt lat="59.9596199" lon="17.8364014">
        <ele>18.8831</ele>
        <time>2013-04-28T11:18:24Z</time>
      </trkpt>
      <trkpt lat="59.9595516" lon="17.8363858">
        <ele>19.3638</ele>
        <time>2013-04-28T11:18:25Z</time>
      </trkpt>
      <trkpt lat="59.9594812" lon="17.8363727">
        <ele>19.8444</ele>
        <time>2013-04-28T11:18:26Z</time>
      </trkpt>
      <trkpt lat="59.9594106" lon="17.83636">
        <ele>19.3638</ele>
        <time>2013-04-28T11:18:27Z</time>
      </trkpt>
      <trkpt lat="59.9593408" lon="17.8363473">
        <ele>19.3638</ele>
        <time>2013-04-28T11:18:28Z</time>
      </trkpt>
      <trkpt lat="59.9592751" lon="17.8363324">
        <ele>19.3638</ele>
        <time>2013-04-28T11:18:29Z</time>
      </trkpt>
      <trkpt lat="59.9592061" lon="17.8363236">
        <ele>18.8831</ele>
        <time>2013-04-28T11:18:30Z</time>
      </trkpt>
      <trkpt lat="59.9591358" lon="17.8363154">
        <ele>19.3638</ele>
        <time>2013-04-28T11:18:31Z</time>
      </trkpt>
      <trkpt lat="59.9590677" lon="17.8363067">
        <ele>19.3638</ele>
        <time>2013-04-28T11:18:32Z</time>
      </trkpt>
      <trkpt lat="59.959" lon="17.8362988">
        <ele>19.3638</ele>
        <time>2013-04-28T11:18:33Z</time>
      </trkpt>
      <trkpt lat="59.9589348" lon="17.8362883">
        <ele>19.3638</ele>
        <time>2013-04-28T11:18:34Z</time>
      </trkpt>
      <trkpt lat="59.9588707" lon="17.8362776">
        <ele>19.3638</ele>
        <time>2013-04-28T11:18:35Z</time>
      </trkpt>
      <trkpt lat="59.958807" lon="17.8362678">
        <ele>19.3638</ele>
        <time>2013-04-28T11:18:36Z</time>
      </trkpt>
      <trkpt lat="59.9587435" lon="17.8362582">
        <ele>19.3638</ele>
        <time>2013-04-28T11:18:37Z</time>
      </trkpt>
      <trkpt lat="59.9586807" lon="17.8362477">
        <ele>19.8444</ele>
        <time>2013-04-28T11:18:38Z</time>
      </trkpt>
      <trkpt lat="59.9586181" lon="17.8362375">
        <ele>19.8444</ele>
        <time>2013-04-28T11:18:39Z</time>
      </trkpt>
      <trkpt lat="59.9585572" lon="17.8362274">
        <ele>19.8444</ele>
        <time>2013-04-28T11:18:40Z</time>
      </trkpt>
      <trkpt lat="59.9584976" lon="17.836217">
        <ele>19.8444</ele>
        <time>2013-04-28T11:18:41Z</time>
      </trkpt>
      <trkpt lat="59.9584373" lon="17.8362078">
        <ele>19.3638</ele>
        <time>2013-04-28T11:18:42Z</time>
      </trkpt>
      <trkpt lat="59.958381" lon="17.8361932">
        <ele>19.3638</ele>
        <time>2013-04-28T11:18:43Z</time>
      </trkpt>
      <trkpt lat="59.9583242" lon="17.8361766">
        <ele>20.325</ele>
        <time>2013-04-28T11:18:44Z</time>
      </trkpt>
      <trkpt lat="59.9582663" lon="17.8361651">
        <ele>20.8057</ele>
        <time>2013-04-28T11:18:45Z</time>
      </trkpt>
      <trkpt lat="59.9582083" lon="17.8361558">
        <ele>20.8057</ele>
        <time>2013-04-28T11:18:46Z</time>
      </trkpt>
      <trkpt lat="59.9581515" lon="17.8361441">
        <ele>20.8057</ele>
        <time>2013-04-28T11:18:47Z</time>
      </trkpt>
      <trkpt lat="59.9580938" lon="17.8361342">
        <ele>20.8057</ele>
        <time>2013-04-28T11:18:48Z</time>
      </trkpt>
      <trkpt lat="59.9580364" lon="17.8361233">
        <ele>20.8057</ele>
        <time>2013-04-28T11:18:49Z</time>
      </trkpt>
      <trkpt lat="59.9579795" lon="17.836115">
        <ele>20.325</ele>
        <time>2013-04-28T11:18:50Z</time>
      </trkpt>
      <trkpt lat="59.9579216" lon="17.8361082">
        <ele>20.8057</ele>
        <time>2013-04-28T11:18:51Z</time>
      </trkpt>
      <trkpt lat="59.9578625" lon="17.8360987">
        <ele>20.8057</ele>
        <time>2013-04-28T11:18:52Z</time>
      </trkpt>
      <trkpt lat="59.9578026" lon="17.8360892">
        <ele>21.2864</ele>
        <time>2013-04-28T11:18:53Z</time>
      </trkpt>
      <trkpt lat="59.9577443" lon="17.8360802">
        <ele>21.2864</ele>
        <time>2013-04-28T11:18:54Z</time>
      </trkpt>
      <trkpt lat="59.9576878" lon="17.83607">
        <ele>21.2864</ele>
        <time>2013-04-28T11:18:55Z</time>
      </trkpt>
      <trkpt lat="59.9576327" lon="17.8360631">
        <ele>21.2864</ele>
        <time>2013-04-28T11:18:56Z</time>
      </trkpt>
      <trkpt lat="59.957579" lon="17.8360575">
        <ele>21.2864</ele>
        <time>2013-04-28T11:18:57Z</time>
      </trkpt>
      <trkpt lat="59.9575282" lon="17.8360503">
        <ele>22.2476</ele>
        <time>2013-04-28T11:18:58Z</time>
      </trkpt>
      <trkpt lat="59.9574775" lon="17.8360419">
        <ele>22.2476</ele>
        <time>2013-04-28T11:18:59Z</time>
      </trkpt>
      <trkpt lat="59.9574267" lon="17.8360331">
        <ele>22.7283</ele>
        <time>2013-04-28T11:19:00Z</time>
      </trkpt>
      <trkpt lat="59.9573708" lon="17.8360308">
        <ele>22.7283</ele>
        <time>2013-04-28T11:19:01Z</time>
      </trkpt>
      <trkpt lat="59.9573132" lon="17.8360289">
        <ele>23.209</ele>
        <time>2013-04-28T11:19:02Z</time>
      </trkpt>
      <trkpt lat="59.9572553" lon="17.8360296">
        <ele>23.6896</ele>
        <time>2013-04-28T11:19:03Z</time>
      </trkpt>
      <trkpt lat="59.9571961" lon="17.8360288">
        <ele>23.6896</ele>
        <time>2013-04-28T11:19:04Z</time>
      </trkpt>
      <trkpt lat="59.9571408" lon="17.8360259">
        <ele>23.6896</ele>
        <time>2013-04-28T11:19:05Z</time>
      </trkpt>
      <trkpt lat="59.9570823" lon="17.8360275">
        <ele>24.1703</ele>
        <time>2013-04-28T11:19:06Z</time>
      </trkpt>
      <trkpt lat="59.9570222" lon="17.8360306">
        <ele>24.1703</ele>
        <time>2013-04-28T11:19:07Z</time>
      </trkpt>
      <trkpt lat="59.9569615" lon="17.836033">
        <ele>24.1703</ele>
        <time>2013-04-28T11:19:08Z</time>
      </trkpt>
      <trkpt lat="59.9569011" lon="17.8360367">
        <ele>24.1703</ele>
        <time>2013-04-28T11:19:09Z</time>
      </trkpt>
      <trkpt lat="59.9568407" lon="17.8360453">
        <ele>24.1703</ele>
        <time>2013-04-28T11:19:10Z</time>
      </trkpt>
      <trkpt lat="59.9567796" lon="17.8360555">
        <ele>24.1703</ele>
        <time>2013-04-28T11:19:11Z</time>
      </trkpt>
      <trkpt lat="59.956716" lon="17.8360651">
        <ele>24.651</ele>
        <time>2013-04-28T11:19:12Z</time>
      </trkpt>
      <trkpt lat="59.9566519" lon="17.8360772">
        <ele>24.651</ele>
        <time>2013-04-28T11:19:13Z</time>
      </trkpt>
      <trkpt lat="59.9565881" lon="17.8360896">
        <ele>25.1317</ele>
        <time>2013-04-28T11:19:14Z</time>
      </trkpt>
      <trkpt lat="59.9565237" lon="17.8361035">
        <ele>25.1317</ele>
        <time>2013-04-28T11:19:15Z</time>
      </trkpt>
      <trkpt lat="59.956459" lon="17.836118">
        <ele>25.1317</ele>
        <time>2013-04-28T11:19:16Z</time>
      </trkpt>
      <trkpt lat="59.9563931" lon="17.836133">
        <ele>25.1317</ele>
        <time>2013-04-28T11:19:17Z</time>
      </trkpt>
      <trkpt lat="59.956323" lon="17.8361543">
        <ele>25.1317</ele>
        <time>2013-04-28T11:19:18Z</time>
      </trkpt>
      <trkpt lat="59.9562536" lon="17.8361757">
        <ele>25.1317</ele>
        <time>2013-04-28T11:19:19Z</time>
      </trkpt>
      <trkpt lat="59.9561833" lon="17.8362035">
        <ele>25.1317</ele>
        <time>2013-04-28T11:19:20Z</time>
      </trkpt>
      <trkpt lat="59.9561134" lon="17.8362324">
        <ele>24.651</ele>
        <time>2013-04-28T11:19:21Z</time>
      </trkpt>
      <trkpt lat="59.9560447" lon="17.8362652">
        <ele>24.1703</ele>
        <time>2013-04-28T11:19:22Z</time>
      </trkpt>
      <trkpt lat="59.9559763" lon="17.836305">
        <ele>23.6896</ele>
        <time>2013-04-28T11:19:23Z</time>
      </trkpt>
      <trkpt lat="59.9559085" lon="17.8363473">
        <ele>23.209</ele>
        <time>2013-04-28T11:19:24Z</time>
      </trkpt>
      <trkpt lat="59.9558414" lon="17.8363905">
        <ele>22.7283</ele>
        <time>2013-04-28T11:19:25Z</time>
      </trkpt>
      <trkpt lat="59.9557756" lon="17.8364346">
        <ele>22.2476</ele>
        <time>2013-04-28T11:19:26Z</time>
      </trkpt>
      <trkpt lat="59.9557126" lon="17.8364774">
        <ele>21.767</ele>
        <time>2013-04-28T11:19:27Z</time>
      </trkpt>
      <trkpt lat="59.9556498" lon="17.8365189">
        <ele>21.767</ele>
        <time>2013-04-28T11:19:28Z</time>
      </trkpt>
      <trkpt lat="59.9555866" lon="17.8365604">
        <ele>21.2864</ele>
        <time>2013-04-28T11:19:29Z</time>
      </trkpt>
      <trkpt lat="59.955523" lon="17.836606">
        <ele>20.8057</ele>
        <time>2013-04-28T11:19:30Z</time>
      </trkpt>
      <trkpt lat="59.9554592" lon="17.8366524">
        <ele>21.2864</ele>
        <time>2013-04-28T11:19:31Z</time>
      </trkpt>
      <trkpt lat="59.955395" lon="17.8366992">
        <ele>21.2864</ele>
        <time>2013-04-28T11:19:32Z</time>
      </trkpt>
      <trkpt lat="59.9553304" lon="17.8367463">
        <ele>21.2864</ele>
        <time>2013-04-28T11:19:33Z</time>
      </trkpt>
      <trkpt lat="59.9552659" lon="17.8367939">
        <ele>21.2864</ele>
        <time>2013-04-28T11:19:34Z</time>
      </trkpt>
      <trkpt lat="59.9552015" lon="17.836841">
        <ele>21.2864</ele>
        <time>2013-04-28T11:19:35Z</time>
      </trkpt>
      <trkpt lat="59.9551376" lon="17.8368882">
        <ele>21.767</ele>
        <time>2013-04-28T11:19:36Z</time>
      </trkpt>
      <trkpt lat="59.9550737" lon="17.836936">
        <ele>21.767</ele>
        <time>2013-04-28T11:19:37Z</time>
      </trkpt>
      <trkpt lat="59.9550092" lon="17.8369842">
        <ele>21.767</ele>
        <time>2013-04-28T11:19:38Z</time>
      </trkpt>
      <trkpt lat="59.9549442" lon="17.8370308">
        <ele>22.2476</ele>
        <time>2013-04-28T11:19:39Z</time>
      </trkpt>
      <trkpt lat="59.9548787" lon="17.8370769">
        <ele>22.2476</ele>
        <time>2013-04-28T11:19:40Z</time>
      </trkpt>
      <trkpt lat="59.9548134" lon="17.8371244">
        <ele>22.2476</ele>
        <time>2013-04-28T11:19:41Z</time>
      </trkpt>
      <trkpt lat="59.9547481" lon="17.8371711">
        <ele>22.7283</ele>
        <time>2013-04-28T11:19:42Z</time>
      </trkpt>
      <trkpt lat="59.9546828" lon="17.8372181">
        <ele>22.7283</ele>
        <time>2013-04-28T11:19:43Z</time>
      </trkpt>
      <trkpt lat="59.9546174" lon="17.8372675">
        <ele>23.209</ele>
        <time>2013-04-28T11:19:44Z</time>
      </trkpt>
      <trkpt lat="59.9545519" lon="17.8373179">
        <ele>23.209</ele>
        <time>2013-04-28T11:19:45Z</time>
      </trkpt>
      <trkpt lat="59.954486" lon="17.8373668">
        <ele>23.209</ele>
        <time>2013-04-28T11:19:46Z</time>
      </trkpt>
      <trkpt lat="59.9544197" lon="17.8374139">
        <ele>23.6896</ele>
        <time>2013-04-28T11:19:47Z</time>
      </trkpt>
      <trkpt lat="59.9543538" lon="17.8374607">
        <ele>23.6896</ele>
        <time>2013-04-28T11:19:48Z</time>
      </trkpt>
      <trkpt lat="59.9542876" lon="17.8375084">
        <ele>24.1703</ele>
        <time>2013-04-28T11:19:49Z</time>
      </trkpt>
      <trkpt lat="59.9542219" lon="17.8375571">
        <ele>24.1703</ele>
        <time>2013-04-28T11:19:50Z</time>
      </trkpt>
      <trkpt lat="59.9541563" lon="17.8376063">
        <ele>24.1703</ele>
        <time>2013-04-28T11:19:51Z</time>
      </trkpt>
      <trkpt lat="59.9540903" lon="17.8376564">
        <ele>24.651</ele>
        <time>2013-04-28T11:19:52Z</time>
      </trkpt>
      <trkpt lat="59.9540246" lon="17.8377097">
        <ele>24.1703</ele>
        <time>2013-04-28T11:19:53Z</time>
      </trkpt>
      <trkpt lat="59.9539601" lon="17.8377622">
        <ele>23.6896</ele>
        <time>2013-04-28T11:19:54Z</time>
      </trkpt>
      <trkpt lat="59.9538977" lon="17.837813">
        <ele>23.6896</ele>
        <time>2013-04-28T11:19:55Z</time>
      </trkpt>
      <trkpt lat="59.9538383" lon="17.8378613">
        <ele>23.6896</ele>
        <time>2013-04-28T11:19:56Z</time>
      </trkpt>
      <trkpt lat="59.9537811" lon="17.8379047">
        <ele>23.6896</ele>
        <time>2013-04-28T11:19:57Z</time>
      </trkpt>
      <trkpt lat="59.9537244" lon="17.8379447">
        <ele>23.209</ele>
        <time>2013-04-28T11:19:58Z</time>
      </trkpt>
      <trkpt lat="59.9536685" lon="17.837983">
        <ele>23.209</ele>
        <time>2013-04-28T11:19:59Z</time>
      </trkpt>
      <trkpt lat="59.9536122" lon="17.8380217">
        <ele>23.209</ele>
        <time>2013-04-28T11:20:00Z</time>
      </trkpt>
      <trkpt lat="59.9535556" lon="17.838061">
        <ele>22.7283</ele>
        <time>2013-04-28T11:20:01Z</time>
      </trkpt>
      <trkpt lat="59.9534982" lon="17.8380994">
        <ele>22.7283</ele>
        <time>2013-04-28T11:20:02Z</time>
      </trkpt>
      <trkpt lat="59.9534404" lon="17.8381367">
        <ele>22.7283</ele>
        <time>2013-04-28T11:20:03Z</time>
      </trkpt>
      <trkpt lat="59.9533811" lon="17.8381647">
        <ele>22.7283</ele>
        <time>2013-04-28T11:20:04Z</time>
      </trkpt>
      <trkpt lat="59.9533199" lon="17.8381693">
        <ele>22.7283</ele>
        <time>2013-04-28T11:20:05Z</time>
      </trkpt>
      <trkpt lat="59.9532624" lon="17.8381357">
        <ele>22.7283</ele>
        <time>2013-04-28T11:20:06Z</time>
      </trkpt>
      <trkpt lat="59.9532128" lon="17.8380693">
        <ele>23.209</ele>
        <time>2013-04-28T11:20:07Z</time>
      </trkpt>
      <trkpt lat="59.9531754" lon="17.8379788">
        <ele>23.209</ele>
        <time>2013-04-28T11:20:08Z</time>
      </trkpt>
      <trkpt lat="59.953147" lon="17.8378776">
        <ele>22.7283</ele>
        <time>2013-04-28T11:20:09Z</time>
      </trkpt>
      <trkpt lat="59.9531216" lon="17.837773">
        <ele>22.7283</ele>
        <time>2013-04-28T11:20:10Z</time>
      </trkpt>
      <trkpt lat="59.9530966" lon="17.837669">
        <ele>22.7283</ele>
        <time>2013-04-28T11:20:11Z</time>
      </trkpt>
      <trkpt lat="59.9530725" lon="17.8375658">
        <ele>22.7283</ele>
        <time>2013-04-28T11:20:12Z</time>
      </trkpt>
      <trkpt lat="59.953048" lon="17.8374634">
        <ele>22.7283</ele>
        <time>2013-04-28T11:20:13Z</time>
      </trkpt>
      <trkpt lat="59.9530221" lon="17.8373628">
        <ele>22.7283</ele>
        <time>2013-04-28T11:20:14Z</time>
      </trkpt>
      <trkpt lat="59.9529946" lon="17.8372637">
        <ele>22.7283</ele>
        <time>2013-04-28T11:20:15Z</time>
      </trkpt>
      <trkpt lat="59.9529655" lon="17.8371643">
        <ele>22.7283</ele>
        <time>2013-04-28T11:20:16Z</time>
      </trkpt>
      <trkpt lat="59.952936" lon="17.837063">
        <ele>22.7283</ele>
        <time>2013-04-28T11:20:17Z</time>
      </trkpt>
      <trkpt lat="59.952907" lon="17.8369584">
        <ele>22.7283</ele>
        <time>2013-04-28T11:20:18Z</time>
      </trkpt>
      <trkpt lat="59.9528785" lon="17.8368527">
        <ele>22.7283</ele>
        <time>2013-04-28T11:20:19Z</time>
      </trkpt>
      <trkpt lat="59.9528487" lon="17.8367495">
        <ele>22.2476</ele>
        <time>2013-04-28T11:20:20Z</time>
      </trkpt>
      <trkpt lat="59.9528189" lon="17.8366459">
        <ele>22.2476</ele>
        <time>2013-04-28T11:20:21Z</time>
      </trkpt>
      <trkpt lat="59.9527874" lon="17.8365428">
        <ele>21.767</ele>
        <time>2013-04-28T11:20:22Z</time>
      </trkpt>
      <trkpt lat="59.9527548" lon="17.8364396">
        <ele>21.767</ele>
        <time>2013-04-28T11:20:23Z</time>
      </trkpt>
      <trkpt lat="59.952722" lon="17.8363362">
        <ele>21.2864</ele>
        <time>2013-04-28T11:20:24Z</time>
      </trkpt>
      <trkpt lat="59.9526885" lon="17.8362345">
        <ele>21.2864</ele>
        <time>2013-04-28T11:20:25Z</time>
      </trkpt>
      <trkpt lat="59.9526543" lon="17.8361344">
        <ele>21.2864</ele>
        <time>2013-04-28T11:20:26Z</time>
      </trkpt>
      <trkpt lat="59.9526201" lon="17.8360361">
        <ele>21.2864</ele>
        <time>2013-04-28T11:20:27Z</time>
      </trkpt>
      <trkpt lat="59.9525859" lon="17.8359398">
        <ele>21.2864</ele>
        <time>2013-04-28T11:20:28Z</time>
      </trkpt>
      <trkpt lat="59.9525521" lon="17.8358445">
        <ele>21.2864</ele>
        <time>2013-04-28T11:20:29Z</time>
      </trkpt>
      <trkpt lat="59.9525194" lon="17.8357499">
        <ele>21.2864</ele>
        <time>2013-04-28T11:20:30Z</time>
      </trkpt>
      <trkpt lat="59.9524868" lon="17.8356582">
        <ele>21.767</ele>
        <time>2013-04-28T11:20:31Z</time>
      </trkpt>
      <trkpt lat="59.9524539" lon="17.835569">
        <ele>21.767</ele>
        <time>2013-04-28T11:20:32Z</time>
      </trkpt>
      <trkpt lat="59.9524208" lon="17.8354817">
        <ele>21.767</ele>
        <time>2013-04-28T11:20:33Z</time>
      </trkpt>
      <trkpt lat="59.952388" lon="17.8353945">
        <ele>21.767</ele>
        <time>2013-04-28T11:20:34Z</time>
      </trkpt>
      <trkpt lat="59.9523552" lon="17.8353079">
        <ele>21.767</ele>
        <time>2013-04-28T11:20:35Z</time>
      </trkpt>
      <trkpt lat="59.9523221" lon="17.8352228">
        <ele>21.767</ele>
        <time>2013-04-28T11:20:36Z</time>
      </trkpt>
      <trkpt lat="59.9522875" lon="17.835139">
        <ele>21.767</ele>
        <time>2013-04-28T11:20:37Z</time>
      </trkpt>
      <trkpt lat="59.9522538" lon="17.8350546">
        <ele>21.767</ele>
        <time>2013-04-28T11:20:38Z</time>
      </trkpt>
      <trkpt lat="59.9522247" lon="17.8349676">
        <ele>21.767</ele>
        <time>2013-04-28T11:20:39Z</time>
      </trkpt>
      <trkpt lat="59.9521933" lon="17.8348822">
        <ele>21.767</ele>
        <time>2013-04-28T11:20:40Z</time>
      </trkpt>
      <trkpt lat="59.9521596" lon="17.8347964">
        <ele>21.767</ele>
        <time>2013-04-28T11:20:41Z</time>
      </trkpt>
      <trkpt lat="59.9521254" lon="17.8347091">
        <ele>21.767</ele>
        <time>2013-04-28T11:20:42Z</time>
      </trkpt>
      <trkpt lat="59.9520892" lon="17.8346215">
        <ele>21.767</ele>
        <time>2013-04-28T11:20:43Z</time>
      </trkpt>
      <trkpt lat="59.9520514" lon="17.834533">
        <ele>21.767</ele>
        <time>2013-04-28T11:20:44Z</time>
      </trkpt>
      <trkpt lat="59.9520135" lon="17.834444">
        <ele>21.767</ele>
        <time>2013-04-28T11:20:45Z</time>
      </trkpt>
      <trkpt lat="59.9519757" lon="17.8343551">
        <ele>21.767</ele>
        <time>2013-04-28T11:20:46Z</time>
      </trkpt>
      <trkpt lat="59.9519378" lon="17.834266">
        <ele>22.2476</ele>
        <time>2013-04-28T11:20:47Z</time>
      </trkpt>
      <trkpt lat="59.9518992" lon="17.834177">
        <ele>22.2476</ele>
        <time>2013-04-28T11:20:48Z</time>
      </trkpt>
      <trkpt lat="59.9518597" lon="17.834088">
        <ele>22.2476</ele>
        <time>2013-04-28T11:20:49Z</time>
      </trkpt>
      <trkpt lat="59.9518193" lon="17.8339992">
        <ele>22.2476</ele>
        <time>2013-04-28T11:20:50Z</time>
      </trkpt>
      <trkpt lat="59.9517787" lon="17.8339088">
        <ele>22.2476</ele>
        <time>2013-04-28T11:20:51Z</time>
      </trkpt>
      <trkpt lat="59.9517374" lon="17.8338151">
        <ele>21.767</ele>
        <time>2013-04-28T11:20:52Z</time>
      </trkpt>
      <trkpt lat="59.9516955" lon="17.8337207">
        <ele>21.767</ele>
        <time>2013-04-28T11:20:53Z</time>
      </trkpt>
      <trkpt lat="59.9516529" lon="17.8336264">
        <ele>21.767</ele>
        <time>2013-04-28T11:20:54Z</time>
      </trkpt>
      <trkpt lat="59.9516108" lon="17.8335325">
        <ele>21.767</ele>
        <time>2013-04-28T11:20:55Z</time>
      </trkpt>
      <trkpt lat="59.951569" lon="17.8334384">
        <ele>21.767</ele>
        <time>2013-04-28T11:20:56Z</time>
      </trkpt>
      <trkpt lat="59.9515271" lon="17.8333441">
        <ele>21.2864</ele>
        <time>2013-04-28T11:20:57Z</time>
      </trkpt>
      <trkpt lat="59.9514857" lon="17.8332492">
        <ele>21.2864</ele>
        <time>2013-04-28T11:20:58Z</time>
      </trkpt>
      <trkpt lat="59.9514438" lon="17.8331534">
        <ele>21.2864</ele>
        <time>2013-04-28T11:20:59Z</time>
      </trkpt>
      <trkpt lat="59.9514012" lon="17.8330566">
        <ele>21.2864</ele>
        <time>2013-04-28T11:21:00Z</time>
      </trkpt>
      <trkpt lat="59.9513557" lon="17.8329604">
        <ele>21.2864</ele>
        <time>2013-04-28T11:21:01Z</time>
      </trkpt>
      <trkpt lat="59.951309" lon="17.832865">
        <ele>21.2864</ele>
        <time>2013-04-28T11:21:02Z</time>
      </trkpt>
      <trkpt lat="59.9512648" lon="17.8327684">
        <ele>21.2864</ele>
        <time>2013-04-28T11:21:03Z</time>
      </trkpt>
      <trkpt lat="59.9512205" lon="17.8326715">
        <ele>21.2864</ele>
        <time>2013-04-28T11:21:04Z</time>
      </trkpt>
      <trkpt lat="59.9511762" lon="17.8325742">
        <ele>21.2864</ele>
        <time>2013-04-28T11:21:05Z</time>
      </trkpt>
      <trkpt lat="59.9511318" lon="17.8324766">
        <ele>21.2864</ele>
        <time>2013-04-28T11:21:06Z</time>
      </trkpt>
      <trkpt lat="59.9510878" lon="17.8323806">
        <ele>21.2864</ele>
        <time>2013-04-28T11:21:07Z</time>
      </trkpt>
      <trkpt lat="59.9510441" lon="17.8322844">
        <ele>21.2864</ele>
        <time>2013-04-28T11:21:08Z</time>
      </trkpt>
      <trkpt lat="59.9510013" lon="17.8321883">
        <ele>21.2864</ele>
        <time>2013-04-28T11:21:09Z</time>
      </trkpt>
      <trkpt lat="59.9509594" lon="17.8320926">
        <ele>21.2864</ele>
        <time>2013-04-28T11:21:10Z</time>
      </trkpt>
      <trkpt lat="59.9509179" lon="17.8319988">
        <ele>21.2864</ele>
        <time>2013-04-28T11:21:11Z</time>
      </trkpt>
      <trkpt lat="59.950877" lon="17.8319061">
        <ele>21.2864</ele>
        <time>2013-04-28T11:21:12Z</time>
      </trkpt>
      <trkpt lat="59.9508364" lon="17.8318134">
        <ele>20.8057</ele>
        <time>2013-04-28T11:21:13Z</time>
      </trkpt>
      <trkpt lat="59.9507952" lon="17.8317225">
        <ele>21.2864</ele>
        <time>2013-04-28T11:21:14Z</time>
      </trkpt>
      <trkpt lat="59.9507527" lon="17.8316348">
        <ele>21.2864</ele>
        <time>2013-04-28T11:21:15Z</time>
      </trkpt>
      <trkpt lat="59.9507121" lon="17.8315478">
        <ele>21.2864</ele>
        <time>2013-04-28T11:21:16Z</time>
      </trkpt>
      <trkpt lat="59.9506725" lon="17.8314611">
        <ele>21.2864</ele>
        <time>2013-04-28T11:21:17Z</time>
      </trkpt>
      <trkpt lat="59.950632" lon="17.8313762">
        <ele>21.2864</ele>
        <time>2013-04-28T11:21:18Z</time>
      </trkpt>
      <trkpt lat="59.9505926" lon="17.8312911">
        <ele>21.2864</ele>
        <time>2013-04-28T11:21:19Z</time>
      </trkpt>
      <trkpt lat="59.9505528" lon="17.8312068">
        <ele>21.2864</ele>
        <time>2013-04-28T11:21:20Z</time>
      </trkpt>
      <trkpt lat="59.9505129" lon="17.831124">
        <ele>21.2864</ele>
        <time>2013-04-28T11:21:21Z</time>
      </trkpt>
      <trkpt lat="59.9504735" lon="17.831041">
        <ele>20.8057</ele>
        <time>2013-04-28T11:21:22Z</time>
      </trkpt>
      <trkpt lat="59.9504345" lon="17.8309564">
        <ele>21.2864</ele>
        <time>2013-04-28T11:21:23Z</time>
      </trkpt>
      <trkpt lat="59.9503958" lon="17.8308709">
        <ele>20.8057</ele>
        <time>2013-04-28T11:21:24Z</time>
      </trkpt>
      <trkpt lat="59.9503575" lon="17.8307846">
        <ele>20.8057</ele>
        <time>2013-04-28T11:21:25Z</time>
      </trkpt>
      <trkpt lat="59.9503218" lon="17.8306965">
        <ele>20.8057</ele>
        <time>2013-04-28T11:21:26Z</time>
      </trkpt>
      <trkpt lat="59.95029" lon="17.8306069">
        <ele>20.325</ele>
        <time>2013-04-28T11:21:27Z</time>
      </trkpt>
      <trkpt lat="59.9502537" lon="17.8305147">
        <ele>20.325</ele>
        <time>2013-04-28T11:21:28Z</time>
      </trkpt>
      <trkpt lat="59.9502155" lon="17.8304275">
        <ele>19.8444</ele>
        <time>2013-04-28T11:21:29Z</time>
      </trkpt>
      <trkpt lat="59.950175" lon="17.8303454">
        <ele>19.8444</ele>
        <time>2013-04-28T11:21:30Z</time>
      </trkpt>
      <trkpt lat="59.9501368" lon="17.8302633">
        <ele>19.3638</ele>
        <time>2013-04-28T11:21:31Z</time>
      </trkpt>
      <trkpt lat="59.9500932" lon="17.830184">
        <ele>18.8831</ele>
        <time>2013-04-28T11:21:32Z</time>
      </trkpt>
      <trkpt lat="59.9500477" lon="17.8301054">
        <ele>18.8831</ele>
        <time>2013-04-28T11:21:33Z</time>
      </trkpt>
      <trkpt lat="59.9500078" lon="17.8300173">
        <ele>18.4023</ele>
        <time>2013-04-28T11:21:34Z</time>
      </trkpt>
      <trkpt lat="59.9499815" lon="17.8299108">
        <ele>17.9218</ele>
        <time>2013-04-28T11:21:35Z</time>
      </trkpt>
      <trkpt lat="59.9499793" lon="17.8297895">
        <ele>17.9218</ele>
        <time>2013-04-28T11:21:36Z</time>
      </trkpt>
      <trkpt lat="59.9499983" lon="17.8296687">
        <ele>17.9218</ele>
        <time>2013-04-28T11:21:37Z</time>
      </trkpt>
      <trkpt lat="59.9500235" lon="17.8295487">
        <ele>17.9218</ele>
        <time>2013-04-28T11:21:38Z</time>
      </trkpt>
      <trkpt lat="59.9500475" lon="17.8294284">
        <ele>17.9218</ele>
        <time>2013-04-28T11:21:39Z</time>
      </trkpt>
      <trkpt lat="59.9500662" lon="17.8293081">
        <ele>17.9218</ele>
        <time>2013-04-28T11:21:40Z</time>
      </trkpt>
      <trkpt lat="59.9500765" lon="17.8291882">
        <ele>17.9218</ele>
        <time>2013-04-28T11:21:41Z</time>
      </trkpt>
      <trkpt lat="59.9500753" lon="17.8290725">
        <ele>17.4412</ele>
        <time>2013-04-28T11:21:42Z</time>
      </trkpt>
      <trkpt lat="59.9500721" lon="17.8289543">
        <ele>17.4412</ele>
        <time>2013-04-28T11:21:43Z</time>
      </trkpt>
      <trkpt lat="59.9500667" lon="17.8288352">
        <ele>17.4412</ele>
        <time>2013-04-28T11:21:44Z</time>
      </trkpt>
      <trkpt lat="59.9500617" lon="17.8287131">
        <ele>17.4412</ele>
        <time>2013-04-28T11:21:45Z</time>
      </trkpt>
      <trkpt lat="59.950058" lon="17.8285903">
        <ele>17.9218</ele>
        <time>2013-04-28T11:21:46Z</time>
      </trkpt>
      <trkpt lat="59.9500559" lon="17.8284663">
        <ele>17.9218</ele>
        <time>2013-04-28T11:21:47Z</time>
      </trkpt>
      <trkpt lat="59.9500542" lon="17.8283407">
        <ele>17.9218</ele>
        <time>2013-04-28T11:21:48Z</time>
      </trkpt>
      <trkpt lat="59.9500522" lon="17.8282137">
        <ele>17.9218</ele>
        <time>2013-04-28T11:21:49Z</time>
      </trkpt>
      <trkpt lat="59.9500498" lon="17.8280885">
        <ele>17.9218</ele>
        <time>2013-04-28T11:21:50Z</time>
      </trkpt>
      <trkpt lat="59.9500487" lon="17.8279661">
        <ele>17.9218</ele>
        <time>2013-04-28T11:21:51Z</time>
      </trkpt>
      <trkpt lat="59.9500472" lon="17.8278484">
        <ele>18.4023</ele>
        <time>2013-04-28T11:21:52Z</time>
      </trkpt>
      <trkpt lat="59.9500452" lon="17.827734">
        <ele>18.4023</ele>
        <time>2013-04-28T11:21:53Z</time>
      </trkpt>
      <trkpt lat="59.9500441" lon="17.8276237">
        <ele>18.4023</ele>
        <time>2013-04-28T11:21:54Z</time>
      </trkpt>
      <trkpt lat="59.9500457" lon="17.8275153">
        <ele>18.4023</ele>
        <time>2013-04-28T11:21:55Z</time>
      </trkpt>
      <trkpt lat="59.9500456" lon="17.8274046">
        <ele>18.4023</ele>
        <time>2013-04-28T11:21:56Z</time>
      </trkpt>
      <trkpt lat="59.9500467" lon="17.8272901">
        <ele>18.4023</ele>
        <time>2013-04-28T11:21:57Z</time>
      </trkpt>
      <trkpt lat="59.9500493" lon="17.827174">
        <ele>18.4023</ele>
        <time>2013-04-28T11:21:58Z</time>
      </trkpt>
      <trkpt lat="59.9500529" lon="17.8270571">
        <ele>18.8831</ele>
        <time>2013-04-28T11:21:59Z</time>
      </trkpt>
      <trkpt lat="59.9500574" lon="17.8269392">
        <ele>18.8831</ele>
        <time>2013-04-28T11:22:00Z</time>
      </trkpt>
      <trkpt lat="59.9500637" lon="17.8268208">
        <ele>18.8831</ele>
        <time>2013-04-28T11:22:01Z</time>
      </trkpt>
      <trkpt lat="59.9500731" lon="17.8266997">
        <ele>19.3638</ele>
        <time>2013-04-28T11:22:02Z</time>
      </trkpt>
      <trkpt lat="59.9500843" lon="17.8265767">
        <ele>19.3638</ele>
        <time>2013-04-28T11:22:03Z</time>
      </trkpt>
      <trkpt lat="59.9500959" lon="17.8264535">
        <ele>19.3638</ele>
        <time>2013-04-28T11:22:04Z</time>
      </trkpt>
      <trkpt lat="59.9501099" lon="17.8263303">
        <ele>19.3638</ele>
        <time>2013-04-28T11:22:05Z</time>
      </trkpt>
      <trkpt lat="59.9501269" lon="17.8262084">
        <ele>19.3638</ele>
        <time>2013-04-28T11:22:06Z</time>
      </trkpt>
      <trkpt lat="59.9501482" lon="17.8260899">
        <ele>19.8444</ele>
        <time>2013-04-28T11:22:07Z</time>
      </trkpt>
      <trkpt lat="59.9501725" lon="17.8259735">
        <ele>19.8444</ele>
        <time>2013-04-28T11:22:08Z</time>
      </trkpt>
      <trkpt lat="59.9501991" lon="17.825859">
        <ele>20.325</ele>
        <time>2013-04-28T11:22:09Z</time>
      </trkpt>
      <trkpt lat="59.9502285" lon="17.8257445">
        <ele>20.325</ele>
        <time>2013-04-28T11:22:10Z</time>
      </trkpt>
      <trkpt lat="59.9502565" lon="17.8256289">
        <ele>20.8057</ele>
        <time>2013-04-28T11:22:11Z</time>
      </trkpt>
      <trkpt lat="59.9502839" lon="17.8255119">
        <ele>20.8057</ele>
        <time>2013-04-28T11:22:12Z</time>
      </trkpt>
      <trkpt lat="59.9503108" lon="17.825395">
        <ele>21.2864</ele>
        <time>2013-04-28T11:22:13Z</time>
      </trkpt>
      <trkpt lat="59.9503378" lon="17.8252762">
        <ele>21.2864</ele>
        <time>2013-04-28T11:22:14Z</time>
      </trkpt>
      <trkpt lat="59.9503647" lon="17.8251549">
        <ele>21.2864</ele>
        <time>2013-04-28T11:22:15Z</time>
      </trkpt>
      <trkpt lat="59.9503921" lon="17.8250332">
        <ele>21.767</ele>
        <time>2013-04-28T11:22:16Z</time>
      </trkpt>
      <trkpt lat="59.9504197" lon="17.8249108">
        <ele>21.767</ele>
        <time>2013-04-28T11:22:17Z</time>
      </trkpt>
      <trkpt lat="59.9504475" lon="17.8247902">
        <ele>21.767</ele>
        <time>2013-04-28T11:22:18Z</time>
      </trkpt>
      <trkpt lat="59.9504743" lon="17.8246706">
        <ele>21.767</ele>
        <time>2013-04-28T11:22:19Z</time>
      </trkpt>
      <trkpt lat="59.9505" lon="17.8245517">
        <ele>21.767</ele>
        <time>2013-04-28T11:22:20Z</time>
      </trkpt>
      <trkpt lat="59.9505273" lon="17.8244334">
        <ele>22.2476</ele>
        <time>2013-04-28T11:22:21Z</time>
      </trkpt>
      <trkpt lat="59.9505553" lon="17.8243191">
        <ele>22.2476</ele>
        <time>2013-04-28T11:22:22Z</time>
      </trkpt>
      <trkpt lat="59.9505833" lon="17.8242068">
        <ele>22.7283</ele>
        <time>2013-04-28T11:22:23Z</time>
      </trkpt>
      <trkpt lat="59.9506093" lon="17.8240956">
        <ele>23.209</ele>
        <time>2013-04-28T11:22:24Z</time>
      </trkpt>
      <trkpt lat="59.950632" lon="17.8239812">
        <ele>23.209</ele>
        <time>2013-04-28T11:22:25Z</time>
      </trkpt>
      <trkpt lat="59.9506515" lon="17.823865">
        <ele>23.209</ele>
        <time>2013-04-28T11:22:26Z</time>
      </trkpt>
      <trkpt lat="59.9506703" lon="17.8237488">
        <ele>23.209</ele>
        <time>2013-04-28T11:22:27Z</time>
      </trkpt>
      <trkpt lat="59.9506884" lon="17.8236304">
        <ele>23.209</ele>
        <time>2013-04-28T11:22:28Z</time>
      </trkpt>
      <trkpt lat="59.9507057" lon="17.8235127">
        <ele>23.209</ele>
        <time>2013-04-28T11:22:29Z</time>
      </trkpt>
      <trkpt lat="59.9507205" lon="17.8233942">
        <ele>23.209</ele>
        <time>2013-04-28T11:22:30Z</time>
      </trkpt>
      <trkpt lat="59.9507344" lon="17.8232704">
        <ele>23.6896</ele>
        <time>2013-04-28T11:22:31Z</time>
      </trkpt>
      <trkpt lat="59.9507469" lon="17.8231474">
        <ele>23.209</ele>
        <time>2013-04-28T11:22:32Z</time>
      </trkpt>
      <trkpt lat="59.950759" lon="17.8230212">
        <ele>23.6896</ele>
        <time>2013-04-28T11:22:33Z</time>
      </trkpt>
      <trkpt lat="59.9507709" lon="17.8228938">
        <ele>23.6896</ele>
        <time>2013-04-28T11:22:34Z</time>
      </trkpt>
      <trkpt lat="59.9507841" lon="17.8227661">
        <ele>23.6896</ele>
        <time>2013-04-28T11:22:35Z</time>
      </trkpt>
      <trkpt lat="59.9507972" lon="17.8226387">
        <ele>24.1703</ele>
        <time>2013-04-28T11:22:36Z</time>
      </trkpt>
      <trkpt lat="59.9508119" lon="17.8225102">
        <ele>24.1703</ele>
        <time>2013-04-28T11:22:37Z</time>
      </trkpt>
      <trkpt lat="59.9508268" lon="17.8223815">
        <ele>24.1703</ele>
        <time>2013-04-28T11:22:38Z</time>
      </trkpt>
      <trkpt lat="59.95084" lon="17.8222521">
        <ele>23.6896</ele>
        <time>2013-04-28T11:22:39Z</time>
      </trkpt>
      <trkpt lat="59.9508518" lon="17.8221225">
        <ele>23.6896</ele>
        <time>2013-04-28T11:22:40Z</time>
      </trkpt>
      <trkpt lat="59.9508644" lon="17.821993">
        <ele>23.6896</ele>
        <time>2013-04-28T11:22:41Z</time>
      </trkpt>
      <trkpt lat="59.9508775" lon="17.8218646">
        <ele>24.1703</ele>
        <time>2013-04-28T11:22:42Z</time>
      </trkpt>
      <trkpt lat="59.9508908" lon="17.8217375">
        <ele>24.1703</ele>
        <time>2013-04-28T11:22:43Z</time>
      </trkpt>
      <trkpt lat="59.9509029" lon="17.8216096">
        <ele>24.1703</ele>
        <time>2013-04-28T11:22:44Z</time>
      </trkpt>
      <trkpt lat="59.9509141" lon="17.8214822">
        <ele>24.1703</ele>
        <time>2013-04-28T11:22:45Z</time>
      </trkpt>
      <trkpt lat="59.9509247" lon="17.8213567">
        <ele>24.1703</ele>
        <time>2013-04-28T11:22:46Z</time>
      </trkpt>
      <trkpt lat="59.9509357" lon="17.8212332">
        <ele>24.1703</ele>
        <time>2013-04-28T11:22:47Z</time>
      </trkpt>
      <trkpt lat="59.9509459" lon="17.8211103">
        <ele>24.1703</ele>
        <time>2013-04-28T11:22:48Z</time>
      </trkpt>
      <trkpt lat="59.9509526" lon="17.8209865">
        <ele>24.1703</ele>
        <time>2013-04-28T11:22:49Z</time>
      </trkpt>
      <trkpt lat="59.9509626" lon="17.8208635">
        <ele>24.1703</ele>
        <time>2013-04-28T11:22:50Z</time>
      </trkpt>
      <trkpt lat="59.9509708" lon="17.8207404">
        <ele>24.651</ele>
        <time>2013-04-28T11:22:51Z</time>
      </trkpt>
      <trkpt lat="59.9509785" lon="17.8206205">
        <ele>24.1703</ele>
        <time>2013-04-28T11:22:52Z</time>
      </trkpt>
      <trkpt lat="59.9509843" lon="17.8204983">
        <ele>24.1703</ele>
        <time>2013-04-28T11:22:53Z</time>
      </trkpt>
      <trkpt lat="59.9509897" lon="17.8203712">
        <ele>24.1703</ele>
        <time>2013-04-28T11:22:54Z</time>
      </trkpt>
      <trkpt lat="59.9509968" lon="17.820244">
        <ele>24.1703</ele>
        <time>2013-04-28T11:22:55Z</time>
      </trkpt>
      <trkpt lat="59.951005" lon="17.8201188">
        <ele>24.1703</ele>
        <time>2013-04-28T11:22:56Z</time>
      </trkpt>
      <trkpt lat="59.9510133" lon="17.8199945">
        <ele>24.1703</ele>
        <time>2013-04-28T11:22:57Z</time>
      </trkpt>
      <trkpt lat="59.9510178" lon="17.8198733">
        <ele>24.1703</ele>
        <time>2013-04-28T11:22:58Z</time>
      </trkpt>
      <trkpt lat="59.951021" lon="17.8197556">
        <ele>23.6896</ele>
        <time>2013-04-28T11:22:59Z</time>
      </trkpt>
      <trkpt lat="59.9510235" lon="17.819637">
        <ele>23.6896</ele>
        <time>2013-04-28T11:23:00Z</time>
      </trkpt>
      <trkpt lat="59.9510248" lon="17.8195193">
        <ele>23.6896</ele>
        <time>2013-04-28T11:23:01Z</time>
      </trkpt>
      <trkpt lat="59.9510237" lon="17.8194058">
        <ele>23.6896</ele>
        <time>2013-04-28T11:23:02Z</time>
      </trkpt>
      <trkpt lat="59.9510232" lon="17.8192955">
        <ele>23.6896</ele>
        <time>2013-04-28T11:23:03Z</time>
      </trkpt>
      <trkpt lat="59.9510231" lon="17.8191868">
        <ele>23.6896</ele>
        <time>2013-04-28T11:23:04Z</time>
      </trkpt>
      <trkpt lat="59.9510267" lon="17.8190795">
        <ele>22.7283</ele>
        <time>2013-04-28T11:23:05Z</time>
      </trkpt>
      <trkpt lat="59.9510309" lon="17.818971">
        <ele>22.7283</ele>
        <time>2013-04-28T11:23:06Z</time>
      </trkpt>
      <trkpt lat="59.951037" lon="17.8188668">
        <ele>22.7283</ele>
        <time>2013-04-28T11:23:07Z</time>
      </trkpt>
      <trkpt lat="59.9510449" lon="17.8187642">
        <ele>22.7283</ele>
        <time>2013-04-28T11:23:08Z</time>
      </trkpt>
      <trkpt lat="59.9510552" lon="17.8186617">
        <ele>22.7283</ele>
        <time>2013-04-28T11:23:09Z</time>
      </trkpt>
      <trkpt lat="59.9510672" lon="17.8185618">
        <ele>22.7283</ele>
        <time>2013-04-28T11:23:10Z</time>
      </trkpt>
      <trkpt lat="59.9510785" lon="17.8184632">
        <ele>22.7283</ele>
        <time>2013-04-28T11:23:11Z</time>
      </trkpt>
      <trkpt lat="59.9510892" lon="17.8183646">
        <ele>22.2476</ele>
        <time>2013-04-28T11:23:12Z</time>
      </trkpt>
      <trkpt lat="59.9511006" lon="17.8182653">
        <ele>22.2476</ele>
        <time>2013-04-28T11:23:13Z</time>
      </trkpt>
      <trkpt lat="59.951113" lon="17.8181624">
        <ele>22.2476</ele>
        <time>2013-04-28T11:23:14Z</time>
      </trkpt>
      <trkpt lat="59.9511267" lon="17.8180559">
        <ele>21.767</ele>
        <time>2013-04-28T11:23:15Z</time>
      </trkpt>
      <trkpt lat="59.9511396" lon="17.8179453">
        <ele>21.767</ele>
        <time>2013-04-28T11:23:16Z</time>
      </trkpt>
      <trkpt lat="59.9511525" lon="17.8178328">
        <ele>21.767</ele>
        <time>2013-04-28T11:23:17Z</time>
      </trkpt>
      <trkpt lat="59.9511655" lon="17.8177178">
        <ele>21.767</ele>
        <time>2013-04-28T11:23:18Z</time>
      </trkpt>
      <trkpt lat="59.9511786" lon="17.8176018">
        <ele>21.767</ele>
        <time>2013-04-28T11:23:19Z</time>
      </trkpt>
      <trkpt lat="59.9511918" lon="17.8174847">
        <ele>21.767</ele>
        <time>2013-04-28T11:23:20Z</time>
      </trkpt>
      <trkpt lat="59.9512047" lon="17.8173677">
        <ele>21.767</ele>
        <time>2013-04-28T11:23:21Z</time>
      </trkpt>
      <trkpt lat="59.9512168" lon="17.8172517">
        <ele>21.767</ele>
        <time>2013-04-28T11:23:22Z</time>
      </trkpt>
      <trkpt lat="59.9512293" lon="17.8171361">
        <ele>21.767</ele>
        <time>2013-04-28T11:23:23Z</time>
      </trkpt>
      <trkpt lat="59.9512422" lon="17.8170191">
        <ele>21.2864</ele>
        <time>2013-04-28T11:23:24Z</time>
      </trkpt>
      <trkpt lat="59.9512542" lon="17.8169005">
        <ele>21.2864</ele>
        <time>2013-04-28T11:23:25Z</time>
      </trkpt>
      <trkpt lat="59.9512659" lon="17.8167809">
        <ele>21.2864</ele>
        <time>2013-04-28T11:23:26Z</time>
      </trkpt>
      <trkpt lat="59.9512785" lon="17.8166584">
        <ele>21.2864</ele>
        <time>2013-04-28T11:23:27Z</time>
      </trkpt>
      <trkpt lat="59.951291" lon="17.8165342">
        <ele>21.2864</ele>
        <time>2013-04-28T11:23:28Z</time>
      </trkpt>
      <trkpt lat="59.9513033" lon="17.8164086">
        <ele>21.2864</ele>
        <time>2013-04-28T11:23:29Z</time>
      </trkpt>
      <trkpt lat="59.9513154" lon="17.8162829">
        <ele>20.8057</ele>
        <time>2013-04-28T11:23:30Z</time>
      </trkpt>
      <trkpt lat="59.9513277" lon="17.8161576">
        <ele>20.8057</ele>
        <time>2013-04-28T11:23:31Z</time>
      </trkpt>
      <trkpt lat="59.9513385" lon="17.8160308">
        <ele>20.8057</ele>
        <time>2013-04-28T11:23:32Z</time>
      </trkpt>
      <trkpt lat="59.951348" lon="17.815902">
        <ele>20.8057</ele>
        <time>2013-04-28T11:23:33Z</time>
      </trkpt>
      <trkpt lat="59.9513566" lon="17.8157717">
        <ele>20.8057</ele>
        <time>2013-04-28T11:23:34Z</time>
      </trkpt>
      <trkpt lat="59.9513629" lon="17.8156396">
        <ele>20.325</ele>
        <time>2013-04-28T11:23:35Z</time>
      </trkpt>
      <trkpt lat="59.9513689" lon="17.815508">
        <ele>20.325</ele>
        <time>2013-04-28T11:23:36Z</time>
      </trkpt>
      <trkpt lat="59.9513749" lon="17.8153765">
        <ele>20.325</ele>
        <time>2013-04-28T11:23:37Z</time>
      </trkpt>
      <trkpt lat="59.9513803" lon="17.815245">
        <ele>20.325</ele>
        <time>2013-04-28T11:23:38Z</time>
      </trkpt>
      <trkpt lat="59.9513841" lon="17.8151142">
        <ele>20.325</ele>
        <time>2013-04-28T11:23:39Z</time>
      </trkpt>
      <trkpt lat="59.9513879" lon="17.8149837">
        <ele>20.325</ele>
        <time>2013-04-28T11:23:40Z</time>
      </trkpt>
      <trkpt lat="59.9513919" lon="17.8148518">
        <ele>20.325</ele>
        <time>2013-04-28T11:23:41Z</time>
      </trkpt>
      <trkpt lat="59.951395" lon="17.8147196">
        <ele>20.325</ele>
        <time>2013-04-28T11:23:42Z</time>
      </trkpt>
      <trkpt lat="59.951397" lon="17.814588">
        <ele>20.325</ele>
        <time>2013-04-28T11:23:43Z</time>
      </trkpt>
      <trkpt lat="59.9513992" lon="17.8144565">
        <ele>20.325</ele>
        <time>2013-04-28T11:23:44Z</time>
      </trkpt>
      <trkpt lat="59.9514002" lon="17.8143249">
        <ele>20.325</ele>
        <time>2013-04-28T11:23:45Z</time>
      </trkpt>
      <trkpt lat="59.9514011" lon="17.8141928">
        <ele>20.325</ele>
        <time>2013-04-28T11:23:46Z</time>
      </trkpt>
      <trkpt lat="59.9514016" lon="17.8140606">
        <ele>20.325</ele>
        <time>2013-04-28T11:23:47Z</time>
      </trkpt>
      <trkpt lat="59.9514019" lon="17.8139287">
        <ele>20.325</ele>
        <time>2013-04-28T11:23:48Z</time>
      </trkpt>
      <trkpt lat="59.9514028" lon="17.8137981">
        <ele>20.325</ele>
        <time>2013-04-28T11:23:49Z</time>
      </trkpt>
      <trkpt lat="59.9514037" lon="17.8136678">
        <ele>20.325</ele>
        <time>2013-04-28T11:23:50Z</time>
      </trkpt>
      <trkpt lat="59.9514047" lon="17.8135369">
        <ele>20.325</ele>
        <time>2013-04-28T11:23:51Z</time>
      </trkpt>
      <trkpt lat="59.9514057" lon="17.8134054">
        <ele>20.325</ele>
        <time>2013-04-28T11:23:52Z</time>
      </trkpt>
      <trkpt lat="59.9514059" lon="17.8132741">
        <ele>20.325</ele>
        <time>2013-04-28T11:23:53Z</time>
      </trkpt>
      <trkpt lat="59.9514062" lon="17.8131421">
        <ele>20.325</ele>
        <time>2013-04-28T11:23:54Z</time>
      </trkpt>
      <trkpt lat="59.9514071" lon="17.8130103">
        <ele>20.8057</ele>
        <time>2013-04-28T11:23:55Z</time>
      </trkpt>
      <trkpt lat="59.9514094" lon="17.8128801">
        <ele>20.8057</ele>
        <time>2013-04-28T11:23:56Z</time>
      </trkpt>
      <trkpt lat="59.9514109" lon="17.812752">
        <ele>20.8057</ele>
        <time>2013-04-28T11:23:57Z</time>
      </trkpt>
      <trkpt lat="59.9514109" lon="17.8126258">
        <ele>21.2864</ele>
        <time>2013-04-28T11:23:58Z</time>
      </trkpt>
      <trkpt lat="59.9514106" lon="17.8125014">
        <ele>21.2864</ele>
        <time>2013-04-28T11:23:59Z</time>
      </trkpt>
      <trkpt lat="59.9514114" lon="17.8123777">
        <ele>21.2864</ele>
        <time>2013-04-28T11:24:00Z</time>
      </trkpt>
      <trkpt lat="59.9514153" lon="17.8122552">
        <ele>21.2864</ele>
        <time>2013-04-28T11:24:01Z</time>
      </trkpt>
      <trkpt lat="59.9514215" lon="17.8121331">
        <ele>21.767</ele>
        <time>2013-04-28T11:24:02Z</time>
      </trkpt>
      <trkpt lat="59.9514277" lon="17.8120107">
        <ele>21.767</ele>
        <time>2013-04-28T11:24:03Z</time>
      </trkpt>
      <trkpt lat="59.9514354" lon="17.8118887">
        <ele>21.767</ele>
        <time>2013-04-28T11:24:04Z</time>
      </trkpt>
      <trkpt lat="59.9514453" lon="17.8117675">
        <ele>21.767</ele>
        <time>2013-04-28T11:24:05Z</time>
      </trkpt>
      <trkpt lat="59.9514572" lon="17.8116476">
        <ele>22.2476</ele>
        <time>2013-04-28T11:24:06Z</time>
      </trkpt>
      <trkpt lat="59.9514706" lon="17.8115276">
        <ele>22.2476</ele>
        <time>2013-04-28T11:24:07Z</time>
      </trkpt>
      <trkpt lat="59.9514851" lon="17.8114069">
        <ele>22.2476</ele>
        <time>2013-04-28T11:24:08Z</time>
      </trkpt>
      <trkpt lat="59.9515001" lon="17.8112798">
        <ele>22.2476</ele>
        <time>2013-04-28T11:24:09Z</time>
      </trkpt>
      <trkpt lat="59.9515166" lon="17.8111532">
        <ele>22.7283</ele>
        <time>2013-04-28T11:24:10Z</time>
      </trkpt>
      <trkpt lat="59.9515338" lon="17.8110277">
        <ele>22.7283</ele>
        <time>2013-04-28T11:24:11Z</time>
      </trkpt>
      <trkpt lat="59.9515525" lon="17.8109065">
        <ele>22.7283</ele>
        <time>2013-04-28T11:24:12Z</time>
      </trkpt>
      <trkpt lat="59.9515726" lon="17.8107831">
        <ele>22.7283</ele>
        <time>2013-04-28T11:24:13Z</time>
      </trkpt>
      <trkpt lat="59.9515946" lon="17.8106609">
        <ele>23.209</ele>
        <time>2013-04-28T11:24:14Z</time>
      </trkpt>
      <trkpt lat="59.9516178" lon="17.8105397">
        <ele>23.209</ele>
        <time>2013-04-28T11:24:15Z</time>
      </trkpt>
      <trkpt lat="59.9516414" lon="17.8104204">
        <ele>23.209</ele>
        <time>2013-04-28T11:24:16Z</time>
      </trkpt>
      <trkpt lat="59.9516666" lon="17.8103039">
        <ele>23.209</ele>
        <time>2013-04-28T11:24:17Z</time>
      </trkpt>
      <trkpt lat="59.9516934" lon="17.8101884">
        <ele>23.209</ele>
        <time>2013-04-28T11:24:18Z</time>
      </trkpt>
      <trkpt lat="59.9517218" lon="17.8100799">
        <ele>23.209</ele>
        <time>2013-04-28T11:24:19Z</time>
      </trkpt>
      <trkpt lat="59.9517499" lon="17.8099731">
        <ele>23.209</ele>
        <time>2013-04-28T11:24:20Z</time>
      </trkpt>
      <trkpt lat="59.9517778" lon="17.8098654">
        <ele>23.209</ele>
        <time>2013-04-28T11:24:21Z</time>
      </trkpt>
      <trkpt lat="59.9518058" lon="17.809757">
        <ele>22.7283</ele>
        <time>2013-04-28T11:24:22Z</time>
      </trkpt>
      <trkpt lat="59.9518352" lon="17.8096489">
        <ele>22.7283</ele>
        <time>2013-04-28T11:24:23Z</time>
      </trkpt>
      <trkpt lat="59.9518649" lon="17.8095403">
        <ele>22.7283</ele>
        <time>2013-04-28T11:24:24Z</time>
      </trkpt>
      <trkpt lat="59.9518939" lon="17.8094285">
        <ele>22.7283</ele>
        <time>2013-04-28T11:24:25Z</time>
      </trkpt>
      <trkpt lat="59.9519224" lon="17.8093131">
        <ele>22.7283</ele>
        <time>2013-04-28T11:24:26Z</time>
      </trkpt>
      <trkpt lat="59.9519518" lon="17.809198">
        <ele>22.7283</ele>
        <time>2013-04-28T11:24:27Z</time>
      </trkpt>
      <trkpt lat="59.9519819" lon="17.8090827">
        <ele>22.7283</ele>
        <time>2013-04-28T11:24:28Z</time>
      </trkpt>
      <trkpt lat="59.9520129" lon="17.8089697">
        <ele>22.7283</ele>
        <time>2013-04-28T11:24:29Z</time>
      </trkpt>
      <trkpt lat="59.9520439" lon="17.8088566">
        <ele>22.7283</ele>
        <time>2013-04-28T11:24:30Z</time>
      </trkpt>
      <trkpt lat="59.9520741" lon="17.8087412">
        <ele>22.7283</ele>
        <time>2013-04-28T11:24:31Z</time>
      </trkpt>
      <trkpt lat="59.9521037" lon="17.8086251">
        <ele>22.7283</ele>
        <time>2013-04-28T11:24:32Z</time>
      </trkpt>
      <trkpt lat="59.952134" lon="17.8085107">
        <ele>22.2476</ele>
        <time>2013-04-28T11:24:33Z</time>
      </trkpt>
      <trkpt lat="59.9521642" lon="17.8083972">
        <ele>22.7283</ele>
        <time>2013-04-28T11:24:34Z</time>
      </trkpt>
      <trkpt lat="59.9521941" lon="17.8082843">
        <ele>22.7283</ele>
        <time>2013-04-28T11:24:35Z</time>
      </trkpt>
      <trkpt lat="59.9522231" lon="17.8081726">
        <ele>22.7283</ele>
        <time>2013-04-28T11:24:36Z</time>
      </trkpt>
      <trkpt lat="59.9522509" lon="17.8080614">
        <ele>22.7283</ele>
        <time>2013-04-28T11:24:37Z</time>
      </trkpt>
      <trkpt lat="59.9522787" lon="17.80795">
        <ele>22.7283</ele>
        <time>2013-04-28T11:24:38Z</time>
      </trkpt>
      <trkpt lat="59.9523067" lon="17.8078388">
        <ele>23.209</ele>
        <time>2013-04-28T11:24:39Z</time>
      </trkpt>
      <trkpt lat="59.9523346" lon="17.8077322">
        <ele>23.209</ele>
        <time>2013-04-28T11:24:40Z</time>
      </trkpt>
      <trkpt lat="59.9523617" lon="17.8076265">
        <ele>23.209</ele>
        <time>2013-04-28T11:24:41Z</time>
      </trkpt>
      <trkpt lat="59.9523875" lon="17.8075217">
        <ele>23.209</ele>
        <time>2013-04-28T11:24:42Z</time>
      </trkpt>
      <trkpt lat="59.952414" lon="17.8074186">
        <ele>23.6896</ele>
        <time>2013-04-28T11:24:43Z</time>
      </trkpt>
      <trkpt lat="59.9524415" lon="17.8073178">
        <ele>23.6896</ele>
        <time>2013-04-28T11:24:44Z</time>
      </trkpt>
      <trkpt lat="59.9524685" lon="17.8072156">
        <ele>24.1703</ele>
        <time>2013-04-28T11:24:45Z</time>
      </trkpt>
      <trkpt lat="59.9524953" lon="17.8071137">
        <ele>24.1703</ele>
        <time>2013-04-28T11:24:46Z</time>
      </trkpt>
      <trkpt lat="59.9525197" lon="17.8070137">
        <ele>24.651</ele>
        <time>2013-04-28T11:24:47Z</time>
      </trkpt>
      <trkpt lat="59.9525428" lon="17.8069122">
        <ele>25.1317</ele>
        <time>2013-04-28T11:24:48Z</time>
      </trkpt>
      <trkpt lat="59.9525681" lon="17.8068179">
        <ele>25.1317</ele>
        <time>2013-04-28T11:24:49Z</time>
      </trkpt>
      <trkpt lat="59.9525927" lon="17.8067241">
        <ele>25.1317</ele>
        <time>2013-04-28T11:24:50Z</time>
      </trkpt>
      <trkpt lat="59.9526155" lon="17.8066252">
        <ele>25.1317</ele>
        <time>2013-04-28T11:24:51Z</time>
      </trkpt>
      <trkpt lat="59.9526391" lon="17.8065251">
        <ele>25.1317</ele>
        <time>2013-04-28T11:24:52Z</time>
      </trkpt>
      <trkpt lat="59.9526611" lon="17.806424">
        <ele>25.6123</ele>
        <time>2013-04-28T11:24:53Z</time>
      </trkpt>
      <trkpt lat="59.9526831" lon="17.8063196">
        <ele>25.6123</ele>
        <time>2013-04-28T11:24:54Z</time>
      </trkpt>
      <trkpt lat="59.9527046" lon="17.8062097">
        <ele>25.6123</ele>
        <time>2013-04-28T11:24:55Z</time>
      </trkpt>
      <trkpt lat="59.9527251" lon="17.8060968">
        <ele>25.6123</ele>
        <time>2013-04-28T11:24:56Z</time>
      </trkpt>
      <trkpt lat="59.952744" lon="17.8059818">
        <ele>25.6123</ele>
        <time>2013-04-28T11:24:57Z</time>
      </trkpt>
      <trkpt lat="59.9527609" lon="17.8058554">
        <ele>25.6123</ele>
        <time>2013-04-28T11:24:58Z</time>
      </trkpt>
      <trkpt lat="59.9527767" lon="17.805729">
        <ele>25.6123</ele>
        <time>2013-04-28T11:24:59Z</time>
      </trkpt>
      <trkpt lat="59.9527917" lon="17.805599">
        <ele>25.6123</ele>
        <time>2013-04-28T11:25:00Z</time>
      </trkpt>
      <trkpt lat="59.952806" lon="17.8054704">
        <ele>25.6123</ele>
        <time>2013-04-28T11:25:01Z</time>
      </trkpt>
      <trkpt lat="59.9528195" lon="17.8053431">
        <ele>25.6123</ele>
        <time>2013-04-28T11:25:02Z</time>
      </trkpt>
      <trkpt lat="59.9528325" lon="17.8052204">
        <ele>26.0929</ele>
        <time>2013-04-28T11:25:03Z</time>
      </trkpt>
      <trkpt lat="59.952846" lon="17.8051061">
        <ele>25.6123</ele>
        <time>2013-04-28T11:25:04Z</time>
      </trkpt>
      <trkpt lat="59.952859" lon="17.8049941">
        <ele>25.6123</ele>
        <time>2013-04-28T11:25:05Z</time>
      </trkpt>
      <trkpt lat="59.9528737" lon="17.8048824">
        <ele>25.6123</ele>
        <time>2013-04-28T11:25:06Z</time>
      </trkpt>
      <trkpt lat="59.9528895" lon="17.8047672">
        <ele>25.6123</ele>
        <time>2013-04-28T11:25:07Z</time>
      </trkpt>
      <trkpt lat="59.9529055" lon="17.8046547">
        <ele>25.6123</ele>
        <time>2013-04-28T11:25:08Z</time>
      </trkpt>
      <trkpt lat="59.9529256" lon="17.8045493">
        <ele>25.6123</ele>
        <time>2013-04-28T11:25:09Z</time>
      </trkpt>
      <trkpt lat="59.95295" lon="17.8044526">
        <ele>26.0929</ele>
        <time>2013-04-28T11:25:10Z</time>
      </trkpt>
      <trkpt lat="59.9529802" lon="17.8043635">
        <ele>25.6123</ele>
        <time>2013-04-28T11:25:11Z</time>
      </trkpt>
      <trkpt lat="59.9530144" lon="17.8042915">
        <ele>25.6123</ele>
        <time>2013-04-28T11:25:12Z</time>
      </trkpt>
      <trkpt lat="59.9530475" lon="17.8042221">
        <ele>25.6123</ele>
        <time>2013-04-28T11:25:13Z</time>
      </trkpt>
      <trkpt lat="59.9530822" lon="17.804148">
        <ele>25.6123</ele>
        <time>2013-04-28T11:25:14Z</time>
      </trkpt>
      <trkpt lat="59.953117" lon="17.8040775">
        <ele>26.0929</ele>
        <time>2013-04-28T11:25:15Z</time>
      </trkpt>
      <trkpt lat="59.9531525" lon="17.8040154">
        <ele>26.5736</ele>
        <time>2013-04-28T11:25:16Z</time>
      </trkpt>
      <trkpt lat="59.9531877" lon="17.8039557">
        <ele>26.0929</ele>
        <time>2013-04-28T11:25:17Z</time>
      </trkpt>
      <trkpt lat="59.953223" lon="17.8038987">
        <ele>26.0929</ele>
        <time>2013-04-28T11:25:18Z</time>
      </trkpt>
      <trkpt lat="59.9532583" lon="17.8038386">
        <ele>26.0929</ele>
        <time>2013-04-28T11:25:19Z</time>
      </trkpt>
      <trkpt lat="59.9532924" lon="17.803773">
        <ele>26.0929</ele>
        <time>2013-04-28T11:25:20Z</time>
      </trkpt>
      <trkpt lat="59.9533256" lon="17.8037003">
        <ele>26.0929</ele>
        <time>2013-04-28T11:25:21Z</time>
      </trkpt>
      <trkpt lat="59.9533584" lon="17.8036224">
        <ele>26.0929</ele>
        <time>2013-04-28T11:25:22Z</time>
      </trkpt>
      <trkpt lat="59.9533931" lon="17.8035485">
        <ele>25.6123</ele>
        <time>2013-04-28T11:25:23Z</time>
      </trkpt>
      <trkpt lat="59.9534281" lon="17.8034731">
        <ele>25.1317</ele>
        <time>2013-04-28T11:25:24Z</time>
      </trkpt>
      <trkpt lat="59.9534619" lon="17.8033881">
        <ele>24.651</ele>
        <time>2013-04-28T11:25:25Z</time>
      </trkpt>
      <trkpt lat="59.9534928" lon="17.8033021">
        <ele>23.6896</ele>
        <time>2013-04-28T11:25:26Z</time>
      </trkpt>
      <trkpt lat="59.9535202" lon="17.8032042">
        <ele>23.6896</ele>
        <time>2013-04-28T11:25:27Z</time>
      </trkpt>
      <trkpt lat="59.9535432" lon="17.8029955">
        <ele>23.6896</ele>
        <time>2013-04-28T11:25:28Z</time>
      </trkpt>
      <trkpt lat="59.9535701" lon="17.8028904">
        <ele>23.209</ele>
        <time>2013-04-28T11:25:29Z</time>
      </trkpt>
      <trkpt lat="59.9535769" lon="17.8027446">
        <ele>23.6896</ele>
        <time>2013-04-28T11:25:30Z</time>
      </trkpt>
      <trkpt lat="59.9536002" lon="17.8026244">
        <ele>23.209</ele>
        <time>2013-04-28T11:25:31Z</time>
      </trkpt>
      <trkpt lat="59.9536214" lon="17.8025006">
        <ele>22.7283</ele>
        <time>2013-04-28T11:25:32Z</time>
      </trkpt>
      <trkpt lat="59.9536459" lon="17.8023807">
        <ele>22.2476</ele>
        <time>2013-04-28T11:25:33Z</time>
      </trkpt>
      <trkpt lat="59.9536702" lon="17.8022532">
        <ele>21.767</ele>
        <time>2013-04-28T11:25:34Z</time>
      </trkpt>
      <trkpt lat="59.9537016" lon="17.802121">
        <ele>21.2864</ele>
        <time>2013-04-28T11:25:35Z</time>
      </trkpt>
      <trkpt lat="59.9537323" lon="17.80199">
        <ele>21.2864</ele>
        <time>2013-04-28T11:25:36Z</time>
      </trkpt>
      <trkpt lat="59.9537709" lon="17.8018667">
        <ele>20.8057</ele>
        <time>2013-04-28T11:25:37Z</time>
      </trkpt>
      <trkpt lat="59.9538075" lon="17.8017605">
        <ele>20.8057</ele>
        <time>2013-04-28T11:25:38Z</time>
      </trkpt>
      <trkpt lat="59.9538473" lon="17.8016559">
        <ele>20.325</ele>
        <time>2013-04-28T11:25:39Z</time>
      </trkpt>
      <trkpt lat="59.9538908" lon="17.8015538">
        <ele>19.8444</ele>
        <time>2013-04-28T11:25:40Z</time>
      </trkpt>
      <trkpt lat="59.9539379" lon="17.8014428">
        <ele>19.8444</ele>
        <time>2013-04-28T11:25:41Z</time>
      </trkpt>
      <trkpt lat="59.9539856" lon="17.801314">
        <ele>19.3638</ele>
        <time>2013-04-28T11:25:42Z</time>
      </trkpt>
      <trkpt lat="59.9540348" lon="17.8011849">
        <ele>19.3638</ele>
        <time>2013-04-28T11:25:43Z</time>
      </trkpt>
      <trkpt lat="59.9540867" lon="17.801057">
        <ele>19.3638</ele>
        <time>2013-04-28T11:25:44Z</time>
      </trkpt>
      <trkpt lat="59.9541348" lon="17.8009227">
        <ele>19.8444</ele>
        <time>2013-04-28T11:25:45Z</time>
      </trkpt>
      <trkpt lat="59.9541815" lon="17.8007948">
        <ele>19.8444</ele>
        <time>2013-04-28T11:25:46Z</time>
      </trkpt>
      <trkpt lat="59.9542379" lon="17.8006292">
        <ele>19.8444</ele>
        <time>2013-04-28T11:25:47Z</time>
      </trkpt>
      <trkpt lat="59.9542891" lon="17.8005008">
        <ele>20.325</ele>
        <time>2013-04-28T11:25:48Z</time>
      </trkpt>
      <trkpt lat="59.954342" lon="17.8003729">
        <ele>20.325</ele>
        <time>2013-04-28T11:25:49Z</time>
      </trkpt>
      <trkpt lat="59.9543885" lon="17.8002329">
        <ele>20.8057</ele>
        <time>2013-04-28T11:25:50Z</time>
      </trkpt>
      <trkpt lat="59.954443" lon="17.8001014">
        <ele>20.325</ele>
        <time>2013-04-28T11:25:51Z</time>
      </trkpt>
      <trkpt lat="59.954499" lon="17.7999828">
        <ele>20.325</ele>
        <time>2013-04-28T11:25:52Z</time>
      </trkpt>
      <trkpt lat="59.9545552" lon="17.7998624">
        <ele>20.325</ele>
        <time>2013-04-28T11:25:53Z</time>
      </trkpt>
      <trkpt lat="59.9546067" lon="17.799743">
        <ele>20.8057</ele>
        <time>2013-04-28T11:25:54Z</time>
      </trkpt>
      <trkpt lat="59.9546586" lon="17.7996287">
        <ele>20.8057</ele>
        <time>2013-04-28T11:25:55Z</time>
      </trkpt>
      <trkpt lat="59.9547097" lon="17.7995165">
        <ele>21.2864</ele>
        <time>2013-04-28T11:25:56Z</time>
      </trkpt>
      <trkpt lat="59.9547588" lon="17.7994093">
        <ele>21.2864</ele>
        <time>2013-04-28T11:25:57Z</time>
      </trkpt>
      <trkpt lat="59.9548067" lon="17.799312">
        <ele>21.767</ele>
        <time>2013-04-28T11:25:58Z</time>
      </trkpt>
      <trkpt lat="59.9548557" lon="17.799219">
        <ele>22.2476</ele>
        <time>2013-04-28T11:25:59Z</time>
      </trkpt>
      <trkpt lat="59.9549039" lon="17.7991293">
        <ele>22.2476</ele>
        <time>2013-04-28T11:26:00Z</time>
      </trkpt>
      <trkpt lat="59.9549517" lon="17.7990398">
        <ele>22.7283</ele>
        <time>2013-04-28T11:26:01Z</time>
      </trkpt>
      <trkpt lat="59.9549976" lon="17.7989524">
        <ele>22.7283</ele>
        <time>2013-04-28T11:26:02Z</time>
      </trkpt>
      <trkpt lat="59.9550421" lon="17.798865">
        <ele>22.7283</ele>
        <time>2013-04-28T11:26:03Z</time>
      </trkpt>
      <trkpt lat="59.9550864" lon="17.7987766">
        <ele>23.209</ele>
        <time>2013-04-28T11:26:04Z</time>
      </trkpt>
      <trkpt lat="59.9551308" lon="17.7986816">
        <ele>23.209</ele>
        <time>2013-04-28T11:26:05Z</time>
      </trkpt>
      <trkpt lat="59.9551745" lon="17.7985799">
        <ele>23.209</ele>
        <time>2013-04-28T11:26:06Z</time>
      </trkpt>
      <trkpt lat="59.9552186" lon="17.7984726">
        <ele>23.209</ele>
        <time>2013-04-28T11:26:07Z</time>
      </trkpt>
      <trkpt lat="59.9552626" lon="17.7983613">
        <ele>23.209</ele>
        <time>2013-04-28T11:26:08Z</time>
      </trkpt>
      <trkpt lat="59.9553045" lon="17.7982451">
        <ele>23.209</ele>
        <time>2013-04-28T11:26:09Z</time>
      </trkpt>
      <trkpt lat="59.9553445" lon="17.7981236">
        <ele>23.209</ele>
        <time>2013-04-28T11:26:10Z</time>
      </trkpt>
      <trkpt lat="59.9553833" lon="17.7979981">
        <ele>22.7283</ele>
        <time>2013-04-28T11:26:11Z</time>
      </trkpt>
      <trkpt lat="59.9554213" lon="17.7978707">
        <ele>22.7283</ele>
        <time>2013-04-28T11:26:12Z</time>
      </trkpt>
      <trkpt lat="59.9554599" lon="17.7977426">
        <ele>22.7283</ele>
        <time>2013-04-28T11:26:13Z</time>
      </trkpt>
      <trkpt lat="59.9554987" lon="17.7976113">
        <ele>22.7283</ele>
        <time>2013-04-28T11:26:14Z</time>
      </trkpt>
      <trkpt lat="59.955538" lon="17.7974787">
        <ele>22.7283</ele>
        <time>2013-04-28T11:26:15Z</time>
      </trkpt>
      <trkpt lat="59.9555773" lon="17.7973455">
        <ele>22.7283</ele>
        <time>2013-04-28T11:26:16Z</time>
      </trkpt>
      <trkpt lat="59.9556154" lon="17.7972113">
        <ele>22.2476</ele>
        <time>2013-04-28T11:26:17Z</time>
      </trkpt>
      <trkpt lat="59.955652" lon="17.797075">
        <ele>22.7283</ele>
        <time>2013-04-28T11:26:18Z</time>
      </trkpt>
      <trkpt lat="59.9556862" lon="17.7969358">
        <ele>22.2476</ele>
        <time>2013-04-28T11:26:19Z</time>
      </trkpt>
      <trkpt lat="59.9557195" lon="17.7967947">
        <ele>22.7283</ele>
        <time>2013-04-28T11:26:20Z</time>
      </trkpt>
      <trkpt lat="59.9557516" lon="17.7966553">
        <ele>22.7283</ele>
        <time>2013-04-28T11:26:21Z</time>
      </trkpt>
      <trkpt lat="59.9557805" lon="17.7965152">
        <ele>22.2476</ele>
        <time>2013-04-28T11:26:22Z</time>
      </trkpt>
      <trkpt lat="59.9558063" lon="17.7963752">
        <ele>22.2476</ele>
        <time>2013-04-28T11:26:23Z</time>
      </trkpt>
      <trkpt lat="59.9558308" lon="17.796235">
        <ele>21.767</ele>
        <time>2013-04-28T11:26:24Z</time>
      </trkpt>
      <trkpt lat="59.9558547" lon="17.7960939">
        <ele>21.767</ele>
        <time>2013-04-28T11:26:25Z</time>
      </trkpt>
      <trkpt lat="59.9558782" lon="17.7959543">
        <ele>21.767</ele>
        <time>2013-04-28T11:26:26Z</time>
      </trkpt>
      <trkpt lat="59.9559021" lon="17.7958167">
        <ele>21.767</ele>
        <time>2013-04-28T11:26:27Z</time>
      </trkpt>
      <trkpt lat="59.9559269" lon="17.79568">
        <ele>21.767</ele>
        <time>2013-04-28T11:26:28Z</time>
      </trkpt>
      <trkpt lat="59.9559516" lon="17.7955445">
        <ele>22.2476</ele>
        <time>2013-04-28T11:26:29Z</time>
      </trkpt>
      <trkpt lat="59.9559774" lon="17.7954133">
        <ele>21.767</ele>
        <time>2013-04-28T11:26:30Z</time>
      </trkpt>
      <trkpt lat="59.9560053" lon="17.7952823">
        <ele>21.767</ele>
        <time>2013-04-28T11:26:31Z</time>
      </trkpt>
      <trkpt lat="59.9560352" lon="17.7951513">
        <ele>21.767</ele>
        <time>2013-04-28T11:26:32Z</time>
      </trkpt>
      <trkpt lat="59.9560654" lon="17.7950227">
        <ele>22.2476</ele>
        <time>2013-04-28T11:26:33Z</time>
      </trkpt>
      <trkpt lat="59.956096" lon="17.7948969">
        <ele>22.2476</ele>
        <time>2013-04-28T11:26:34Z</time>
      </trkpt>
      <trkpt lat="59.9561264" lon="17.7947716">
        <ele>21.767</ele>
        <time>2013-04-28T11:26:35Z</time>
      </trkpt>
      <trkpt lat="59.9561569" lon="17.7946451">
        <ele>21.767</ele>
        <time>2013-04-28T11:26:36Z</time>
      </trkpt>
      <trkpt lat="59.9561867" lon="17.7945185">
        <ele>21.767</ele>
        <time>2013-04-28T11:26:37Z</time>
      </trkpt>
      <trkpt lat="59.9562189" lon="17.7943737">
        <ele>21.767</ele>
        <time>2013-04-28T11:26:38Z</time>
      </trkpt>
      <trkpt lat="59.9562497" lon="17.7942421">
        <ele>21.767</ele>
        <time>2013-04-28T11:26:39Z</time>
      </trkpt>
      <trkpt lat="59.9562778" lon="17.7941101">
        <ele>21.767</ele>
        <time>2013-04-28T11:26:40Z</time>
      </trkpt>
      <trkpt lat="59.9563057" lon="17.7939806">
        <ele>21.767</ele>
        <time>2013-04-28T11:26:41Z</time>
      </trkpt>
      <trkpt lat="59.9563323" lon="17.7938532">
        <ele>22.2476</ele>
        <time>2013-04-28T11:26:42Z</time>
      </trkpt>
      <trkpt lat="59.956358" lon="17.7937278">
        <ele>22.2476</ele>
        <time>2013-04-28T11:26:43Z</time>
      </trkpt>
      <trkpt lat="59.9563835" lon="17.7936035">
        <ele>22.2476</ele>
        <time>2013-04-28T11:26:44Z</time>
      </trkpt>
      <trkpt lat="59.9564089" lon="17.7934791">
        <ele>22.2476</ele>
        <time>2013-04-28T11:26:45Z</time>
      </trkpt>
      <trkpt lat="59.9564337" lon="17.7933548">
        <ele>22.2476</ele>
        <time>2013-04-28T11:26:46Z</time>
      </trkpt>
      <trkpt lat="59.9564571" lon="17.7932325">
        <ele>22.7283</ele>
        <time>2013-04-28T11:26:47Z</time>
      </trkpt>
      <trkpt lat="59.9564803" lon="17.7931134">
        <ele>22.7283</ele>
        <time>2013-04-28T11:26:48Z</time>
      </trkpt>
      <trkpt lat="59.9565037" lon="17.7929968">
        <ele>22.7283</ele>
        <time>2013-04-28T11:26:49Z</time>
      </trkpt>
      <trkpt lat="59.9565263" lon="17.7928803">
        <ele>22.7283</ele>
        <time>2013-04-28T11:26:50Z</time>
      </trkpt>
      <trkpt lat="59.9565477" lon="17.7927622">
        <ele>22.7283</ele>
        <time>2013-04-28T11:26:51Z</time>
      </trkpt>
      <trkpt lat="59.9565689" lon="17.7926426">
        <ele>22.7283</ele>
        <time>2013-04-28T11:26:52Z</time>
      </trkpt>
      <trkpt lat="59.9565905" lon="17.792523">
        <ele>22.7283</ele>
        <time>2013-04-28T11:26:53Z</time>
      </trkpt>
      <trkpt lat="59.9566113" lon="17.7924041">
        <ele>22.7283</ele>
        <time>2013-04-28T11:26:54Z</time>
      </trkpt>
      <trkpt lat="59.9566312" lon="17.7922839">
        <ele>22.7283</ele>
        <time>2013-04-28T11:26:55Z</time>
      </trkpt>
      <trkpt lat="59.9566513" lon="17.7921632">
        <ele>22.2476</ele>
        <time>2013-04-28T11:26:56Z</time>
      </trkpt>
      <trkpt lat="59.9566715" lon="17.7920427">
        <ele>22.2476</ele>
        <time>2013-04-28T11:26:57Z</time>
      </trkpt>
      <trkpt lat="59.9566917" lon="17.7919231">
        <ele>22.2476</ele>
        <time>2013-04-28T11:26:58Z</time>
      </trkpt>
      <trkpt lat="59.9567119" lon="17.7918045">
        <ele>22.2476</ele>
        <time>2013-04-28T11:26:59Z</time>
      </trkpt>
      <trkpt lat="59.9567308" lon="17.7916863">
        <ele>22.2476</ele>
        <time>2013-04-28T11:27:00Z</time>
      </trkpt>
      <trkpt lat="59.9567482" lon="17.7915688">
        <ele>22.2476</ele>
        <time>2013-04-28T11:27:01Z</time>
      </trkpt>
      <trkpt lat="59.9567643" lon="17.7914521">
        <ele>22.2476</ele>
        <time>2013-04-28T11:27:02Z</time>
      </trkpt>
      <trkpt lat="59.9567775" lon="17.7913385">
        <ele>22.2476</ele>
        <time>2013-04-28T11:27:03Z</time>
      </trkpt>
      <trkpt lat="59.9567842" lon="17.7912268">
        <ele>22.7283</ele>
        <time>2013-04-28T11:27:04Z</time>
      </trkpt>
      <trkpt lat="59.9567818" lon="17.7911147">
        <ele>22.7283</ele>
        <time>2013-04-28T11:27:05Z</time>
      </trkpt>
      <trkpt lat="59.9567697" lon="17.7910024">
        <ele>22.7283</ele>
        <time>2013-04-28T11:27:06Z</time>
      </trkpt>
      <trkpt lat="59.9567492" lon="17.7908933">
        <ele>22.7283</ele>
        <time>2013-04-28T11:27:07Z</time>
      </trkpt>
      <trkpt lat="59.9567236" lon="17.7907869">
        <ele>22.7283</ele>
        <time>2013-04-28T11:27:08Z</time>
      </trkpt>
      <trkpt lat="59.9566963" lon="17.7906762">
        <ele>22.7283</ele>
        <time>2013-04-28T11:27:09Z</time>
      </trkpt>
      <trkpt lat="59.9566709" lon="17.7905618">
        <ele>22.2476</ele>
        <time>2013-04-28T11:27:10Z</time>
      </trkpt>
      <trkpt lat="59.9566471" lon="17.7904446">
        <ele>21.767</ele>
        <time>2013-04-28T11:27:11Z</time>
      </trkpt>
      <trkpt lat="59.9566244" lon="17.7903279">
        <ele>21.767</ele>
        <time>2013-04-28T11:27:12Z</time>
      </trkpt>
      <trkpt lat="59.9566045" lon="17.7902126">
        <ele>21.767</ele>
        <time>2013-04-28T11:27:13Z</time>
      </trkpt>
      <trkpt lat="59.9565824" lon="17.7901061">
        <ele>21.2864</ele>
        <time>2013-04-28T11:27:14Z</time>
      </trkpt>
      <trkpt lat="59.9565813" lon="17.7899877">
        <ele>21.2864</ele>
        <time>2013-04-28T11:27:15Z</time>
      </trkpt>
      <trkpt lat="59.9565991" lon="17.7898619">
        <ele>21.2864</ele>
        <time>2013-04-28T11:27:16Z</time>
      </trkpt>
      <trkpt lat="59.9566229" lon="17.7897457">
        <ele>20.8057</ele>
        <time>2013-04-28T11:27:17Z</time>
      </trkpt>
      <trkpt lat="59.9566571" lon="17.7896382">
        <ele>20.8057</ele>
        <time>2013-04-28T11:27:18Z</time>
      </trkpt>
      <trkpt lat="59.9567088" lon="17.789547">
        <ele>20.8057</ele>
        <time>2013-04-28T11:27:19Z</time>
      </trkpt>
      <trkpt lat="59.9567588" lon="17.7894609">
        <ele>20.8057</ele>
        <time>2013-04-28T11:27:20Z</time>
      </trkpt>
      <trkpt lat="59.9568156" lon="17.7893842">
        <ele>21.2864</ele>
        <time>2013-04-28T11:27:21Z</time>
      </trkpt>
      <trkpt lat="59.9568744" lon="17.7893141">
        <ele>21.2864</ele>
        <time>2013-04-28T11:27:22Z</time>
      </trkpt>
      <trkpt lat="59.956932" lon="17.7892438">
        <ele>21.2864</ele>
        <time>2013-04-28T11:27:23Z</time>
      </trkpt>
      <trkpt lat="59.9569886" lon="17.7891743">
        <ele>21.767</ele>
        <time>2013-04-28T11:27:24Z</time>
      </trkpt>
      <trkpt lat="59.9570448" lon="17.7890935">
        <ele>21.767</ele>
        <time>2013-04-28T11:27:25Z</time>
      </trkpt>
      <trkpt lat="59.9571" lon="17.7890076">
        <ele>21.767</ele>
        <time>2013-04-28T11:27:26Z</time>
      </trkpt>
      <trkpt lat="59.95715" lon="17.7889225">
        <ele>21.767</ele>
        <time>2013-04-28T11:27:27Z</time>
      </trkpt>
      <trkpt lat="59.9571962" lon="17.7888266">
        <ele>21.767</ele>
        <time>2013-04-28T11:27:28Z</time>
      </trkpt>
      <trkpt lat="59.9572447" lon="17.7887077">
        <ele>21.767</ele>
        <time>2013-04-28T11:27:29Z</time>
      </trkpt>
      <trkpt lat="59.9572838" lon="17.7885844">
        <ele>22.2476</ele>
        <time>2013-04-28T11:27:30Z</time>
      </trkpt>
      <trkpt lat="59.9573269" lon="17.7884819">
        <ele>22.2476</ele>
        <time>2013-04-28T11:27:31Z</time>
      </trkpt>
      <trkpt lat="59.9573652" lon="17.7883644">
        <ele>22.7283</ele>
        <time>2013-04-28T11:27:32Z</time>
      </trkpt>
      <trkpt lat="59.9573986" lon="17.7882509">
        <ele>22.7283</ele>
        <time>2013-04-28T11:27:33Z</time>
      </trkpt>
      <trkpt lat="59.9574276" lon="17.7881141">
        <ele>22.7283</ele>
        <time>2013-04-28T11:27:34Z</time>
      </trkpt>
      <trkpt lat="59.9574587" lon="17.7879961">
        <ele>22.2476</ele>
        <time>2013-04-28T11:27:35Z</time>
      </trkpt>
      <trkpt lat="59.9574875" lon="17.7878768">
        <ele>22.2476</ele>
        <time>2013-04-28T11:27:36Z</time>
      </trkpt>
      <trkpt lat="59.957518" lon="17.7877618">
        <ele>21.767</ele>
        <time>2013-04-28T11:27:37Z</time>
      </trkpt>
      <trkpt lat="59.9575517" lon="17.7876446">
        <ele>21.767</ele>
        <time>2013-04-28T11:27:38Z</time>
      </trkpt>
      <trkpt lat="59.9575833" lon="17.7875246">
        <ele>21.767</ele>
        <time>2013-04-28T11:27:39Z</time>
      </trkpt>
      <trkpt lat="59.9576117" lon="17.7874013">
        <ele>21.2864</ele>
        <time>2013-04-28T11:27:40Z</time>
      </trkpt>
      <trkpt lat="59.957637" lon="17.7872773">
        <ele>21.2864</ele>
        <time>2013-04-28T11:27:41Z</time>
      </trkpt>
      <trkpt lat="59.9576598" lon="17.7871589">
        <ele>21.2864</ele>
        <time>2013-04-28T11:27:42Z</time>
      </trkpt>
      <trkpt lat="59.9576821" lon="17.7870413">
        <ele>20.8057</ele>
        <time>2013-04-28T11:27:43Z</time>
      </trkpt>
      <trkpt lat="59.957706" lon="17.7869237">
        <ele>20.8057</ele>
        <time>2013-04-28T11:27:44Z</time>
      </trkpt>
      <trkpt lat="59.9577342" lon="17.7868064">
        <ele>20.325</ele>
        <time>2013-04-28T11:27:45Z</time>
      </trkpt>
      <trkpt lat="59.9577702" lon="17.7866948">
        <ele>20.325</ele>
        <time>2013-04-28T11:27:46Z</time>
      </trkpt>
      <trkpt lat="59.9578148" lon="17.786594">
        <ele>19.8444</ele>
        <time>2013-04-28T11:27:47Z</time>
      </trkpt>
      <trkpt lat="59.9578686" lon="17.7864974">
        <ele>19.8444</ele>
        <time>2013-04-28T11:27:48Z</time>
      </trkpt>
      <trkpt lat="59.9579275" lon="17.7864088">
        <ele>19.8444</ele>
        <time>2013-04-28T11:27:49Z</time>
      </trkpt>
      <trkpt lat="59.9579906" lon="17.7863305">
        <ele>19.8444</ele>
        <time>2013-04-28T11:27:50Z</time>
      </trkpt>
      <trkpt lat="59.9580555" lon="17.786256">
        <ele>19.8444</ele>
        <time>2013-04-28T11:27:51Z</time>
      </trkpt>
      <trkpt lat="59.9581209" lon="17.7861819">
        <ele>19.8444</ele>
        <time>2013-04-28T11:27:52Z</time>
      </trkpt>
      <trkpt lat="59.9581867" lon="17.7861087">
        <ele>19.8444</ele>
        <time>2013-04-28T11:27:53Z</time>
      </trkpt>
      <trkpt lat="59.958252" lon="17.7860351">
        <ele>19.8444</ele>
        <time>2013-04-28T11:27:54Z</time>
      </trkpt>
      <trkpt lat="59.9583155" lon="17.7859592">
        <ele>19.8444</ele>
        <time>2013-04-28T11:27:55Z</time>
      </trkpt>
      <trkpt lat="59.9583781" lon="17.785885">
        <ele>20.325</ele>
        <time>2013-04-28T11:27:56Z</time>
      </trkpt>
      <trkpt lat="59.958442" lon="17.7858151">
        <ele>20.325</ele>
        <time>2013-04-28T11:27:57Z</time>
      </trkpt>
      <trkpt lat="59.9585067" lon="17.7857482">
        <ele>20.325</ele>
        <time>2013-04-28T11:27:58Z</time>
      </trkpt>
      <trkpt lat="59.9585708" lon="17.7856847">
        <ele>20.8057</ele>
        <time>2013-04-28T11:27:59Z</time>
      </trkpt>
      <trkpt lat="59.9586341" lon="17.785622">
        <ele>20.8057</ele>
        <time>2013-04-28T11:28:00Z</time>
      </trkpt>
      <trkpt lat="59.9586975" lon="17.7855618">
        <ele>21.2864</ele>
        <time>2013-04-28T11:28:01Z</time>
      </trkpt>
      <trkpt lat="59.9587617" lon="17.7855069">
        <ele>21.2864</ele>
        <time>2013-04-28T11:28:02Z</time>
      </trkpt>
      <trkpt lat="59.958828" lon="17.7854539">
        <ele>21.2864</ele>
        <time>2013-04-28T11:28:03Z</time>
      </trkpt>
      <trkpt lat="59.9588959" lon="17.7854027">
        <ele>21.767</ele>
        <time>2013-04-28T11:28:04Z</time>
      </trkpt>
      <trkpt lat="59.9589646" lon="17.785351">
        <ele>21.767</ele>
        <time>2013-04-28T11:28:05Z</time>
      </trkpt>
      <trkpt lat="59.9590331" lon="17.7852974">
        <ele>21.767</ele>
        <time>2013-04-28T11:28:06Z</time>
      </trkpt>
      <trkpt lat="59.9591004" lon="17.7852451">
        <ele>21.767</ele>
        <time>2013-04-28T11:28:07Z</time>
      </trkpt>
      <trkpt lat="59.9591672" lon="17.7851884">
        <ele>22.2476</ele>
        <time>2013-04-28T11:28:08Z</time>
      </trkpt>
      <trkpt lat="59.9592313" lon="17.7851283">
        <ele>22.2476</ele>
        <time>2013-04-28T11:28:09Z</time>
      </trkpt>
      <trkpt lat="59.9592935" lon="17.785062">
        <ele>22.7283</ele>
        <time>2013-04-28T11:28:10Z</time>
      </trkpt>
      <trkpt lat="59.9593539" lon="17.7849899">
        <ele>22.7283</ele>
        <time>2013-04-28T11:28:11Z</time>
      </trkpt>
      <trkpt lat="59.9594117" lon="17.7849102">
        <ele>23.209</ele>
        <time>2013-04-28T11:28:12Z</time>
      </trkpt>
      <trkpt lat="59.9594671" lon="17.7848263">
        <ele>23.209</ele>
        <time>2013-04-28T11:28:13Z</time>
      </trkpt>
      <trkpt lat="59.9595209" lon="17.7847408">
        <ele>23.6896</ele>
        <time>2013-04-28T11:28:14Z</time>
      </trkpt>
      <trkpt lat="59.9595724" lon="17.7846547">
        <ele>23.6896</ele>
        <time>2013-04-28T11:28:15Z</time>
      </trkpt>
      <trkpt lat="59.9596246" lon="17.7845693">
        <ele>23.6896</ele>
        <time>2013-04-28T11:28:16Z</time>
      </trkpt>
      <trkpt lat="59.9596774" lon="17.7844823">
        <ele>23.6896</ele>
        <time>2013-04-28T11:28:17Z</time>
      </trkpt>
      <trkpt lat="59.9597298" lon="17.7843944">
        <ele>24.1703</ele>
        <time>2013-04-28T11:28:18Z</time>
      </trkpt>
      <trkpt lat="59.9597821" lon="17.7843068">
        <ele>24.1703</ele>
        <time>2013-04-28T11:28:19Z</time>
      </trkpt>
      <trkpt lat="59.9598329" lon="17.7842161">
        <ele>24.1703</ele>
        <time>2013-04-28T11:28:20Z</time>
      </trkpt>
      <trkpt lat="59.9598809" lon="17.7841206">
        <ele>24.1703</ele>
        <time>2013-04-28T11:28:21Z</time>
      </trkpt>
      <trkpt lat="59.9599267" lon="17.7840214">
        <ele>24.1703</ele>
        <time>2013-04-28T11:28:22Z</time>
      </trkpt>
      <trkpt lat="59.959971" lon="17.7839201">
        <ele>24.1703</ele>
        <time>2013-04-28T11:28:23Z</time>
      </trkpt>
      <trkpt lat="59.9600136" lon="17.783818">
        <ele>24.1703</ele>
        <time>2013-04-28T11:28:24Z</time>
      </trkpt>
      <trkpt lat="59.960054" lon="17.7837113">
        <ele>24.1703</ele>
        <time>2013-04-28T11:28:25Z</time>
      </trkpt>
      <trkpt lat="59.9600909" lon="17.7836051">
        <ele>24.1703</ele>
        <time>2013-04-28T11:28:26Z</time>
      </trkpt>
      <trkpt lat="59.9601267" lon="17.7834981">
        <ele>24.1703</ele>
        <time>2013-04-28T11:28:27Z</time>
      </trkpt>
      <trkpt lat="59.9601619" lon="17.7833912">
        <ele>24.1703</ele>
        <time>2013-04-28T11:28:28Z</time>
      </trkpt>
      <trkpt lat="59.9601986" lon="17.7832867">
        <ele>24.651</ele>
        <time>2013-04-28T11:28:29Z</time>
      </trkpt>
      <trkpt lat="59.9602349" lon="17.7831827">
        <ele>24.651</ele>
        <time>2013-04-28T11:28:30Z</time>
      </trkpt>
      <trkpt lat="59.9602714" lon="17.7830832">
        <ele>24.651</ele>
        <time>2013-04-28T11:28:31Z</time>
      </trkpt>
      <trkpt lat="59.960306" lon="17.7829862">
        <ele>25.1317</ele>
        <time>2013-04-28T11:28:32Z</time>
      </trkpt>
      <trkpt lat="59.9603395" lon="17.7828931">
        <ele>25.1317</ele>
        <time>2013-04-28T11:28:33Z</time>
      </trkpt>
      <trkpt lat="59.9603711" lon="17.7828004">
        <ele>25.1317</ele>
        <time>2013-04-28T11:28:34Z</time>
      </trkpt>
      <trkpt lat="59.9604017" lon="17.7827066">
        <ele>25.6123</ele>
        <time>2013-04-28T11:28:35Z</time>
      </trkpt>
      <trkpt lat="59.9604321" lon="17.78261">
        <ele>25.6123</ele>
        <time>2013-04-28T11:28:36Z</time>
      </trkpt>
      <trkpt lat="59.9604612" lon="17.782509">
        <ele>25.1317</ele>
        <time>2013-04-28T11:28:37Z</time>
      </trkpt>
      <trkpt lat="59.9604896" lon="17.7824068">
        <ele>25.1317</ele>
        <time>2013-04-28T11:28:38Z</time>
      </trkpt>
      <trkpt lat="59.9605175" lon="17.7823035">
        <ele>25.1317</ele>
        <time>2013-04-28T11:28:39Z</time>
      </trkpt>
      <trkpt lat="59.9605478" lon="17.7821989">
        <ele>25.1317</ele>
        <time>2013-04-28T11:28:40Z</time>
      </trkpt>
      <trkpt lat="59.9605828" lon="17.7820962">
        <ele>24.651</ele>
        <time>2013-04-28T11:28:41Z</time>
      </trkpt>
      <trkpt lat="59.9606237" lon="17.781997">
        <ele>24.651</ele>
        <time>2013-04-28T11:28:42Z</time>
      </trkpt>
      <trkpt lat="59.9606711" lon="17.7818978">
        <ele>24.651</ele>
        <time>2013-04-28T11:28:43Z</time>
      </trkpt>
      <trkpt lat="59.9607198" lon="17.7818006">
        <ele>24.651</ele>
        <time>2013-04-28T11:28:44Z</time>
      </trkpt>
      <trkpt lat="59.9607727" lon="17.7817073">
        <ele>24.1703</ele>
        <time>2013-04-28T11:28:45Z</time>
      </trkpt>
      <trkpt lat="59.9608247" lon="17.7816124">
        <ele>24.1703</ele>
        <time>2013-04-28T11:28:46Z</time>
      </trkpt>
      <trkpt lat="59.9608767" lon="17.7815172">
        <ele>24.1703</ele>
        <time>2013-04-28T11:28:47Z</time>
      </trkpt>
      <trkpt lat="59.9609291" lon="17.7814233">
        <ele>24.1703</ele>
        <time>2013-04-28T11:28:48Z</time>
      </trkpt>
      <trkpt lat="59.9609818" lon="17.7813297">
        <ele>24.1703</ele>
        <time>2013-04-28T11:28:49Z</time>
      </trkpt>
      <trkpt lat="59.9610342" lon="17.7812359">
        <ele>24.1703</ele>
        <time>2013-04-28T11:28:50Z</time>
      </trkpt>
      <trkpt lat="59.9610863" lon="17.7811407">
        <ele>24.1703</ele>
        <time>2013-04-28T11:28:51Z</time>
      </trkpt>
      <trkpt lat="59.9611374" lon="17.7810435">
        <ele>24.1703</ele>
        <time>2013-04-28T11:28:52Z</time>
      </trkpt>
      <trkpt lat="59.9611895" lon="17.7809467">
        <ele>24.1703</ele>
        <time>2013-04-28T11:28:53Z</time>
      </trkpt>
      <trkpt lat="59.9612422" lon="17.7808505">
        <ele>24.1703</ele>
        <time>2013-04-28T11:28:54Z</time>
      </trkpt>
      <trkpt lat="59.9612946" lon="17.7807532">
        <ele>24.1703</ele>
        <time>2013-04-28T11:28:55Z</time>
      </trkpt>
      <trkpt lat="59.9613474" lon="17.7806552">
        <ele>24.1703</ele>
        <time>2013-04-28T11:28:56Z</time>
      </trkpt>
      <trkpt lat="59.9613994" lon="17.7805582">
        <ele>24.1703</ele>
        <time>2013-04-28T11:28:57Z</time>
      </trkpt>
      <trkpt lat="59.9614513" lon="17.7804618">
        <ele>24.1703</ele>
        <time>2013-04-28T11:28:58Z</time>
      </trkpt>
      <trkpt lat="59.9615039" lon="17.7803657">
        <ele>23.6896</ele>
        <time>2013-04-28T11:28:59Z</time>
      </trkpt>
      <trkpt lat="59.9615554" lon="17.7802678">
        <ele>23.6896</ele>
        <time>2013-04-28T11:29:00Z</time>
      </trkpt>
      <trkpt lat="59.9616055" lon="17.7801662">
        <ele>23.6896</ele>
        <time>2013-04-28T11:29:01Z</time>
      </trkpt>
      <trkpt lat="59.9616547" lon="17.7800606">
        <ele>23.6896</ele>
        <time>2013-04-28T11:29:02Z</time>
      </trkpt>
      <trkpt lat="59.9617034" lon="17.7799522">
        <ele>23.6896</ele>
        <time>2013-04-28T11:29:03Z</time>
      </trkpt>
      <trkpt lat="59.961752" lon="17.7798424">
        <ele>23.6896</ele>
        <time>2013-04-28T11:29:04Z</time>
      </trkpt>
      <trkpt lat="59.9617998" lon="17.7797316">
        <ele>23.6896</ele>
        <time>2013-04-28T11:29:05Z</time>
      </trkpt>
      <trkpt lat="59.9618469" lon="17.7796198">
        <ele>23.6896</ele>
        <time>2013-04-28T11:29:06Z</time>
      </trkpt>
      <trkpt lat="59.9618937" lon="17.7795068">
        <ele>23.209</ele>
        <time>2013-04-28T11:29:07Z</time>
      </trkpt>
      <trkpt lat="59.9619417" lon="17.7793969">
        <ele>23.209</ele>
        <time>2013-04-28T11:29:08Z</time>
      </trkpt>
      <trkpt lat="59.9619899" lon="17.7792924">
        <ele>23.209</ele>
        <time>2013-04-28T11:29:09Z</time>
      </trkpt>
      <trkpt lat="59.9620376" lon="17.7791892">
        <ele>23.209</ele>
        <time>2013-04-28T11:29:10Z</time>
      </trkpt>
      <trkpt lat="59.9620848" lon="17.7790845">
        <ele>23.209</ele>
        <time>2013-04-28T11:29:11Z</time>
      </trkpt>
      <trkpt lat="59.9621313" lon="17.7789812">
        <ele>22.7283</ele>
        <time>2013-04-28T11:29:12Z</time>
      </trkpt>
      <trkpt lat="59.9621777" lon="17.778875">
        <ele>22.7283</ele>
        <time>2013-04-28T11:29:13Z</time>
      </trkpt>
      <trkpt lat="59.9622244" lon="17.7787671">
        <ele>22.7283</ele>
        <time>2013-04-28T11:29:14Z</time>
      </trkpt>
      <trkpt lat="59.9622708" lon="17.7786569">
        <ele>22.2476</ele>
        <time>2013-04-28T11:29:15Z</time>
      </trkpt>
      <trkpt lat="59.9623162" lon="17.7785439">
        <ele>22.2476</ele>
        <time>2013-04-28T11:29:16Z</time>
      </trkpt>
      <trkpt lat="59.9623623" lon="17.7784326">
        <ele>22.2476</ele>
        <time>2013-04-28T11:29:17Z</time>
      </trkpt>
      <trkpt lat="59.9624099" lon="17.7783243">
        <ele>22.2476</ele>
        <time>2013-04-28T11:29:18Z</time>
      </trkpt>
      <trkpt lat="59.962458" lon="17.7782153">
        <ele>22.2476</ele>
        <time>2013-04-28T11:29:19Z</time>
      </trkpt>
      <trkpt lat="59.9625065" lon="17.7781067">
        <ele>22.2476</ele>
        <time>2013-04-28T11:29:20Z</time>
      </trkpt>
      <trkpt lat="59.962557" lon="17.777998">
        <ele>21.767</ele>
        <time>2013-04-28T11:29:21Z</time>
      </trkpt>
      <trkpt lat="59.9626069" lon="17.7778902">
        <ele>21.767</ele>
        <time>2013-04-28T11:29:22Z</time>
      </trkpt>
      <trkpt lat="59.9626567" lon="17.7777849">
        <ele>21.767</ele>
        <time>2013-04-28T11:29:23Z</time>
      </trkpt>
      <trkpt lat="59.9627063" lon="17.7776829">
        <ele>21.767</ele>
        <time>2013-04-28T11:29:24Z</time>
      </trkpt>
      <trkpt lat="59.9627555" lon="17.7775828">
        <ele>21.767</ele>
        <time>2013-04-28T11:29:25Z</time>
      </trkpt>
      <trkpt lat="59.9628035" lon="17.7774829">
        <ele>22.2476</ele>
        <time>2013-04-28T11:29:26Z</time>
      </trkpt>
      <trkpt lat="59.9628508" lon="17.7773828">
        <ele>22.2476</ele>
        <time>2013-04-28T11:29:27Z</time>
      </trkpt>
      <trkpt lat="59.9628973" lon="17.77728">
        <ele>22.2476</ele>
        <time>2013-04-28T11:29:28Z</time>
      </trkpt>
      <trkpt lat="59.9629426" lon="17.7771754">
        <ele>22.7283</ele>
        <time>2013-04-28T11:29:29Z</time>
      </trkpt>
      <trkpt lat="59.9629877" lon="17.7770685">
        <ele>22.2476</ele>
        <time>2013-04-28T11:29:30Z</time>
      </trkpt>
      <trkpt lat="59.9630304" lon="17.7769572">
        <ele>22.2476</ele>
        <time>2013-04-28T11:29:31Z</time>
      </trkpt>
      <trkpt lat="59.9630699" lon="17.7768431">
        <ele>22.7283</ele>
        <time>2013-04-28T11:29:32Z</time>
      </trkpt>
      <trkpt lat="59.963107" lon="17.7767277">
        <ele>22.2476</ele>
        <time>2013-04-28T11:29:33Z</time>
      </trkpt>
      <trkpt lat="59.9631428" lon="17.7766147">
        <ele>22.7283</ele>
        <time>2013-04-28T11:29:34Z</time>
      </trkpt>
      <trkpt lat="59.9631762" lon="17.7765019">
        <ele>22.7283</ele>
        <time>2013-04-28T11:29:35Z</time>
      </trkpt>
      <trkpt lat="59.9632102" lon="17.7763884">
        <ele>22.7283</ele>
        <time>2013-04-28T11:29:36Z</time>
      </trkpt>
      <trkpt lat="59.963243" lon="17.7762768">
        <ele>22.7283</ele>
        <time>2013-04-28T11:29:37Z</time>
      </trkpt>
      <trkpt lat="59.9632756" lon="17.7761649">
        <ele>22.7283</ele>
        <time>2013-04-28T11:29:38Z</time>
      </trkpt>
      <trkpt lat="59.9633098" lon="17.776051">
        <ele>22.7283</ele>
        <time>2013-04-28T11:29:39Z</time>
      </trkpt>
      <trkpt lat="59.9633446" lon="17.7759373">
        <ele>22.2476</ele>
        <time>2013-04-28T11:29:40Z</time>
      </trkpt>
      <trkpt lat="59.9633797" lon="17.7758222">
        <ele>22.2476</ele>
        <time>2013-04-28T11:29:41Z</time>
      </trkpt>
      <trkpt lat="59.9634158" lon="17.7757067">
        <ele>22.2476</ele>
        <time>2013-04-28T11:29:42Z</time>
      </trkpt>
      <trkpt lat="59.9634533" lon="17.7755938">
        <ele>22.2476</ele>
        <time>2013-04-28T11:29:43Z</time>
      </trkpt>
      <trkpt lat="59.9634912" lon="17.7754843">
        <ele>21.767</ele>
        <time>2013-04-28T11:29:44Z</time>
      </trkpt>
      <trkpt lat="59.9635274" lon="17.7753714">
        <ele>21.767</ele>
        <time>2013-04-28T11:29:45Z</time>
      </trkpt>
      <trkpt lat="59.9635614" lon="17.7752546">
        <ele>21.767</ele>
        <time>2013-04-28T11:29:46Z</time>
      </trkpt>
      <trkpt lat="59.9635925" lon="17.7751353">
        <ele>21.767</ele>
        <time>2013-04-28T11:29:47Z</time>
      </trkpt>
      <trkpt lat="59.9636202" lon="17.7750134">
        <ele>21.767</ele>
        <time>2013-04-28T11:29:48Z</time>
      </trkpt>
      <trkpt lat="59.9636444" lon="17.7748887">
        <ele>21.767</ele>
        <time>2013-04-28T11:29:49Z</time>
      </trkpt>
      <trkpt lat="59.9636665" lon="17.774763">
        <ele>21.767</ele>
        <time>2013-04-28T11:29:50Z</time>
      </trkpt>
      <trkpt lat="59.963689" lon="17.7746385">
        <ele>21.767</ele>
        <time>2013-04-28T11:29:51Z</time>
      </trkpt>
      <trkpt lat="59.9637102" lon="17.7745166">
        <ele>21.767</ele>
        <time>2013-04-28T11:29:52Z</time>
      </trkpt>
      <trkpt lat="59.9637288" lon="17.7743961">
        <ele>21.767</ele>
        <time>2013-04-28T11:29:53Z</time>
      </trkpt>
      <trkpt lat="59.9637475" lon="17.7742764">
        <ele>21.767</ele>
        <time>2013-04-28T11:29:54Z</time>
      </trkpt>
      <trkpt lat="59.9637673" lon="17.7741564">
        <ele>22.2476</ele>
        <time>2013-04-28T11:29:55Z</time>
      </trkpt>
      <trkpt lat="59.9637888" lon="17.7740347">
        <ele>22.2476</ele>
        <time>2013-04-28T11:29:56Z</time>
      </trkpt>
      <trkpt lat="59.9638107" lon="17.7739109">
        <ele>21.767</ele>
        <time>2013-04-28T11:29:57Z</time>
      </trkpt>
      <trkpt lat="59.9638319" lon="17.7737858">
        <ele>21.767</ele>
        <time>2013-04-28T11:29:58Z</time>
      </trkpt>
      <trkpt lat="59.9638521" lon="17.7736598">
        <ele>21.767</ele>
        <time>2013-04-28T11:29:59Z</time>
      </trkpt>
      <trkpt lat="59.9638716" lon="17.7735325">
        <ele>21.767</ele>
        <time>2013-04-28T11:30:00Z</time>
      </trkpt>
      <trkpt lat="59.9638893" lon="17.773404">
        <ele>21.767</ele>
        <time>2013-04-28T11:30:01Z</time>
      </trkpt>
      <trkpt lat="59.9639044" lon="17.7732762">
        <ele>22.2476</ele>
        <time>2013-04-28T11:30:02Z</time>
      </trkpt>
      <trkpt lat="59.9639169" lon="17.7731507">
        <ele>22.2476</ele>
        <time>2013-04-28T11:30:03Z</time>
      </trkpt>
      <trkpt lat="59.9639243" lon="17.7730273">
        <ele>21.767</ele>
        <time>2013-04-28T11:30:04Z</time>
      </trkpt>
      <trkpt lat="59.9639268" lon="17.7729033">
        <ele>21.767</ele>
        <time>2013-04-28T11:30:05Z</time>
      </trkpt>
      <trkpt lat="59.9639241" lon="17.7727768">
        <ele>21.2864</ele>
        <time>2013-04-28T11:30:06Z</time>
      </trkpt>
      <trkpt lat="59.9639139" lon="17.7726482">
        <ele>21.2864</ele>
        <time>2013-04-28T11:30:07Z</time>
      </trkpt>
      <trkpt lat="59.9638991" lon="17.7725178">
        <ele>21.2864</ele>
        <time>2013-04-28T11:30:08Z</time>
      </trkpt>
      <trkpt lat="59.9638815" lon="17.7723879">
        <ele>21.2864</ele>
        <time>2013-04-28T11:30:09Z</time>
      </trkpt>
      <trkpt lat="59.9638609" lon="17.7722623">
        <ele>21.2864</ele>
        <time>2013-04-28T11:30:10Z</time>
      </trkpt>
      <trkpt lat="59.9638379" lon="17.7721417">
        <ele>21.2864</ele>
        <time>2013-04-28T11:30:11Z</time>
      </trkpt>
      <trkpt lat="59.9638128" lon="17.7720268">
        <ele>21.2864</ele>
        <time>2013-04-28T11:30:12Z</time>
      </trkpt>
      <trkpt lat="59.9637868" lon="17.7719158">
        <ele>21.2864</ele>
        <time>2013-04-28T11:30:13Z</time>
      </trkpt>
      <trkpt lat="59.963761" lon="17.7718079">
        <ele>21.2864</ele>
        <time>2013-04-28T11:30:14Z</time>
      </trkpt>
      <trkpt lat="59.9637364" lon="17.7717024">
        <ele>21.2864</ele>
        <time>2013-04-28T11:30:15Z</time>
      </trkpt>
      <trkpt lat="59.9637128" lon="17.7715988">
        <ele>21.2864</ele>
        <time>2013-04-28T11:30:16Z</time>
      </trkpt>
      <trkpt lat="59.963689" lon="17.7714984">
        <ele>21.2864</ele>
        <time>2013-04-28T11:30:17Z</time>
      </trkpt>
      <trkpt lat="59.9636652" lon="17.7714005">
        <ele>21.2864</ele>
        <time>2013-04-28T11:30:18Z</time>
      </trkpt>
      <trkpt lat="59.9636428" lon="17.7713026">
        <ele>21.2864</ele>
        <time>2013-04-28T11:30:19Z</time>
      </trkpt>
      <trkpt lat="59.9636211" lon="17.7712042">
        <ele>21.2864</ele>
        <time>2013-04-28T11:30:20Z</time>
      </trkpt>
      <trkpt lat="59.9635994" lon="17.7711063">
        <ele>21.2864</ele>
        <time>2013-04-28T11:30:21Z</time>
      </trkpt>
      <trkpt lat="59.9635781" lon="17.7710089">
        <ele>21.2864</ele>
        <time>2013-04-28T11:30:22Z</time>
      </trkpt>
      <trkpt lat="59.9635577" lon="17.7709099">
        <ele>21.2864</ele>
        <time>2013-04-28T11:30:23Z</time>
      </trkpt>
      <trkpt lat="59.9635389" lon="17.770811">
        <ele>21.767</ele>
        <time>2013-04-28T11:30:24Z</time>
      </trkpt>
      <trkpt lat="59.963524" lon="17.7707115">
        <ele>22.2476</ele>
        <time>2013-04-28T11:30:25Z</time>
      </trkpt>
      <trkpt lat="59.9635126" lon="17.7706127">
        <ele>22.2476</ele>
        <time>2013-04-28T11:30:26Z</time>
      </trkpt>
      <trkpt lat="59.9635034" lon="17.7705131">
        <ele>22.7283</ele>
        <time>2013-04-28T11:30:27Z</time>
      </trkpt>
      <trkpt lat="59.9634982" lon="17.7704159">
        <ele>23.209</ele>
        <time>2013-04-28T11:30:28Z</time>
      </trkpt>
      <trkpt lat="59.9634946" lon="17.7703173">
        <ele>23.209</ele>
        <time>2013-04-28T11:30:29Z</time>
      </trkpt>
      <trkpt lat="59.9634906" lon="17.7702194">
        <ele>23.6896</ele>
        <time>2013-04-28T11:30:30Z</time>
      </trkpt>
      <trkpt lat="59.9634865" lon="17.7701213">
        <ele>23.6896</ele>
        <time>2013-04-28T11:30:31Z</time>
      </trkpt>
      <trkpt lat="59.9634838" lon="17.7700204">
        <ele>23.6896</ele>
        <time>2013-04-28T11:30:32Z</time>
      </trkpt>
      <trkpt lat="59.9634845" lon="17.7699193">
        <ele>24.1703</ele>
        <time>2013-04-28T11:30:33Z</time>
      </trkpt>
      <trkpt lat="59.9634874" lon="17.7698184">
        <ele>23.6896</ele>
        <time>2013-04-28T11:30:34Z</time>
      </trkpt>
      <trkpt lat="59.9634919" lon="17.7697133">
        <ele>23.6896</ele>
        <time>2013-04-28T11:30:35Z</time>
      </trkpt>
      <trkpt lat="59.963503" lon="17.769607">
        <ele>23.6896</ele>
        <time>2013-04-28T11:30:36Z</time>
      </trkpt>
      <trkpt lat="59.9635212" lon="17.7694946">
        <ele>23.6896</ele>
        <time>2013-04-28T11:30:37Z</time>
      </trkpt>
      <trkpt lat="59.9635476" lon="17.7693857">
        <ele>23.6896</ele>
        <time>2013-04-28T11:30:38Z</time>
      </trkpt>
      <trkpt lat="59.9635762" lon="17.7692751">
        <ele>23.6896</ele>
        <time>2013-04-28T11:30:39Z</time>
      </trkpt>
      <trkpt lat="59.9636075" lon="17.7691709">
        <ele>23.209</ele>
        <time>2013-04-28T11:30:40Z</time>
      </trkpt>
      <trkpt lat="59.9636398" lon="17.7690688">
        <ele>23.6896</ele>
        <time>2013-04-28T11:30:41Z</time>
      </trkpt>
      <trkpt lat="59.9636709" lon="17.7689631">
        <ele>24.1703</ele>
        <time>2013-04-28T11:30:42Z</time>
      </trkpt>
      <trkpt lat="59.963702" lon="17.7688586">
        <ele>24.1703</ele>
        <time>2013-04-28T11:30:43Z</time>
      </trkpt>
      <trkpt lat="59.9637346" lon="17.7687548">
        <ele>24.651</ele>
        <time>2013-04-28T11:30:44Z</time>
      </trkpt>
      <trkpt lat="59.9637687" lon="17.7686513">
        <ele>25.1317</ele>
        <time>2013-04-28T11:30:45Z</time>
      </trkpt>
      <trkpt lat="59.9638017" lon="17.7685618">
        <ele>25.6123</ele>
        <time>2013-04-28T11:30:46Z</time>
      </trkpt>
      <trkpt lat="59.9638371" lon="17.768469">
        <ele>26.5736</ele>
        <time>2013-04-28T11:30:47Z</time>
      </trkpt>
      <trkpt lat="59.9638676" lon="17.7683696">
        <ele>27.0543</ele>
        <time>2013-04-28T11:30:48Z</time>
      </trkpt>
      <trkpt lat="59.9638963" lon="17.7682585">
        <ele>28.0155</ele>
        <time>2013-04-28T11:30:49Z</time>
      </trkpt>
      <trkpt lat="59.9639226" lon="17.7681493">
        <ele>28.0155</ele>
        <time>2013-04-28T11:30:50Z</time>
      </trkpt>
      <trkpt lat="59.9639475" lon="17.7680413">
        <ele>28.4962</ele>
        <time>2013-04-28T11:30:51Z</time>
      </trkpt>
      <trkpt lat="59.9639713" lon="17.7679364">
        <ele>29.4575</ele>
        <time>2013-04-28T11:30:52Z</time>
      </trkpt>
      <trkpt lat="59.9639935" lon="17.7678294">
        <ele>29.9381</ele>
        <time>2013-04-28T11:30:53Z</time>
      </trkpt>
      <trkpt lat="59.9640132" lon="17.7677278">
        <ele>29.9381</ele>
        <time>2013-04-28T11:30:54Z</time>
      </trkpt>
      <trkpt lat="59.9640298" lon="17.7676159">
        <ele>30.4188</ele>
        <time>2013-04-28T11:30:55Z</time>
      </trkpt>
      <trkpt lat="59.9640468" lon="17.767506">
        <ele>30.4188</ele>
        <time>2013-04-28T11:30:56Z</time>
      </trkpt>
      <trkpt lat="59.9640617" lon="17.7673964">
        <ele>31.3801</ele>
        <time>2013-04-28T11:30:57Z</time>
      </trkpt>
      <trkpt lat="59.9640743" lon="17.7672821">
        <ele>31.3801</ele>
        <time>2013-04-28T11:30:58Z</time>
      </trkpt>
      <trkpt lat="59.9640837" lon="17.7671678">
        <ele>31.3801</ele>
        <time>2013-04-28T11:30:59Z</time>
      </trkpt>
      <trkpt lat="59.9640902" lon="17.7670497">
        <ele>31.8607</ele>
        <time>2013-04-28T11:31:00Z</time>
      </trkpt>
      <trkpt lat="59.9640938" lon="17.7669368">
        <ele>31.8607</ele>
        <time>2013-04-28T11:31:01Z</time>
      </trkpt>
      <trkpt lat="59.9640946" lon="17.7668221">
        <ele>32.3416</ele>
        <time>2013-04-28T11:31:02Z</time>
      </trkpt>
      <trkpt lat="59.9640957" lon="17.7667046">
        <ele>32.8223</ele>
        <time>2013-04-28T11:31:03Z</time>
      </trkpt>
      <trkpt lat="59.9640956" lon="17.766582">
        <ele>32.3416</ele>
        <time>2013-04-28T11:31:04Z</time>
      </trkpt>
      <trkpt lat="59.9640966" lon="17.7664588">
        <ele>32.3416</ele>
        <time>2013-04-28T11:31:05Z</time>
      </trkpt>
      <trkpt lat="59.9640998" lon="17.7663359">
        <ele>31.8607</ele>
        <time>2013-04-28T11:31:06Z</time>
      </trkpt>
      <trkpt lat="59.9641065" lon="17.7662059">
        <ele>31.3801</ele>
        <time>2013-04-28T11:31:07Z</time>
      </trkpt>
      <trkpt lat="59.9641101" lon="17.7660712">
        <ele>31.3801</ele>
        <time>2013-04-28T11:31:08Z</time>
      </trkpt>
      <trkpt lat="59.9641147" lon="17.7659288">
        <ele>30.8995</ele>
        <time>2013-04-28T11:31:09Z</time>
      </trkpt>
      <trkpt lat="59.9641226" lon="17.7657783">
        <ele>30.8995</ele>
        <time>2013-04-28T11:31:10Z</time>
      </trkpt>
      <trkpt lat="59.9641315" lon="17.7656178">
        <ele>30.8995</ele>
        <time>2013-04-28T11:31:11Z</time>
      </trkpt>
      <trkpt lat="59.9641113" lon="17.7654034">
        <ele>30.8995</ele>
        <time>2013-04-28T11:31:12Z</time>
      </trkpt>
      <trkpt lat="59.9641225" lon="17.7652092">
        <ele>30.8995</ele>
        <time>2013-04-28T11:31:13Z</time>
      </trkpt>
      <trkpt lat="59.9641562" lon="17.7650313">
        <ele>30.8995</ele>
        <time>2013-04-28T11:31:14Z</time>
      </trkpt>
      <trkpt lat="59.964197" lon="17.7648744">
        <ele>30.4188</ele>
        <time>2013-04-28T11:31:15Z</time>
      </trkpt>
      <trkpt lat="59.9642421" lon="17.7647244">
        <ele>29.9381</ele>
        <time>2013-04-28T11:31:16Z</time>
      </trkpt>
      <trkpt lat="59.9642852" lon="17.7645674">
        <ele>29.9381</ele>
        <time>2013-04-28T11:31:17Z</time>
      </trkpt>
      <trkpt lat="59.9643318" lon="17.7644177">
        <ele>29.4575</ele>
        <time>2013-04-28T11:31:18Z</time>
      </trkpt>
      <trkpt lat="59.9643715" lon="17.7642617">
        <ele>29.4575</ele>
        <time>2013-04-28T11:31:19Z</time>
      </trkpt>
      <trkpt lat="59.9644095" lon="17.7641027">
        <ele>29.4575</ele>
        <time>2013-04-28T11:31:20Z</time>
      </trkpt>
      <trkpt lat="59.9644457" lon="17.7639433">
        <ele>29.4575</ele>
        <time>2013-04-28T11:31:21Z</time>
      </trkpt>
      <trkpt lat="59.9644826" lon="17.7637867">
        <ele>29.4575</ele>
        <time>2013-04-28T11:31:22Z</time>
      </trkpt>
      <trkpt lat="59.9645177" lon="17.7636304">
        <ele>28.9769</ele>
        <time>2013-04-28T11:31:23Z</time>
      </trkpt>
      <trkpt lat="59.964556" lon="17.7634732">
        <ele>28.4962</ele>
        <time>2013-04-28T11:31:24Z</time>
      </trkpt>
      <trkpt lat="59.9645958" lon="17.7633241">
        <ele>28.0155</ele>
        <time>2013-04-28T11:31:25Z</time>
      </trkpt>
      <trkpt lat="59.9646333" lon="17.763174">
        <ele>28.4962</ele>
        <time>2013-04-28T11:31:26Z</time>
      </trkpt>
      <trkpt lat="59.964671" lon="17.7630272">
        <ele>28.4962</ele>
        <time>2013-04-28T11:31:27Z</time>
      </trkpt>
      <trkpt lat="59.9647126" lon="17.762887">
        <ele>28.0155</ele>
        <time>2013-04-28T11:31:28Z</time>
      </trkpt>
      <trkpt lat="59.9647562" lon="17.7627482">
        <ele>28.0155</ele>
        <time>2013-04-28T11:31:29Z</time>
      </trkpt>
      <trkpt lat="59.9648016" lon="17.7626071">
        <ele>28.0155</ele>
        <time>2013-04-28T11:31:30Z</time>
      </trkpt>
      <trkpt lat="59.9648504" lon="17.7624683">
        <ele>28.0155</ele>
        <time>2013-04-28T11:31:31Z</time>
      </trkpt>
      <trkpt lat="59.9649005" lon="17.7623287">
        <ele>28.0155</ele>
        <time>2013-04-28T11:31:32Z</time>
      </trkpt>
      <trkpt lat="59.964952" lon="17.7621906">
        <ele>28.0155</ele>
        <time>2013-04-28T11:31:33Z</time>
      </trkpt>
      <trkpt lat="59.9650058" lon="17.7620559">
        <ele>28.0155</ele>
        <time>2013-04-28T11:31:34Z</time>
      </trkpt>
      <trkpt lat="59.9650607" lon="17.7619236">
        <ele>28.0155</ele>
        <time>2013-04-28T11:31:35Z</time>
      </trkpt>
      <trkpt lat="59.9651143" lon="17.7617898">
        <ele>27.5349</ele>
        <time>2013-04-28T11:31:36Z</time>
      </trkpt>
      <trkpt lat="59.9651666" lon="17.7616541">
        <ele>27.5349</ele>
        <time>2013-04-28T11:31:37Z</time>
      </trkpt>
      <trkpt lat="59.965217" lon="17.7615132">
        <ele>27.0543</ele>
        <time>2013-04-28T11:31:38Z</time>
      </trkpt>
      <trkpt lat="59.9652684" lon="17.7613717">
        <ele>26.5736</ele>
        <time>2013-04-28T11:31:39Z</time>
      </trkpt>
      <trkpt lat="59.9653207" lon="17.7612272">
        <ele>26.0929</ele>
        <time>2013-04-28T11:31:40Z</time>
      </trkpt>
      <trkpt lat="59.9653757" lon="17.7610854">
        <ele>26.0929</ele>
        <time>2013-04-28T11:31:41Z</time>
      </trkpt>
      <trkpt lat="59.9654384" lon="17.7609491">
        <ele>26.0929</ele>
        <time>2013-04-28T11:31:42Z</time>
      </trkpt>
      <trkpt lat="59.9655041" lon="17.7608215">
        <ele>26.5736</ele>
        <time>2013-04-28T11:31:43Z</time>
      </trkpt>
      <trkpt lat="59.9655754" lon="17.760703">
        <ele>26.5736</ele>
        <time>2013-04-28T11:31:44Z</time>
      </trkpt>
      <trkpt lat="59.9656464" lon="17.7605814">
        <ele>26.0929</ele>
        <time>2013-04-28T11:31:45Z</time>
      </trkpt>
      <trkpt lat="59.9657165" lon="17.7604538">
        <ele>26.0929</ele>
        <time>2013-04-28T11:31:46Z</time>
      </trkpt>
      <trkpt lat="59.9657824" lon="17.7603234">
        <ele>26.5736</ele>
        <time>2013-04-28T11:31:47Z</time>
      </trkpt>
      <trkpt lat="59.9658542" lon="17.7601914">
        <ele>26.5736</ele>
        <time>2013-04-28T11:31:48Z</time>
      </trkpt>
      <trkpt lat="59.9659204" lon="17.7600443">
        <ele>27.0543</ele>
        <time>2013-04-28T11:31:49Z</time>
      </trkpt>
      <trkpt lat="59.9659947" lon="17.7599136">
        <ele>26.5736</ele>
        <time>2013-04-28T11:31:50Z</time>
      </trkpt>
      <trkpt lat="59.9660709" lon="17.7597946">
        <ele>27.0543</ele>
        <time>2013-04-28T11:31:51Z</time>
      </trkpt>
      <trkpt lat="59.9661453" lon="17.7596749">
        <ele>27.5349</ele>
        <time>2013-04-28T11:31:52Z</time>
      </trkpt>
      <trkpt lat="59.9662225" lon="17.7595608">
        <ele>28.4962</ele>
        <time>2013-04-28T11:31:53Z</time>
      </trkpt>
      <trkpt lat="59.9662915" lon="17.7594329">
        <ele>28.9769</ele>
        <time>2013-04-28T11:31:54Z</time>
      </trkpt>
      <trkpt lat="59.9663651" lon="17.7593153">
        <ele>29.4575</ele>
        <time>2013-04-28T11:31:55Z</time>
      </trkpt>
      <trkpt lat="59.9664422" lon="17.7592107">
        <ele>29.4575</ele>
        <time>2013-04-28T11:31:56Z</time>
      </trkpt>
      <trkpt lat="59.9665197" lon="17.759106">
        <ele>29.9381</ele>
        <time>2013-04-28T11:31:57Z</time>
      </trkpt>
      <trkpt lat="59.9665997" lon="17.7590074">
        <ele>30.4188</ele>
        <time>2013-04-28T11:31:58Z</time>
      </trkpt>
      <trkpt lat="59.9666836" lon="17.7589185">
        <ele>30.8995</ele>
        <time>2013-04-28T11:31:59Z</time>
      </trkpt>
      <trkpt lat="59.966768" lon="17.7588336">
        <ele>30.8995</ele>
        <time>2013-04-28T11:32:00Z</time>
      </trkpt>
      <trkpt lat="59.966853" lon="17.7587518">
        <ele>31.3801</ele>
        <time>2013-04-28T11:32:01Z</time>
      </trkpt>
      <trkpt lat="59.9669362" lon="17.7586677">
        <ele>31.3801</ele>
        <time>2013-04-28T11:32:02Z</time>
      </trkpt>
      <trkpt lat="59.9670213" lon="17.7585923">
        <ele>31.3801</ele>
        <time>2013-04-28T11:32:03Z</time>
      </trkpt>
      <trkpt lat="59.9671061" lon="17.7585215">
        <ele>31.3801</ele>
        <time>2013-04-28T11:32:04Z</time>
      </trkpt>
      <trkpt lat="59.9671906" lon="17.7584511">
        <ele>31.3801</ele>
        <time>2013-04-28T11:32:05Z</time>
      </trkpt>
      <trkpt lat="59.9672731" lon="17.7583767">
        <ele>31.3801</ele>
        <time>2013-04-28T11:32:06Z</time>
      </trkpt>
      <trkpt lat="59.9673537" lon="17.7582995">
        <ele>31.8607</ele>
        <time>2013-04-28T11:32:07Z</time>
      </trkpt>
      <trkpt lat="59.9674336" lon="17.7582259">
        <ele>31.8607</ele>
        <time>2013-04-28T11:32:08Z</time>
      </trkpt>
      <trkpt lat="59.9675127" lon="17.758156">
        <ele>31.8607</ele>
        <time>2013-04-28T11:32:09Z</time>
      </trkpt>
      <trkpt lat="59.9675909" lon="17.7580828">
        <ele>31.3801</ele>
        <time>2013-04-28T11:32:10Z</time>
      </trkpt>
      <trkpt lat="59.9676681" lon="17.7580016">
        <ele>31.3801</ele>
        <time>2013-04-28T11:32:11Z</time>
      </trkpt>
      <trkpt lat="59.967746" lon="17.7579182">
        <ele>31.3801</ele>
        <time>2013-04-28T11:32:12Z</time>
      </trkpt>
      <trkpt lat="59.9678228" lon="17.7578317">
        <ele>31.3801</ele>
        <time>2013-04-28T11:32:13Z</time>
      </trkpt>
      <trkpt lat="59.9678993" lon="17.7577468">
        <ele>31.8607</ele>
        <time>2013-04-28T11:32:14Z</time>
      </trkpt>
      <trkpt lat="59.967975" lon="17.7576575">
        <ele>31.8607</ele>
        <time>2013-04-28T11:32:15Z</time>
      </trkpt>
      <trkpt lat="59.968048" lon="17.7575655">
        <ele>31.8607</ele>
        <time>2013-04-28T11:32:16Z</time>
      </trkpt>
      <trkpt lat="59.9681188" lon="17.7574734">
        <ele>31.8607</ele>
        <time>2013-04-28T11:32:17Z</time>
      </trkpt>
      <trkpt lat="59.9681806" lon="17.7573614">
        <ele>32.3416</ele>
        <time>2013-04-28T11:32:18Z</time>
      </trkpt>
      <trkpt lat="59.9682449" lon="17.7572646">
        <ele>31.8607</ele>
        <time>2013-04-28T11:32:19Z</time>
      </trkpt>
      <trkpt lat="59.968305" lon="17.7571733">
        <ele>31.8607</ele>
        <time>2013-04-28T11:32:20Z</time>
      </trkpt>
      <trkpt lat="59.9683656" lon="17.7570759">
        <ele>31.8607</ele>
        <time>2013-04-28T11:32:21Z</time>
      </trkpt>
      <trkpt lat="59.968428" lon="17.7569796">
        <ele>31.8607</ele>
        <time>2013-04-28T11:32:22Z</time>
      </trkpt>
      <trkpt lat="59.9684933" lon="17.7568843">
        <ele>31.8607</ele>
        <time>2013-04-28T11:32:23Z</time>
      </trkpt>
      <trkpt lat="59.9685604" lon="17.7567867">
        <ele>31.8607</ele>
        <time>2013-04-28T11:32:24Z</time>
      </trkpt>
      <trkpt lat="59.968625" lon="17.7566859">
        <ele>31.8607</ele>
        <time>2013-04-28T11:32:25Z</time>
      </trkpt>
      <trkpt lat="59.9686851" lon="17.7565828">
        <ele>31.8607</ele>
        <time>2013-04-28T11:32:26Z</time>
      </trkpt>
      <trkpt lat="59.9687417" lon="17.7564783">
        <ele>31.3801</ele>
        <time>2013-04-28T11:32:27Z</time>
      </trkpt>
      <trkpt lat="59.9687971" lon="17.7563733">
        <ele>31.3801</ele>
        <time>2013-04-28T11:32:28Z</time>
      </trkpt>
      <trkpt lat="59.968851" lon="17.7562647">
        <ele>30.8995</ele>
        <time>2013-04-28T11:32:29Z</time>
      </trkpt>
      <trkpt lat="59.9689043" lon="17.7561517">
        <ele>30.4188</ele>
        <time>2013-04-28T11:32:30Z</time>
      </trkpt>
      <trkpt lat="59.9689595" lon="17.7560379">
        <ele>29.9381</ele>
        <time>2013-04-28T11:32:31Z</time>
      </trkpt>
      <trkpt lat="59.9690165" lon="17.7559253">
        <ele>29.4575</ele>
        <time>2013-04-28T11:32:32Z</time>
      </trkpt>
      <trkpt lat="59.9690742" lon="17.7558105">
        <ele>28.9769</ele>
        <time>2013-04-28T11:32:33Z</time>
      </trkpt>
      <trkpt lat="59.969131" lon="17.7556928">
        <ele>28.9769</ele>
        <time>2013-04-28T11:32:34Z</time>
      </trkpt>
      <trkpt lat="59.9691871" lon="17.7555723">
        <ele>28.4962</ele>
        <time>2013-04-28T11:32:35Z</time>
      </trkpt>
      <trkpt lat="59.9692431" lon="17.7554509">
        <ele>28.0155</ele>
        <time>2013-04-28T11:32:36Z</time>
      </trkpt>
      <trkpt lat="59.969298" lon="17.7553278">
        <ele>27.5349</ele>
        <time>2013-04-28T11:32:37Z</time>
      </trkpt>
      <trkpt lat="59.9693535" lon="17.7552076">
        <ele>27.5349</ele>
        <time>2013-04-28T11:32:38Z</time>
      </trkpt>
      <trkpt lat="59.9694088" lon="17.7550874">
        <ele>27.0543</ele>
        <time>2013-04-28T11:32:39Z</time>
      </trkpt>
      <trkpt lat="59.9694648" lon="17.7549696">
        <ele>27.0543</ele>
        <time>2013-04-28T11:32:40Z</time>
      </trkpt>
      <trkpt lat="59.9695217" lon="17.7548551">
        <ele>26.5736</ele>
        <time>2013-04-28T11:32:41Z</time>
      </trkpt>
      <trkpt lat="59.9695781" lon="17.7547402">
        <ele>26.5736</ele>
        <time>2013-04-28T11:32:42Z</time>
      </trkpt>
      <trkpt lat="59.969635" lon="17.7546258">
        <ele>26.5736</ele>
        <time>2013-04-28T11:32:43Z</time>
      </trkpt>
      <trkpt lat="59.9696922" lon="17.7545138">
        <ele>26.0929</ele>
        <time>2013-04-28T11:32:44Z</time>
      </trkpt>
      <trkpt lat="59.9697481" lon="17.754401">
        <ele>26.0929</ele>
        <time>2013-04-28T11:32:45Z</time>
      </trkpt>
      <trkpt lat="59.9698036" lon="17.7542844">
        <ele>25.6123</ele>
        <time>2013-04-28T11:32:46Z</time>
      </trkpt>
      <trkpt lat="59.9698609" lon="17.7541663">
        <ele>25.6123</ele>
        <time>2013-04-28T11:32:47Z</time>
      </trkpt>
      <trkpt lat="59.9699191" lon="17.7540471">
        <ele>25.1317</ele>
        <time>2013-04-28T11:32:48Z</time>
      </trkpt>
      <trkpt lat="59.9699761" lon="17.7539257">
        <ele>24.651</ele>
        <time>2013-04-28T11:32:49Z</time>
      </trkpt>
      <trkpt lat="59.970031" lon="17.7538006">
        <ele>24.651</ele>
        <time>2013-04-28T11:32:50Z</time>
      </trkpt>
      <trkpt lat="59.9700842" lon="17.753673">
        <ele>24.1703</ele>
        <time>2013-04-28T11:32:51Z</time>
      </trkpt>
      <trkpt lat="59.970135" lon="17.7535412">
        <ele>24.1703</ele>
        <time>2013-04-28T11:32:52Z</time>
      </trkpt>
      <trkpt lat="59.9701836" lon="17.7534069">
        <ele>23.6896</ele>
        <time>2013-04-28T11:32:53Z</time>
      </trkpt>
      <trkpt lat="59.9702314" lon="17.7532718">
        <ele>23.6896</ele>
        <time>2013-04-28T11:32:54Z</time>
      </trkpt>
      <trkpt lat="59.9702789" lon="17.7531349">
        <ele>23.6896</ele>
        <time>2013-04-28T11:32:55Z</time>
      </trkpt>
      <trkpt lat="59.9703252" lon="17.7529978">
        <ele>23.6896</ele>
        <time>2013-04-28T11:32:56Z</time>
      </trkpt>
      <trkpt lat="59.9703712" lon="17.7528625">
        <ele>23.6896</ele>
        <time>2013-04-28T11:32:57Z</time>
      </trkpt>
      <trkpt lat="59.9704194" lon="17.7527262">
        <ele>23.6896</ele>
        <time>2013-04-28T11:32:58Z</time>
      </trkpt>
      <trkpt lat="59.9704688" lon="17.7525967">
        <ele>23.6896</ele>
        <time>2013-04-28T11:32:59Z</time>
      </trkpt>
      <trkpt lat="59.9705236" lon="17.7524784">
        <ele>23.6896</ele>
        <time>2013-04-28T11:33:00Z</time>
      </trkpt>
      <trkpt lat="59.9705807" lon="17.7523667">
        <ele>23.6896</ele>
        <time>2013-04-28T11:33:01Z</time>
      </trkpt>
      <trkpt lat="59.9706395" lon="17.752262">
        <ele>23.6896</ele>
        <time>2013-04-28T11:33:02Z</time>
      </trkpt>
      <trkpt lat="59.9707034" lon="17.7521493">
        <ele>24.1703</ele>
        <time>2013-04-28T11:33:03Z</time>
      </trkpt>
      <trkpt lat="59.9707575" lon="17.752057">
        <ele>24.1703</ele>
        <time>2013-04-28T11:33:04Z</time>
      </trkpt>
      <trkpt lat="59.970813" lon="17.7519672">
        <ele>24.1703</ele>
        <time>2013-04-28T11:33:05Z</time>
      </trkpt>
      <trkpt lat="59.9708734" lon="17.7518773">
        <ele>23.6896</ele>
        <time>2013-04-28T11:33:06Z</time>
      </trkpt>
      <trkpt lat="59.9709397" lon="17.7517902">
        <ele>23.6896</ele>
        <time>2013-04-28T11:33:07Z</time>
      </trkpt>
      <trkpt lat="59.9710079" lon="17.7517056">
        <ele>23.6896</ele>
        <time>2013-04-28T11:33:08Z</time>
      </trkpt>
      <trkpt lat="59.9710804" lon="17.7516289">
        <ele>23.6896</ele>
        <time>2013-04-28T11:33:09Z</time>
      </trkpt>
      <trkpt lat="59.971154" lon="17.7515532">
        <ele>23.209</ele>
        <time>2013-04-28T11:33:10Z</time>
      </trkpt>
      <trkpt lat="59.9712201" lon="17.7514441">
        <ele>23.6896</ele>
        <time>2013-04-28T11:33:11Z</time>
      </trkpt>
      <trkpt lat="59.9712916" lon="17.7513666">
        <ele>24.1703</ele>
        <time>2013-04-28T11:33:12Z</time>
      </trkpt>
      <trkpt lat="59.9713602" lon="17.7512908">
        <ele>24.1703</ele>
        <time>2013-04-28T11:33:13Z</time>
      </trkpt>
      <trkpt lat="59.9714069" lon="17.7511826">
        <ele>26.0929</ele>
        <time>2013-04-28T11:33:14Z</time>
      </trkpt>
      <trkpt lat="59.971461" lon="17.7510884">
        <ele>26.5736</ele>
        <time>2013-04-28T11:33:15Z</time>
      </trkpt>
      <trkpt lat="59.9715305" lon="17.7510068">
        <ele>27.0543</ele>
        <time>2013-04-28T11:33:16Z</time>
      </trkpt>
      <trkpt lat="59.9716031" lon="17.7509162">
        <ele>27.0543</ele>
        <time>2013-04-28T11:33:17Z</time>
      </trkpt>
      <trkpt lat="59.9716715" lon="17.750834">
        <ele>27.0543</ele>
        <time>2013-04-28T11:33:18Z</time>
      </trkpt>
      <trkpt lat="59.9717381" lon="17.7507424">
        <ele>26.5736</ele>
        <time>2013-04-28T11:33:19Z</time>
      </trkpt>
      <trkpt lat="59.9718015" lon="17.7506403">
        <ele>26.0929</ele>
        <time>2013-04-28T11:33:20Z</time>
      </trkpt>
      <trkpt lat="59.971858" lon="17.7505326">
        <ele>26.5736</ele>
        <time>2013-04-28T11:33:21Z</time>
      </trkpt>
      <trkpt lat="59.9719132" lon="17.7504277">
        <ele>26.0929</ele>
        <time>2013-04-28T11:33:22Z</time>
      </trkpt>
      <trkpt lat="59.9719686" lon="17.75032">
        <ele>26.0929</ele>
        <time>2013-04-28T11:33:23Z</time>
      </trkpt>
      <trkpt lat="59.9720194" lon="17.750203">
        <ele>27.0543</ele>
        <time>2013-04-28T11:33:24Z</time>
      </trkpt>
      <trkpt lat="59.9720696" lon="17.7500968">
        <ele>27.5349</ele>
        <time>2013-04-28T11:33:25Z</time>
      </trkpt>
      <trkpt lat="59.9721223" lon="17.7499911">
        <ele>28.0155</ele>
        <time>2013-04-28T11:33:26Z</time>
      </trkpt>
      <trkpt lat="59.9721741" lon="17.7498782">
        <ele>28.4962</ele>
        <time>2013-04-28T11:33:27Z</time>
      </trkpt>
      <trkpt lat="59.9722184" lon="17.7497861">
        <ele>28.4962</ele>
        <time>2013-04-28T11:33:28Z</time>
      </trkpt>
      <trkpt lat="59.972261" lon="17.7496848">
        <ele>28.9769</ele>
        <time>2013-04-28T11:33:29Z</time>
      </trkpt>
      <trkpt lat="59.9723066" lon="17.749584">
        <ele>29.9381</ele>
        <time>2013-04-28T11:33:30Z</time>
      </trkpt>
      <trkpt lat="59.9723514" lon="17.7494874">
        <ele>30.8995</ele>
        <time>2013-04-28T11:33:31Z</time>
      </trkpt>
      <trkpt lat="59.9723977" lon="17.7493865">
        <ele>31.3801</ele>
        <time>2013-04-28T11:33:32Z</time>
      </trkpt>
      <trkpt lat="59.9724403" lon="17.7492838">
        <ele>32.3416</ele>
        <time>2013-04-28T11:33:33Z</time>
      </trkpt>
      <trkpt lat="59.972482" lon="17.7491856">
        <ele>31.8607</ele>
        <time>2013-04-28T11:33:34Z</time>
      </trkpt>
      <trkpt lat="59.9725314" lon="17.749082">
        <ele>31.8607</ele>
        <time>2013-04-28T11:33:35Z</time>
      </trkpt>
      <trkpt lat="59.9725807" lon="17.7489748">
        <ele>32.3416</ele>
        <time>2013-04-28T11:33:36Z</time>
      </trkpt>
      <trkpt lat="59.9726332" lon="17.7488645">
        <ele>32.3416</ele>
        <time>2013-04-28T11:33:37Z</time>
      </trkpt>
      <trkpt lat="59.9726861" lon="17.7487374">
        <ele>32.8223</ele>
        <time>2013-04-28T11:33:38Z</time>
      </trkpt>
      <trkpt lat="59.9727376" lon="17.7486159">
        <ele>33.3029</ele>
        <time>2013-04-28T11:33:39Z</time>
      </trkpt>
      <trkpt lat="59.9727851" lon="17.7484952">
        <ele>33.7834</ele>
        <time>2013-04-28T11:33:40Z</time>
      </trkpt>
      <trkpt lat="59.9728342" lon="17.7483791">
        <ele>33.3029</ele>
        <time>2013-04-28T11:33:41Z</time>
      </trkpt>
      <trkpt lat="59.9728943" lon="17.7482624">
        <ele>32.8223</ele>
        <time>2013-04-28T11:33:42Z</time>
      </trkpt>
      <trkpt lat="59.9729598" lon="17.7481506">
        <ele>32.8223</ele>
        <time>2013-04-28T11:33:43Z</time>
      </trkpt>
      <trkpt lat="59.9730283" lon="17.7480506">
        <ele>33.3029</ele>
        <time>2013-04-28T11:33:44Z</time>
      </trkpt>
      <trkpt lat="59.9730971" lon="17.7479616">
        <ele>33.3029</ele>
        <time>2013-04-28T11:33:45Z</time>
      </trkpt>
      <trkpt lat="59.9731668" lon="17.7478762">
        <ele>33.3029</ele>
        <time>2013-04-28T11:33:46Z</time>
      </trkpt>
      <trkpt lat="59.9732348" lon="17.7477901">
        <ele>33.7834</ele>
        <time>2013-04-28T11:33:47Z</time>
      </trkpt>
      <trkpt lat="59.9733062" lon="17.7477092">
        <ele>33.7834</ele>
        <time>2013-04-28T11:33:48Z</time>
      </trkpt>
      <trkpt lat="59.9733793" lon="17.7476332">
        <ele>34.2642</ele>
        <time>2013-04-28T11:33:49Z</time>
      </trkpt>
      <trkpt lat="59.9734498" lon="17.7475569">
        <ele>34.2642</ele>
        <time>2013-04-28T11:33:50Z</time>
      </trkpt>
      <trkpt lat="59.9735201" lon="17.7474824">
        <ele>34.7449</ele>
        <time>2013-04-28T11:33:51Z</time>
      </trkpt>
      <trkpt lat="59.9735901" lon="17.7474136">
        <ele>35.2255</ele>
        <time>2013-04-28T11:33:52Z</time>
      </trkpt>
      <trkpt lat="59.9736564" lon="17.7473397">
        <ele>35.7061</ele>
        <time>2013-04-28T11:33:53Z</time>
      </trkpt>
      <trkpt lat="59.9737214" lon="17.7472659">
        <ele>36.1868</ele>
        <time>2013-04-28T11:33:54Z</time>
      </trkpt>
      <trkpt lat="59.9737859" lon="17.7471921">
        <ele>36.6675</ele>
        <time>2013-04-28T11:33:55Z</time>
      </trkpt>
      <trkpt lat="59.9738502" lon="17.7471208">
        <ele>36.6675</ele>
        <time>2013-04-28T11:33:56Z</time>
      </trkpt>
      <trkpt lat="59.9739145" lon="17.7470533">
        <ele>36.1868</ele>
        <time>2013-04-28T11:33:57Z</time>
      </trkpt>
      <trkpt lat="59.9739796" lon="17.746982">
        <ele>35.7061</ele>
        <time>2013-04-28T11:33:58Z</time>
      </trkpt>
      <trkpt lat="59.9740433" lon="17.7469067">
        <ele>35.2255</ele>
        <time>2013-04-28T11:33:59Z</time>
      </trkpt>
      <trkpt lat="59.9741052" lon="17.7468261">
        <ele>35.2255</ele>
        <time>2013-04-28T11:34:00Z</time>
      </trkpt>
      <trkpt lat="59.9741663" lon="17.7467441">
        <ele>34.7449</ele>
        <time>2013-04-28T11:34:01Z</time>
      </trkpt>
      <trkpt lat="59.9742293" lon="17.7466589">
        <ele>35.2255</ele>
        <time>2013-04-28T11:34:02Z</time>
      </trkpt>
      <trkpt lat="59.9742937" lon="17.7465798">
        <ele>34.7449</ele>
        <time>2013-04-28T11:34:03Z</time>
      </trkpt>
      <trkpt lat="59.9743544" lon="17.7465054">
        <ele>34.2642</ele>
        <time>2013-04-28T11:34:04Z</time>
      </trkpt>
      <trkpt lat="59.9744132" lon="17.7464278">
        <ele>34.2642</ele>
        <time>2013-04-28T11:34:05Z</time>
      </trkpt>
      <trkpt lat="59.9744707" lon="17.7463478">
        <ele>33.7834</ele>
        <time>2013-04-28T11:34:06Z</time>
      </trkpt>
      <trkpt lat="59.9745257" lon="17.7462692">
        <ele>33.3029</ele>
        <time>2013-04-28T11:34:07Z</time>
      </trkpt>
      <trkpt lat="59.9745786" lon="17.7461879">
        <ele>33.3029</ele>
        <time>2013-04-28T11:34:08Z</time>
      </trkpt>
      <trkpt lat="59.9746299" lon="17.746105">
        <ele>33.3029</ele>
        <time>2013-04-28T11:34:09Z</time>
      </trkpt>
      <trkpt lat="59.9746794" lon="17.7460225">
        <ele>32.8223</ele>
        <time>2013-04-28T11:34:10Z</time>
      </trkpt>
      <trkpt lat="59.9747267" lon="17.7459382">
        <ele>32.3416</ele>
        <time>2013-04-28T11:34:11Z</time>
      </trkpt>
      <trkpt lat="59.9747755" lon="17.7458055">
        <ele>31.3801</ele>
        <time>2013-04-28T11:34:12Z</time>
      </trkpt>
      <trkpt lat="59.9748262" lon="17.7456822">
        <ele>30.8995</ele>
        <time>2013-04-28T11:34:13Z</time>
      </trkpt>
      <trkpt lat="59.9748712" lon="17.7455654">
        <ele>29.9381</ele>
        <time>2013-04-28T11:34:14Z</time>
      </trkpt>
      <trkpt lat="59.9749132" lon="17.7454456">
        <ele>29.4575</ele>
        <time>2013-04-28T11:34:15Z</time>
      </trkpt>
      <trkpt lat="59.974956" lon="17.7453233">
        <ele>28.9769</ele>
        <time>2013-04-28T11:34:16Z</time>
      </trkpt>
      <trkpt lat="59.974998" lon="17.7451913">
        <ele>28.4962</ele>
        <time>2013-04-28T11:34:17Z</time>
      </trkpt>
      <trkpt lat="59.9750386" lon="17.7450548">
        <ele>28.0155</ele>
        <time>2013-04-28T11:34:18Z</time>
      </trkpt>
      <trkpt lat="59.975077" lon="17.7449315">
        <ele>27.0543</ele>
        <time>2013-04-28T11:34:19Z</time>
      </trkpt>
      <trkpt lat="59.9751176" lon="17.7447914">
        <ele>26.5736</ele>
        <time>2013-04-28T11:34:20Z</time>
      </trkpt>
      <trkpt lat="59.9751562" lon="17.7446466">
        <ele>26.0929</ele>
        <time>2013-04-28T11:34:21Z</time>
      </trkpt>
      <trkpt lat="59.9751935" lon="17.7445013">
        <ele>25.6123</ele>
        <time>2013-04-28T11:34:22Z</time>
      </trkpt>
      <trkpt lat="59.9752275" lon="17.7443522">
        <ele>25.1317</ele>
        <time>2013-04-28T11:34:23Z</time>
      </trkpt>
      <trkpt lat="59.9752595" lon="17.7442032">
        <ele>25.1317</ele>
        <time>2013-04-28T11:34:24Z</time>
      </trkpt>
      <trkpt lat="59.9752898" lon="17.7440546">
        <ele>24.651</ele>
        <time>2013-04-28T11:34:25Z</time>
      </trkpt>
      <trkpt lat="59.9753198" lon="17.7439096">
        <ele>24.651</ele>
        <time>2013-04-28T11:34:26Z</time>
      </trkpt>
      <trkpt lat="59.9753487" lon="17.7437657">
        <ele>24.1703</ele>
        <time>2013-04-28T11:34:27Z</time>
      </trkpt>
      <trkpt lat="59.9753773" lon="17.7436247">
        <ele>23.6896</ele>
        <time>2013-04-28T11:34:28Z</time>
      </trkpt>
      <trkpt lat="59.9754053" lon="17.7434832">
        <ele>23.6896</ele>
        <time>2013-04-28T11:34:29Z</time>
      </trkpt>
      <trkpt lat="59.9754338" lon="17.7433379">
        <ele>23.209</ele>
        <time>2013-04-28T11:34:30Z</time>
      </trkpt>
      <trkpt lat="59.9754644" lon="17.7431951">
        <ele>23.209</ele>
        <time>2013-04-28T11:34:31Z</time>
      </trkpt>
      <trkpt lat="59.9754992" lon="17.7430549">
        <ele>23.209</ele>
        <time>2013-04-28T11:34:32Z</time>
      </trkpt>
      <trkpt lat="59.9755362" lon="17.742918">
        <ele>23.209</ele>
        <time>2013-04-28T11:34:33Z</time>
      </trkpt>
      <trkpt lat="59.9755756" lon="17.742789">
        <ele>22.7283</ele>
        <time>2013-04-28T11:34:34Z</time>
      </trkpt>
      <trkpt lat="59.9756155" lon="17.7426613">
        <ele>22.7283</ele>
        <time>2013-04-28T11:34:35Z</time>
      </trkpt>
      <trkpt lat="59.9756527" lon="17.7425271">
        <ele>22.7283</ele>
        <time>2013-04-28T11:34:36Z</time>
      </trkpt>
      <trkpt lat="59.9756879" lon="17.7423874">
        <ele>22.7283</ele>
        <time>2013-04-28T11:34:37Z</time>
      </trkpt>
      <trkpt lat="59.9757223" lon="17.7422453">
        <ele>22.7283</ele>
        <time>2013-04-28T11:34:38Z</time>
      </trkpt>
      <trkpt lat="59.9757576" lon="17.7421029">
        <ele>22.2476</ele>
        <time>2013-04-28T11:34:39Z</time>
      </trkpt>
      <trkpt lat="59.9757893" lon="17.7419613">
        <ele>22.2476</ele>
        <time>2013-04-28T11:34:40Z</time>
      </trkpt>
      <trkpt lat="59.9758202" lon="17.741817">
        <ele>22.2476</ele>
        <time>2013-04-28T11:34:41Z</time>
      </trkpt>
      <trkpt lat="59.9758516" lon="17.7416738">
        <ele>22.2476</ele>
        <time>2013-04-28T11:34:42Z</time>
      </trkpt>
      <trkpt lat="59.9758874" lon="17.7415321">
        <ele>21.767</ele>
        <time>2013-04-28T11:34:43Z</time>
      </trkpt>
      <trkpt lat="59.9759238" lon="17.7413868">
        <ele>20.8057</ele>
        <time>2013-04-28T11:34:44Z</time>
      </trkpt>
      <trkpt lat="59.9759586" lon="17.741236">
        <ele>20.8057</ele>
        <time>2013-04-28T11:34:45Z</time>
      </trkpt>
      <trkpt lat="59.9759962" lon="17.7410885">
        <ele>20.8057</ele>
        <time>2013-04-28T11:34:46Z</time>
      </trkpt>
      <trkpt lat="59.9760345" lon="17.7409409">
        <ele>20.325</ele>
        <time>2013-04-28T11:34:47Z</time>
      </trkpt>
      <trkpt lat="59.9760741" lon="17.7407949">
        <ele>20.325</ele>
        <time>2013-04-28T11:34:48Z</time>
      </trkpt>
      <trkpt lat="59.9761164" lon="17.7406486">
        <ele>19.8444</ele>
        <time>2013-04-28T11:34:49Z</time>
      </trkpt>
      <trkpt lat="59.9761626" lon="17.7405069">
        <ele>19.8444</ele>
        <time>2013-04-28T11:34:50Z</time>
      </trkpt>
      <trkpt lat="59.9762108" lon="17.7403648">
        <ele>19.8444</ele>
        <time>2013-04-28T11:34:51Z</time>
      </trkpt>
      <trkpt lat="59.97626" lon="17.7402247">
        <ele>19.3638</ele>
        <time>2013-04-28T11:34:52Z</time>
      </trkpt>
      <trkpt lat="59.9763086" lon="17.7400833">
        <ele>19.3638</ele>
        <time>2013-04-28T11:34:53Z</time>
      </trkpt>
      <trkpt lat="59.9763579" lon="17.7399382">
        <ele>18.8831</ele>
        <time>2013-04-28T11:34:54Z</time>
      </trkpt>
      <trkpt lat="59.9764107" lon="17.7397972">
        <ele>18.8831</ele>
        <time>2013-04-28T11:34:55Z</time>
      </trkpt>
      <trkpt lat="59.9764725" lon="17.7396735">
        <ele>18.8831</ele>
        <time>2013-04-28T11:34:56Z</time>
      </trkpt>
      <trkpt lat="59.9765475" lon="17.7395677">
        <ele>18.8831</ele>
        <time>2013-04-28T11:34:57Z</time>
      </trkpt>
      <trkpt lat="59.9766293" lon="17.73948">
        <ele>19.3638</ele>
        <time>2013-04-28T11:34:58Z</time>
      </trkpt>
      <trkpt lat="59.9767132" lon="17.7394154">
        <ele>19.8444</ele>
        <time>2013-04-28T11:34:59Z</time>
      </trkpt>
      <trkpt lat="59.9767972" lon="17.7393733">
        <ele>20.325</ele>
        <time>2013-04-28T11:35:00Z</time>
      </trkpt>
      <trkpt lat="59.9768797" lon="17.7393408">
        <ele>21.2864</ele>
        <time>2013-04-28T11:35:01Z</time>
      </trkpt>
      <trkpt lat="59.9769625" lon="17.7393174">
        <ele>21.2864</ele>
        <time>2013-04-28T11:35:02Z</time>
      </trkpt>
      <trkpt lat="59.9770423" lon="17.7392919">
        <ele>21.767</ele>
        <time>2013-04-28T11:35:03Z</time>
      </trkpt>
      <trkpt lat="59.9771189" lon="17.739255">
        <ele>22.2476</ele>
        <time>2013-04-28T11:35:04Z</time>
      </trkpt>
      <trkpt lat="59.9771957" lon="17.7392097">
        <ele>22.7283</ele>
        <time>2013-04-28T11:35:05Z</time>
      </trkpt>
      <trkpt lat="59.9772723" lon="17.7391641">
        <ele>23.209</ele>
        <time>2013-04-28T11:35:06Z</time>
      </trkpt>
      <trkpt lat="59.97735" lon="17.7391308">
        <ele>22.7283</ele>
        <time>2013-04-28T11:35:07Z</time>
      </trkpt>
      <trkpt lat="59.9774281" lon="17.7390974">
        <ele>23.209</ele>
        <time>2013-04-28T11:35:08Z</time>
      </trkpt>
      <trkpt lat="59.9775049" lon="17.7390652">
        <ele>23.6896</ele>
        <time>2013-04-28T11:35:09Z</time>
      </trkpt>
      <trkpt lat="59.9775794" lon="17.739043">
        <ele>24.1703</ele>
        <time>2013-04-28T11:35:10Z</time>
      </trkpt>
      <trkpt lat="59.977653" lon="17.7390317">
        <ele>25.1317</ele>
        <time>2013-04-28T11:35:11Z</time>
      </trkpt>
      <trkpt lat="59.9777242" lon="17.7390335">
        <ele>26.0929</ele>
        <time>2013-04-28T11:35:12Z</time>
      </trkpt>
      <trkpt lat="59.9777923" lon="17.7390472">
        <ele>27.0543</ele>
        <time>2013-04-28T11:35:13Z</time>
      </trkpt>
      <trkpt lat="59.9778591" lon="17.7390724">
        <ele>27.0543</ele>
        <time>2013-04-28T11:35:14Z</time>
      </trkpt>
      <trkpt lat="59.9779239" lon="17.7391032">
        <ele>28.0155</ele>
        <time>2013-04-28T11:35:15Z</time>
      </trkpt>
      <trkpt lat="59.9779882" lon="17.7391352">
        <ele>28.0155</ele>
        <time>2013-04-28T11:35:16Z</time>
      </trkpt>
      <trkpt lat="59.978058" lon="17.7391973">
        <ele>29.4575</ele>
        <time>2013-04-28T11:35:17Z</time>
      </trkpt>
      <trkpt lat="59.9781186" lon="17.7392304">
        <ele>29.9381</ele>
        <time>2013-04-28T11:35:18Z</time>
      </trkpt>
      <trkpt lat="59.9781684" lon="17.7392733">
        <ele>30.8995</ele>
        <time>2013-04-28T11:35:19Z</time>
      </trkpt>
      <trkpt lat="59.9782238" lon="17.7392756">
        <ele>31.3801</ele>
        <time>2013-04-28T11:35:20Z</time>
      </trkpt>
      <trkpt lat="59.9782803" lon="17.7392833">
        <ele>32.3416</ele>
        <time>2013-04-28T11:35:21Z</time>
      </trkpt>
      <trkpt lat="59.9783393" lon="17.7392925">
        <ele>33.3029</ele>
        <time>2013-04-28T11:35:22Z</time>
      </trkpt>
      <trkpt lat="59.978393" lon="17.7393061">
        <ele>33.7834</ele>
        <time>2013-04-28T11:35:23Z</time>
      </trkpt>
      <trkpt lat="59.9784517" lon="17.73932">
        <ele>34.2642</ele>
        <time>2013-04-28T11:35:24Z</time>
      </trkpt>
      <trkpt lat="59.9785195" lon="17.7393267">
        <ele>34.2642</ele>
        <time>2013-04-28T11:35:25Z</time>
      </trkpt>
      <trkpt lat="59.9785848" lon="17.739331">
        <ele>34.2642</ele>
        <time>2013-04-28T11:35:26Z</time>
      </trkpt>
      <trkpt lat="59.9786504" lon="17.7393393">
        <ele>34.7449</ele>
        <time>2013-04-28T11:35:27Z</time>
      </trkpt>
    </trkseg>
  </trk>
</gpx>